<?xml version="1.0" encoding="UTF-8" standalone="no" ?>
<gpx xmlns="http://www.topografix.com/GPX/1/1" xmlns:xsi="http://www.w3.org/2001/XMLSchema-instance" xsi:schemaLocation="http://www.topografix.com/GPX/1/1 http://www.topografix.com/GPX/1/1/gpx.xsd" version="1.1" creator="VisuGPX - https://www.visugpx.com">
  <metadata>
    <name>VTT_2014-09-03_Guarrigue Castelnau de Guers</name>
    <desc><![CDATA[Superbes lumières et paysages]]></desc>
  </metadata>
  <trk>
    <name><![CDATA[VTT_2014-09-03_Guarrigue Castelnau de Guers_1]]></name>
    <trkseg>
      <trkpt lat="43.4532" lon="3.42074">
        <ele>69</ele>
        <time>2014-09-03T16:22:07.000Z</time>
      </trkpt>
      <trkpt lat="43.45322" lon="3.42063">
        <ele>74</ele>
        <time>2014-09-03T16:22:31.000Z</time>
      </trkpt>
      <trkpt lat="43.45326" lon="3.42052">
        <ele>75</ele>
        <time>2014-09-03T16:22:35.000Z</time>
      </trkpt>
      <trkpt lat="43.45329" lon="3.42044">
        <ele>76</ele>
        <time>2014-09-03T16:22:37.000Z</time>
      </trkpt>
      <trkpt lat="43.45332" lon="3.42038">
        <ele>74</ele>
        <time>2014-09-03T16:22:39.000Z</time>
      </trkpt>
      <trkpt lat="43.45338" lon="3.42038">
        <ele>70</ele>
        <time>2014-09-03T16:22:43.000Z</time>
      </trkpt>
      <trkpt lat="43.45338" lon="3.42038">
        <ele>70</ele>
        <time>2014-09-03T16:22:45.000Z</time>
      </trkpt>
      <trkpt lat="43.45338" lon="3.42038">
        <ele>70</ele>
        <time>2014-09-03T16:22:47.000Z</time>
      </trkpt>
      <trkpt lat="43.45344" lon="3.42047">
        <ele>71</ele>
        <time>2014-09-03T16:22:49.000Z</time>
      </trkpt>
      <trkpt lat="43.45352" lon="3.4206">
        <ele>71</ele>
        <time>2014-09-03T16:22:53.000Z</time>
      </trkpt>
      <trkpt lat="43.45358" lon="3.42067">
        <ele>71</ele>
        <time>2014-09-03T16:22:55.000Z</time>
      </trkpt>
      <trkpt lat="43.45364" lon="3.42074">
        <ele>70</ele>
        <time>2014-09-03T16:22:57.000Z</time>
      </trkpt>
      <trkpt lat="43.45369" lon="3.42083">
        <ele>69</ele>
        <time>2014-09-03T16:22:59.000Z</time>
      </trkpt>
      <trkpt lat="43.45375" lon="3.42092">
        <ele>69</ele>
        <time>2014-09-03T16:23:01.000Z</time>
      </trkpt>
      <trkpt lat="43.45383" lon="3.42102">
        <ele>68</ele>
        <time>2014-09-03T16:23:03.000Z</time>
      </trkpt>
      <trkpt lat="43.4539" lon="3.42111">
        <ele>68</ele>
        <time>2014-09-03T16:23:05.000Z</time>
      </trkpt>
      <trkpt lat="43.45395" lon="3.4212">
        <ele>68</ele>
        <time>2014-09-03T16:23:07.000Z</time>
      </trkpt>
      <trkpt lat="43.45402" lon="3.42128">
        <ele>71</ele>
        <time>2014-09-03T16:23:09.000Z</time>
      </trkpt>
      <trkpt lat="43.45409" lon="3.42134">
        <ele>71</ele>
        <time>2014-09-03T16:23:11.000Z</time>
      </trkpt>
      <trkpt lat="43.45416" lon="3.4214">
        <ele>74</ele>
        <time>2014-09-03T16:23:13.000Z</time>
      </trkpt>
      <trkpt lat="43.4542" lon="3.42145">
        <ele>75</ele>
        <time>2014-09-03T16:23:15.000Z</time>
      </trkpt>
      <trkpt lat="43.45427" lon="3.42156">
        <ele>74</ele>
        <time>2014-09-03T16:23:17.000Z</time>
      </trkpt>
      <trkpt lat="43.45433" lon="3.42168">
        <ele>72</ele>
        <time>2014-09-03T16:23:19.000Z</time>
      </trkpt>
      <trkpt lat="43.45439" lon="3.42176">
        <ele>73</ele>
        <time>2014-09-03T16:23:21.000Z</time>
      </trkpt>
      <trkpt lat="43.45449" lon="3.42185">
        <ele>73</ele>
        <time>2014-09-03T16:23:23.000Z</time>
      </trkpt>
      <trkpt lat="43.45457" lon="3.42196">
        <ele>79</ele>
        <time>2014-09-03T16:23:27.000Z</time>
      </trkpt>
      <trkpt lat="43.45458" lon="3.42207">
        <ele>76</ele>
        <time>2014-09-03T16:23:29.000Z</time>
      </trkpt>
      <trkpt lat="43.45455" lon="3.42219">
        <ele>72</ele>
        <time>2014-09-03T16:23:31.000Z</time>
      </trkpt>
      <trkpt lat="43.45451" lon="3.42225">
        <ele>72</ele>
        <time>2014-09-03T16:23:33.000Z</time>
      </trkpt>
      <trkpt lat="43.45448" lon="3.42233">
        <ele>72</ele>
        <time>2014-09-03T16:23:35.000Z</time>
      </trkpt>
      <trkpt lat="43.45448" lon="3.42233">
        <ele>72</ele>
        <time>2014-09-03T16:23:37.000Z</time>
      </trkpt>
      <trkpt lat="43.45454" lon="3.42246">
        <ele>70</ele>
        <time>2014-09-03T16:23:39.000Z</time>
      </trkpt>
      <trkpt lat="43.45458" lon="3.42253">
        <ele>70</ele>
        <time>2014-09-03T16:23:41.000Z</time>
      </trkpt>
      <trkpt lat="43.45458" lon="3.42253">
        <ele>70</ele>
        <time>2014-09-03T16:23:43.000Z</time>
      </trkpt>
      <trkpt lat="43.45454" lon="3.42264">
        <ele>70</ele>
        <time>2014-09-03T16:23:45.000Z</time>
      </trkpt>
      <trkpt lat="43.45454" lon="3.42264">
        <ele>70</ele>
        <time>2014-09-03T16:23:47.000Z</time>
      </trkpt>
      <trkpt lat="43.45448" lon="3.42275">
        <ele>72</ele>
        <time>2014-09-03T16:23:49.000Z</time>
      </trkpt>
      <trkpt lat="43.45439" lon="3.42286">
        <ele>73</ele>
        <time>2014-09-03T16:23:53.000Z</time>
      </trkpt>
      <trkpt lat="43.45431" lon="3.42291">
        <ele>72</ele>
        <time>2014-09-03T16:23:55.000Z</time>
      </trkpt>
      <trkpt lat="43.45425" lon="3.42298">
        <ele>73</ele>
        <time>2014-09-03T16:23:57.000Z</time>
      </trkpt>
      <trkpt lat="43.45423" lon="3.42307">
        <ele>73</ele>
        <time>2014-09-03T16:23:59.000Z</time>
      </trkpt>
      <trkpt lat="43.45423" lon="3.42315">
        <ele>73</ele>
        <time>2014-09-03T16:24:01.000Z</time>
      </trkpt>
      <trkpt lat="43.45428" lon="3.42324">
        <ele>72</ele>
        <time>2014-09-03T16:24:03.000Z</time>
      </trkpt>
      <trkpt lat="43.45435" lon="3.42332">
        <ele>71</ele>
        <time>2014-09-03T16:24:05.000Z</time>
      </trkpt>
      <trkpt lat="43.45442" lon="3.4234">
        <ele>70</ele>
        <time>2014-09-03T16:24:07.000Z</time>
      </trkpt>
      <trkpt lat="43.45448" lon="3.42348">
        <ele>69</ele>
        <time>2014-09-03T16:24:09.000Z</time>
      </trkpt>
      <trkpt lat="43.45454" lon="3.42357">
        <ele>69</ele>
        <time>2014-09-03T16:24:11.000Z</time>
      </trkpt>
      <trkpt lat="43.45459" lon="3.42365">
        <ele>70</ele>
        <time>2014-09-03T16:24:13.000Z</time>
      </trkpt>
      <trkpt lat="43.45464" lon="3.42373">
        <ele>71</ele>
        <time>2014-09-03T16:24:15.000Z</time>
      </trkpt>
      <trkpt lat="43.4547" lon="3.42382">
        <ele>70</ele>
        <time>2014-09-03T16:24:17.000Z</time>
      </trkpt>
      <trkpt lat="43.45475" lon="3.42392">
        <ele>70</ele>
        <time>2014-09-03T16:24:19.000Z</time>
      </trkpt>
      <trkpt lat="43.4548" lon="3.42402">
        <ele>67</ele>
        <time>2014-09-03T16:24:21.000Z</time>
      </trkpt>
      <trkpt lat="43.4549" lon="3.42415">
        <ele>68</ele>
        <time>2014-09-03T16:24:23.000Z</time>
      </trkpt>
      <trkpt lat="43.45498" lon="3.4242">
        <ele>70</ele>
        <time>2014-09-03T16:24:25.000Z</time>
      </trkpt>
      <trkpt lat="43.45505" lon="3.42426">
        <ele>72</ele>
        <time>2014-09-03T16:24:27.000Z</time>
      </trkpt>
      <trkpt lat="43.45512" lon="3.42434">
        <ele>73</ele>
        <time>2014-09-03T16:24:29.000Z</time>
      </trkpt>
      <trkpt lat="43.45519" lon="3.42445">
        <ele>72</ele>
        <time>2014-09-03T16:24:31.000Z</time>
      </trkpt>
      <trkpt lat="43.45527" lon="3.42452">
        <ele>72</ele>
        <time>2014-09-03T16:24:33.000Z</time>
      </trkpt>
      <trkpt lat="43.45534" lon="3.42458">
        <ele>71</ele>
        <time>2014-09-03T16:24:35.000Z</time>
      </trkpt>
      <trkpt lat="43.45541" lon="3.42463">
        <ele>71</ele>
        <time>2014-09-03T16:24:37.000Z</time>
      </trkpt>
      <trkpt lat="43.45547" lon="3.42467">
        <ele>70</ele>
        <time>2014-09-03T16:24:39.000Z</time>
      </trkpt>
      <trkpt lat="43.45554" lon="3.42469">
        <ele>71</ele>
        <time>2014-09-03T16:24:41.000Z</time>
      </trkpt>
      <trkpt lat="43.45563" lon="3.42471">
        <ele>68</ele>
        <time>2014-09-03T16:24:43.000Z</time>
      </trkpt>
      <trkpt lat="43.45571" lon="3.42474">
        <ele>69</ele>
        <time>2014-09-03T16:24:45.000Z</time>
      </trkpt>
      <trkpt lat="43.4558" lon="3.42476">
        <ele>69</ele>
        <time>2014-09-03T16:24:47.000Z</time>
      </trkpt>
      <trkpt lat="43.45586" lon="3.4248">
        <ele>69</ele>
        <time>2014-09-03T16:24:49.000Z</time>
      </trkpt>
      <trkpt lat="43.45595" lon="3.42478">
        <ele>67</ele>
        <time>2014-09-03T16:24:51.000Z</time>
      </trkpt>
      <trkpt lat="43.45604" lon="3.42482">
        <ele>68</ele>
        <time>2014-09-03T16:24:53.000Z</time>
      </trkpt>
      <trkpt lat="43.45613" lon="3.42482">
        <ele>73</ele>
        <time>2014-09-03T16:24:55.000Z</time>
      </trkpt>
      <trkpt lat="43.45621" lon="3.42483">
        <ele>74</ele>
        <time>2014-09-03T16:24:57.000Z</time>
      </trkpt>
      <trkpt lat="43.45628" lon="3.42484">
        <ele>75</ele>
        <time>2014-09-03T16:24:59.000Z</time>
      </trkpt>
      <trkpt lat="43.45634" lon="3.42488">
        <ele>76</ele>
        <time>2014-09-03T16:25:01.000Z</time>
      </trkpt>
      <trkpt lat="43.4564" lon="3.42491">
        <ele>74</ele>
        <time>2014-09-03T16:25:03.000Z</time>
      </trkpt>
      <trkpt lat="43.4564" lon="3.42491">
        <ele>74</ele>
        <time>2014-09-03T16:25:05.000Z</time>
      </trkpt>
      <trkpt lat="43.45648" lon="3.42495">
        <ele>73</ele>
        <time>2014-09-03T16:25:07.000Z</time>
      </trkpt>
      <trkpt lat="43.45648" lon="3.42495">
        <ele>73</ele>
        <time>2014-09-03T16:25:09.000Z</time>
      </trkpt>
      <trkpt lat="43.45648" lon="3.42495">
        <ele>73</ele>
        <time>2014-09-03T16:25:11.000Z</time>
      </trkpt>
      <trkpt lat="43.45652" lon="3.42501">
        <ele>74</ele>
        <time>2014-09-03T16:25:13.000Z</time>
      </trkpt>
      <trkpt lat="43.45652" lon="3.42501">
        <ele>74</ele>
        <time>2014-09-03T16:25:15.000Z</time>
      </trkpt>
      <trkpt lat="43.45651" lon="3.42509">
        <ele>74</ele>
        <time>2014-09-03T16:25:17.000Z</time>
      </trkpt>
      <trkpt lat="43.45646" lon="3.42518">
        <ele>76</ele>
        <time>2014-09-03T16:25:21.000Z</time>
      </trkpt>
      <trkpt lat="43.45639" lon="3.42529">
        <ele>77</ele>
        <time>2014-09-03T16:25:25.000Z</time>
      </trkpt>
      <trkpt lat="43.45633" lon="3.42535">
        <ele>76</ele>
        <time>2014-09-03T16:25:27.000Z</time>
      </trkpt>
      <trkpt lat="43.45626" lon="3.4254">
        <ele>80</ele>
        <time>2014-09-03T16:25:29.000Z</time>
      </trkpt>
      <trkpt lat="43.45619" lon="3.42546">
        <ele>80</ele>
        <time>2014-09-03T16:25:31.000Z</time>
      </trkpt>
      <trkpt lat="43.45612" lon="3.42552">
        <ele>78</ele>
        <time>2014-09-03T16:25:33.000Z</time>
      </trkpt>
      <trkpt lat="43.45604" lon="3.42558">
        <ele>78</ele>
        <time>2014-09-03T16:25:35.000Z</time>
      </trkpt>
      <trkpt lat="43.45596" lon="3.42564">
        <ele>79</ele>
        <time>2014-09-03T16:25:37.000Z</time>
      </trkpt>
      <trkpt lat="43.45588" lon="3.42571">
        <ele>79</ele>
        <time>2014-09-03T16:25:39.000Z</time>
      </trkpt>
      <trkpt lat="43.4558" lon="3.42579">
        <ele>78</ele>
        <time>2014-09-03T16:25:41.000Z</time>
      </trkpt>
      <trkpt lat="43.45573" lon="3.42586">
        <ele>76</ele>
        <time>2014-09-03T16:25:43.000Z</time>
      </trkpt>
      <trkpt lat="43.45566" lon="3.4259">
        <ele>76</ele>
        <time>2014-09-03T16:25:45.000Z</time>
      </trkpt>
      <trkpt lat="43.4556" lon="3.42594">
        <ele>77</ele>
        <time>2014-09-03T16:25:47.000Z</time>
      </trkpt>
      <trkpt lat="43.4556" lon="3.42594">
        <ele>77</ele>
        <time>2014-09-03T16:25:49.000Z</time>
      </trkpt>
      <trkpt lat="43.4554" lon="3.42603">
        <ele>78</ele>
        <time>2014-09-03T16:25:52.000Z</time>
      </trkpt>
      <trkpt lat="43.45534" lon="3.42607">
        <ele>76</ele>
        <time>2014-09-03T16:25:54.000Z</time>
      </trkpt>
      <trkpt lat="43.45527" lon="3.42612">
        <ele>75</ele>
        <time>2014-09-03T16:25:56.000Z</time>
      </trkpt>
      <trkpt lat="43.4552" lon="3.42618">
        <ele>77</ele>
        <time>2014-09-03T16:25:58.000Z</time>
      </trkpt>
      <trkpt lat="43.45514" lon="3.42624">
        <ele>80</ele>
        <time>2014-09-03T16:26:00.000Z</time>
      </trkpt>
      <trkpt lat="43.45507" lon="3.4263">
        <ele>82</ele>
        <time>2014-09-03T16:26:02.000Z</time>
      </trkpt>
      <trkpt lat="43.45499" lon="3.42635">
        <ele>80</ele>
        <time>2014-09-03T16:26:04.000Z</time>
      </trkpt>
      <trkpt lat="43.45491" lon="3.42639">
        <ele>80</ele>
        <time>2014-09-03T16:26:06.000Z</time>
      </trkpt>
      <trkpt lat="43.4548" lon="3.42645">
        <ele>78</ele>
        <time>2014-09-03T16:26:08.000Z</time>
      </trkpt>
      <trkpt lat="43.45471" lon="3.4265">
        <ele>77</ele>
        <time>2014-09-03T16:26:10.000Z</time>
      </trkpt>
      <trkpt lat="43.45462" lon="3.42655">
        <ele>80</ele>
        <time>2014-09-03T16:26:12.000Z</time>
      </trkpt>
      <trkpt lat="43.45451" lon="3.4266">
        <ele>78</ele>
        <time>2014-09-03T16:26:14.000Z</time>
      </trkpt>
      <trkpt lat="43.45442" lon="3.42665">
        <ele>78</ele>
        <time>2014-09-03T16:26:16.000Z</time>
      </trkpt>
      <trkpt lat="43.45432" lon="3.4267">
        <ele>77</ele>
        <time>2014-09-03T16:26:18.000Z</time>
      </trkpt>
      <trkpt lat="43.45423" lon="3.42673">
        <ele>79</ele>
        <time>2014-09-03T16:26:20.000Z</time>
      </trkpt>
      <trkpt lat="43.45415" lon="3.42677">
        <ele>79</ele>
        <time>2014-09-03T16:26:22.000Z</time>
      </trkpt>
      <trkpt lat="43.45406" lon="3.42681">
        <ele>80</ele>
        <time>2014-09-03T16:26:24.000Z</time>
      </trkpt>
      <trkpt lat="43.45393" lon="3.42685">
        <ele>78</ele>
        <time>2014-09-03T16:26:26.000Z</time>
      </trkpt>
      <trkpt lat="43.45384" lon="3.42689">
        <ele>79</ele>
        <time>2014-09-03T16:26:28.000Z</time>
      </trkpt>
      <trkpt lat="43.45372" lon="3.42694">
        <ele>77</ele>
        <time>2014-09-03T16:26:30.000Z</time>
      </trkpt>
      <trkpt lat="43.45364" lon="3.427">
        <ele>76</ele>
        <time>2014-09-03T16:26:32.000Z</time>
      </trkpt>
      <trkpt lat="43.45354" lon="3.427">
        <ele>74</ele>
        <time>2014-09-03T16:26:34.000Z</time>
      </trkpt>
      <trkpt lat="43.45346" lon="3.42709">
        <ele>72</ele>
        <time>2014-09-03T16:26:36.000Z</time>
      </trkpt>
      <trkpt lat="43.45337" lon="3.42718">
        <ele>74</ele>
        <time>2014-09-03T16:26:38.000Z</time>
      </trkpt>
      <trkpt lat="43.45332" lon="3.42727">
        <ele>74</ele>
        <time>2014-09-03T16:26:40.000Z</time>
      </trkpt>
      <trkpt lat="43.45329" lon="3.42739">
        <ele>73</ele>
        <time>2014-09-03T16:26:42.000Z</time>
      </trkpt>
      <trkpt lat="43.45323" lon="3.42751">
        <ele>72</ele>
        <time>2014-09-03T16:26:44.000Z</time>
      </trkpt>
      <trkpt lat="43.45317" lon="3.42762">
        <ele>69</ele>
        <time>2014-09-03T16:26:46.000Z</time>
      </trkpt>
      <trkpt lat="43.4531" lon="3.42774">
        <ele>71</ele>
        <time>2014-09-03T16:26:48.000Z</time>
      </trkpt>
      <trkpt lat="43.45306" lon="3.42789">
        <ele>69</ele>
        <time>2014-09-03T16:26:50.000Z</time>
      </trkpt>
      <trkpt lat="43.45301" lon="3.42803">
        <ele>69</ele>
        <time>2014-09-03T16:26:52.000Z</time>
      </trkpt>
      <trkpt lat="43.45296" lon="3.42818">
        <ele>69</ele>
        <time>2014-09-03T16:26:54.000Z</time>
      </trkpt>
      <trkpt lat="43.45294" lon="3.42834">
        <ele>70</ele>
        <time>2014-09-03T16:26:56.000Z</time>
      </trkpt>
      <trkpt lat="43.45292" lon="3.42851">
        <ele>69</ele>
        <time>2014-09-03T16:26:58.000Z</time>
      </trkpt>
      <trkpt lat="43.4529" lon="3.42871">
        <ele>67</ele>
        <time>2014-09-03T16:27:00.000Z</time>
      </trkpt>
      <trkpt lat="43.45288" lon="3.4289">
        <ele>67</ele>
        <time>2014-09-03T16:27:02.000Z</time>
      </trkpt>
      <trkpt lat="43.45287" lon="3.42906">
        <ele>65</ele>
        <time>2014-09-03T16:27:04.000Z</time>
      </trkpt>
      <trkpt lat="43.45287" lon="3.42926">
        <ele>65</ele>
        <time>2014-09-03T16:27:06.000Z</time>
      </trkpt>
      <trkpt lat="43.45284" lon="3.42944">
        <ele>63</ele>
        <time>2014-09-03T16:27:08.000Z</time>
      </trkpt>
      <trkpt lat="43.45283" lon="3.42961">
        <ele>62</ele>
        <time>2014-09-03T16:27:10.000Z</time>
      </trkpt>
      <trkpt lat="43.4528" lon="3.42978">
        <ele>63</ele>
        <time>2014-09-03T16:27:12.000Z</time>
      </trkpt>
      <trkpt lat="43.45277" lon="3.42995">
        <ele>62</ele>
        <time>2014-09-03T16:27:14.000Z</time>
      </trkpt>
      <trkpt lat="43.45277" lon="3.43007">
        <ele>62</ele>
        <time>2014-09-03T16:27:16.000Z</time>
      </trkpt>
      <trkpt lat="43.45271" lon="3.43014">
        <ele>61</ele>
        <time>2014-09-03T16:27:18.000Z</time>
      </trkpt>
      <trkpt lat="43.45266" lon="3.43029">
        <ele>60</ele>
        <time>2014-09-03T16:27:20.000Z</time>
      </trkpt>
      <trkpt lat="43.45265" lon="3.43043">
        <ele>60</ele>
        <time>2014-09-03T16:27:22.000Z</time>
      </trkpt>
      <trkpt lat="43.45264" lon="3.43061">
        <ele>59</ele>
        <time>2014-09-03T16:27:24.000Z</time>
      </trkpt>
      <trkpt lat="43.45263" lon="3.43075">
        <ele>60</ele>
        <time>2014-09-03T16:27:26.000Z</time>
      </trkpt>
      <trkpt lat="43.45263" lon="3.43086">
        <ele>62</ele>
        <time>2014-09-03T16:27:28.000Z</time>
      </trkpt>
      <trkpt lat="43.45263" lon="3.43097">
        <ele>63</ele>
        <time>2014-09-03T16:27:30.000Z</time>
      </trkpt>
      <trkpt lat="43.45264" lon="3.43111">
        <ele>62</ele>
        <time>2014-09-03T16:27:32.000Z</time>
      </trkpt>
      <trkpt lat="43.45265" lon="3.43121">
        <ele>64</ele>
        <time>2014-09-03T16:27:34.000Z</time>
      </trkpt>
      <trkpt lat="43.45266" lon="3.43135">
        <ele>63</ele>
        <time>2014-09-03T16:27:36.000Z</time>
      </trkpt>
      <trkpt lat="43.45264" lon="3.43145">
        <ele>63</ele>
        <time>2014-09-03T16:27:38.000Z</time>
      </trkpt>
      <trkpt lat="43.45261" lon="3.43154">
        <ele>64</ele>
        <time>2014-09-03T16:27:40.000Z</time>
      </trkpt>
      <trkpt lat="43.45257" lon="3.43163">
        <ele>65</ele>
        <time>2014-09-03T16:27:42.000Z</time>
      </trkpt>
      <trkpt lat="43.45252" lon="3.43172">
        <ele>64</ele>
        <time>2014-09-03T16:27:44.000Z</time>
      </trkpt>
      <trkpt lat="43.45249" lon="3.43185">
        <ele>63</ele>
        <time>2014-09-03T16:27:46.000Z</time>
      </trkpt>
      <trkpt lat="43.45251" lon="3.43197">
        <ele>64</ele>
        <time>2014-09-03T16:27:48.000Z</time>
      </trkpt>
      <trkpt lat="43.45253" lon="3.43209">
        <ele>63</ele>
        <time>2014-09-03T16:27:50.000Z</time>
      </trkpt>
      <trkpt lat="43.45251" lon="3.43223">
        <ele>65</ele>
        <time>2014-09-03T16:27:52.000Z</time>
      </trkpt>
      <trkpt lat="43.45248" lon="3.43237">
        <ele>64</ele>
        <time>2014-09-03T16:27:54.000Z</time>
      </trkpt>
      <trkpt lat="43.45243" lon="3.43249">
        <ele>63</ele>
        <time>2014-09-03T16:27:56.000Z</time>
      </trkpt>
      <trkpt lat="43.45237" lon="3.43261">
        <ele>63</ele>
        <time>2014-09-03T16:27:58.000Z</time>
      </trkpt>
      <trkpt lat="43.45229" lon="3.43272">
        <ele>62</ele>
        <time>2014-09-03T16:28:00.000Z</time>
      </trkpt>
      <trkpt lat="43.45219" lon="3.43283">
        <ele>63</ele>
        <time>2014-09-03T16:28:02.000Z</time>
      </trkpt>
      <trkpt lat="43.45209" lon="3.43293">
        <ele>64</ele>
        <time>2014-09-03T16:28:04.000Z</time>
      </trkpt>
      <trkpt lat="43.452" lon="3.43304">
        <ele>64</ele>
        <time>2014-09-03T16:28:06.000Z</time>
      </trkpt>
      <trkpt lat="43.45192" lon="3.43313">
        <ele>65</ele>
        <time>2014-09-03T16:28:08.000Z</time>
      </trkpt>
      <trkpt lat="43.45183" lon="3.43321">
        <ele>65</ele>
        <time>2014-09-03T16:28:10.000Z</time>
      </trkpt>
      <trkpt lat="43.45174" lon="3.43334">
        <ele>65</ele>
        <time>2014-09-03T16:28:12.000Z</time>
      </trkpt>
      <trkpt lat="43.45164" lon="3.43343">
        <ele>66</ele>
        <time>2014-09-03T16:28:14.000Z</time>
      </trkpt>
      <trkpt lat="43.45156" lon="3.43352">
        <ele>65</ele>
        <time>2014-09-03T16:28:16.000Z</time>
      </trkpt>
      <trkpt lat="43.45146" lon="3.43361">
        <ele>66</ele>
        <time>2014-09-03T16:28:18.000Z</time>
      </trkpt>
      <trkpt lat="43.45138" lon="3.43369">
        <ele>65</ele>
        <time>2014-09-03T16:28:20.000Z</time>
      </trkpt>
      <trkpt lat="43.4513" lon="3.43378">
        <ele>67</ele>
        <time>2014-09-03T16:28:22.000Z</time>
      </trkpt>
      <trkpt lat="43.45121" lon="3.43388">
        <ele>68</ele>
        <time>2014-09-03T16:28:24.000Z</time>
      </trkpt>
      <trkpt lat="43.45113" lon="3.43398">
        <ele>71</ele>
        <time>2014-09-03T16:28:26.000Z</time>
      </trkpt>
      <trkpt lat="43.45105" lon="3.43409">
        <ele>71</ele>
        <time>2014-09-03T16:28:28.000Z</time>
      </trkpt>
      <trkpt lat="43.45096" lon="3.43417">
        <ele>73</ele>
        <time>2014-09-03T16:28:30.000Z</time>
      </trkpt>
      <trkpt lat="43.45087" lon="3.4343">
        <ele>71</ele>
        <time>2014-09-03T16:28:32.000Z</time>
      </trkpt>
      <trkpt lat="43.45078" lon="3.43444">
        <ele>70</ele>
        <time>2014-09-03T16:28:34.000Z</time>
      </trkpt>
      <trkpt lat="43.4507" lon="3.43454">
        <ele>71</ele>
        <time>2014-09-03T16:28:36.000Z</time>
      </trkpt>
      <trkpt lat="43.45062" lon="3.43463">
        <ele>70</ele>
        <time>2014-09-03T16:28:38.000Z</time>
      </trkpt>
      <trkpt lat="43.45052" lon="3.43471">
        <ele>69</ele>
        <time>2014-09-03T16:28:40.000Z</time>
      </trkpt>
      <trkpt lat="43.45043" lon="3.43481">
        <ele>66</ele>
        <time>2014-09-03T16:28:42.000Z</time>
      </trkpt>
      <trkpt lat="43.45036" lon="3.43492">
        <ele>65</ele>
        <time>2014-09-03T16:28:44.000Z</time>
      </trkpt>
      <trkpt lat="43.45028" lon="3.43501">
        <ele>64</ele>
        <time>2014-09-03T16:28:46.000Z</time>
      </trkpt>
      <trkpt lat="43.45019" lon="3.43506">
        <ele>66</ele>
        <time>2014-09-03T16:28:48.000Z</time>
      </trkpt>
      <trkpt lat="43.45012" lon="3.43516">
        <ele>69</ele>
        <time>2014-09-03T16:28:50.000Z</time>
      </trkpt>
      <trkpt lat="43.45007" lon="3.43528">
        <ele>70</ele>
        <time>2014-09-03T16:28:52.000Z</time>
      </trkpt>
      <trkpt lat="43.45" lon="3.43536">
        <ele>71</ele>
        <time>2014-09-03T16:28:54.000Z</time>
      </trkpt>
      <trkpt lat="43.44994" lon="3.43546">
        <ele>70</ele>
        <time>2014-09-03T16:28:56.000Z</time>
      </trkpt>
      <trkpt lat="43.44989" lon="3.43554">
        <ele>69</ele>
        <time>2014-09-03T16:28:58.000Z</time>
      </trkpt>
      <trkpt lat="43.44984" lon="3.43566">
        <ele>67</ele>
        <time>2014-09-03T16:29:00.000Z</time>
      </trkpt>
      <trkpt lat="43.44976" lon="3.43571">
        <ele>67</ele>
        <time>2014-09-03T16:29:02.000Z</time>
      </trkpt>
      <trkpt lat="43.44972" lon="3.43578">
        <ele>68</ele>
        <time>2014-09-03T16:29:04.000Z</time>
      </trkpt>
      <trkpt lat="43.44967" lon="3.43585">
        <ele>69</ele>
        <time>2014-09-03T16:29:06.000Z</time>
      </trkpt>
      <trkpt lat="43.44962" lon="3.43591">
        <ele>69</ele>
        <time>2014-09-03T16:29:08.000Z</time>
      </trkpt>
      <trkpt lat="43.44957" lon="3.43597">
        <ele>70</ele>
        <time>2014-09-03T16:29:10.000Z</time>
      </trkpt>
      <trkpt lat="43.44951" lon="3.43604">
        <ele>72</ele>
        <time>2014-09-03T16:29:12.000Z</time>
      </trkpt>
      <trkpt lat="43.44946" lon="3.43611">
        <ele>72</ele>
        <time>2014-09-03T16:29:14.000Z</time>
      </trkpt>
      <trkpt lat="43.44941" lon="3.43617">
        <ele>73</ele>
        <time>2014-09-03T16:29:16.000Z</time>
      </trkpt>
      <trkpt lat="43.44935" lon="3.43623">
        <ele>74</ele>
        <time>2014-09-03T16:29:18.000Z</time>
      </trkpt>
      <trkpt lat="43.4493" lon="3.43629">
        <ele>74</ele>
        <time>2014-09-03T16:29:20.000Z</time>
      </trkpt>
      <trkpt lat="43.44924" lon="3.43636">
        <ele>74</ele>
        <time>2014-09-03T16:29:22.000Z</time>
      </trkpt>
      <trkpt lat="43.44918" lon="3.43642">
        <ele>73</ele>
        <time>2014-09-03T16:29:24.000Z</time>
      </trkpt>
      <trkpt lat="43.44912" lon="3.4365">
        <ele>73</ele>
        <time>2014-09-03T16:29:26.000Z</time>
      </trkpt>
      <trkpt lat="43.44905" lon="3.43657">
        <ele>73</ele>
        <time>2014-09-03T16:29:28.000Z</time>
      </trkpt>
      <trkpt lat="43.44899" lon="3.43664">
        <ele>74</ele>
        <time>2014-09-03T16:29:30.000Z</time>
      </trkpt>
      <trkpt lat="43.44892" lon="3.43672">
        <ele>74</ele>
        <time>2014-09-03T16:29:32.000Z</time>
      </trkpt>
      <trkpt lat="43.44882" lon="3.43683">
        <ele>73</ele>
        <time>2014-09-03T16:29:34.000Z</time>
      </trkpt>
      <trkpt lat="43.44874" lon="3.43693">
        <ele>73</ele>
        <time>2014-09-03T16:29:36.000Z</time>
      </trkpt>
      <trkpt lat="43.44865" lon="3.43706">
        <ele>73</ele>
        <time>2014-09-03T16:29:38.000Z</time>
      </trkpt>
      <trkpt lat="43.44855" lon="3.43718">
        <ele>73</ele>
        <time>2014-09-03T16:29:40.000Z</time>
      </trkpt>
      <trkpt lat="43.44844" lon="3.43731">
        <ele>73</ele>
        <time>2014-09-03T16:29:42.000Z</time>
      </trkpt>
      <trkpt lat="43.44833" lon="3.43746">
        <ele>72</ele>
        <time>2014-09-03T16:29:44.000Z</time>
      </trkpt>
      <trkpt lat="43.4482" lon="3.43758">
        <ele>72</ele>
        <time>2014-09-03T16:29:46.000Z</time>
      </trkpt>
      <trkpt lat="43.44807" lon="3.43772">
        <ele>72</ele>
        <time>2014-09-03T16:29:48.000Z</time>
      </trkpt>
      <trkpt lat="43.44793" lon="3.43791">
        <ele>71</ele>
        <time>2014-09-03T16:29:50.000Z</time>
      </trkpt>
      <trkpt lat="43.4478" lon="3.43807">
        <ele>71</ele>
        <time>2014-09-03T16:29:52.000Z</time>
      </trkpt>
      <trkpt lat="43.4477" lon="3.43823">
        <ele>70</ele>
        <time>2014-09-03T16:29:54.000Z</time>
      </trkpt>
      <trkpt lat="43.44759" lon="3.43836">
        <ele>69</ele>
        <time>2014-09-03T16:29:56.000Z</time>
      </trkpt>
      <trkpt lat="43.44751" lon="3.43853">
        <ele>69</ele>
        <time>2014-09-03T16:29:58.000Z</time>
      </trkpt>
      <trkpt lat="43.44742" lon="3.43869">
        <ele>68</ele>
        <time>2014-09-03T16:30:00.000Z</time>
      </trkpt>
      <trkpt lat="43.44736" lon="3.43885">
        <ele>67</ele>
        <time>2014-09-03T16:30:02.000Z</time>
      </trkpt>
      <trkpt lat="43.44727" lon="3.43899">
        <ele>67</ele>
        <time>2014-09-03T16:30:04.000Z</time>
      </trkpt>
      <trkpt lat="43.4472" lon="3.43914">
        <ele>67</ele>
        <time>2014-09-03T16:30:06.000Z</time>
      </trkpt>
      <trkpt lat="43.44712" lon="3.43927">
        <ele>67</ele>
        <time>2014-09-03T16:30:08.000Z</time>
      </trkpt>
      <trkpt lat="43.44703" lon="3.43939">
        <ele>67</ele>
        <time>2014-09-03T16:30:10.000Z</time>
      </trkpt>
      <trkpt lat="43.44696" lon="3.43952">
        <ele>68</ele>
        <time>2014-09-03T16:30:12.000Z</time>
      </trkpt>
      <trkpt lat="43.44689" lon="3.43962">
        <ele>68</ele>
        <time>2014-09-03T16:30:14.000Z</time>
      </trkpt>
      <trkpt lat="43.44678" lon="3.43988">
        <ele>68</ele>
        <time>2014-09-03T16:30:17.000Z</time>
      </trkpt>
      <trkpt lat="43.44672" lon="3.43999">
        <ele>68</ele>
        <time>2014-09-03T16:30:19.000Z</time>
      </trkpt>
      <trkpt lat="43.44664" lon="3.44012">
        <ele>68</ele>
        <time>2014-09-03T16:30:21.000Z</time>
      </trkpt>
      <trkpt lat="43.44658" lon="3.44024">
        <ele>69</ele>
        <time>2014-09-03T16:30:23.000Z</time>
      </trkpt>
      <trkpt lat="43.44651" lon="3.44037">
        <ele>69</ele>
        <time>2014-09-03T16:30:25.000Z</time>
      </trkpt>
      <trkpt lat="43.44646" lon="3.44053">
        <ele>69</ele>
        <time>2014-09-03T16:30:27.000Z</time>
      </trkpt>
      <trkpt lat="43.44642" lon="3.44065">
        <ele>68</ele>
        <time>2014-09-03T16:30:29.000Z</time>
      </trkpt>
      <trkpt lat="43.44645" lon="3.44078">
        <ele>67</ele>
        <time>2014-09-03T16:30:31.000Z</time>
      </trkpt>
      <trkpt lat="43.44653" lon="3.44083">
        <ele>67</ele>
        <time>2014-09-03T16:30:33.000Z</time>
      </trkpt>
      <trkpt lat="43.44659" lon="3.44087">
        <ele>66</ele>
        <time>2014-09-03T16:30:35.000Z</time>
      </trkpt>
      <trkpt lat="43.44666" lon="3.44091">
        <ele>66</ele>
        <time>2014-09-03T16:30:37.000Z</time>
      </trkpt>
      <trkpt lat="43.44671" lon="3.44095">
        <ele>67</ele>
        <time>2014-09-03T16:30:39.000Z</time>
      </trkpt>
      <trkpt lat="43.44682" lon="3.44096">
        <ele>67</ele>
        <time>2014-09-03T16:30:41.000Z</time>
      </trkpt>
      <trkpt lat="43.44689" lon="3.44097">
        <ele>66</ele>
        <time>2014-09-03T16:30:43.000Z</time>
      </trkpt>
      <trkpt lat="43.44699" lon="3.441">
        <ele>64</ele>
        <time>2014-09-03T16:30:45.000Z</time>
      </trkpt>
      <trkpt lat="43.44708" lon="3.44104">
        <ele>65</ele>
        <time>2014-09-03T16:30:47.000Z</time>
      </trkpt>
      <trkpt lat="43.44719" lon="3.44106">
        <ele>66</ele>
        <time>2014-09-03T16:30:49.000Z</time>
      </trkpt>
      <trkpt lat="43.44728" lon="3.44112">
        <ele>64</ele>
        <time>2014-09-03T16:30:51.000Z</time>
      </trkpt>
      <trkpt lat="43.44738" lon="3.4412">
        <ele>65</ele>
        <time>2014-09-03T16:30:53.000Z</time>
      </trkpt>
      <trkpt lat="43.44745" lon="3.44126">
        <ele>65</ele>
        <time>2014-09-03T16:30:55.000Z</time>
      </trkpt>
      <trkpt lat="43.44745" lon="3.44126">
        <ele>65</ele>
        <time>2014-09-03T16:30:58.000Z</time>
      </trkpt>
      <trkpt lat="43.44745" lon="3.44126">
        <ele>65</ele>
        <time>2014-09-03T16:31:00.000Z</time>
      </trkpt>
      <trkpt lat="43.44745" lon="3.44126">
        <ele>65</ele>
        <time>2014-09-03T16:31:02.000Z</time>
      </trkpt>
      <trkpt lat="43.44745" lon="3.44126">
        <ele>65</ele>
        <time>2014-09-03T16:31:04.000Z</time>
      </trkpt>
      <trkpt lat="43.44745" lon="3.44126">
        <ele>65</ele>
        <time>2014-09-03T16:31:06.000Z</time>
      </trkpt>
      <trkpt lat="43.44745" lon="3.44126">
        <ele>65</ele>
        <time>2014-09-03T16:31:08.000Z</time>
      </trkpt>
      <trkpt lat="43.44745" lon="3.44126">
        <ele>65</ele>
        <time>2014-09-03T16:31:10.000Z</time>
      </trkpt>
      <trkpt lat="43.44745" lon="3.44126">
        <ele>65</ele>
        <time>2014-09-03T16:31:12.000Z</time>
      </trkpt>
      <trkpt lat="43.44745" lon="3.44126">
        <ele>65</ele>
        <time>2014-09-03T16:31:14.000Z</time>
      </trkpt>
      <trkpt lat="43.44745" lon="3.44126">
        <ele>65</ele>
        <time>2014-09-03T16:31:16.000Z</time>
      </trkpt>
      <trkpt lat="43.44745" lon="3.44126">
        <ele>65</ele>
        <time>2014-09-03T16:31:18.000Z</time>
      </trkpt>
      <trkpt lat="43.44745" lon="3.44126">
        <ele>65</ele>
        <time>2014-09-03T16:31:20.000Z</time>
      </trkpt>
      <trkpt lat="43.44745" lon="3.44126">
        <ele>65</ele>
        <time>2014-09-03T16:31:22.000Z</time>
      </trkpt>
      <trkpt lat="43.44745" lon="3.44126">
        <ele>65</ele>
        <time>2014-09-03T16:31:24.000Z</time>
      </trkpt>
      <trkpt lat="43.44745" lon="3.44126">
        <ele>65</ele>
        <time>2014-09-03T16:31:26.000Z</time>
      </trkpt>
      <trkpt lat="43.44745" lon="3.44126">
        <ele>65</ele>
        <time>2014-09-03T16:31:28.000Z</time>
      </trkpt>
      <trkpt lat="43.44745" lon="3.44126">
        <ele>65</ele>
        <time>2014-09-03T16:31:30.000Z</time>
      </trkpt>
      <trkpt lat="43.44745" lon="3.44126">
        <ele>65</ele>
        <time>2014-09-03T16:31:32.000Z</time>
      </trkpt>
      <trkpt lat="43.44745" lon="3.44126">
        <ele>65</ele>
        <time>2014-09-03T16:31:34.000Z</time>
      </trkpt>
      <trkpt lat="43.44745" lon="3.44126">
        <ele>65</ele>
        <time>2014-09-03T16:31:36.000Z</time>
      </trkpt>
      <trkpt lat="43.44745" lon="3.44126">
        <ele>65</ele>
        <time>2014-09-03T16:31:38.000Z</time>
      </trkpt>
      <trkpt lat="43.44745" lon="3.44126">
        <ele>65</ele>
        <time>2014-09-03T16:31:40.000Z</time>
      </trkpt>
      <trkpt lat="43.44745" lon="3.44126">
        <ele>65</ele>
        <time>2014-09-03T16:31:42.000Z</time>
      </trkpt>
      <trkpt lat="43.44745" lon="3.44126">
        <ele>65</ele>
        <time>2014-09-03T16:31:44.000Z</time>
      </trkpt>
      <trkpt lat="43.44745" lon="3.44126">
        <ele>65</ele>
        <time>2014-09-03T16:31:46.000Z</time>
      </trkpt>
      <trkpt lat="43.44745" lon="3.44126">
        <ele>65</ele>
        <time>2014-09-03T16:31:48.000Z</time>
      </trkpt>
      <trkpt lat="43.44751" lon="3.4413">
        <ele>68</ele>
        <time>2014-09-03T16:31:58.000Z</time>
      </trkpt>
      <trkpt lat="43.44756" lon="3.44134">
        <ele>67</ele>
        <time>2014-09-03T16:32:00.000Z</time>
      </trkpt>
      <trkpt lat="43.44761" lon="3.44138">
        <ele>68</ele>
        <time>2014-09-03T16:32:02.000Z</time>
      </trkpt>
      <trkpt lat="43.44767" lon="3.44143">
        <ele>68</ele>
        <time>2014-09-03T16:32:04.000Z</time>
      </trkpt>
      <trkpt lat="43.44773" lon="3.44148">
        <ele>67</ele>
        <time>2014-09-03T16:32:06.000Z</time>
      </trkpt>
      <trkpt lat="43.44788" lon="3.44158">
        <ele>66</ele>
        <time>2014-09-03T16:32:08.000Z</time>
      </trkpt>
      <trkpt lat="43.44796" lon="3.44161">
        <ele>67</ele>
        <time>2014-09-03T16:32:10.000Z</time>
      </trkpt>
      <trkpt lat="43.44804" lon="3.44165">
        <ele>67</ele>
        <time>2014-09-03T16:32:12.000Z</time>
      </trkpt>
      <trkpt lat="43.44811" lon="3.44169">
        <ele>67</ele>
        <time>2014-09-03T16:32:14.000Z</time>
      </trkpt>
      <trkpt lat="43.44817" lon="3.44174">
        <ele>68</ele>
        <time>2014-09-03T16:32:16.000Z</time>
      </trkpt>
      <trkpt lat="43.44822" lon="3.4418">
        <ele>67</ele>
        <time>2014-09-03T16:32:18.000Z</time>
      </trkpt>
      <trkpt lat="43.44827" lon="3.44185">
        <ele>68</ele>
        <time>2014-09-03T16:32:20.000Z</time>
      </trkpt>
      <trkpt lat="43.44833" lon="3.4419">
        <ele>70</ele>
        <time>2014-09-03T16:32:22.000Z</time>
      </trkpt>
      <trkpt lat="43.44839" lon="3.44196">
        <ele>69</ele>
        <time>2014-09-03T16:32:24.000Z</time>
      </trkpt>
      <trkpt lat="43.44845" lon="3.44202">
        <ele>67</ele>
        <time>2014-09-03T16:32:26.000Z</time>
      </trkpt>
      <trkpt lat="43.44854" lon="3.4421">
        <ele>68</ele>
        <time>2014-09-03T16:32:28.000Z</time>
      </trkpt>
      <trkpt lat="43.44862" lon="3.44218">
        <ele>65</ele>
        <time>2014-09-03T16:32:30.000Z</time>
      </trkpt>
      <trkpt lat="43.44868" lon="3.44227">
        <ele>64</ele>
        <time>2014-09-03T16:32:32.000Z</time>
      </trkpt>
      <trkpt lat="43.44877" lon="3.44236">
        <ele>63</ele>
        <time>2014-09-03T16:32:34.000Z</time>
      </trkpt>
      <trkpt lat="43.44884" lon="3.44244">
        <ele>63</ele>
        <time>2014-09-03T16:32:36.000Z</time>
      </trkpt>
      <trkpt lat="43.44891" lon="3.4425">
        <ele>65</ele>
        <time>2014-09-03T16:32:38.000Z</time>
      </trkpt>
      <trkpt lat="43.44897" lon="3.44256">
        <ele>68</ele>
        <time>2014-09-03T16:32:40.000Z</time>
      </trkpt>
      <trkpt lat="43.44904" lon="3.44268">
        <ele>67</ele>
        <time>2014-09-03T16:32:42.000Z</time>
      </trkpt>
      <trkpt lat="43.44912" lon="3.44278">
        <ele>68</ele>
        <time>2014-09-03T16:32:44.000Z</time>
      </trkpt>
      <trkpt lat="43.44919" lon="3.44288">
        <ele>68</ele>
        <time>2014-09-03T16:32:46.000Z</time>
      </trkpt>
      <trkpt lat="43.44925" lon="3.44295">
        <ele>70</ele>
        <time>2014-09-03T16:32:48.000Z</time>
      </trkpt>
      <trkpt lat="43.44932" lon="3.44304">
        <ele>69</ele>
        <time>2014-09-03T16:32:50.000Z</time>
      </trkpt>
      <trkpt lat="43.44939" lon="3.44311">
        <ele>69</ele>
        <time>2014-09-03T16:32:52.000Z</time>
      </trkpt>
      <trkpt lat="43.44946" lon="3.4432">
        <ele>67</ele>
        <time>2014-09-03T16:32:54.000Z</time>
      </trkpt>
      <trkpt lat="43.4495" lon="3.44327">
        <ele>68</ele>
        <time>2014-09-03T16:32:56.000Z</time>
      </trkpt>
      <trkpt lat="43.44956" lon="3.44333">
        <ele>68</ele>
        <time>2014-09-03T16:32:58.000Z</time>
      </trkpt>
      <trkpt lat="43.44963" lon="3.44339">
        <ele>68</ele>
        <time>2014-09-03T16:33:00.000Z</time>
      </trkpt>
      <trkpt lat="43.4497" lon="3.44346">
        <ele>70</ele>
        <time>2014-09-03T16:33:02.000Z</time>
      </trkpt>
      <trkpt lat="43.44976" lon="3.44353">
        <ele>73</ele>
        <time>2014-09-03T16:33:04.000Z</time>
      </trkpt>
      <trkpt lat="43.44983" lon="3.4436">
        <ele>75</ele>
        <time>2014-09-03T16:33:06.000Z</time>
      </trkpt>
      <trkpt lat="43.4499" lon="3.44368">
        <ele>76</ele>
        <time>2014-09-03T16:33:08.000Z</time>
      </trkpt>
      <trkpt lat="43.44998" lon="3.44375">
        <ele>75</ele>
        <time>2014-09-03T16:33:10.000Z</time>
      </trkpt>
      <trkpt lat="43.4502" lon="3.4439">
        <ele>72</ele>
        <time>2014-09-03T16:33:13.000Z</time>
      </trkpt>
      <trkpt lat="43.45031" lon="3.44404">
        <ele>68</ele>
        <time>2014-09-03T16:33:16.000Z</time>
      </trkpt>
      <trkpt lat="43.45038" lon="3.44413">
        <ele>67</ele>
        <time>2014-09-03T16:33:18.000Z</time>
      </trkpt>
      <trkpt lat="43.45045" lon="3.4442">
        <ele>66</ele>
        <time>2014-09-03T16:33:20.000Z</time>
      </trkpt>
      <trkpt lat="43.45052" lon="3.44426">
        <ele>65</ele>
        <time>2014-09-03T16:33:22.000Z</time>
      </trkpt>
      <trkpt lat="43.45061" lon="3.4443">
        <ele>65</ele>
        <time>2014-09-03T16:33:24.000Z</time>
      </trkpt>
      <trkpt lat="43.4507" lon="3.44436">
        <ele>64</ele>
        <time>2014-09-03T16:33:26.000Z</time>
      </trkpt>
      <trkpt lat="43.45079" lon="3.44442">
        <ele>64</ele>
        <time>2014-09-03T16:33:28.000Z</time>
      </trkpt>
      <trkpt lat="43.45085" lon="3.44447">
        <ele>64</ele>
        <time>2014-09-03T16:33:30.000Z</time>
      </trkpt>
      <trkpt lat="43.45094" lon="3.44455">
        <ele>63</ele>
        <time>2014-09-03T16:33:32.000Z</time>
      </trkpt>
      <trkpt lat="43.451" lon="3.44461">
        <ele>62</ele>
        <time>2014-09-03T16:33:34.000Z</time>
      </trkpt>
      <trkpt lat="43.45107" lon="3.44466">
        <ele>62</ele>
        <time>2014-09-03T16:33:36.000Z</time>
      </trkpt>
      <trkpt lat="43.45116" lon="3.44473">
        <ele>63</ele>
        <time>2014-09-03T16:33:38.000Z</time>
      </trkpt>
      <trkpt lat="43.45124" lon="3.4448">
        <ele>62</ele>
        <time>2014-09-03T16:33:40.000Z</time>
      </trkpt>
      <trkpt lat="43.45131" lon="3.44486">
        <ele>63</ele>
        <time>2014-09-03T16:33:42.000Z</time>
      </trkpt>
      <trkpt lat="43.45141" lon="3.44488">
        <ele>65</ele>
        <time>2014-09-03T16:33:44.000Z</time>
      </trkpt>
      <trkpt lat="43.4515" lon="3.44493">
        <ele>64</ele>
        <time>2014-09-03T16:33:46.000Z</time>
      </trkpt>
      <trkpt lat="43.45159" lon="3.44493">
        <ele>63</ele>
        <time>2014-09-03T16:33:48.000Z</time>
      </trkpt>
      <trkpt lat="43.45169" lon="3.44492">
        <ele>63</ele>
        <time>2014-09-03T16:33:50.000Z</time>
      </trkpt>
      <trkpt lat="43.45178" lon="3.44491">
        <ele>61</ele>
        <time>2014-09-03T16:33:52.000Z</time>
      </trkpt>
      <trkpt lat="43.45188" lon="3.44489">
        <ele>61</ele>
        <time>2014-09-03T16:33:54.000Z</time>
      </trkpt>
      <trkpt lat="43.45198" lon="3.44487">
        <ele>60</ele>
        <time>2014-09-03T16:33:56.000Z</time>
      </trkpt>
      <trkpt lat="43.45207" lon="3.44485">
        <ele>61</ele>
        <time>2014-09-03T16:33:58.000Z</time>
      </trkpt>
      <trkpt lat="43.45215" lon="3.44487">
        <ele>62</ele>
        <time>2014-09-03T16:34:00.000Z</time>
      </trkpt>
      <trkpt lat="43.45222" lon="3.4449">
        <ele>62</ele>
        <time>2014-09-03T16:34:02.000Z</time>
      </trkpt>
      <trkpt lat="43.4523" lon="3.4449">
        <ele>62</ele>
        <time>2014-09-03T16:34:04.000Z</time>
      </trkpt>
      <trkpt lat="43.45239" lon="3.44489">
        <ele>63</ele>
        <time>2014-09-03T16:34:06.000Z</time>
      </trkpt>
      <trkpt lat="43.45239" lon="3.44489">
        <ele>63</ele>
        <time>2014-09-03T16:34:08.000Z</time>
      </trkpt>
      <trkpt lat="43.45247" lon="3.44487">
        <ele>64</ele>
        <time>2014-09-03T16:34:10.000Z</time>
      </trkpt>
      <trkpt lat="43.45253" lon="3.4449">
        <ele>65</ele>
        <time>2014-09-03T16:34:12.000Z</time>
      </trkpt>
      <trkpt lat="43.45261" lon="3.44492">
        <ele>65</ele>
        <time>2014-09-03T16:34:14.000Z</time>
      </trkpt>
      <trkpt lat="43.4527" lon="3.44494">
        <ele>66</ele>
        <time>2014-09-03T16:34:16.000Z</time>
      </trkpt>
      <trkpt lat="43.45278" lon="3.44496">
        <ele>65</ele>
        <time>2014-09-03T16:34:18.000Z</time>
      </trkpt>
      <trkpt lat="43.45286" lon="3.44499">
        <ele>67</ele>
        <time>2014-09-03T16:34:20.000Z</time>
      </trkpt>
      <trkpt lat="43.45296" lon="3.44502">
        <ele>70</ele>
        <time>2014-09-03T16:34:22.000Z</time>
      </trkpt>
      <trkpt lat="43.45305" lon="3.44504">
        <ele>69</ele>
        <time>2014-09-03T16:34:24.000Z</time>
      </trkpt>
      <trkpt lat="43.45314" lon="3.44504">
        <ele>69</ele>
        <time>2014-09-03T16:34:26.000Z</time>
      </trkpt>
      <trkpt lat="43.45322" lon="3.44506">
        <ele>68</ele>
        <time>2014-09-03T16:34:28.000Z</time>
      </trkpt>
      <trkpt lat="43.45329" lon="3.44511">
        <ele>71</ele>
        <time>2014-09-03T16:34:30.000Z</time>
      </trkpt>
      <trkpt lat="43.45335" lon="3.44519">
        <ele>71</ele>
        <time>2014-09-03T16:34:32.000Z</time>
      </trkpt>
      <trkpt lat="43.45341" lon="3.44526">
        <ele>71</ele>
        <time>2014-09-03T16:34:34.000Z</time>
      </trkpt>
      <trkpt lat="43.45341" lon="3.44526">
        <ele>71</ele>
        <time>2014-09-03T16:34:36.000Z</time>
      </trkpt>
      <trkpt lat="43.45348" lon="3.44534">
        <ele>70</ele>
        <time>2014-09-03T16:34:38.000Z</time>
      </trkpt>
      <trkpt lat="43.45352" lon="3.4454">
        <ele>70</ele>
        <time>2014-09-03T16:34:40.000Z</time>
      </trkpt>
      <trkpt lat="43.45358" lon="3.44545">
        <ele>70</ele>
        <time>2014-09-03T16:34:42.000Z</time>
      </trkpt>
      <trkpt lat="43.45358" lon="3.44545">
        <ele>70</ele>
        <time>2014-09-03T16:34:44.000Z</time>
      </trkpt>
      <trkpt lat="43.45364" lon="3.44556">
        <ele>69</ele>
        <time>2014-09-03T16:34:46.000Z</time>
      </trkpt>
      <trkpt lat="43.45364" lon="3.44556">
        <ele>69</ele>
        <time>2014-09-03T16:34:48.000Z</time>
      </trkpt>
      <trkpt lat="43.45368" lon="3.44565">
        <ele>68</ele>
        <time>2014-09-03T16:34:50.000Z</time>
      </trkpt>
      <trkpt lat="43.45368" lon="3.44565">
        <ele>68</ele>
        <time>2014-09-03T16:34:52.000Z</time>
      </trkpt>
      <trkpt lat="43.45368" lon="3.44565">
        <ele>68</ele>
        <time>2014-09-03T16:34:54.000Z</time>
      </trkpt>
      <trkpt lat="43.45371" lon="3.44576">
        <ele>67</ele>
        <time>2014-09-03T16:34:56.000Z</time>
      </trkpt>
      <trkpt lat="43.45371" lon="3.44576">
        <ele>67</ele>
        <time>2014-09-03T16:34:58.000Z</time>
      </trkpt>
      <trkpt lat="43.45373" lon="3.44587">
        <ele>70</ele>
        <time>2014-09-03T16:35:00.000Z</time>
      </trkpt>
      <trkpt lat="43.45379" lon="3.44599">
        <ele>75</ele>
        <time>2014-09-03T16:35:04.000Z</time>
      </trkpt>
      <trkpt lat="43.45385" lon="3.44609">
        <ele>80</ele>
        <time>2014-09-03T16:35:08.000Z</time>
      </trkpt>
      <trkpt lat="43.45385" lon="3.44609">
        <ele>80</ele>
        <time>2014-09-03T16:35:10.000Z</time>
      </trkpt>
      <trkpt lat="43.45388" lon="3.44617">
        <ele>82</ele>
        <time>2014-09-03T16:35:12.000Z</time>
      </trkpt>
      <trkpt lat="43.45388" lon="3.44617">
        <ele>82</ele>
        <time>2014-09-03T16:35:14.000Z</time>
      </trkpt>
      <trkpt lat="43.45391" lon="3.44625">
        <ele>84</ele>
        <time>2014-09-03T16:35:16.000Z</time>
      </trkpt>
      <trkpt lat="43.45391" lon="3.44625">
        <ele>84</ele>
        <time>2014-09-03T16:35:18.000Z</time>
      </trkpt>
      <trkpt lat="43.45392" lon="3.44634">
        <ele>84</ele>
        <time>2014-09-03T16:35:20.000Z</time>
      </trkpt>
      <trkpt lat="43.45392" lon="3.44634">
        <ele>84</ele>
        <time>2014-09-03T16:35:22.000Z</time>
      </trkpt>
      <trkpt lat="43.45395" lon="3.44644">
        <ele>82</ele>
        <time>2014-09-03T16:35:24.000Z</time>
      </trkpt>
      <trkpt lat="43.45402" lon="3.44652">
        <ele>85</ele>
        <time>2014-09-03T16:35:28.000Z</time>
      </trkpt>
      <trkpt lat="43.45411" lon="3.44654">
        <ele>85</ele>
        <time>2014-09-03T16:35:32.000Z</time>
      </trkpt>
      <trkpt lat="43.4542" lon="3.44657">
        <ele>85</ele>
        <time>2014-09-03T16:35:36.000Z</time>
      </trkpt>
      <trkpt lat="43.4542" lon="3.44657">
        <ele>85</ele>
        <time>2014-09-03T16:35:38.000Z</time>
      </trkpt>
      <trkpt lat="43.45426" lon="3.4466">
        <ele>88</ele>
        <time>2014-09-03T16:35:40.000Z</time>
      </trkpt>
      <trkpt lat="43.45426" lon="3.4466">
        <ele>88</ele>
        <time>2014-09-03T16:35:42.000Z</time>
      </trkpt>
      <trkpt lat="43.45433" lon="3.44663">
        <ele>88</ele>
        <time>2014-09-03T16:35:44.000Z</time>
      </trkpt>
      <trkpt lat="43.45441" lon="3.44666">
        <ele>88</ele>
        <time>2014-09-03T16:35:48.000Z</time>
      </trkpt>
      <trkpt lat="43.45449" lon="3.44671">
        <ele>90</ele>
        <time>2014-09-03T16:35:52.000Z</time>
      </trkpt>
      <trkpt lat="43.45457" lon="3.44675">
        <ele>92</ele>
        <time>2014-09-03T16:35:56.000Z</time>
      </trkpt>
      <trkpt lat="43.45464" lon="3.44676">
        <ele>91</ele>
        <time>2014-09-03T16:36:00.000Z</time>
      </trkpt>
      <trkpt lat="43.45464" lon="3.44676">
        <ele>91</ele>
        <time>2014-09-03T16:36:02.000Z</time>
      </trkpt>
      <trkpt lat="43.4547" lon="3.44679">
        <ele>91</ele>
        <time>2014-09-03T16:36:04.000Z</time>
      </trkpt>
      <trkpt lat="43.4547" lon="3.44679">
        <ele>91</ele>
        <time>2014-09-03T16:36:06.000Z</time>
      </trkpt>
      <trkpt lat="43.45477" lon="3.44684">
        <ele>91</ele>
        <time>2014-09-03T16:36:08.000Z</time>
      </trkpt>
      <trkpt lat="43.45477" lon="3.44684">
        <ele>91</ele>
        <time>2014-09-03T16:36:10.000Z</time>
      </trkpt>
      <trkpt lat="43.45482" lon="3.4469">
        <ele>91</ele>
        <time>2014-09-03T16:36:12.000Z</time>
      </trkpt>
      <trkpt lat="43.45482" lon="3.4469">
        <ele>91</ele>
        <time>2014-09-03T16:36:14.000Z</time>
      </trkpt>
      <trkpt lat="43.45489" lon="3.44693">
        <ele>91</ele>
        <time>2014-09-03T16:36:16.000Z</time>
      </trkpt>
      <trkpt lat="43.45489" lon="3.44693">
        <ele>91</ele>
        <time>2014-09-03T16:36:18.000Z</time>
      </trkpt>
      <trkpt lat="43.45493" lon="3.44699">
        <ele>93</ele>
        <time>2014-09-03T16:36:20.000Z</time>
      </trkpt>
      <trkpt lat="43.45493" lon="3.44699">
        <ele>93</ele>
        <time>2014-09-03T16:36:22.000Z</time>
      </trkpt>
      <trkpt lat="43.45493" lon="3.44699">
        <ele>93</ele>
        <time>2014-09-03T16:36:24.000Z</time>
      </trkpt>
      <trkpt lat="43.45494" lon="3.4471">
        <ele>95</ele>
        <time>2014-09-03T16:36:26.000Z</time>
      </trkpt>
      <trkpt lat="43.45494" lon="3.4471">
        <ele>95</ele>
        <time>2014-09-03T16:36:28.000Z</time>
      </trkpt>
      <trkpt lat="43.45494" lon="3.44715">
        <ele>94</ele>
        <time>2014-09-03T16:36:30.000Z</time>
      </trkpt>
      <trkpt lat="43.45494" lon="3.44719">
        <ele>93</ele>
        <time>2014-09-03T16:36:32.000Z</time>
      </trkpt>
      <trkpt lat="43.45494" lon="3.44723">
        <ele>93</ele>
        <time>2014-09-03T16:36:34.000Z</time>
      </trkpt>
      <trkpt lat="43.45494" lon="3.44723">
        <ele>93</ele>
        <time>2014-09-03T16:36:36.000Z</time>
      </trkpt>
      <trkpt lat="43.45493" lon="3.44728">
        <ele>93</ele>
        <time>2014-09-03T16:36:38.000Z</time>
      </trkpt>
      <trkpt lat="43.45493" lon="3.44732">
        <ele>92</ele>
        <time>2014-09-03T16:36:40.000Z</time>
      </trkpt>
      <trkpt lat="43.45493" lon="3.44732">
        <ele>92</ele>
        <time>2014-09-03T16:36:42.000Z</time>
      </trkpt>
      <trkpt lat="43.45493" lon="3.44732">
        <ele>92</ele>
        <time>2014-09-03T16:36:44.000Z</time>
      </trkpt>
      <trkpt lat="43.45493" lon="3.44732">
        <ele>92</ele>
        <time>2014-09-03T16:36:46.000Z</time>
      </trkpt>
      <trkpt lat="43.45494" lon="3.44727">
        <ele>93</ele>
        <time>2014-09-03T16:36:48.000Z</time>
      </trkpt>
      <trkpt lat="43.45495" lon="3.44721">
        <ele>95</ele>
        <time>2014-09-03T16:36:50.000Z</time>
      </trkpt>
      <trkpt lat="43.45495" lon="3.44716">
        <ele>95</ele>
        <time>2014-09-03T16:36:52.000Z</time>
      </trkpt>
      <trkpt lat="43.45495" lon="3.44711">
        <ele>95</ele>
        <time>2014-09-03T16:36:54.000Z</time>
      </trkpt>
      <trkpt lat="43.45496" lon="3.44706">
        <ele>95</ele>
        <time>2014-09-03T16:36:56.000Z</time>
      </trkpt>
      <trkpt lat="43.455" lon="3.44699">
        <ele>94</ele>
        <time>2014-09-03T16:36:58.000Z</time>
      </trkpt>
      <trkpt lat="43.45508" lon="3.44702">
        <ele>95</ele>
        <time>2014-09-03T16:37:02.000Z</time>
      </trkpt>
      <trkpt lat="43.45514" lon="3.44708">
        <ele>95</ele>
        <time>2014-09-03T16:37:06.000Z</time>
      </trkpt>
      <trkpt lat="43.45524" lon="3.44717">
        <ele>93</ele>
        <time>2014-09-03T16:37:10.000Z</time>
      </trkpt>
      <trkpt lat="43.45529" lon="3.44721">
        <ele>93</ele>
        <time>2014-09-03T16:37:12.000Z</time>
      </trkpt>
      <trkpt lat="43.45536" lon="3.44724">
        <ele>91</ele>
        <time>2014-09-03T16:37:14.000Z</time>
      </trkpt>
      <trkpt lat="43.45544" lon="3.44726">
        <ele>91</ele>
        <time>2014-09-03T16:37:16.000Z</time>
      </trkpt>
      <trkpt lat="43.45553" lon="3.44729">
        <ele>90</ele>
        <time>2014-09-03T16:37:18.000Z</time>
      </trkpt>
      <trkpt lat="43.45565" lon="3.4473">
        <ele>90</ele>
        <time>2014-09-03T16:37:20.000Z</time>
      </trkpt>
      <trkpt lat="43.45575" lon="3.44732">
        <ele>90</ele>
        <time>2014-09-03T16:37:22.000Z</time>
      </trkpt>
      <trkpt lat="43.45584" lon="3.44734">
        <ele>89</ele>
        <time>2014-09-03T16:37:24.000Z</time>
      </trkpt>
      <trkpt lat="43.45591" lon="3.44735">
        <ele>89</ele>
        <time>2014-09-03T16:37:26.000Z</time>
      </trkpt>
      <trkpt lat="43.456" lon="3.44733">
        <ele>87</ele>
        <time>2014-09-03T16:37:28.000Z</time>
      </trkpt>
      <trkpt lat="43.45609" lon="3.44731">
        <ele>87</ele>
        <time>2014-09-03T16:37:30.000Z</time>
      </trkpt>
      <trkpt lat="43.45617" lon="3.44731">
        <ele>85</ele>
        <time>2014-09-03T16:37:32.000Z</time>
      </trkpt>
      <trkpt lat="43.45626" lon="3.44731">
        <ele>83</ele>
        <time>2014-09-03T16:37:34.000Z</time>
      </trkpt>
      <trkpt lat="43.45635" lon="3.44731">
        <ele>82</ele>
        <time>2014-09-03T16:37:36.000Z</time>
      </trkpt>
      <trkpt lat="43.45641" lon="3.44731">
        <ele>81</ele>
        <time>2014-09-03T16:37:38.000Z</time>
      </trkpt>
      <trkpt lat="43.45641" lon="3.44731">
        <ele>81</ele>
        <time>2014-09-03T16:37:40.000Z</time>
      </trkpt>
      <trkpt lat="43.45658" lon="3.44735">
        <ele>78</ele>
        <time>2014-09-03T16:37:43.000Z</time>
      </trkpt>
      <trkpt lat="43.45666" lon="3.44739">
        <ele>78</ele>
        <time>2014-09-03T16:37:47.000Z</time>
      </trkpt>
      <trkpt lat="43.45666" lon="3.44739">
        <ele>78</ele>
        <time>2014-09-03T16:37:49.000Z</time>
      </trkpt>
      <trkpt lat="43.45666" lon="3.44739">
        <ele>78</ele>
        <time>2014-09-03T16:37:51.000Z</time>
      </trkpt>
      <trkpt lat="43.45666" lon="3.44739">
        <ele>78</ele>
        <time>2014-09-03T16:37:53.000Z</time>
      </trkpt>
      <trkpt lat="43.45666" lon="3.44739">
        <ele>78</ele>
        <time>2014-09-03T16:37:55.000Z</time>
      </trkpt>
      <trkpt lat="43.45666" lon="3.44739">
        <ele>78</ele>
        <time>2014-09-03T16:37:57.000Z</time>
      </trkpt>
      <trkpt lat="43.45666" lon="3.44739">
        <ele>78</ele>
        <time>2014-09-03T16:37:59.000Z</time>
      </trkpt>
      <trkpt lat="43.45666" lon="3.44739">
        <ele>78</ele>
        <time>2014-09-03T16:38:01.000Z</time>
      </trkpt>
      <trkpt lat="43.45666" lon="3.44739">
        <ele>78</ele>
        <time>2014-09-03T16:38:03.000Z</time>
      </trkpt>
      <trkpt lat="43.45666" lon="3.44739">
        <ele>78</ele>
        <time>2014-09-03T16:38:05.000Z</time>
      </trkpt>
      <trkpt lat="43.45666" lon="3.44739">
        <ele>78</ele>
        <time>2014-09-03T16:38:07.000Z</time>
      </trkpt>
      <trkpt lat="43.45666" lon="3.44739">
        <ele>78</ele>
        <time>2014-09-03T16:38:15.000Z</time>
      </trkpt>
      <trkpt lat="43.45678" lon="3.44731">
        <ele>70</ele>
        <time>2014-09-03T16:38:23.000Z</time>
      </trkpt>
      <trkpt lat="43.45686" lon="3.44734">
        <ele>67</ele>
        <time>2014-09-03T16:38:29.000Z</time>
      </trkpt>
      <trkpt lat="43.45686" lon="3.44734">
        <ele>67</ele>
        <time>2014-09-03T16:38:31.000Z</time>
      </trkpt>
      <trkpt lat="43.45686" lon="3.44734">
        <ele>67</ele>
        <time>2014-09-03T16:38:33.000Z</time>
      </trkpt>
      <trkpt lat="43.45686" lon="3.44734">
        <ele>67</ele>
        <time>2014-09-03T16:38:35.000Z</time>
      </trkpt>
      <trkpt lat="43.45686" lon="3.44734">
        <ele>67</ele>
        <time>2014-09-03T16:38:37.000Z</time>
      </trkpt>
      <trkpt lat="43.45686" lon="3.44734">
        <ele>67</ele>
        <time>2014-09-03T16:38:39.000Z</time>
      </trkpt>
      <trkpt lat="43.4569" lon="3.44735">
        <ele>67</ele>
        <time>2014-09-03T16:38:43.000Z</time>
      </trkpt>
      <trkpt lat="43.45694" lon="3.44736">
        <ele>65</ele>
        <time>2014-09-03T16:38:45.000Z</time>
      </trkpt>
      <trkpt lat="43.45699" lon="3.44736">
        <ele>64</ele>
        <time>2014-09-03T16:38:47.000Z</time>
      </trkpt>
      <trkpt lat="43.45704" lon="3.44736">
        <ele>63</ele>
        <time>2014-09-03T16:38:49.000Z</time>
      </trkpt>
      <trkpt lat="43.45709" lon="3.44734">
        <ele>64</ele>
        <time>2014-09-03T16:38:51.000Z</time>
      </trkpt>
      <trkpt lat="43.45717" lon="3.44728">
        <ele>64</ele>
        <time>2014-09-03T16:38:53.000Z</time>
      </trkpt>
      <trkpt lat="43.45717" lon="3.44728">
        <ele>64</ele>
        <time>2014-09-03T16:38:55.000Z</time>
      </trkpt>
      <trkpt lat="43.45723" lon="3.44727">
        <ele>64</ele>
        <time>2014-09-03T16:38:57.000Z</time>
      </trkpt>
      <trkpt lat="43.45723" lon="3.44727">
        <ele>64</ele>
        <time>2014-09-03T16:38:59.000Z</time>
      </trkpt>
      <trkpt lat="43.4573" lon="3.44733">
        <ele>64</ele>
        <time>2014-09-03T16:39:01.000Z</time>
      </trkpt>
      <trkpt lat="43.45741" lon="3.44736">
        <ele>65</ele>
        <time>2014-09-03T16:39:05.000Z</time>
      </trkpt>
      <trkpt lat="43.45748" lon="3.44739">
        <ele>66</ele>
        <time>2014-09-03T16:39:07.000Z</time>
      </trkpt>
      <trkpt lat="43.45754" lon="3.44741">
        <ele>67</ele>
        <time>2014-09-03T16:39:09.000Z</time>
      </trkpt>
      <trkpt lat="43.45761" lon="3.44743">
        <ele>66</ele>
        <time>2014-09-03T16:39:11.000Z</time>
      </trkpt>
      <trkpt lat="43.45768" lon="3.44744">
        <ele>69</ele>
        <time>2014-09-03T16:39:13.000Z</time>
      </trkpt>
      <trkpt lat="43.45774" lon="3.44746">
        <ele>70</ele>
        <time>2014-09-03T16:39:15.000Z</time>
      </trkpt>
      <trkpt lat="43.45781" lon="3.44746">
        <ele>70</ele>
        <time>2014-09-03T16:39:17.000Z</time>
      </trkpt>
      <trkpt lat="43.45788" lon="3.44745">
        <ele>71</ele>
        <time>2014-09-03T16:39:19.000Z</time>
      </trkpt>
      <trkpt lat="43.45795" lon="3.44745">
        <ele>74</ele>
        <time>2014-09-03T16:39:21.000Z</time>
      </trkpt>
      <trkpt lat="43.45795" lon="3.44745">
        <ele>74</ele>
        <time>2014-09-03T16:39:23.000Z</time>
      </trkpt>
      <trkpt lat="43.45805" lon="3.44745">
        <ele>79</ele>
        <time>2014-09-03T16:39:25.000Z</time>
      </trkpt>
      <trkpt lat="43.45812" lon="3.44747">
        <ele>75</ele>
        <time>2014-09-03T16:39:27.000Z</time>
      </trkpt>
      <trkpt lat="43.4582" lon="3.44751">
        <ele>72</ele>
        <time>2014-09-03T16:39:29.000Z</time>
      </trkpt>
      <trkpt lat="43.45828" lon="3.44756">
        <ele>73</ele>
        <time>2014-09-03T16:39:31.000Z</time>
      </trkpt>
      <trkpt lat="43.45837" lon="3.44759">
        <ele>73</ele>
        <time>2014-09-03T16:39:33.000Z</time>
      </trkpt>
      <trkpt lat="43.45847" lon="3.44762">
        <ele>71</ele>
        <time>2014-09-03T16:39:35.000Z</time>
      </trkpt>
      <trkpt lat="43.45856" lon="3.44765">
        <ele>72</ele>
        <time>2014-09-03T16:39:37.000Z</time>
      </trkpt>
      <trkpt lat="43.45864" lon="3.44767">
        <ele>73</ele>
        <time>2014-09-03T16:39:39.000Z</time>
      </trkpt>
      <trkpt lat="43.45874" lon="3.4477">
        <ele>72</ele>
        <time>2014-09-03T16:39:41.000Z</time>
      </trkpt>
      <trkpt lat="43.45892" lon="3.44775">
        <ele>71</ele>
        <time>2014-09-03T16:39:44.000Z</time>
      </trkpt>
      <trkpt lat="43.45904" lon="3.44778">
        <ele>71</ele>
        <time>2014-09-03T16:39:46.000Z</time>
      </trkpt>
      <trkpt lat="43.45914" lon="3.44786">
        <ele>73</ele>
        <time>2014-09-03T16:39:50.000Z</time>
      </trkpt>
      <trkpt lat="43.45921" lon="3.44788">
        <ele>74</ele>
        <time>2014-09-03T16:39:52.000Z</time>
      </trkpt>
      <trkpt lat="43.45927" lon="3.44791">
        <ele>73</ele>
        <time>2014-09-03T16:39:54.000Z</time>
      </trkpt>
      <trkpt lat="43.45934" lon="3.44794">
        <ele>70</ele>
        <time>2014-09-03T16:39:56.000Z</time>
      </trkpt>
      <trkpt lat="43.4594" lon="3.448">
        <ele>73</ele>
        <time>2014-09-03T16:39:58.000Z</time>
      </trkpt>
      <trkpt lat="43.45956" lon="3.44807">
        <ele>75</ele>
        <time>2014-09-03T16:40:01.000Z</time>
      </trkpt>
      <trkpt lat="43.45963" lon="3.44815">
        <ele>75</ele>
        <time>2014-09-03T16:40:03.000Z</time>
      </trkpt>
      <trkpt lat="43.45971" lon="3.44821">
        <ele>75</ele>
        <time>2014-09-03T16:40:05.000Z</time>
      </trkpt>
      <trkpt lat="43.45978" lon="3.44828">
        <ele>76</ele>
        <time>2014-09-03T16:40:07.000Z</time>
      </trkpt>
      <trkpt lat="43.4599" lon="3.44841">
        <ele>76</ele>
        <time>2014-09-03T16:40:10.000Z</time>
      </trkpt>
      <trkpt lat="43.45994" lon="3.44848">
        <ele>77</ele>
        <time>2014-09-03T16:40:12.000Z</time>
      </trkpt>
      <trkpt lat="43.46003" lon="3.44856">
        <ele>74</ele>
        <time>2014-09-03T16:40:14.000Z</time>
      </trkpt>
      <trkpt lat="43.46012" lon="3.44867">
        <ele>74</ele>
        <time>2014-09-03T16:40:17.000Z</time>
      </trkpt>
      <trkpt lat="43.46022" lon="3.44878">
        <ele>72</ele>
        <time>2014-09-03T16:40:19.000Z</time>
      </trkpt>
      <trkpt lat="43.46029" lon="3.4489">
        <ele>69</ele>
        <time>2014-09-03T16:40:21.000Z</time>
      </trkpt>
      <trkpt lat="43.46035" lon="3.449">
        <ele>70</ele>
        <time>2014-09-03T16:40:23.000Z</time>
      </trkpt>
      <trkpt lat="43.46045" lon="3.44911">
        <ele>67</ele>
        <time>2014-09-03T16:40:25.000Z</time>
      </trkpt>
      <trkpt lat="43.46055" lon="3.44923">
        <ele>65</ele>
        <time>2014-09-03T16:40:27.000Z</time>
      </trkpt>
      <trkpt lat="43.46059" lon="3.44933">
        <ele>65</ele>
        <time>2014-09-03T16:40:29.000Z</time>
      </trkpt>
      <trkpt lat="43.46063" lon="3.44943">
        <ele>63</ele>
        <time>2014-09-03T16:40:31.000Z</time>
      </trkpt>
      <trkpt lat="43.46067" lon="3.44951">
        <ele>64</ele>
        <time>2014-09-03T16:40:33.000Z</time>
      </trkpt>
      <trkpt lat="43.46071" lon="3.44959">
        <ele>66</ele>
        <time>2014-09-03T16:40:35.000Z</time>
      </trkpt>
      <trkpt lat="43.46074" lon="3.44967">
        <ele>68</ele>
        <time>2014-09-03T16:40:37.000Z</time>
      </trkpt>
      <trkpt lat="43.46078" lon="3.44974">
        <ele>70</ele>
        <time>2014-09-03T16:40:39.000Z</time>
      </trkpt>
      <trkpt lat="43.4608" lon="3.44981">
        <ele>70</ele>
        <time>2014-09-03T16:40:41.000Z</time>
      </trkpt>
      <trkpt lat="43.46083" lon="3.44991">
        <ele>67</ele>
        <time>2014-09-03T16:40:43.000Z</time>
      </trkpt>
      <trkpt lat="43.46087" lon="3.45002">
        <ele>67</ele>
        <time>2014-09-03T16:40:45.000Z</time>
      </trkpt>
      <trkpt lat="43.46093" lon="3.45012">
        <ele>67</ele>
        <time>2014-09-03T16:40:47.000Z</time>
      </trkpt>
      <trkpt lat="43.46101" lon="3.4502">
        <ele>66</ele>
        <time>2014-09-03T16:40:49.000Z</time>
      </trkpt>
      <trkpt lat="43.4611" lon="3.45026">
        <ele>67</ele>
        <time>2014-09-03T16:40:51.000Z</time>
      </trkpt>
      <trkpt lat="43.46121" lon="3.4503">
        <ele>68</ele>
        <time>2014-09-03T16:40:53.000Z</time>
      </trkpt>
      <trkpt lat="43.46131" lon="3.4504">
        <ele>70</ele>
        <time>2014-09-03T16:40:55.000Z</time>
      </trkpt>
      <trkpt lat="43.46139" lon="3.45044">
        <ele>70</ele>
        <time>2014-09-03T16:40:57.000Z</time>
      </trkpt>
      <trkpt lat="43.46144" lon="3.45051">
        <ele>68</ele>
        <time>2014-09-03T16:40:59.000Z</time>
      </trkpt>
      <trkpt lat="43.46151" lon="3.45054">
        <ele>69</ele>
        <time>2014-09-03T16:41:01.000Z</time>
      </trkpt>
      <trkpt lat="43.4616" lon="3.45058">
        <ele>70</ele>
        <time>2014-09-03T16:41:03.000Z</time>
      </trkpt>
      <trkpt lat="43.46172" lon="3.45066">
        <ele>70</ele>
        <time>2014-09-03T16:41:05.000Z</time>
      </trkpt>
      <trkpt lat="43.46182" lon="3.4508">
        <ele>67</ele>
        <time>2014-09-03T16:41:07.000Z</time>
      </trkpt>
      <trkpt lat="43.46191" lon="3.45089">
        <ele>66</ele>
        <time>2014-09-03T16:41:09.000Z</time>
      </trkpt>
      <trkpt lat="43.46197" lon="3.451">
        <ele>67</ele>
        <time>2014-09-03T16:41:11.000Z</time>
      </trkpt>
      <trkpt lat="43.46201" lon="3.45108">
        <ele>69</ele>
        <time>2014-09-03T16:41:13.000Z</time>
      </trkpt>
      <trkpt lat="43.46202" lon="3.45116">
        <ele>68</ele>
        <time>2014-09-03T16:41:15.000Z</time>
      </trkpt>
      <trkpt lat="43.46202" lon="3.45116">
        <ele>68</ele>
        <time>2014-09-03T16:41:17.000Z</time>
      </trkpt>
      <trkpt lat="43.46202" lon="3.45116">
        <ele>68</ele>
        <time>2014-09-03T16:41:19.000Z</time>
      </trkpt>
      <trkpt lat="43.46202" lon="3.45116">
        <ele>68</ele>
        <time>2014-09-03T16:41:21.000Z</time>
      </trkpt>
      <trkpt lat="43.46202" lon="3.45116">
        <ele>68</ele>
        <time>2014-09-03T16:41:23.000Z</time>
      </trkpt>
      <trkpt lat="43.46202" lon="3.45116">
        <ele>68</ele>
        <time>2014-09-03T16:41:25.000Z</time>
      </trkpt>
      <trkpt lat="43.46202" lon="3.45116">
        <ele>68</ele>
        <time>2014-09-03T16:41:27.000Z</time>
      </trkpt>
      <trkpt lat="43.46202" lon="3.45116">
        <ele>68</ele>
        <time>2014-09-03T16:41:29.000Z</time>
      </trkpt>
      <trkpt lat="43.46202" lon="3.45116">
        <ele>68</ele>
        <time>2014-09-03T16:41:31.000Z</time>
      </trkpt>
      <trkpt lat="43.46202" lon="3.45116">
        <ele>68</ele>
        <time>2014-09-03T16:41:33.000Z</time>
      </trkpt>
      <trkpt lat="43.46202" lon="3.45116">
        <ele>68</ele>
        <time>2014-09-03T16:41:35.000Z</time>
      </trkpt>
      <trkpt lat="43.46202" lon="3.45116">
        <ele>68</ele>
        <time>2014-09-03T16:41:37.000Z</time>
      </trkpt>
      <trkpt lat="43.46202" lon="3.45116">
        <ele>68</ele>
        <time>2014-09-03T16:41:39.000Z</time>
      </trkpt>
      <trkpt lat="43.46202" lon="3.45116">
        <ele>68</ele>
        <time>2014-09-03T16:41:41.000Z</time>
      </trkpt>
      <trkpt lat="43.46202" lon="3.45116">
        <ele>68</ele>
        <time>2014-09-03T16:41:43.000Z</time>
      </trkpt>
      <trkpt lat="43.46202" lon="3.45116">
        <ele>68</ele>
        <time>2014-09-03T16:41:45.000Z</time>
      </trkpt>
      <trkpt lat="43.46202" lon="3.45116">
        <ele>68</ele>
        <time>2014-09-03T16:41:47.000Z</time>
      </trkpt>
      <trkpt lat="43.46202" lon="3.45116">
        <ele>68</ele>
        <time>2014-09-03T16:41:49.000Z</time>
      </trkpt>
      <trkpt lat="43.46198" lon="3.45132">
        <ele>71</ele>
        <time>2014-09-03T16:42:03.000Z</time>
      </trkpt>
      <trkpt lat="43.46192" lon="3.45142">
        <ele>68</ele>
        <time>2014-09-03T16:42:07.000Z</time>
      </trkpt>
      <trkpt lat="43.46188" lon="3.45151">
        <ele>72</ele>
        <time>2014-09-03T16:42:11.000Z</time>
      </trkpt>
      <trkpt lat="43.46186" lon="3.45155">
        <ele>74</ele>
        <time>2014-09-03T16:42:15.000Z</time>
      </trkpt>
      <trkpt lat="43.46183" lon="3.45159">
        <ele>74</ele>
        <time>2014-09-03T16:42:17.000Z</time>
      </trkpt>
      <trkpt lat="43.4618" lon="3.45163">
        <ele>74</ele>
        <time>2014-09-03T16:42:19.000Z</time>
      </trkpt>
      <trkpt lat="43.46177" lon="3.45167">
        <ele>74</ele>
        <time>2014-09-03T16:42:21.000Z</time>
      </trkpt>
      <trkpt lat="43.46174" lon="3.45171">
        <ele>75</ele>
        <time>2014-09-03T16:42:23.000Z</time>
      </trkpt>
      <trkpt lat="43.46169" lon="3.4518">
        <ele>76</ele>
        <time>2014-09-03T16:42:25.000Z</time>
      </trkpt>
      <trkpt lat="43.46169" lon="3.4518">
        <ele>76</ele>
        <time>2014-09-03T16:42:27.000Z</time>
      </trkpt>
      <trkpt lat="43.46163" lon="3.4519">
        <ele>77</ele>
        <time>2014-09-03T16:42:29.000Z</time>
      </trkpt>
      <trkpt lat="43.46155" lon="3.45199">
        <ele>77</ele>
        <time>2014-09-03T16:42:33.000Z</time>
      </trkpt>
      <trkpt lat="43.46148" lon="3.45207">
        <ele>77</ele>
        <time>2014-09-03T16:42:37.000Z</time>
      </trkpt>
      <trkpt lat="43.46143" lon="3.45213">
        <ele>77</ele>
        <time>2014-09-03T16:42:39.000Z</time>
      </trkpt>
      <trkpt lat="43.46139" lon="3.4522">
        <ele>78</ele>
        <time>2014-09-03T16:42:41.000Z</time>
      </trkpt>
      <trkpt lat="43.46135" lon="3.45227">
        <ele>78</ele>
        <time>2014-09-03T16:42:43.000Z</time>
      </trkpt>
      <trkpt lat="43.46131" lon="3.45233">
        <ele>76</ele>
        <time>2014-09-03T16:42:45.000Z</time>
      </trkpt>
      <trkpt lat="43.46127" lon="3.45239">
        <ele>79</ele>
        <time>2014-09-03T16:42:47.000Z</time>
      </trkpt>
      <trkpt lat="43.46127" lon="3.45239">
        <ele>79</ele>
        <time>2014-09-03T16:42:49.000Z</time>
      </trkpt>
      <trkpt lat="43.46118" lon="3.4525">
        <ele>78</ele>
        <time>2014-09-03T16:42:51.000Z</time>
      </trkpt>
      <trkpt lat="43.46114" lon="3.45254">
        <ele>78</ele>
        <time>2014-09-03T16:42:53.000Z</time>
      </trkpt>
      <trkpt lat="43.4611" lon="3.4526">
        <ele>78</ele>
        <time>2014-09-03T16:42:55.000Z</time>
      </trkpt>
      <trkpt lat="43.46106" lon="3.45266">
        <ele>78</ele>
        <time>2014-09-03T16:42:57.000Z</time>
      </trkpt>
      <trkpt lat="43.461" lon="3.45269">
        <ele>77</ele>
        <time>2014-09-03T16:42:59.000Z</time>
      </trkpt>
      <trkpt lat="43.46095" lon="3.45272">
        <ele>79</ele>
        <time>2014-09-03T16:43:01.000Z</time>
      </trkpt>
      <trkpt lat="43.4609" lon="3.45279">
        <ele>79</ele>
        <time>2014-09-03T16:43:03.000Z</time>
      </trkpt>
      <trkpt lat="43.46089" lon="3.45289">
        <ele>80</ele>
        <time>2014-09-03T16:43:05.000Z</time>
      </trkpt>
      <trkpt lat="43.46092" lon="3.45299">
        <ele>82</ele>
        <time>2014-09-03T16:43:07.000Z</time>
      </trkpt>
      <trkpt lat="43.46094" lon="3.45309">
        <ele>82</ele>
        <time>2014-09-03T16:43:09.000Z</time>
      </trkpt>
      <trkpt lat="43.46096" lon="3.45319">
        <ele>79</ele>
        <time>2014-09-03T16:43:11.000Z</time>
      </trkpt>
      <trkpt lat="43.46096" lon="3.45329">
        <ele>80</ele>
        <time>2014-09-03T16:43:13.000Z</time>
      </trkpt>
      <trkpt lat="43.46093" lon="3.45337">
        <ele>80</ele>
        <time>2014-09-03T16:43:15.000Z</time>
      </trkpt>
      <trkpt lat="43.46087" lon="3.45341">
        <ele>79</ele>
        <time>2014-09-03T16:43:17.000Z</time>
      </trkpt>
      <trkpt lat="43.46082" lon="3.45344">
        <ele>80</ele>
        <time>2014-09-03T16:43:19.000Z</time>
      </trkpt>
      <trkpt lat="43.46082" lon="3.45344">
        <ele>80</ele>
        <time>2014-09-03T16:43:21.000Z</time>
      </trkpt>
      <trkpt lat="43.46074" lon="3.4535">
        <ele>80</ele>
        <time>2014-09-03T16:43:23.000Z</time>
      </trkpt>
      <trkpt lat="43.46074" lon="3.4535">
        <ele>80</ele>
        <time>2014-09-03T16:43:25.000Z</time>
      </trkpt>
      <trkpt lat="43.46066" lon="3.45356">
        <ele>81</ele>
        <time>2014-09-03T16:43:27.000Z</time>
      </trkpt>
      <trkpt lat="43.46066" lon="3.45356">
        <ele>81</ele>
        <time>2014-09-03T16:43:29.000Z</time>
      </trkpt>
      <trkpt lat="43.46058" lon="3.45365">
        <ele>78</ele>
        <time>2014-09-03T16:43:31.000Z</time>
      </trkpt>
      <trkpt lat="43.46054" lon="3.45371">
        <ele>79</ele>
        <time>2014-09-03T16:43:33.000Z</time>
      </trkpt>
      <trkpt lat="43.4605" lon="3.45377">
        <ele>78</ele>
        <time>2014-09-03T16:43:35.000Z</time>
      </trkpt>
      <trkpt lat="43.4605" lon="3.45377">
        <ele>78</ele>
        <time>2014-09-03T16:43:37.000Z</time>
      </trkpt>
      <trkpt lat="43.46043" lon="3.45381">
        <ele>83</ele>
        <time>2014-09-03T16:43:39.000Z</time>
      </trkpt>
      <trkpt lat="43.46043" lon="3.45381">
        <ele>83</ele>
        <time>2014-09-03T16:43:41.000Z</time>
      </trkpt>
      <trkpt lat="43.46037" lon="3.45389">
        <ele>84</ele>
        <time>2014-09-03T16:43:43.000Z</time>
      </trkpt>
      <trkpt lat="43.4603" lon="3.45398">
        <ele>90</ele>
        <time>2014-09-03T16:43:47.000Z</time>
      </trkpt>
      <trkpt lat="43.46022" lon="3.45403">
        <ele>88</ele>
        <time>2014-09-03T16:43:51.000Z</time>
      </trkpt>
      <trkpt lat="43.46022" lon="3.45403">
        <ele>88</ele>
        <time>2014-09-03T16:43:53.000Z</time>
      </trkpt>
      <trkpt lat="43.46015" lon="3.45409">
        <ele>90</ele>
        <time>2014-09-03T16:43:55.000Z</time>
      </trkpt>
      <trkpt lat="43.46009" lon="3.45419">
        <ele>92</ele>
        <time>2014-09-03T16:43:59.000Z</time>
      </trkpt>
      <trkpt lat="43.46003" lon="3.45428">
        <ele>90</ele>
        <time>2014-09-03T16:44:03.000Z</time>
      </trkpt>
      <trkpt lat="43.46003" lon="3.45428">
        <ele>90</ele>
        <time>2014-09-03T16:44:05.000Z</time>
      </trkpt>
      <trkpt lat="43.45996" lon="3.45437">
        <ele>94</ele>
        <time>2014-09-03T16:44:07.000Z</time>
      </trkpt>
      <trkpt lat="43.4599" lon="3.45444">
        <ele>98</ele>
        <time>2014-09-03T16:44:11.000Z</time>
      </trkpt>
      <trkpt lat="43.45984" lon="3.45454">
        <ele>98</ele>
        <time>2014-09-03T16:44:15.000Z</time>
      </trkpt>
      <trkpt lat="43.45977" lon="3.4546">
        <ele>103</ele>
        <time>2014-09-03T16:44:19.000Z</time>
      </trkpt>
      <trkpt lat="43.45977" lon="3.4546">
        <ele>103</ele>
        <time>2014-09-03T16:44:21.000Z</time>
      </trkpt>
      <trkpt lat="43.45971" lon="3.45467">
        <ele>103</ele>
        <time>2014-09-03T16:44:23.000Z</time>
      </trkpt>
      <trkpt lat="43.45971" lon="3.45467">
        <ele>103</ele>
        <time>2014-09-03T16:44:25.000Z</time>
      </trkpt>
      <trkpt lat="43.45964" lon="3.45477">
        <ele>104</ele>
        <time>2014-09-03T16:44:27.000Z</time>
      </trkpt>
      <trkpt lat="43.45959" lon="3.45489">
        <ele>103</ele>
        <time>2014-09-03T16:44:31.000Z</time>
      </trkpt>
      <trkpt lat="43.45959" lon="3.45489">
        <ele>103</ele>
        <time>2014-09-03T16:44:33.000Z</time>
      </trkpt>
      <trkpt lat="43.45953" lon="3.45493">
        <ele>106</ele>
        <time>2014-09-03T16:44:35.000Z</time>
      </trkpt>
      <trkpt lat="43.45947" lon="3.45505">
        <ele>105</ele>
        <time>2014-09-03T16:44:39.000Z</time>
      </trkpt>
      <trkpt lat="43.45938" lon="3.45514">
        <ele>105</ele>
        <time>2014-09-03T16:44:43.000Z</time>
      </trkpt>
      <trkpt lat="43.45938" lon="3.45514">
        <ele>105</ele>
        <time>2014-09-03T16:44:45.000Z</time>
      </trkpt>
      <trkpt lat="43.45929" lon="3.45519">
        <ele>107</ele>
        <time>2014-09-03T16:44:47.000Z</time>
      </trkpt>
      <trkpt lat="43.45926" lon="3.45524">
        <ele>105</ele>
        <time>2014-09-03T16:44:49.000Z</time>
      </trkpt>
      <trkpt lat="43.45917" lon="3.45527">
        <ele>106</ele>
        <time>2014-09-03T16:44:53.000Z</time>
      </trkpt>
      <trkpt lat="43.45905" lon="3.45524">
        <ele>99</ele>
        <time>2014-09-03T16:44:57.000Z</time>
      </trkpt>
      <trkpt lat="43.45898" lon="3.45525">
        <ele>101</ele>
        <time>2014-09-03T16:44:59.000Z</time>
      </trkpt>
      <trkpt lat="43.4589" lon="3.45525">
        <ele>102</ele>
        <time>2014-09-03T16:45:01.000Z</time>
      </trkpt>
      <trkpt lat="43.45881" lon="3.45526">
        <ele>103</ele>
        <time>2014-09-03T16:45:03.000Z</time>
      </trkpt>
      <trkpt lat="43.45873" lon="3.45526">
        <ele>102</ele>
        <time>2014-09-03T16:45:05.000Z</time>
      </trkpt>
      <trkpt lat="43.45864" lon="3.45526">
        <ele>101</ele>
        <time>2014-09-03T16:45:07.000Z</time>
      </trkpt>
      <trkpt lat="43.45855" lon="3.45525">
        <ele>99</ele>
        <time>2014-09-03T16:45:09.000Z</time>
      </trkpt>
      <trkpt lat="43.45845" lon="3.45525">
        <ele>99</ele>
        <time>2014-09-03T16:45:11.000Z</time>
      </trkpt>
      <trkpt lat="43.45837" lon="3.45524">
        <ele>96</ele>
        <time>2014-09-03T16:45:13.000Z</time>
      </trkpt>
      <trkpt lat="43.45827" lon="3.45522">
        <ele>96</ele>
        <time>2014-09-03T16:45:15.000Z</time>
      </trkpt>
      <trkpt lat="43.45821" lon="3.4552">
        <ele>94</ele>
        <time>2014-09-03T16:45:17.000Z</time>
      </trkpt>
      <trkpt lat="43.45814" lon="3.4552">
        <ele>93</ele>
        <time>2014-09-03T16:45:19.000Z</time>
      </trkpt>
      <trkpt lat="43.45808" lon="3.4552">
        <ele>96</ele>
        <time>2014-09-03T16:45:21.000Z</time>
      </trkpt>
      <trkpt lat="43.458" lon="3.4552">
        <ele>96</ele>
        <time>2014-09-03T16:45:23.000Z</time>
      </trkpt>
      <trkpt lat="43.45794" lon="3.45521">
        <ele>96</ele>
        <time>2014-09-03T16:45:25.000Z</time>
      </trkpt>
      <trkpt lat="43.45785" lon="3.45523">
        <ele>97</ele>
        <time>2014-09-03T16:45:27.000Z</time>
      </trkpt>
      <trkpt lat="43.45776" lon="3.45525">
        <ele>96</ele>
        <time>2014-09-03T16:45:29.000Z</time>
      </trkpt>
      <trkpt lat="43.45767" lon="3.45525">
        <ele>95</ele>
        <time>2014-09-03T16:45:31.000Z</time>
      </trkpt>
      <trkpt lat="43.45759" lon="3.45524">
        <ele>99</ele>
        <time>2014-09-03T16:45:33.000Z</time>
      </trkpt>
      <trkpt lat="43.45759" lon="3.45524">
        <ele>99</ele>
        <time>2014-09-03T16:45:35.000Z</time>
      </trkpt>
      <trkpt lat="43.45749" lon="3.45522">
        <ele>104</ele>
        <time>2014-09-03T16:45:37.000Z</time>
      </trkpt>
      <trkpt lat="43.45749" lon="3.45522">
        <ele>104</ele>
        <time>2014-09-03T16:45:39.000Z</time>
      </trkpt>
      <trkpt lat="43.45741" lon="3.45517">
        <ele>107</ele>
        <time>2014-09-03T16:45:41.000Z</time>
      </trkpt>
      <trkpt lat="43.45741" lon="3.45517">
        <ele>107</ele>
        <time>2014-09-03T16:45:43.000Z</time>
      </trkpt>
      <trkpt lat="43.45736" lon="3.45515">
        <ele>110</ele>
        <time>2014-09-03T16:45:45.000Z</time>
      </trkpt>
      <trkpt lat="43.45731" lon="3.45513">
        <ele>111</ele>
        <time>2014-09-03T16:45:47.000Z</time>
      </trkpt>
      <trkpt lat="43.45726" lon="3.45511">
        <ele>111</ele>
        <time>2014-09-03T16:45:49.000Z</time>
      </trkpt>
      <trkpt lat="43.4572" lon="3.45509">
        <ele>114</ele>
        <time>2014-09-03T16:45:51.000Z</time>
      </trkpt>
      <trkpt lat="43.45713" lon="3.45509">
        <ele>108</ele>
        <time>2014-09-03T16:45:53.000Z</time>
      </trkpt>
      <trkpt lat="43.457" lon="3.45507">
        <ele>111</ele>
        <time>2014-09-03T16:45:55.000Z</time>
      </trkpt>
      <trkpt lat="43.45693" lon="3.45507">
        <ele>111</ele>
        <time>2014-09-03T16:45:57.000Z</time>
      </trkpt>
      <trkpt lat="43.45686" lon="3.45507">
        <ele>110</ele>
        <time>2014-09-03T16:45:59.000Z</time>
      </trkpt>
      <trkpt lat="43.45679" lon="3.45507">
        <ele>111</ele>
        <time>2014-09-03T16:46:01.000Z</time>
      </trkpt>
      <trkpt lat="43.45671" lon="3.45508">
        <ele>111</ele>
        <time>2014-09-03T16:46:03.000Z</time>
      </trkpt>
      <trkpt lat="43.45665" lon="3.45508">
        <ele>111</ele>
        <time>2014-09-03T16:46:05.000Z</time>
      </trkpt>
      <trkpt lat="43.45665" lon="3.45508">
        <ele>111</ele>
        <time>2014-09-03T16:46:07.000Z</time>
      </trkpt>
      <trkpt lat="43.45656" lon="3.45508">
        <ele>112</ele>
        <time>2014-09-03T16:46:09.000Z</time>
      </trkpt>
      <trkpt lat="43.45656" lon="3.45508">
        <ele>112</ele>
        <time>2014-09-03T16:46:11.000Z</time>
      </trkpt>
      <trkpt lat="43.45648" lon="3.4551">
        <ele>112</ele>
        <time>2014-09-03T16:46:13.000Z</time>
      </trkpt>
      <trkpt lat="43.45641" lon="3.45508">
        <ele>110</ele>
        <time>2014-09-03T16:46:15.000Z</time>
      </trkpt>
      <trkpt lat="43.45631" lon="3.45504">
        <ele>110</ele>
        <time>2014-09-03T16:46:19.000Z</time>
      </trkpt>
      <trkpt lat="43.45625" lon="3.45503">
        <ele>112</ele>
        <time>2014-09-03T16:46:21.000Z</time>
      </trkpt>
      <trkpt lat="43.45617" lon="3.45502">
        <ele>114</ele>
        <time>2014-09-03T16:46:23.000Z</time>
      </trkpt>
      <trkpt lat="43.45608" lon="3.45502">
        <ele>116</ele>
        <time>2014-09-03T16:46:25.000Z</time>
      </trkpt>
      <trkpt lat="43.45599" lon="3.45502">
        <ele>115</ele>
        <time>2014-09-03T16:46:27.000Z</time>
      </trkpt>
      <trkpt lat="43.45588" lon="3.45503">
        <ele>114</ele>
        <time>2014-09-03T16:46:29.000Z</time>
      </trkpt>
      <trkpt lat="43.45551" lon="3.45502">
        <ele>110</ele>
        <time>2014-09-03T16:46:33.000Z</time>
      </trkpt>
      <trkpt lat="43.45536" lon="3.45503">
        <ele>110</ele>
        <time>2014-09-03T16:46:35.000Z</time>
      </trkpt>
      <trkpt lat="43.45523" lon="3.45505">
        <ele>110</ele>
        <time>2014-09-03T16:46:37.000Z</time>
      </trkpt>
      <trkpt lat="43.45514" lon="3.45506">
        <ele>109</ele>
        <time>2014-09-03T16:46:39.000Z</time>
      </trkpt>
      <trkpt lat="43.45508" lon="3.45501">
        <ele>109</ele>
        <time>2014-09-03T16:46:41.000Z</time>
      </trkpt>
      <trkpt lat="43.45508" lon="3.45501">
        <ele>109</ele>
        <time>2014-09-03T16:46:43.000Z</time>
      </trkpt>
      <trkpt lat="43.45501" lon="3.45491">
        <ele>107</ele>
        <time>2014-09-03T16:46:45.000Z</time>
      </trkpt>
      <trkpt lat="43.45498" lon="3.45484">
        <ele>107</ele>
        <time>2014-09-03T16:46:47.000Z</time>
      </trkpt>
      <trkpt lat="43.45494" lon="3.45478">
        <ele>108</ele>
        <time>2014-09-03T16:46:49.000Z</time>
      </trkpt>
      <trkpt lat="43.45489" lon="3.45471">
        <ele>108</ele>
        <time>2014-09-03T16:46:51.000Z</time>
      </trkpt>
      <trkpt lat="43.45481" lon="3.45466">
        <ele>106</ele>
        <time>2014-09-03T16:46:53.000Z</time>
      </trkpt>
      <trkpt lat="43.45467" lon="3.4546">
        <ele>106</ele>
        <time>2014-09-03T16:46:55.000Z</time>
      </trkpt>
      <trkpt lat="43.45456" lon="3.45453">
        <ele>107</ele>
        <time>2014-09-03T16:46:57.000Z</time>
      </trkpt>
      <trkpt lat="43.45445" lon="3.45446">
        <ele>106</ele>
        <time>2014-09-03T16:46:59.000Z</time>
      </trkpt>
      <trkpt lat="43.45435" lon="3.4544">
        <ele>107</ele>
        <time>2014-09-03T16:47:01.000Z</time>
      </trkpt>
      <trkpt lat="43.45428" lon="3.45435">
        <ele>107</ele>
        <time>2014-09-03T16:47:04.000Z</time>
      </trkpt>
      <trkpt lat="43.45423" lon="3.4543">
        <ele>107</ele>
        <time>2014-09-03T16:47:06.000Z</time>
      </trkpt>
      <trkpt lat="43.45423" lon="3.4543">
        <ele>107</ele>
        <time>2014-09-03T16:47:08.000Z</time>
      </trkpt>
      <trkpt lat="43.45411" lon="3.45426">
        <ele>107</ele>
        <time>2014-09-03T16:47:10.000Z</time>
      </trkpt>
      <trkpt lat="43.45401" lon="3.45429">
        <ele>107</ele>
        <time>2014-09-03T16:47:12.000Z</time>
      </trkpt>
      <trkpt lat="43.45391" lon="3.45434">
        <ele>106</ele>
        <time>2014-09-03T16:47:14.000Z</time>
      </trkpt>
      <trkpt lat="43.45382" lon="3.45439">
        <ele>105</ele>
        <time>2014-09-03T16:47:16.000Z</time>
      </trkpt>
      <trkpt lat="43.45372" lon="3.45442">
        <ele>103</ele>
        <time>2014-09-03T16:47:18.000Z</time>
      </trkpt>
      <trkpt lat="43.45362" lon="3.45443">
        <ele>102</ele>
        <time>2014-09-03T16:47:20.000Z</time>
      </trkpt>
      <trkpt lat="43.4535" lon="3.45442">
        <ele>102</ele>
        <time>2014-09-03T16:47:22.000Z</time>
      </trkpt>
      <trkpt lat="43.45341" lon="3.4544">
        <ele>102</ele>
        <time>2014-09-03T16:47:24.000Z</time>
      </trkpt>
      <trkpt lat="43.45334" lon="3.45429">
        <ele>103</ele>
        <time>2014-09-03T16:47:26.000Z</time>
      </trkpt>
      <trkpt lat="43.45329" lon="3.4542">
        <ele>102</ele>
        <time>2014-09-03T16:47:28.000Z</time>
      </trkpt>
      <trkpt lat="43.45319" lon="3.45415">
        <ele>105</ele>
        <time>2014-09-03T16:47:30.000Z</time>
      </trkpt>
      <trkpt lat="43.45309" lon="3.45414">
        <ele>102</ele>
        <time>2014-09-03T16:47:32.000Z</time>
      </trkpt>
      <trkpt lat="43.453" lon="3.45418">
        <ele>103</ele>
        <time>2014-09-03T16:47:34.000Z</time>
      </trkpt>
      <trkpt lat="43.45291" lon="3.45419">
        <ele>100</ele>
        <time>2014-09-03T16:47:36.000Z</time>
      </trkpt>
      <trkpt lat="43.45283" lon="3.45422">
        <ele>101</ele>
        <time>2014-09-03T16:47:38.000Z</time>
      </trkpt>
      <trkpt lat="43.45275" lon="3.45425">
        <ele>101</ele>
        <time>2014-09-03T16:47:40.000Z</time>
      </trkpt>
      <trkpt lat="43.45267" lon="3.45427">
        <ele>102</ele>
        <time>2014-09-03T16:47:42.000Z</time>
      </trkpt>
      <trkpt lat="43.45259" lon="3.45428">
        <ele>103</ele>
        <time>2014-09-03T16:47:44.000Z</time>
      </trkpt>
      <trkpt lat="43.45251" lon="3.45429">
        <ele>104</ele>
        <time>2014-09-03T16:47:46.000Z</time>
      </trkpt>
      <trkpt lat="43.45244" lon="3.45431">
        <ele>105</ele>
        <time>2014-09-03T16:47:48.000Z</time>
      </trkpt>
      <trkpt lat="43.45237" lon="3.45433">
        <ele>105</ele>
        <time>2014-09-03T16:47:50.000Z</time>
      </trkpt>
      <trkpt lat="43.4523" lon="3.45434">
        <ele>105</ele>
        <time>2014-09-03T16:47:52.000Z</time>
      </trkpt>
      <trkpt lat="43.45223" lon="3.45436">
        <ele>106</ele>
        <time>2014-09-03T16:47:54.000Z</time>
      </trkpt>
      <trkpt lat="43.45223" lon="3.45436">
        <ele>106</ele>
        <time>2014-09-03T16:47:56.000Z</time>
      </trkpt>
      <trkpt lat="43.45212" lon="3.4544">
        <ele>106</ele>
        <time>2014-09-03T16:47:58.000Z</time>
      </trkpt>
      <trkpt lat="43.45207" lon="3.45445">
        <ele>107</ele>
        <time>2014-09-03T16:48:00.000Z</time>
      </trkpt>
      <trkpt lat="43.45201" lon="3.45448">
        <ele>107</ele>
        <time>2014-09-03T16:48:02.000Z</time>
      </trkpt>
      <trkpt lat="43.45193" lon="3.4545">
        <ele>106</ele>
        <time>2014-09-03T16:48:04.000Z</time>
      </trkpt>
      <trkpt lat="43.45187" lon="3.45451">
        <ele>105</ele>
        <time>2014-09-03T16:48:06.000Z</time>
      </trkpt>
      <trkpt lat="43.4518" lon="3.45452">
        <ele>106</ele>
        <time>2014-09-03T16:48:08.000Z</time>
      </trkpt>
      <trkpt lat="43.45174" lon="3.45452">
        <ele>106</ele>
        <time>2014-09-03T16:48:10.000Z</time>
      </trkpt>
      <trkpt lat="43.45168" lon="3.45452">
        <ele>107</ele>
        <time>2014-09-03T16:48:12.000Z</time>
      </trkpt>
      <trkpt lat="43.45161" lon="3.45451">
        <ele>107</ele>
        <time>2014-09-03T16:48:14.000Z</time>
      </trkpt>
      <trkpt lat="43.45155" lon="3.45451">
        <ele>108</ele>
        <time>2014-09-03T16:48:16.000Z</time>
      </trkpt>
      <trkpt lat="43.45148" lon="3.4545">
        <ele>109</ele>
        <time>2014-09-03T16:48:18.000Z</time>
      </trkpt>
      <trkpt lat="43.45141" lon="3.4545">
        <ele>108</ele>
        <time>2014-09-03T16:48:20.000Z</time>
      </trkpt>
      <trkpt lat="43.45135" lon="3.45449">
        <ele>107</ele>
        <time>2014-09-03T16:48:22.000Z</time>
      </trkpt>
      <trkpt lat="43.45128" lon="3.45449">
        <ele>108</ele>
        <time>2014-09-03T16:48:24.000Z</time>
      </trkpt>
      <trkpt lat="43.45122" lon="3.45449">
        <ele>108</ele>
        <time>2014-09-03T16:48:26.000Z</time>
      </trkpt>
      <trkpt lat="43.45116" lon="3.45448">
        <ele>107</ele>
        <time>2014-09-03T16:48:28.000Z</time>
      </trkpt>
      <trkpt lat="43.45108" lon="3.45447">
        <ele>107</ele>
        <time>2014-09-03T16:48:30.000Z</time>
      </trkpt>
      <trkpt lat="43.45102" lon="3.45445">
        <ele>108</ele>
        <time>2014-09-03T16:48:32.000Z</time>
      </trkpt>
      <trkpt lat="43.45094" lon="3.45443">
        <ele>109</ele>
        <time>2014-09-03T16:48:34.000Z</time>
      </trkpt>
      <trkpt lat="43.45087" lon="3.45441">
        <ele>109</ele>
        <time>2014-09-03T16:48:36.000Z</time>
      </trkpt>
      <trkpt lat="43.4508" lon="3.45439">
        <ele>110</ele>
        <time>2014-09-03T16:48:38.000Z</time>
      </trkpt>
      <trkpt lat="43.4508" lon="3.45439">
        <ele>110</ele>
        <time>2014-09-03T16:48:40.000Z</time>
      </trkpt>
      <trkpt lat="43.45069" lon="3.45437">
        <ele>111</ele>
        <time>2014-09-03T16:48:42.000Z</time>
      </trkpt>
      <trkpt lat="43.45069" lon="3.45437">
        <ele>111</ele>
        <time>2014-09-03T16:48:44.000Z</time>
      </trkpt>
      <trkpt lat="43.45058" lon="3.45434">
        <ele>112</ele>
        <time>2014-09-03T16:48:46.000Z</time>
      </trkpt>
      <trkpt lat="43.45053" lon="3.45433">
        <ele>112</ele>
        <time>2014-09-03T16:48:48.000Z</time>
      </trkpt>
      <trkpt lat="43.45045" lon="3.45431">
        <ele>112</ele>
        <time>2014-09-03T16:48:50.000Z</time>
      </trkpt>
      <trkpt lat="43.45038" lon="3.45428">
        <ele>112</ele>
        <time>2014-09-03T16:48:52.000Z</time>
      </trkpt>
      <trkpt lat="43.4503" lon="3.45425">
        <ele>112</ele>
        <time>2014-09-03T16:48:54.000Z</time>
      </trkpt>
      <trkpt lat="43.45018" lon="3.45421">
        <ele>111</ele>
        <time>2014-09-03T16:48:56.000Z</time>
      </trkpt>
      <trkpt lat="43.45008" lon="3.45418">
        <ele>111</ele>
        <time>2014-09-03T16:48:58.000Z</time>
      </trkpt>
      <trkpt lat="43.44984" lon="3.45412">
        <ele>108</ele>
        <time>2014-09-03T16:49:01.000Z</time>
      </trkpt>
      <trkpt lat="43.44971" lon="3.45409">
        <ele>107</ele>
        <time>2014-09-03T16:49:03.000Z</time>
      </trkpt>
      <trkpt lat="43.44959" lon="3.45407">
        <ele>106</ele>
        <time>2014-09-03T16:49:05.000Z</time>
      </trkpt>
      <trkpt lat="43.44947" lon="3.45404">
        <ele>105</ele>
        <time>2014-09-03T16:49:07.000Z</time>
      </trkpt>
      <trkpt lat="43.44936" lon="3.45402">
        <ele>104</ele>
        <time>2014-09-03T16:49:09.000Z</time>
      </trkpt>
      <trkpt lat="43.44921" lon="3.45397">
        <ele>103</ele>
        <time>2014-09-03T16:49:11.000Z</time>
      </trkpt>
      <trkpt lat="43.44909" lon="3.45393">
        <ele>105</ele>
        <time>2014-09-03T16:49:13.000Z</time>
      </trkpt>
      <trkpt lat="43.44899" lon="3.45388">
        <ele>105</ele>
        <time>2014-09-03T16:49:15.000Z</time>
      </trkpt>
      <trkpt lat="43.4489" lon="3.45385">
        <ele>106</ele>
        <time>2014-09-03T16:49:17.000Z</time>
      </trkpt>
      <trkpt lat="43.4488" lon="3.45383">
        <ele>105</ele>
        <time>2014-09-03T16:49:19.000Z</time>
      </trkpt>
      <trkpt lat="43.44872" lon="3.45379">
        <ele>103</ele>
        <time>2014-09-03T16:49:21.000Z</time>
      </trkpt>
      <trkpt lat="43.44853" lon="3.45373">
        <ele>102</ele>
        <time>2014-09-03T16:49:24.000Z</time>
      </trkpt>
      <trkpt lat="43.44846" lon="3.45368">
        <ele>103</ele>
        <time>2014-09-03T16:49:26.000Z</time>
      </trkpt>
      <trkpt lat="43.44836" lon="3.45363">
        <ele>106</ele>
        <time>2014-09-03T16:49:28.000Z</time>
      </trkpt>
      <trkpt lat="43.44823" lon="3.45359">
        <ele>105</ele>
        <time>2014-09-03T16:49:30.000Z</time>
      </trkpt>
      <trkpt lat="43.44814" lon="3.45356">
        <ele>106</ele>
        <time>2014-09-03T16:49:32.000Z</time>
      </trkpt>
      <trkpt lat="43.44805" lon="3.45352">
        <ele>104</ele>
        <time>2014-09-03T16:49:34.000Z</time>
      </trkpt>
      <trkpt lat="43.44797" lon="3.45348">
        <ele>106</ele>
        <time>2014-09-03T16:49:36.000Z</time>
      </trkpt>
      <trkpt lat="43.44786" lon="3.45346">
        <ele>104</ele>
        <time>2014-09-03T16:49:38.000Z</time>
      </trkpt>
      <trkpt lat="43.44777" lon="3.45343">
        <ele>104</ele>
        <time>2014-09-03T16:49:40.000Z</time>
      </trkpt>
      <trkpt lat="43.44768" lon="3.45341">
        <ele>107</ele>
        <time>2014-09-03T16:49:42.000Z</time>
      </trkpt>
      <trkpt lat="43.4476" lon="3.45341">
        <ele>108</ele>
        <time>2014-09-03T16:49:44.000Z</time>
      </trkpt>
      <trkpt lat="43.44752" lon="3.45339">
        <ele>108</ele>
        <time>2014-09-03T16:49:46.000Z</time>
      </trkpt>
      <trkpt lat="43.44744" lon="3.45336">
        <ele>109</ele>
        <time>2014-09-03T16:49:48.000Z</time>
      </trkpt>
      <trkpt lat="43.44734" lon="3.45333">
        <ele>109</ele>
        <time>2014-09-03T16:49:50.000Z</time>
      </trkpt>
      <trkpt lat="43.44726" lon="3.4533">
        <ele>110</ele>
        <time>2014-09-03T16:49:52.000Z</time>
      </trkpt>
      <trkpt lat="43.44717" lon="3.45327">
        <ele>111</ele>
        <time>2014-09-03T16:49:54.000Z</time>
      </trkpt>
      <trkpt lat="43.44712" lon="3.45324">
        <ele>111</ele>
        <time>2014-09-03T16:49:56.000Z</time>
      </trkpt>
      <trkpt lat="43.44706" lon="3.45322">
        <ele>110</ele>
        <time>2014-09-03T16:49:58.000Z</time>
      </trkpt>
      <trkpt lat="43.44706" lon="3.45322">
        <ele>110</ele>
        <time>2014-09-03T16:50:00.000Z</time>
      </trkpt>
      <trkpt lat="43.44696" lon="3.45321">
        <ele>109</ele>
        <time>2014-09-03T16:50:02.000Z</time>
      </trkpt>
      <trkpt lat="43.44689" lon="3.4532">
        <ele>109</ele>
        <time>2014-09-03T16:50:04.000Z</time>
      </trkpt>
      <trkpt lat="43.44682" lon="3.45319">
        <ele>109</ele>
        <time>2014-09-03T16:50:06.000Z</time>
      </trkpt>
      <trkpt lat="43.44675" lon="3.45318">
        <ele>109</ele>
        <time>2014-09-03T16:50:08.000Z</time>
      </trkpt>
      <trkpt lat="43.44667" lon="3.45318">
        <ele>109</ele>
        <time>2014-09-03T16:50:10.000Z</time>
      </trkpt>
      <trkpt lat="43.44659" lon="3.45318">
        <ele>110</ele>
        <time>2014-09-03T16:50:12.000Z</time>
      </trkpt>
      <trkpt lat="43.44652" lon="3.45318">
        <ele>110</ele>
        <time>2014-09-03T16:50:14.000Z</time>
      </trkpt>
      <trkpt lat="43.44645" lon="3.4532">
        <ele>110</ele>
        <time>2014-09-03T16:50:16.000Z</time>
      </trkpt>
      <trkpt lat="43.44638" lon="3.4532">
        <ele>109</ele>
        <time>2014-09-03T16:50:18.000Z</time>
      </trkpt>
      <trkpt lat="43.44632" lon="3.4532">
        <ele>110</ele>
        <time>2014-09-03T16:50:20.000Z</time>
      </trkpt>
      <trkpt lat="43.44624" lon="3.45322">
        <ele>112</ele>
        <time>2014-09-03T16:50:22.000Z</time>
      </trkpt>
      <trkpt lat="43.44617" lon="3.45323">
        <ele>113</ele>
        <time>2014-09-03T16:50:24.000Z</time>
      </trkpt>
      <trkpt lat="43.44609" lon="3.45324">
        <ele>113</ele>
        <time>2014-09-03T16:50:26.000Z</time>
      </trkpt>
      <trkpt lat="43.44601" lon="3.45325">
        <ele>114</ele>
        <time>2014-09-03T16:50:28.000Z</time>
      </trkpt>
      <trkpt lat="43.44594" lon="3.45326">
        <ele>113</ele>
        <time>2014-09-03T16:50:30.000Z</time>
      </trkpt>
      <trkpt lat="43.44587" lon="3.45327">
        <ele>114</ele>
        <time>2014-09-03T16:50:32.000Z</time>
      </trkpt>
      <trkpt lat="43.44579" lon="3.45328">
        <ele>116</ele>
        <time>2014-09-03T16:50:34.000Z</time>
      </trkpt>
      <trkpt lat="43.44572" lon="3.45328">
        <ele>117</ele>
        <time>2014-09-03T16:50:36.000Z</time>
      </trkpt>
      <trkpt lat="43.44564" lon="3.45329">
        <ele>119</ele>
        <time>2014-09-03T16:50:38.000Z</time>
      </trkpt>
      <trkpt lat="43.44557" lon="3.45331">
        <ele>120</ele>
        <time>2014-09-03T16:50:40.000Z</time>
      </trkpt>
      <trkpt lat="43.44549" lon="3.45332">
        <ele>121</ele>
        <time>2014-09-03T16:50:42.000Z</time>
      </trkpt>
      <trkpt lat="43.44542" lon="3.45333">
        <ele>122</ele>
        <time>2014-09-03T16:50:44.000Z</time>
      </trkpt>
      <trkpt lat="43.44534" lon="3.45334">
        <ele>124</ele>
        <time>2014-09-03T16:50:46.000Z</time>
      </trkpt>
      <trkpt lat="43.44527" lon="3.45336">
        <ele>124</ele>
        <time>2014-09-03T16:50:48.000Z</time>
      </trkpt>
      <trkpt lat="43.4452" lon="3.45337">
        <ele>125</ele>
        <time>2014-09-03T16:50:50.000Z</time>
      </trkpt>
      <trkpt lat="43.44514" lon="3.45339">
        <ele>125</ele>
        <time>2014-09-03T16:50:52.000Z</time>
      </trkpt>
      <trkpt lat="43.44507" lon="3.45339">
        <ele>124</ele>
        <time>2014-09-03T16:50:54.000Z</time>
      </trkpt>
      <trkpt lat="43.44507" lon="3.45339">
        <ele>124</ele>
        <time>2014-09-03T16:50:56.000Z</time>
      </trkpt>
      <trkpt lat="43.445" lon="3.45347">
        <ele>124</ele>
        <time>2014-09-03T16:50:58.000Z</time>
      </trkpt>
      <trkpt lat="43.44503" lon="3.45354">
        <ele>124</ele>
        <time>2014-09-03T16:51:00.000Z</time>
      </trkpt>
      <trkpt lat="43.4451" lon="3.45362">
        <ele>125</ele>
        <time>2014-09-03T16:51:02.000Z</time>
      </trkpt>
      <trkpt lat="43.44516" lon="3.45369">
        <ele>125</ele>
        <time>2014-09-03T16:51:04.000Z</time>
      </trkpt>
      <trkpt lat="43.44522" lon="3.45375">
        <ele>124</ele>
        <time>2014-09-03T16:51:06.000Z</time>
      </trkpt>
      <trkpt lat="43.44527" lon="3.45382">
        <ele>124</ele>
        <time>2014-09-03T16:51:08.000Z</time>
      </trkpt>
      <trkpt lat="43.44534" lon="3.45389">
        <ele>125</ele>
        <time>2014-09-03T16:51:10.000Z</time>
      </trkpt>
      <trkpt lat="43.44538" lon="3.45396">
        <ele>126</ele>
        <time>2014-09-03T16:51:12.000Z</time>
      </trkpt>
      <trkpt lat="43.44543" lon="3.45404">
        <ele>126</ele>
        <time>2014-09-03T16:51:14.000Z</time>
      </trkpt>
      <trkpt lat="43.44548" lon="3.45411">
        <ele>126</ele>
        <time>2014-09-03T16:51:16.000Z</time>
      </trkpt>
      <trkpt lat="43.44553" lon="3.45418">
        <ele>127</ele>
        <time>2014-09-03T16:51:18.000Z</time>
      </trkpt>
      <trkpt lat="43.44559" lon="3.45426">
        <ele>126</ele>
        <time>2014-09-03T16:51:20.000Z</time>
      </trkpt>
      <trkpt lat="43.44564" lon="3.45434">
        <ele>124</ele>
        <time>2014-09-03T16:51:22.000Z</time>
      </trkpt>
      <trkpt lat="43.44569" lon="3.45442">
        <ele>124</ele>
        <time>2014-09-03T16:51:24.000Z</time>
      </trkpt>
      <trkpt lat="43.44575" lon="3.45448">
        <ele>125</ele>
        <time>2014-09-03T16:51:26.000Z</time>
      </trkpt>
      <trkpt lat="43.44579" lon="3.45453">
        <ele>124</ele>
        <time>2014-09-03T16:51:28.000Z</time>
      </trkpt>
      <trkpt lat="43.44585" lon="3.45459">
        <ele>123</ele>
        <time>2014-09-03T16:51:30.000Z</time>
      </trkpt>
      <trkpt lat="43.44593" lon="3.45467">
        <ele>123</ele>
        <time>2014-09-03T16:51:32.000Z</time>
      </trkpt>
      <trkpt lat="43.446" lon="3.45473">
        <ele>122</ele>
        <time>2014-09-03T16:51:34.000Z</time>
      </trkpt>
      <trkpt lat="43.44607" lon="3.45477">
        <ele>124</ele>
        <time>2014-09-03T16:51:36.000Z</time>
      </trkpt>
      <trkpt lat="43.44615" lon="3.45482">
        <ele>122</ele>
        <time>2014-09-03T16:51:38.000Z</time>
      </trkpt>
      <trkpt lat="43.44623" lon="3.45486">
        <ele>122</ele>
        <time>2014-09-03T16:51:40.000Z</time>
      </trkpt>
      <trkpt lat="43.44632" lon="3.45492">
        <ele>123</ele>
        <time>2014-09-03T16:51:42.000Z</time>
      </trkpt>
      <trkpt lat="43.44653" lon="3.45501">
        <ele>126</ele>
        <time>2014-09-03T16:51:45.000Z</time>
      </trkpt>
      <trkpt lat="43.44663" lon="3.45513">
        <ele>130</ele>
        <time>2014-09-03T16:51:48.000Z</time>
      </trkpt>
      <trkpt lat="43.44673" lon="3.45521">
        <ele>130</ele>
        <time>2014-09-03T16:51:50.000Z</time>
      </trkpt>
      <trkpt lat="43.4468" lon="3.4553">
        <ele>129</ele>
        <time>2014-09-03T16:51:52.000Z</time>
      </trkpt>
      <trkpt lat="43.44686" lon="3.4554">
        <ele>127</ele>
        <time>2014-09-03T16:51:54.000Z</time>
      </trkpt>
      <trkpt lat="43.44693" lon="3.45549">
        <ele>125</ele>
        <time>2014-09-03T16:51:56.000Z</time>
      </trkpt>
      <trkpt lat="43.44699" lon="3.45561">
        <ele>124</ele>
        <time>2014-09-03T16:51:58.000Z</time>
      </trkpt>
      <trkpt lat="43.44704" lon="3.45573">
        <ele>124</ele>
        <time>2014-09-03T16:52:00.000Z</time>
      </trkpt>
      <trkpt lat="43.44711" lon="3.45586">
        <ele>120</ele>
        <time>2014-09-03T16:52:02.000Z</time>
      </trkpt>
      <trkpt lat="43.44719" lon="3.45599">
        <ele>119</ele>
        <time>2014-09-03T16:52:04.000Z</time>
      </trkpt>
      <trkpt lat="43.44725" lon="3.45613">
        <ele>118</ele>
        <time>2014-09-03T16:52:06.000Z</time>
      </trkpt>
      <trkpt lat="43.44733" lon="3.45625">
        <ele>118</ele>
        <time>2014-09-03T16:52:08.000Z</time>
      </trkpt>
      <trkpt lat="43.4474" lon="3.45637">
        <ele>117</ele>
        <time>2014-09-03T16:52:10.000Z</time>
      </trkpt>
      <trkpt lat="43.44747" lon="3.4565">
        <ele>116</ele>
        <time>2014-09-03T16:52:12.000Z</time>
      </trkpt>
      <trkpt lat="43.44754" lon="3.45663">
        <ele>115</ele>
        <time>2014-09-03T16:52:14.000Z</time>
      </trkpt>
      <trkpt lat="43.4476" lon="3.45675">
        <ele>115</ele>
        <time>2014-09-03T16:52:16.000Z</time>
      </trkpt>
      <trkpt lat="43.44767" lon="3.45687">
        <ele>116</ele>
        <time>2014-09-03T16:52:18.000Z</time>
      </trkpt>
      <trkpt lat="43.44774" lon="3.45697">
        <ele>116</ele>
        <time>2014-09-03T16:52:20.000Z</time>
      </trkpt>
      <trkpt lat="43.44781" lon="3.45706">
        <ele>118</ele>
        <time>2014-09-03T16:52:22.000Z</time>
      </trkpt>
      <trkpt lat="43.44789" lon="3.45715">
        <ele>118</ele>
        <time>2014-09-03T16:52:24.000Z</time>
      </trkpt>
      <trkpt lat="43.44799" lon="3.45725">
        <ele>120</ele>
        <time>2014-09-03T16:52:26.000Z</time>
      </trkpt>
      <trkpt lat="43.44808" lon="3.45733">
        <ele>123</ele>
        <time>2014-09-03T16:52:28.000Z</time>
      </trkpt>
      <trkpt lat="43.44817" lon="3.45742">
        <ele>123</ele>
        <time>2014-09-03T16:52:30.000Z</time>
      </trkpt>
      <trkpt lat="43.44827" lon="3.45751">
        <ele>124</ele>
        <time>2014-09-03T16:52:32.000Z</time>
      </trkpt>
      <trkpt lat="43.44836" lon="3.45759">
        <ele>124</ele>
        <time>2014-09-03T16:52:34.000Z</time>
      </trkpt>
      <trkpt lat="43.44844" lon="3.45767">
        <ele>124</ele>
        <time>2014-09-03T16:52:36.000Z</time>
      </trkpt>
      <trkpt lat="43.44851" lon="3.45776">
        <ele>124</ele>
        <time>2014-09-03T16:52:38.000Z</time>
      </trkpt>
      <trkpt lat="43.44852" lon="3.45785">
        <ele>123</ele>
        <time>2014-09-03T16:52:40.000Z</time>
      </trkpt>
      <trkpt lat="43.44846" lon="3.45794">
        <ele>123</ele>
        <time>2014-09-03T16:52:42.000Z</time>
      </trkpt>
      <trkpt lat="43.4484" lon="3.45806">
        <ele>121</ele>
        <time>2014-09-03T16:52:44.000Z</time>
      </trkpt>
      <trkpt lat="43.44833" lon="3.45821">
        <ele>121</ele>
        <time>2014-09-03T16:52:46.000Z</time>
      </trkpt>
      <trkpt lat="43.44828" lon="3.45834">
        <ele>121</ele>
        <time>2014-09-03T16:52:48.000Z</time>
      </trkpt>
      <trkpt lat="43.44821" lon="3.45848">
        <ele>121</ele>
        <time>2014-09-03T16:52:50.000Z</time>
      </trkpt>
      <trkpt lat="43.44814" lon="3.45862">
        <ele>120</ele>
        <time>2014-09-03T16:52:52.000Z</time>
      </trkpt>
      <trkpt lat="43.44807" lon="3.45875">
        <ele>121</ele>
        <time>2014-09-03T16:52:54.000Z</time>
      </trkpt>
      <trkpt lat="43.44799" lon="3.45889">
        <ele>120</ele>
        <time>2014-09-03T16:52:56.000Z</time>
      </trkpt>
      <trkpt lat="43.44792" lon="3.45903">
        <ele>120</ele>
        <time>2014-09-03T16:52:58.000Z</time>
      </trkpt>
      <trkpt lat="43.44785" lon="3.45919">
        <ele>119</ele>
        <time>2014-09-03T16:53:00.000Z</time>
      </trkpt>
      <trkpt lat="43.44778" lon="3.45935">
        <ele>118</ele>
        <time>2014-09-03T16:53:02.000Z</time>
      </trkpt>
      <trkpt lat="43.44771" lon="3.45951">
        <ele>118</ele>
        <time>2014-09-03T16:53:04.000Z</time>
      </trkpt>
      <trkpt lat="43.44766" lon="3.45973">
        <ele>113</ele>
        <time>2014-09-03T16:53:06.000Z</time>
      </trkpt>
      <trkpt lat="43.44759" lon="3.45994">
        <ele>113</ele>
        <time>2014-09-03T16:53:08.000Z</time>
      </trkpt>
      <trkpt lat="43.44753" lon="3.46008">
        <ele>112</ele>
        <time>2014-09-03T16:53:10.000Z</time>
      </trkpt>
      <trkpt lat="43.44745" lon="3.46025">
        <ele>111</ele>
        <time>2014-09-03T16:53:12.000Z</time>
      </trkpt>
      <trkpt lat="43.44737" lon="3.46041">
        <ele>110</ele>
        <time>2014-09-03T16:53:14.000Z</time>
      </trkpt>
      <trkpt lat="43.4473" lon="3.46055">
        <ele>111</ele>
        <time>2014-09-03T16:53:16.000Z</time>
      </trkpt>
      <trkpt lat="43.44725" lon="3.46068">
        <ele>113</ele>
        <time>2014-09-03T16:53:18.000Z</time>
      </trkpt>
      <trkpt lat="43.44719" lon="3.46084">
        <ele>115</ele>
        <time>2014-09-03T16:53:20.000Z</time>
      </trkpt>
      <trkpt lat="43.44716" lon="3.461">
        <ele>114</ele>
        <time>2014-09-03T16:53:22.000Z</time>
      </trkpt>
      <trkpt lat="43.44713" lon="3.46115">
        <ele>115</ele>
        <time>2014-09-03T16:53:24.000Z</time>
      </trkpt>
      <trkpt lat="43.44709" lon="3.46128">
        <ele>115</ele>
        <time>2014-09-03T16:53:26.000Z</time>
      </trkpt>
      <trkpt lat="43.44704" lon="3.46141">
        <ele>114</ele>
        <time>2014-09-03T16:53:28.000Z</time>
      </trkpt>
      <trkpt lat="43.44698" lon="3.46153">
        <ele>113</ele>
        <time>2014-09-03T16:53:30.000Z</time>
      </trkpt>
      <trkpt lat="43.44692" lon="3.46166">
        <ele>114</ele>
        <time>2014-09-03T16:53:32.000Z</time>
      </trkpt>
      <trkpt lat="43.44685" lon="3.4618">
        <ele>113</ele>
        <time>2014-09-03T16:53:34.000Z</time>
      </trkpt>
      <trkpt lat="43.44678" lon="3.46192">
        <ele>113</ele>
        <time>2014-09-03T16:53:36.000Z</time>
      </trkpt>
      <trkpt lat="43.44672" lon="3.46201">
        <ele>114</ele>
        <time>2014-09-03T16:53:38.000Z</time>
      </trkpt>
      <trkpt lat="43.44666" lon="3.46211">
        <ele>116</ele>
        <time>2014-09-03T16:53:40.000Z</time>
      </trkpt>
      <trkpt lat="43.44661" lon="3.46225">
        <ele>116</ele>
        <time>2014-09-03T16:53:42.000Z</time>
      </trkpt>
      <trkpt lat="43.44657" lon="3.46239">
        <ele>116</ele>
        <time>2014-09-03T16:53:44.000Z</time>
      </trkpt>
      <trkpt lat="43.44653" lon="3.46248">
        <ele>118</ele>
        <time>2014-09-03T16:53:46.000Z</time>
      </trkpt>
      <trkpt lat="43.44651" lon="3.46256">
        <ele>119</ele>
        <time>2014-09-03T16:53:48.000Z</time>
      </trkpt>
      <trkpt lat="43.44651" lon="3.46256">
        <ele>119</ele>
        <time>2014-09-03T16:53:50.000Z</time>
      </trkpt>
      <trkpt lat="43.44644" lon="3.46267">
        <ele>119</ele>
        <time>2014-09-03T16:53:52.000Z</time>
      </trkpt>
      <trkpt lat="43.4464" lon="3.46273">
        <ele>120</ele>
        <time>2014-09-03T16:53:54.000Z</time>
      </trkpt>
      <trkpt lat="43.44635" lon="3.46278">
        <ele>120</ele>
        <time>2014-09-03T16:53:56.000Z</time>
      </trkpt>
      <trkpt lat="43.44627" lon="3.4629">
        <ele>120</ele>
        <time>2014-09-03T16:54:00.000Z</time>
      </trkpt>
      <trkpt lat="43.44623" lon="3.46298">
        <ele>120</ele>
        <time>2014-09-03T16:54:02.000Z</time>
      </trkpt>
      <trkpt lat="43.4462" lon="3.46305">
        <ele>123</ele>
        <time>2014-09-03T16:54:04.000Z</time>
      </trkpt>
      <trkpt lat="43.44618" lon="3.46313">
        <ele>124</ele>
        <time>2014-09-03T16:54:06.000Z</time>
      </trkpt>
      <trkpt lat="43.44618" lon="3.46313">
        <ele>124</ele>
        <time>2014-09-03T16:54:08.000Z</time>
      </trkpt>
      <trkpt lat="43.44616" lon="3.46328">
        <ele>126</ele>
        <time>2014-09-03T16:54:10.000Z</time>
      </trkpt>
      <trkpt lat="43.44614" lon="3.46336">
        <ele>125</ele>
        <time>2014-09-03T16:54:12.000Z</time>
      </trkpt>
      <trkpt lat="43.44614" lon="3.46336">
        <ele>125</ele>
        <time>2014-09-03T16:54:14.000Z</time>
      </trkpt>
      <trkpt lat="43.44609" lon="3.46348">
        <ele>125</ele>
        <time>2014-09-03T16:54:16.000Z</time>
      </trkpt>
      <trkpt lat="43.44609" lon="3.46348">
        <ele>125</ele>
        <time>2014-09-03T16:54:18.000Z</time>
      </trkpt>
      <trkpt lat="43.44609" lon="3.46348">
        <ele>125</ele>
        <time>2014-09-03T16:54:20.000Z</time>
      </trkpt>
      <trkpt lat="43.44609" lon="3.46348">
        <ele>125</ele>
        <time>2014-09-03T16:54:22.000Z</time>
      </trkpt>
      <trkpt lat="43.44609" lon="3.46348">
        <ele>125</ele>
        <time>2014-09-03T16:54:24.000Z</time>
      </trkpt>
      <trkpt lat="43.44607" lon="3.46356">
        <ele>129</ele>
        <time>2014-09-03T16:54:26.000Z</time>
      </trkpt>
      <trkpt lat="43.44607" lon="3.46356">
        <ele>129</ele>
        <time>2014-09-03T16:54:28.000Z</time>
      </trkpt>
      <trkpt lat="43.44606" lon="3.46364">
        <ele>128</ele>
        <time>2014-09-03T16:54:30.000Z</time>
      </trkpt>
      <trkpt lat="43.44603" lon="3.46377">
        <ele>126</ele>
        <time>2014-09-03T16:54:34.000Z</time>
      </trkpt>
      <trkpt lat="43.44601" lon="3.46385">
        <ele>126</ele>
        <time>2014-09-03T16:54:36.000Z</time>
      </trkpt>
      <trkpt lat="43.446" lon="3.464">
        <ele>128</ele>
        <time>2014-09-03T16:54:40.000Z</time>
      </trkpt>
      <trkpt lat="43.44599" lon="3.46409">
        <ele>128</ele>
        <time>2014-09-03T16:54:42.000Z</time>
      </trkpt>
      <trkpt lat="43.44597" lon="3.46419">
        <ele>128</ele>
        <time>2014-09-03T16:54:44.000Z</time>
      </trkpt>
      <trkpt lat="43.44594" lon="3.46428">
        <ele>127</ele>
        <time>2014-09-03T16:54:46.000Z</time>
      </trkpt>
      <trkpt lat="43.44589" lon="3.46436">
        <ele>127</ele>
        <time>2014-09-03T16:54:48.000Z</time>
      </trkpt>
      <trkpt lat="43.44583" lon="3.46443">
        <ele>127</ele>
        <time>2014-09-03T16:54:50.000Z</time>
      </trkpt>
      <trkpt lat="43.44579" lon="3.4645">
        <ele>129</ele>
        <time>2014-09-03T16:54:52.000Z</time>
      </trkpt>
      <trkpt lat="43.44574" lon="3.46457">
        <ele>130</ele>
        <time>2014-09-03T16:54:54.000Z</time>
      </trkpt>
      <trkpt lat="43.44569" lon="3.46463">
        <ele>131</ele>
        <time>2014-09-03T16:54:56.000Z</time>
      </trkpt>
      <trkpt lat="43.44563" lon="3.46468">
        <ele>131</ele>
        <time>2014-09-03T16:54:58.000Z</time>
      </trkpt>
      <trkpt lat="43.44556" lon="3.46472">
        <ele>132</ele>
        <time>2014-09-03T16:55:00.000Z</time>
      </trkpt>
      <trkpt lat="43.44551" lon="3.46476">
        <ele>134</ele>
        <time>2014-09-03T16:55:02.000Z</time>
      </trkpt>
      <trkpt lat="43.44551" lon="3.46476">
        <ele>134</ele>
        <time>2014-09-03T16:55:04.000Z</time>
      </trkpt>
      <trkpt lat="43.44542" lon="3.46487">
        <ele>136</ele>
        <time>2014-09-03T16:55:06.000Z</time>
      </trkpt>
      <trkpt lat="43.44537" lon="3.46494">
        <ele>136</ele>
        <time>2014-09-03T16:55:08.000Z</time>
      </trkpt>
      <trkpt lat="43.44532" lon="3.46501">
        <ele>138</ele>
        <time>2014-09-03T16:55:10.000Z</time>
      </trkpt>
      <trkpt lat="43.44526" lon="3.46505">
        <ele>139</ele>
        <time>2014-09-03T16:55:12.000Z</time>
      </trkpt>
      <trkpt lat="43.44521" lon="3.46509">
        <ele>139</ele>
        <time>2014-09-03T16:55:14.000Z</time>
      </trkpt>
      <trkpt lat="43.44521" lon="3.46509">
        <ele>139</ele>
        <time>2014-09-03T16:55:16.000Z</time>
      </trkpt>
      <trkpt lat="43.44513" lon="3.46519">
        <ele>138</ele>
        <time>2014-09-03T16:55:18.000Z</time>
      </trkpt>
      <trkpt lat="43.4451" lon="3.46525">
        <ele>136</ele>
        <time>2014-09-03T16:55:20.000Z</time>
      </trkpt>
      <trkpt lat="43.44504" lon="3.46531">
        <ele>136</ele>
        <time>2014-09-03T16:55:22.000Z</time>
      </trkpt>
      <trkpt lat="43.44498" lon="3.46534">
        <ele>134</ele>
        <time>2014-09-03T16:55:24.000Z</time>
      </trkpt>
      <trkpt lat="43.44493" lon="3.46538">
        <ele>134</ele>
        <time>2014-09-03T16:55:26.000Z</time>
      </trkpt>
      <trkpt lat="43.44489" lon="3.46545">
        <ele>134</ele>
        <time>2014-09-03T16:55:28.000Z</time>
      </trkpt>
      <trkpt lat="43.44484" lon="3.46552">
        <ele>135</ele>
        <time>2014-09-03T16:55:30.000Z</time>
      </trkpt>
      <trkpt lat="43.44479" lon="3.46557">
        <ele>137</ele>
        <time>2014-09-03T16:55:32.000Z</time>
      </trkpt>
      <trkpt lat="43.44474" lon="3.46561">
        <ele>138</ele>
        <time>2014-09-03T16:55:34.000Z</time>
      </trkpt>
      <trkpt lat="43.4447" lon="3.46568">
        <ele>138</ele>
        <time>2014-09-03T16:55:36.000Z</time>
      </trkpt>
      <trkpt lat="43.44467" lon="3.4658">
        <ele>138</ele>
        <time>2014-09-03T16:55:38.000Z</time>
      </trkpt>
      <trkpt lat="43.44465" lon="3.46591">
        <ele>134</ele>
        <time>2014-09-03T16:55:40.000Z</time>
      </trkpt>
      <trkpt lat="43.44463" lon="3.46601">
        <ele>134</ele>
        <time>2014-09-03T16:55:42.000Z</time>
      </trkpt>
      <trkpt lat="43.44462" lon="3.4661">
        <ele>135</ele>
        <time>2014-09-03T16:55:44.000Z</time>
      </trkpt>
      <trkpt lat="43.44462" lon="3.4661">
        <ele>135</ele>
        <time>2014-09-03T16:55:46.000Z</time>
      </trkpt>
      <trkpt lat="43.44456" lon="3.4662">
        <ele>136</ele>
        <time>2014-09-03T16:55:48.000Z</time>
      </trkpt>
      <trkpt lat="43.44456" lon="3.4662">
        <ele>136</ele>
        <time>2014-09-03T16:55:50.000Z</time>
      </trkpt>
      <trkpt lat="43.44447" lon="3.46629">
        <ele>135</ele>
        <time>2014-09-03T16:55:52.000Z</time>
      </trkpt>
      <trkpt lat="43.44443" lon="3.46638">
        <ele>135</ele>
        <time>2014-09-03T16:55:54.000Z</time>
      </trkpt>
      <trkpt lat="43.4444" lon="3.46651">
        <ele>132</ele>
        <time>2014-09-03T16:55:56.000Z</time>
      </trkpt>
      <trkpt lat="43.44439" lon="3.46664">
        <ele>134</ele>
        <time>2014-09-03T16:55:58.000Z</time>
      </trkpt>
      <trkpt lat="43.44439" lon="3.46676">
        <ele>134</ele>
        <time>2014-09-03T16:56:00.000Z</time>
      </trkpt>
      <trkpt lat="43.44438" lon="3.46686">
        <ele>134</ele>
        <time>2014-09-03T16:56:02.000Z</time>
      </trkpt>
      <trkpt lat="43.44436" lon="3.46696">
        <ele>135</ele>
        <time>2014-09-03T16:56:04.000Z</time>
      </trkpt>
      <trkpt lat="43.44435" lon="3.46706">
        <ele>135</ele>
        <time>2014-09-03T16:56:06.000Z</time>
      </trkpt>
      <trkpt lat="43.44434" lon="3.46716">
        <ele>136</ele>
        <time>2014-09-03T16:56:08.000Z</time>
      </trkpt>
      <trkpt lat="43.44433" lon="3.46727">
        <ele>138</ele>
        <time>2014-09-03T16:56:10.000Z</time>
      </trkpt>
      <trkpt lat="43.44433" lon="3.46738">
        <ele>140</ele>
        <time>2014-09-03T16:56:12.000Z</time>
      </trkpt>
      <trkpt lat="43.44432" lon="3.4675">
        <ele>140</ele>
        <time>2014-09-03T16:56:14.000Z</time>
      </trkpt>
      <trkpt lat="43.44437" lon="3.46776">
        <ele>138</ele>
        <time>2014-09-03T16:56:17.000Z</time>
      </trkpt>
      <trkpt lat="43.44443" lon="3.46793">
        <ele>136</ele>
        <time>2014-09-03T16:56:19.000Z</time>
      </trkpt>
      <trkpt lat="43.44447" lon="3.46807">
        <ele>136</ele>
        <time>2014-09-03T16:56:21.000Z</time>
      </trkpt>
      <trkpt lat="43.44453" lon="3.46825">
        <ele>136</ele>
        <time>2014-09-03T16:56:23.000Z</time>
      </trkpt>
      <trkpt lat="43.44459" lon="3.46836">
        <ele>136</ele>
        <time>2014-09-03T16:56:25.000Z</time>
      </trkpt>
      <trkpt lat="43.44463" lon="3.46846">
        <ele>137</ele>
        <time>2014-09-03T16:56:27.000Z</time>
      </trkpt>
      <trkpt lat="43.44469" lon="3.46856">
        <ele>136</ele>
        <time>2014-09-03T16:56:29.000Z</time>
      </trkpt>
      <trkpt lat="43.44473" lon="3.46866">
        <ele>137</ele>
        <time>2014-09-03T16:56:32.000Z</time>
      </trkpt>
      <trkpt lat="43.44473" lon="3.46866">
        <ele>137</ele>
        <time>2014-09-03T16:56:33.000Z</time>
      </trkpt>
      <trkpt lat="43.44481" lon="3.46876">
        <ele>138</ele>
        <time>2014-09-03T16:56:35.000Z</time>
      </trkpt>
      <trkpt lat="43.44481" lon="3.46876">
        <ele>138</ele>
        <time>2014-09-03T16:56:37.000Z</time>
      </trkpt>
      <trkpt lat="43.44484" lon="3.46884">
        <ele>139</ele>
        <time>2014-09-03T16:56:39.000Z</time>
      </trkpt>
      <trkpt lat="43.44489" lon="3.46894">
        <ele>140</ele>
        <time>2014-09-03T16:56:43.000Z</time>
      </trkpt>
      <trkpt lat="43.44489" lon="3.46894">
        <ele>140</ele>
        <time>2014-09-03T16:56:45.000Z</time>
      </trkpt>
      <trkpt lat="43.44489" lon="3.46894">
        <ele>140</ele>
        <time>2014-09-03T16:56:47.000Z</time>
      </trkpt>
      <trkpt lat="43.44489" lon="3.46899">
        <ele>142</ele>
        <time>2014-09-03T16:56:49.000Z</time>
      </trkpt>
      <trkpt lat="43.44489" lon="3.46903">
        <ele>143</ele>
        <time>2014-09-03T16:56:51.000Z</time>
      </trkpt>
      <trkpt lat="43.44489" lon="3.46903">
        <ele>143</ele>
        <time>2014-09-03T16:56:53.000Z</time>
      </trkpt>
      <trkpt lat="43.44486" lon="3.46907">
        <ele>142</ele>
        <time>2014-09-03T16:56:55.000Z</time>
      </trkpt>
      <trkpt lat="43.44482" lon="3.46911">
        <ele>140</ele>
        <time>2014-09-03T16:56:57.000Z</time>
      </trkpt>
      <trkpt lat="43.44478" lon="3.46916">
        <ele>140</ele>
        <time>2014-09-03T16:56:59.000Z</time>
      </trkpt>
      <trkpt lat="43.44474" lon="3.46919">
        <ele>138</ele>
        <time>2014-09-03T16:57:01.000Z</time>
      </trkpt>
      <trkpt lat="43.44468" lon="3.46923">
        <ele>136</ele>
        <time>2014-09-03T16:57:03.000Z</time>
      </trkpt>
      <trkpt lat="43.44454" lon="3.46927">
        <ele>134</ele>
        <time>2014-09-03T16:57:05.000Z</time>
      </trkpt>
      <trkpt lat="43.44448" lon="3.46922">
        <ele>134</ele>
        <time>2014-09-03T16:57:07.000Z</time>
      </trkpt>
      <trkpt lat="43.44448" lon="3.46922">
        <ele>134</ele>
        <time>2014-09-03T16:57:09.000Z</time>
      </trkpt>
      <trkpt lat="43.44445" lon="3.46909">
        <ele>133</ele>
        <time>2014-09-03T16:57:11.000Z</time>
      </trkpt>
      <trkpt lat="43.44445" lon="3.46909">
        <ele>133</ele>
        <time>2014-09-03T16:57:13.000Z</time>
      </trkpt>
      <trkpt lat="43.4444" lon="3.46899">
        <ele>132</ele>
        <time>2014-09-03T16:57:15.000Z</time>
      </trkpt>
      <trkpt lat="43.4444" lon="3.46899">
        <ele>132</ele>
        <time>2014-09-03T16:57:17.000Z</time>
      </trkpt>
      <trkpt lat="43.44428" lon="3.46896">
        <ele>133</ele>
        <time>2014-09-03T16:57:19.000Z</time>
      </trkpt>
      <trkpt lat="43.44423" lon="3.46901">
        <ele>133</ele>
        <time>2014-09-03T16:57:21.000Z</time>
      </trkpt>
      <trkpt lat="43.44423" lon="3.46901">
        <ele>133</ele>
        <time>2014-09-03T16:57:23.000Z</time>
      </trkpt>
      <trkpt lat="43.44415" lon="3.46904">
        <ele>133</ele>
        <time>2014-09-03T16:57:25.000Z</time>
      </trkpt>
      <trkpt lat="43.4441" lon="3.46899">
        <ele>132</ele>
        <time>2014-09-03T16:57:27.000Z</time>
      </trkpt>
      <trkpt lat="43.4441" lon="3.46899">
        <ele>132</ele>
        <time>2014-09-03T16:57:29.000Z</time>
      </trkpt>
      <trkpt lat="43.44402" lon="3.46901">
        <ele>133</ele>
        <time>2014-09-03T16:57:31.000Z</time>
      </trkpt>
      <trkpt lat="43.44402" lon="3.46901">
        <ele>133</ele>
        <time>2014-09-03T16:57:33.000Z</time>
      </trkpt>
      <trkpt lat="43.44392" lon="3.46901">
        <ele>130</ele>
        <time>2014-09-03T16:57:35.000Z</time>
      </trkpt>
      <trkpt lat="43.44386" lon="3.46896">
        <ele>128</ele>
        <time>2014-09-03T16:57:37.000Z</time>
      </trkpt>
      <trkpt lat="43.44373" lon="3.46893">
        <ele>128</ele>
        <time>2014-09-03T16:57:39.000Z</time>
      </trkpt>
      <trkpt lat="43.44373" lon="3.46893">
        <ele>128</ele>
        <time>2014-09-03T16:57:44.000Z</time>
      </trkpt>
      <trkpt lat="43.44373" lon="3.46893">
        <ele>128</ele>
        <time>2014-09-03T16:57:46.000Z</time>
      </trkpt>
      <trkpt lat="43.44383" lon="3.46897">
        <ele>128</ele>
        <time>2014-09-03T16:57:51.000Z</time>
      </trkpt>
      <trkpt lat="43.44383" lon="3.46897">
        <ele>128</ele>
        <time>2014-09-03T16:57:55.000Z</time>
      </trkpt>
      <trkpt lat="43.4439" lon="3.46901">
        <ele>130</ele>
        <time>2014-09-03T16:57:59.000Z</time>
      </trkpt>
      <trkpt lat="43.44396" lon="3.46905">
        <ele>130</ele>
        <time>2014-09-03T16:58:03.000Z</time>
      </trkpt>
      <trkpt lat="43.44401" lon="3.46911">
        <ele>135</ele>
        <time>2014-09-03T16:58:09.000Z</time>
      </trkpt>
      <trkpt lat="43.44401" lon="3.46911">
        <ele>135</ele>
        <time>2014-09-03T16:58:11.000Z</time>
      </trkpt>
      <trkpt lat="43.44401" lon="3.46911">
        <ele>135</ele>
        <time>2014-09-03T16:58:13.000Z</time>
      </trkpt>
      <trkpt lat="43.44401" lon="3.46911">
        <ele>135</ele>
        <time>2014-09-03T16:58:15.000Z</time>
      </trkpt>
      <trkpt lat="43.44401" lon="3.46911">
        <ele>135</ele>
        <time>2014-09-03T16:58:17.000Z</time>
      </trkpt>
      <trkpt lat="43.44401" lon="3.46911">
        <ele>135</ele>
        <time>2014-09-03T16:58:19.000Z</time>
      </trkpt>
      <trkpt lat="43.44404" lon="3.46905">
        <ele>135</ele>
        <time>2014-09-03T16:58:21.000Z</time>
      </trkpt>
      <trkpt lat="43.44404" lon="3.46905">
        <ele>135</ele>
        <time>2014-09-03T16:58:25.000Z</time>
      </trkpt>
      <trkpt lat="43.44404" lon="3.46905">
        <ele>135</ele>
        <time>2014-09-03T16:58:27.000Z</time>
      </trkpt>
      <trkpt lat="43.44404" lon="3.46905">
        <ele>135</ele>
        <time>2014-09-03T16:58:29.000Z</time>
      </trkpt>
      <trkpt lat="43.44404" lon="3.46905">
        <ele>135</ele>
        <time>2014-09-03T16:58:31.000Z</time>
      </trkpt>
      <trkpt lat="43.44404" lon="3.46905">
        <ele>135</ele>
        <time>2014-09-03T16:58:33.000Z</time>
      </trkpt>
      <trkpt lat="43.44404" lon="3.46905">
        <ele>135</ele>
        <time>2014-09-03T16:58:35.000Z</time>
      </trkpt>
      <trkpt lat="43.44404" lon="3.46905">
        <ele>135</ele>
        <time>2014-09-03T16:58:37.000Z</time>
      </trkpt>
      <trkpt lat="43.44404" lon="3.46905">
        <ele>135</ele>
        <time>2014-09-03T16:58:39.000Z</time>
      </trkpt>
      <trkpt lat="43.44404" lon="3.46905">
        <ele>135</ele>
        <time>2014-09-03T16:58:41.000Z</time>
      </trkpt>
      <trkpt lat="43.44404" lon="3.46905">
        <ele>135</ele>
        <time>2014-09-03T16:58:43.000Z</time>
      </trkpt>
      <trkpt lat="43.44404" lon="3.46905">
        <ele>135</ele>
        <time>2014-09-03T16:58:45.000Z</time>
      </trkpt>
      <trkpt lat="43.44404" lon="3.46905">
        <ele>135</ele>
        <time>2014-09-03T16:58:47.000Z</time>
      </trkpt>
      <trkpt lat="43.44397" lon="3.46901">
        <ele>129</ele>
        <time>2014-09-03T16:58:53.000Z</time>
      </trkpt>
      <trkpt lat="43.4439" lon="3.46896">
        <ele>127</ele>
        <time>2014-09-03T16:58:55.000Z</time>
      </trkpt>
      <trkpt lat="43.44378" lon="3.46891">
        <ele>129</ele>
        <time>2014-09-03T16:58:58.000Z</time>
      </trkpt>
      <trkpt lat="43.44378" lon="3.46891">
        <ele>129</ele>
        <time>2014-09-03T16:59:03.000Z</time>
      </trkpt>
      <trkpt lat="43.44361" lon="3.46887">
        <ele>125</ele>
        <time>2014-09-03T17:00:31.000Z</time>
      </trkpt>
      <trkpt lat="43.44349" lon="3.46883">
        <ele>127</ele>
        <time>2014-09-03T17:00:33.000Z</time>
      </trkpt>
      <trkpt lat="43.44339" lon="3.46878">
        <ele>128</ele>
        <time>2014-09-03T17:00:35.000Z</time>
      </trkpt>
      <trkpt lat="43.44333" lon="3.46871">
        <ele>130</ele>
        <time>2014-09-03T17:00:37.000Z</time>
      </trkpt>
      <trkpt lat="43.44328" lon="3.46866">
        <ele>129</ele>
        <time>2014-09-03T17:00:39.000Z</time>
      </trkpt>
      <trkpt lat="43.44319" lon="3.46857">
        <ele>129</ele>
        <time>2014-09-03T17:00:41.000Z</time>
      </trkpt>
      <trkpt lat="43.44319" lon="3.46857">
        <ele>129</ele>
        <time>2014-09-03T17:00:43.000Z</time>
      </trkpt>
      <trkpt lat="43.44308" lon="3.4686">
        <ele>130</ele>
        <time>2014-09-03T17:00:45.000Z</time>
      </trkpt>
      <trkpt lat="43.44308" lon="3.4686">
        <ele>130</ele>
        <time>2014-09-03T17:00:47.000Z</time>
      </trkpt>
      <trkpt lat="43.44297" lon="3.46864">
        <ele>129</ele>
        <time>2014-09-03T17:00:49.000Z</time>
      </trkpt>
      <trkpt lat="43.44291" lon="3.46866">
        <ele>128</ele>
        <time>2014-09-03T17:00:51.000Z</time>
      </trkpt>
      <trkpt lat="43.44286" lon="3.46869">
        <ele>128</ele>
        <time>2014-09-03T17:00:53.000Z</time>
      </trkpt>
      <trkpt lat="43.44281" lon="3.46874">
        <ele>126</ele>
        <time>2014-09-03T17:00:55.000Z</time>
      </trkpt>
      <trkpt lat="43.44281" lon="3.46874">
        <ele>126</ele>
        <time>2014-09-03T17:00:57.000Z</time>
      </trkpt>
      <trkpt lat="43.44279" lon="3.46889">
        <ele>127</ele>
        <time>2014-09-03T17:00:59.000Z</time>
      </trkpt>
      <trkpt lat="43.44279" lon="3.46898">
        <ele>126</ele>
        <time>2014-09-03T17:01:01.000Z</time>
      </trkpt>
      <trkpt lat="43.44277" lon="3.46907">
        <ele>126</ele>
        <time>2014-09-03T17:01:05.000Z</time>
      </trkpt>
      <trkpt lat="43.44277" lon="3.46907">
        <ele>126</ele>
        <time>2014-09-03T17:01:07.000Z</time>
      </trkpt>
      <trkpt lat="43.44277" lon="3.46907">
        <ele>126</ele>
        <time>2014-09-03T17:01:09.000Z</time>
      </trkpt>
      <trkpt lat="43.44277" lon="3.46907">
        <ele>126</ele>
        <time>2014-09-03T17:01:11.000Z</time>
      </trkpt>
      <trkpt lat="43.44277" lon="3.46907">
        <ele>126</ele>
        <time>2014-09-03T17:01:13.000Z</time>
      </trkpt>
      <trkpt lat="43.44277" lon="3.46907">
        <ele>126</ele>
        <time>2014-09-03T17:01:15.000Z</time>
      </trkpt>
      <trkpt lat="43.44277" lon="3.46907">
        <ele>126</ele>
        <time>2014-09-03T17:01:17.000Z</time>
      </trkpt>
      <trkpt lat="43.44277" lon="3.46907">
        <ele>126</ele>
        <time>2014-09-03T17:01:19.000Z</time>
      </trkpt>
      <trkpt lat="43.44277" lon="3.46907">
        <ele>126</ele>
        <time>2014-09-03T17:01:21.000Z</time>
      </trkpt>
      <trkpt lat="43.44277" lon="3.46907">
        <ele>126</ele>
        <time>2014-09-03T17:01:23.000Z</time>
      </trkpt>
      <trkpt lat="43.44277" lon="3.46907">
        <ele>126</ele>
        <time>2014-09-03T17:01:25.000Z</time>
      </trkpt>
      <trkpt lat="43.44277" lon="3.46907">
        <ele>126</ele>
        <time>2014-09-03T17:01:27.000Z</time>
      </trkpt>
      <trkpt lat="43.44277" lon="3.46907">
        <ele>126</ele>
        <time>2014-09-03T17:01:29.000Z</time>
      </trkpt>
      <trkpt lat="43.44277" lon="3.46907">
        <ele>126</ele>
        <time>2014-09-03T17:01:31.000Z</time>
      </trkpt>
      <trkpt lat="43.44277" lon="3.46907">
        <ele>126</ele>
        <time>2014-09-03T17:01:33.000Z</time>
      </trkpt>
      <trkpt lat="43.44277" lon="3.46907">
        <ele>126</ele>
        <time>2014-09-03T17:01:53.000Z</time>
      </trkpt>
      <trkpt lat="43.44277" lon="3.46907">
        <ele>126</ele>
        <time>2014-09-03T17:01:55.000Z</time>
      </trkpt>
      <trkpt lat="43.44277" lon="3.46907">
        <ele>126</ele>
        <time>2014-09-03T17:01:57.000Z</time>
      </trkpt>
      <trkpt lat="43.44277" lon="3.46907">
        <ele>126</ele>
        <time>2014-09-03T17:01:59.000Z</time>
      </trkpt>
      <trkpt lat="43.44277" lon="3.46907">
        <ele>126</ele>
        <time>2014-09-03T17:02:01.000Z</time>
      </trkpt>
      <trkpt lat="43.44277" lon="3.46907">
        <ele>126</ele>
        <time>2014-09-03T17:02:03.000Z</time>
      </trkpt>
      <trkpt lat="43.44277" lon="3.46907">
        <ele>126</ele>
        <time>2014-09-03T17:02:05.000Z</time>
      </trkpt>
      <trkpt lat="43.44277" lon="3.46907">
        <ele>126</ele>
        <time>2014-09-03T17:02:07.000Z</time>
      </trkpt>
      <trkpt lat="43.44277" lon="3.46907">
        <ele>126</ele>
        <time>2014-09-03T17:02:09.000Z</time>
      </trkpt>
      <trkpt lat="43.44277" lon="3.46907">
        <ele>126</ele>
        <time>2014-09-03T17:02:11.000Z</time>
      </trkpt>
      <trkpt lat="43.44277" lon="3.46907">
        <ele>126</ele>
        <time>2014-09-03T17:02:13.000Z</time>
      </trkpt>
      <trkpt lat="43.44268" lon="3.46908">
        <ele>123</ele>
        <time>2014-09-03T17:02:49.000Z</time>
      </trkpt>
      <trkpt lat="43.44261" lon="3.46908">
        <ele>123</ele>
        <time>2014-09-03T17:02:51.000Z</time>
      </trkpt>
      <trkpt lat="43.44254" lon="3.46907">
        <ele>122</ele>
        <time>2014-09-03T17:02:53.000Z</time>
      </trkpt>
      <trkpt lat="43.44247" lon="3.46906">
        <ele>122</ele>
        <time>2014-09-03T17:02:55.000Z</time>
      </trkpt>
      <trkpt lat="43.44242" lon="3.46907">
        <ele>121</ele>
        <time>2014-09-03T17:02:57.000Z</time>
      </trkpt>
      <trkpt lat="43.44236" lon="3.46907">
        <ele>122</ele>
        <time>2014-09-03T17:02:59.000Z</time>
      </trkpt>
      <trkpt lat="43.44236" lon="3.46907">
        <ele>122</ele>
        <time>2014-09-03T17:03:01.000Z</time>
      </trkpt>
      <trkpt lat="43.44236" lon="3.46907">
        <ele>122</ele>
        <time>2014-09-03T17:03:03.000Z</time>
      </trkpt>
      <trkpt lat="43.44236" lon="3.46907">
        <ele>122</ele>
        <time>2014-09-03T17:03:05.000Z</time>
      </trkpt>
      <trkpt lat="43.44231" lon="3.469">
        <ele>125</ele>
        <time>2014-09-03T17:03:07.000Z</time>
      </trkpt>
      <trkpt lat="43.44231" lon="3.469">
        <ele>125</ele>
        <time>2014-09-03T17:03:09.000Z</time>
      </trkpt>
      <trkpt lat="43.44226" lon="3.46895">
        <ele>124</ele>
        <time>2014-09-03T17:03:13.000Z</time>
      </trkpt>
      <trkpt lat="43.4422" lon="3.46893">
        <ele>124</ele>
        <time>2014-09-03T17:03:17.000Z</time>
      </trkpt>
      <trkpt lat="43.4422" lon="3.46893">
        <ele>124</ele>
        <time>2014-09-03T17:03:19.000Z</time>
      </trkpt>
      <trkpt lat="43.4422" lon="3.46893">
        <ele>124</ele>
        <time>2014-09-03T17:03:21.000Z</time>
      </trkpt>
      <trkpt lat="43.4422" lon="3.46893">
        <ele>124</ele>
        <time>2014-09-03T17:03:23.000Z</time>
      </trkpt>
      <trkpt lat="43.4422" lon="3.46893">
        <ele>124</ele>
        <time>2014-09-03T17:03:25.000Z</time>
      </trkpt>
      <trkpt lat="43.4422" lon="3.46893">
        <ele>124</ele>
        <time>2014-09-03T17:03:27.000Z</time>
      </trkpt>
      <trkpt lat="43.44202" lon="3.46885">
        <ele>117</ele>
        <time>2014-09-03T17:03:58.000Z</time>
      </trkpt>
      <trkpt lat="43.44196" lon="3.46883">
        <ele>115</ele>
        <time>2014-09-03T17:04:00.000Z</time>
      </trkpt>
      <trkpt lat="43.44189" lon="3.46871">
        <ele>113</ele>
        <time>2014-09-03T17:04:04.000Z</time>
      </trkpt>
      <trkpt lat="43.44186" lon="3.46863">
        <ele>113</ele>
        <time>2014-09-03T17:04:06.000Z</time>
      </trkpt>
      <trkpt lat="43.44184" lon="3.46856">
        <ele>115</ele>
        <time>2014-09-03T17:04:11.000Z</time>
      </trkpt>
      <trkpt lat="43.44184" lon="3.46856">
        <ele>115</ele>
        <time>2014-09-03T17:04:13.000Z</time>
      </trkpt>
      <trkpt lat="43.44184" lon="3.46856">
        <ele>115</ele>
        <time>2014-09-03T17:04:15.000Z</time>
      </trkpt>
      <trkpt lat="43.44184" lon="3.46856">
        <ele>115</ele>
        <time>2014-09-03T17:04:17.000Z</time>
      </trkpt>
      <trkpt lat="43.44184" lon="3.46856">
        <ele>115</ele>
        <time>2014-09-03T17:04:19.000Z</time>
      </trkpt>
      <trkpt lat="43.44184" lon="3.4686">
        <ele>117</ele>
        <time>2014-09-03T17:04:23.000Z</time>
      </trkpt>
      <trkpt lat="43.44184" lon="3.4686">
        <ele>117</ele>
        <time>2014-09-03T17:04:25.000Z</time>
      </trkpt>
      <trkpt lat="43.44184" lon="3.4686">
        <ele>117</ele>
        <time>2014-09-03T17:04:27.000Z</time>
      </trkpt>
      <trkpt lat="43.44184" lon="3.4686">
        <ele>117</ele>
        <time>2014-09-03T17:04:29.000Z</time>
      </trkpt>
      <trkpt lat="43.44182" lon="3.46852">
        <ele>111</ele>
        <time>2014-09-03T17:04:41.000Z</time>
      </trkpt>
      <trkpt lat="43.4418" lon="3.46844">
        <ele>111</ele>
        <time>2014-09-03T17:04:43.000Z</time>
      </trkpt>
      <trkpt lat="43.44178" lon="3.46838">
        <ele>112</ele>
        <time>2014-09-03T17:04:45.000Z</time>
      </trkpt>
      <trkpt lat="43.44176" lon="3.46834">
        <ele>113</ele>
        <time>2014-09-03T17:04:47.000Z</time>
      </trkpt>
      <trkpt lat="43.44176" lon="3.46834">
        <ele>113</ele>
        <time>2014-09-03T17:04:49.000Z</time>
      </trkpt>
      <trkpt lat="43.44174" lon="3.4683">
        <ele>111</ele>
        <time>2014-09-03T17:04:51.000Z</time>
      </trkpt>
      <trkpt lat="43.44172" lon="3.46824">
        <ele>110</ele>
        <time>2014-09-03T17:04:53.000Z</time>
      </trkpt>
      <trkpt lat="43.4417" lon="3.46817">
        <ele>112</ele>
        <time>2014-09-03T17:04:55.000Z</time>
      </trkpt>
      <trkpt lat="43.44169" lon="3.4681">
        <ele>111</ele>
        <time>2014-09-03T17:04:57.000Z</time>
      </trkpt>
      <trkpt lat="43.44168" lon="3.46803">
        <ele>112</ele>
        <time>2014-09-03T17:04:59.000Z</time>
      </trkpt>
      <trkpt lat="43.44169" lon="3.4679">
        <ele>113</ele>
        <time>2014-09-03T17:05:01.000Z</time>
      </trkpt>
      <trkpt lat="43.44169" lon="3.4679">
        <ele>113</ele>
        <time>2014-09-03T17:05:03.000Z</time>
      </trkpt>
      <trkpt lat="43.44172" lon="3.4678">
        <ele>113</ele>
        <time>2014-09-03T17:05:05.000Z</time>
      </trkpt>
      <trkpt lat="43.44172" lon="3.4678">
        <ele>113</ele>
        <time>2014-09-03T17:05:07.000Z</time>
      </trkpt>
      <trkpt lat="43.44166" lon="3.46771">
        <ele>114</ele>
        <time>2014-09-03T17:05:09.000Z</time>
      </trkpt>
      <trkpt lat="43.44166" lon="3.46771">
        <ele>114</ele>
        <time>2014-09-03T17:05:11.000Z</time>
      </trkpt>
      <trkpt lat="43.44166" lon="3.46771">
        <ele>114</ele>
        <time>2014-09-03T17:05:13.000Z</time>
      </trkpt>
      <trkpt lat="43.44161" lon="3.46765">
        <ele>110</ele>
        <time>2014-09-03T17:05:15.000Z</time>
      </trkpt>
      <trkpt lat="43.44162" lon="3.46752">
        <ele>111</ele>
        <time>2014-09-03T17:05:19.000Z</time>
      </trkpt>
      <trkpt lat="43.44168" lon="3.46745">
        <ele>115</ele>
        <time>2014-09-03T17:05:23.000Z</time>
      </trkpt>
      <trkpt lat="43.44176" lon="3.46734">
        <ele>112</ele>
        <time>2014-09-03T17:05:27.000Z</time>
      </trkpt>
      <trkpt lat="43.44181" lon="3.46731">
        <ele>113</ele>
        <time>2014-09-03T17:05:31.000Z</time>
      </trkpt>
      <trkpt lat="43.44181" lon="3.46731">
        <ele>113</ele>
        <time>2014-09-03T17:05:33.000Z</time>
      </trkpt>
      <trkpt lat="43.4418" lon="3.46721">
        <ele>110</ele>
        <time>2014-09-03T17:05:35.000Z</time>
      </trkpt>
      <trkpt lat="43.4418" lon="3.46721">
        <ele>110</ele>
        <time>2014-09-03T17:05:37.000Z</time>
      </trkpt>
      <trkpt lat="43.44177" lon="3.46708">
        <ele>110</ele>
        <time>2014-09-03T17:05:39.000Z</time>
      </trkpt>
      <trkpt lat="43.44176" lon="3.46699">
        <ele>109</ele>
        <time>2014-09-03T17:05:41.000Z</time>
      </trkpt>
      <trkpt lat="43.44176" lon="3.46689">
        <ele>109</ele>
        <time>2014-09-03T17:05:43.000Z</time>
      </trkpt>
      <trkpt lat="43.44177" lon="3.46681">
        <ele>110</ele>
        <time>2014-09-03T17:05:45.000Z</time>
      </trkpt>
      <trkpt lat="43.44178" lon="3.46672">
        <ele>108</ele>
        <time>2014-09-03T17:05:47.000Z</time>
      </trkpt>
      <trkpt lat="43.44178" lon="3.46661">
        <ele>108</ele>
        <time>2014-09-03T17:05:49.000Z</time>
      </trkpt>
      <trkpt lat="43.44178" lon="3.46651">
        <ele>107</ele>
        <time>2014-09-03T17:05:51.000Z</time>
      </trkpt>
      <trkpt lat="43.44178" lon="3.46651">
        <ele>107</ele>
        <time>2014-09-03T17:05:53.000Z</time>
      </trkpt>
      <trkpt lat="43.44175" lon="3.46639">
        <ele>114</ele>
        <time>2014-09-03T17:05:55.000Z</time>
      </trkpt>
      <trkpt lat="43.44172" lon="3.46632">
        <ele>111</ele>
        <time>2014-09-03T17:05:57.000Z</time>
      </trkpt>
      <trkpt lat="43.4417" lon="3.46624">
        <ele>112</ele>
        <time>2014-09-03T17:05:59.000Z</time>
      </trkpt>
      <trkpt lat="43.44166" lon="3.46616">
        <ele>112</ele>
        <time>2014-09-03T17:06:03.000Z</time>
      </trkpt>
      <trkpt lat="43.44154" lon="3.46612">
        <ele>110</ele>
        <time>2014-09-03T17:06:07.000Z</time>
      </trkpt>
      <trkpt lat="43.44145" lon="3.46611">
        <ele>111</ele>
        <time>2014-09-03T17:06:09.000Z</time>
      </trkpt>
      <trkpt lat="43.44138" lon="3.4661">
        <ele>110</ele>
        <time>2014-09-03T17:06:11.000Z</time>
      </trkpt>
      <trkpt lat="43.44138" lon="3.4661">
        <ele>110</ele>
        <time>2014-09-03T17:06:14.000Z</time>
      </trkpt>
      <trkpt lat="43.44138" lon="3.4661">
        <ele>110</ele>
        <time>2014-09-03T17:06:16.000Z</time>
      </trkpt>
      <trkpt lat="43.44131" lon="3.46616">
        <ele>111</ele>
        <time>2014-09-03T17:06:18.000Z</time>
      </trkpt>
      <trkpt lat="43.44128" lon="3.46624">
        <ele>112</ele>
        <time>2014-09-03T17:06:22.000Z</time>
      </trkpt>
      <trkpt lat="43.4413" lon="3.46636">
        <ele>114</ele>
        <time>2014-09-03T17:06:26.000Z</time>
      </trkpt>
      <trkpt lat="43.44122" lon="3.46643">
        <ele>114</ele>
        <time>2014-09-03T17:06:30.000Z</time>
      </trkpt>
      <trkpt lat="43.44114" lon="3.46644">
        <ele>112</ele>
        <time>2014-09-03T17:06:32.000Z</time>
      </trkpt>
      <trkpt lat="43.44105" lon="3.46646">
        <ele>111</ele>
        <time>2014-09-03T17:06:34.000Z</time>
      </trkpt>
      <trkpt lat="43.44105" lon="3.46646">
        <ele>111</ele>
        <time>2014-09-03T17:06:36.000Z</time>
      </trkpt>
      <trkpt lat="43.44099" lon="3.46646">
        <ele>110</ele>
        <time>2014-09-03T17:06:38.000Z</time>
      </trkpt>
      <trkpt lat="43.44099" lon="3.46646">
        <ele>110</ele>
        <time>2014-09-03T17:06:40.000Z</time>
      </trkpt>
      <trkpt lat="43.44099" lon="3.46646">
        <ele>110</ele>
        <time>2014-09-03T17:06:42.000Z</time>
      </trkpt>
      <trkpt lat="43.44099" lon="3.46646">
        <ele>110</ele>
        <time>2014-09-03T17:06:44.000Z</time>
      </trkpt>
      <trkpt lat="43.44097" lon="3.46654">
        <ele>114</ele>
        <time>2014-09-03T17:06:46.000Z</time>
      </trkpt>
      <trkpt lat="43.44101" lon="3.46666">
        <ele>114</ele>
        <time>2014-09-03T17:06:50.000Z</time>
      </trkpt>
      <trkpt lat="43.44102" lon="3.46675">
        <ele>115</ele>
        <time>2014-09-03T17:06:52.000Z</time>
      </trkpt>
      <trkpt lat="43.44101" lon="3.46684">
        <ele>114</ele>
        <time>2014-09-03T17:06:54.000Z</time>
      </trkpt>
      <trkpt lat="43.44098" lon="3.46693">
        <ele>110</ele>
        <time>2014-09-03T17:06:56.000Z</time>
      </trkpt>
      <trkpt lat="43.44099" lon="3.46704">
        <ele>110</ele>
        <time>2014-09-03T17:06:58.000Z</time>
      </trkpt>
      <trkpt lat="43.44103" lon="3.46714">
        <ele>110</ele>
        <time>2014-09-03T17:07:00.000Z</time>
      </trkpt>
      <trkpt lat="43.44105" lon="3.46726">
        <ele>112</ele>
        <time>2014-09-03T17:07:02.000Z</time>
      </trkpt>
      <trkpt lat="43.44107" lon="3.46739">
        <ele>113</ele>
        <time>2014-09-03T17:07:04.000Z</time>
      </trkpt>
      <trkpt lat="43.44108" lon="3.46752">
        <ele>111</ele>
        <time>2014-09-03T17:07:06.000Z</time>
      </trkpt>
      <trkpt lat="43.44114" lon="3.46767">
        <ele>111</ele>
        <time>2014-09-03T17:07:08.000Z</time>
      </trkpt>
      <trkpt lat="43.44116" lon="3.46779">
        <ele>111</ele>
        <time>2014-09-03T17:07:10.000Z</time>
      </trkpt>
      <trkpt lat="43.44115" lon="3.46792">
        <ele>110</ele>
        <time>2014-09-03T17:07:12.000Z</time>
      </trkpt>
      <trkpt lat="43.44115" lon="3.46808">
        <ele>108</ele>
        <time>2014-09-03T17:07:14.000Z</time>
      </trkpt>
      <trkpt lat="43.44115" lon="3.46819">
        <ele>110</ele>
        <time>2014-09-03T17:07:16.000Z</time>
      </trkpt>
      <trkpt lat="43.44115" lon="3.46827">
        <ele>110</ele>
        <time>2014-09-03T17:07:18.000Z</time>
      </trkpt>
      <trkpt lat="43.44115" lon="3.46827">
        <ele>110</ele>
        <time>2014-09-03T17:07:20.000Z</time>
      </trkpt>
      <trkpt lat="43.44118" lon="3.4684">
        <ele>109</ele>
        <time>2014-09-03T17:07:22.000Z</time>
      </trkpt>
      <trkpt lat="43.44123" lon="3.46846">
        <ele>109</ele>
        <time>2014-09-03T17:07:24.000Z</time>
      </trkpt>
      <trkpt lat="43.44128" lon="3.46852">
        <ele>111</ele>
        <time>2014-09-03T17:07:28.000Z</time>
      </trkpt>
      <trkpt lat="43.44128" lon="3.46852">
        <ele>111</ele>
        <time>2014-09-03T17:07:30.000Z</time>
      </trkpt>
      <trkpt lat="43.44128" lon="3.46852">
        <ele>111</ele>
        <time>2014-09-03T17:07:32.000Z</time>
      </trkpt>
      <trkpt lat="43.44128" lon="3.46852">
        <ele>111</ele>
        <time>2014-09-03T17:07:34.000Z</time>
      </trkpt>
      <trkpt lat="43.44126" lon="3.46857">
        <ele>108</ele>
        <time>2014-09-03T17:07:44.000Z</time>
      </trkpt>
      <trkpt lat="43.44126" lon="3.46857">
        <ele>108</ele>
        <time>2014-09-03T17:07:46.000Z</time>
      </trkpt>
      <trkpt lat="43.44124" lon="3.46863">
        <ele>107</ele>
        <time>2014-09-03T17:07:52.000Z</time>
      </trkpt>
      <trkpt lat="43.44123" lon="3.46869">
        <ele>107</ele>
        <time>2014-09-03T17:07:54.000Z</time>
      </trkpt>
      <trkpt lat="43.44122" lon="3.46875">
        <ele>109</ele>
        <time>2014-09-03T17:07:56.000Z</time>
      </trkpt>
      <trkpt lat="43.44121" lon="3.46881">
        <ele>109</ele>
        <time>2014-09-03T17:07:58.000Z</time>
      </trkpt>
      <trkpt lat="43.44118" lon="3.46885">
        <ele>109</ele>
        <time>2014-09-03T17:08:00.000Z</time>
      </trkpt>
      <trkpt lat="43.44113" lon="3.46892">
        <ele>109</ele>
        <time>2014-09-03T17:08:02.000Z</time>
      </trkpt>
      <trkpt lat="43.44113" lon="3.46892">
        <ele>109</ele>
        <time>2014-09-03T17:08:04.000Z</time>
      </trkpt>
      <trkpt lat="43.44107" lon="3.46898">
        <ele>109</ele>
        <time>2014-09-03T17:08:06.000Z</time>
      </trkpt>
      <trkpt lat="43.44107" lon="3.46898">
        <ele>109</ele>
        <time>2014-09-03T17:08:08.000Z</time>
      </trkpt>
      <trkpt lat="43.44107" lon="3.46898">
        <ele>109</ele>
        <time>2014-09-03T17:08:10.000Z</time>
      </trkpt>
      <trkpt lat="43.44107" lon="3.46898">
        <ele>109</ele>
        <time>2014-09-03T17:08:12.000Z</time>
      </trkpt>
      <trkpt lat="43.44107" lon="3.46898">
        <ele>109</ele>
        <time>2014-09-03T17:08:18.000Z</time>
      </trkpt>
      <trkpt lat="43.44107" lon="3.46898">
        <ele>109</ele>
        <time>2014-09-03T17:08:20.000Z</time>
      </trkpt>
      <trkpt lat="43.44115" lon="3.46905">
        <ele>114</ele>
        <time>2014-09-03T17:08:24.000Z</time>
      </trkpt>
      <trkpt lat="43.44115" lon="3.46905">
        <ele>114</ele>
        <time>2014-09-03T17:08:28.000Z</time>
      </trkpt>
      <trkpt lat="43.44115" lon="3.46905">
        <ele>114</ele>
        <time>2014-09-03T17:08:30.000Z</time>
      </trkpt>
      <trkpt lat="43.44115" lon="3.46905">
        <ele>114</ele>
        <time>2014-09-03T17:08:32.000Z</time>
      </trkpt>
      <trkpt lat="43.44113" lon="3.46917">
        <ele>109</ele>
        <time>2014-09-03T17:09:12.000Z</time>
      </trkpt>
      <trkpt lat="43.44111" lon="3.46924">
        <ele>110</ele>
        <time>2014-09-03T17:09:14.000Z</time>
      </trkpt>
      <trkpt lat="43.44109" lon="3.46928">
        <ele>110</ele>
        <time>2014-09-03T17:09:16.000Z</time>
      </trkpt>
      <trkpt lat="43.44108" lon="3.46934">
        <ele>110</ele>
        <time>2014-09-03T17:09:18.000Z</time>
      </trkpt>
      <trkpt lat="43.44107" lon="3.46939">
        <ele>109</ele>
        <time>2014-09-03T17:09:20.000Z</time>
      </trkpt>
      <trkpt lat="43.44104" lon="3.46948">
        <ele>111</ele>
        <time>2014-09-03T17:09:22.000Z</time>
      </trkpt>
      <trkpt lat="43.44104" lon="3.46948">
        <ele>111</ele>
        <time>2014-09-03T17:09:24.000Z</time>
      </trkpt>
      <trkpt lat="43.44104" lon="3.46948">
        <ele>111</ele>
        <time>2014-09-03T17:09:26.000Z</time>
      </trkpt>
      <trkpt lat="43.44104" lon="3.46948">
        <ele>111</ele>
        <time>2014-09-03T17:09:28.000Z</time>
      </trkpt>
      <trkpt lat="43.44104" lon="3.46948">
        <ele>111</ele>
        <time>2014-09-03T17:09:30.000Z</time>
      </trkpt>
      <trkpt lat="43.44106" lon="3.4697">
        <ele>115</ele>
        <time>2014-09-03T17:09:40.000Z</time>
      </trkpt>
      <trkpt lat="43.44106" lon="3.46979">
        <ele>112</ele>
        <time>2014-09-03T17:09:44.000Z</time>
      </trkpt>
      <trkpt lat="43.44106" lon="3.46979">
        <ele>112</ele>
        <time>2014-09-03T17:09:46.000Z</time>
      </trkpt>
      <trkpt lat="43.44106" lon="3.46979">
        <ele>112</ele>
        <time>2014-09-03T17:09:48.000Z</time>
      </trkpt>
      <trkpt lat="43.44111" lon="3.4702">
        <ele>122</ele>
        <time>2014-09-03T17:10:20.000Z</time>
      </trkpt>
      <trkpt lat="43.44116" lon="3.4703">
        <ele>122</ele>
        <time>2014-09-03T17:10:24.000Z</time>
      </trkpt>
      <trkpt lat="43.4412" lon="3.47041">
        <ele>122</ele>
        <time>2014-09-03T17:10:28.000Z</time>
      </trkpt>
      <trkpt lat="43.44123" lon="3.4705">
        <ele>122</ele>
        <time>2014-09-03T17:10:30.000Z</time>
      </trkpt>
      <trkpt lat="43.44128" lon="3.47055">
        <ele>124</ele>
        <time>2014-09-03T17:10:32.000Z</time>
      </trkpt>
      <trkpt lat="43.44134" lon="3.4706">
        <ele>125</ele>
        <time>2014-09-03T17:10:34.000Z</time>
      </trkpt>
      <trkpt lat="43.44138" lon="3.47066">
        <ele>124</ele>
        <time>2014-09-03T17:10:36.000Z</time>
      </trkpt>
      <trkpt lat="43.44138" lon="3.47066">
        <ele>124</ele>
        <time>2014-09-03T17:10:38.000Z</time>
      </trkpt>
      <trkpt lat="43.44138" lon="3.47066">
        <ele>124</ele>
        <time>2014-09-03T17:10:40.000Z</time>
      </trkpt>
      <trkpt lat="43.44139" lon="3.47069">
        <ele>122</ele>
        <time>2014-09-03T17:10:42.000Z</time>
      </trkpt>
      <trkpt lat="43.44139" lon="3.47069">
        <ele>122</ele>
        <time>2014-09-03T17:10:44.000Z</time>
      </trkpt>
      <trkpt lat="43.4414" lon="3.47074">
        <ele>121</ele>
        <time>2014-09-03T17:10:46.000Z</time>
      </trkpt>
      <trkpt lat="43.4414" lon="3.47074">
        <ele>121</ele>
        <time>2014-09-03T17:10:48.000Z</time>
      </trkpt>
      <trkpt lat="43.44143" lon="3.47079">
        <ele>123</ele>
        <time>2014-09-03T17:10:50.000Z</time>
      </trkpt>
      <trkpt lat="43.44146" lon="3.47084">
        <ele>121</ele>
        <time>2014-09-03T17:10:52.000Z</time>
      </trkpt>
      <trkpt lat="43.44149" lon="3.4709">
        <ele>121</ele>
        <time>2014-09-03T17:10:54.000Z</time>
      </trkpt>
      <trkpt lat="43.44152" lon="3.47098">
        <ele>122</ele>
        <time>2014-09-03T17:10:56.000Z</time>
      </trkpt>
      <trkpt lat="43.44154" lon="3.47105">
        <ele>123</ele>
        <time>2014-09-03T17:10:58.000Z</time>
      </trkpt>
      <trkpt lat="43.44156" lon="3.47122">
        <ele>122</ele>
        <time>2014-09-03T17:11:00.000Z</time>
      </trkpt>
      <trkpt lat="43.44154" lon="3.47129">
        <ele>123</ele>
        <time>2014-09-03T17:11:02.000Z</time>
      </trkpt>
      <trkpt lat="43.44157" lon="3.47143">
        <ele>121</ele>
        <time>2014-09-03T17:11:06.000Z</time>
      </trkpt>
      <trkpt lat="43.44157" lon="3.47143">
        <ele>121</ele>
        <time>2014-09-03T17:11:08.000Z</time>
      </trkpt>
      <trkpt lat="43.44163" lon="3.47151">
        <ele>122</ele>
        <time>2014-09-03T17:11:10.000Z</time>
      </trkpt>
      <trkpt lat="43.44163" lon="3.47151">
        <ele>122</ele>
        <time>2014-09-03T17:11:12.000Z</time>
      </trkpt>
      <trkpt lat="43.4417" lon="3.4716">
        <ele>121</ele>
        <time>2014-09-03T17:11:14.000Z</time>
      </trkpt>
      <trkpt lat="43.4417" lon="3.4716">
        <ele>121</ele>
        <time>2014-09-03T17:11:16.000Z</time>
      </trkpt>
      <trkpt lat="43.44174" lon="3.47173">
        <ele>123</ele>
        <time>2014-09-03T17:11:18.000Z</time>
      </trkpt>
      <trkpt lat="43.44179" lon="3.47182">
        <ele>122</ele>
        <time>2014-09-03T17:11:22.000Z</time>
      </trkpt>
      <trkpt lat="43.44179" lon="3.47182">
        <ele>122</ele>
        <time>2014-09-03T17:11:24.000Z</time>
      </trkpt>
      <trkpt lat="43.44184" lon="3.47191">
        <ele>125</ele>
        <time>2014-09-03T17:11:26.000Z</time>
      </trkpt>
      <trkpt lat="43.44184" lon="3.47191">
        <ele>125</ele>
        <time>2014-09-03T17:11:28.000Z</time>
      </trkpt>
      <trkpt lat="43.44193" lon="3.47198">
        <ele>122</ele>
        <time>2014-09-03T17:11:30.000Z</time>
      </trkpt>
      <trkpt lat="43.44193" lon="3.47198">
        <ele>122</ele>
        <time>2014-09-03T17:11:32.000Z</time>
      </trkpt>
      <trkpt lat="43.44202" lon="3.47204">
        <ele>122</ele>
        <time>2014-09-03T17:11:34.000Z</time>
      </trkpt>
      <trkpt lat="43.44202" lon="3.47204">
        <ele>122</ele>
        <time>2014-09-03T17:11:36.000Z</time>
      </trkpt>
      <trkpt lat="43.44208" lon="3.47212">
        <ele>122</ele>
        <time>2014-09-03T17:11:38.000Z</time>
      </trkpt>
      <trkpt lat="43.44207" lon="3.47229">
        <ele>120</ele>
        <time>2014-09-03T17:11:42.000Z</time>
      </trkpt>
      <trkpt lat="43.44207" lon="3.47238">
        <ele>120</ele>
        <time>2014-09-03T17:11:44.000Z</time>
      </trkpt>
      <trkpt lat="43.44207" lon="3.47248">
        <ele>122</ele>
        <time>2014-09-03T17:11:46.000Z</time>
      </trkpt>
      <trkpt lat="43.44207" lon="3.47257">
        <ele>123</ele>
        <time>2014-09-03T17:11:48.000Z</time>
      </trkpt>
      <trkpt lat="43.44204" lon="3.47266">
        <ele>121</ele>
        <time>2014-09-03T17:11:50.000Z</time>
      </trkpt>
      <trkpt lat="43.44204" lon="3.47274">
        <ele>120</ele>
        <time>2014-09-03T17:11:52.000Z</time>
      </trkpt>
      <trkpt lat="43.44203" lon="3.47283">
        <ele>118</ele>
        <time>2014-09-03T17:11:54.000Z</time>
      </trkpt>
      <trkpt lat="43.44201" lon="3.47291">
        <ele>119</ele>
        <time>2014-09-03T17:11:56.000Z</time>
      </trkpt>
      <trkpt lat="43.44199" lon="3.473">
        <ele>119</ele>
        <time>2014-09-03T17:11:58.000Z</time>
      </trkpt>
      <trkpt lat="43.44198" lon="3.47309">
        <ele>120</ele>
        <time>2014-09-03T17:12:00.000Z</time>
      </trkpt>
      <trkpt lat="43.44197" lon="3.47318">
        <ele>118</ele>
        <time>2014-09-03T17:12:02.000Z</time>
      </trkpt>
      <trkpt lat="43.44195" lon="3.47326">
        <ele>118</ele>
        <time>2014-09-03T17:12:04.000Z</time>
      </trkpt>
      <trkpt lat="43.44195" lon="3.47326">
        <ele>118</ele>
        <time>2014-09-03T17:12:06.000Z</time>
      </trkpt>
      <trkpt lat="43.44198" lon="3.47339">
        <ele>119</ele>
        <time>2014-09-03T17:12:08.000Z</time>
      </trkpt>
      <trkpt lat="43.44198" lon="3.47339">
        <ele>119</ele>
        <time>2014-09-03T17:12:10.000Z</time>
      </trkpt>
      <trkpt lat="43.44203" lon="3.47356">
        <ele>122</ele>
        <time>2014-09-03T17:12:12.000Z</time>
      </trkpt>
      <trkpt lat="43.44206" lon="3.47363">
        <ele>124</ele>
        <time>2014-09-03T17:12:14.000Z</time>
      </trkpt>
      <trkpt lat="43.44209" lon="3.47375">
        <ele>126</ele>
        <time>2014-09-03T17:12:18.000Z</time>
      </trkpt>
      <trkpt lat="43.44207" lon="3.47383">
        <ele>125</ele>
        <time>2014-09-03T17:12:20.000Z</time>
      </trkpt>
      <trkpt lat="43.44204" lon="3.47391">
        <ele>125</ele>
        <time>2014-09-03T17:12:22.000Z</time>
      </trkpt>
      <trkpt lat="43.44204" lon="3.474">
        <ele>125</ele>
        <time>2014-09-03T17:12:24.000Z</time>
      </trkpt>
      <trkpt lat="43.44205" lon="3.4741">
        <ele>125</ele>
        <time>2014-09-03T17:12:26.000Z</time>
      </trkpt>
      <trkpt lat="43.44208" lon="3.47419">
        <ele>126</ele>
        <time>2014-09-03T17:12:28.000Z</time>
      </trkpt>
      <trkpt lat="43.44207" lon="3.47427">
        <ele>126</ele>
        <time>2014-09-03T17:12:30.000Z</time>
      </trkpt>
      <trkpt lat="43.44204" lon="3.47435">
        <ele>125</ele>
        <time>2014-09-03T17:12:32.000Z</time>
      </trkpt>
      <trkpt lat="43.44202" lon="3.47443">
        <ele>126</ele>
        <time>2014-09-03T17:12:34.000Z</time>
      </trkpt>
      <trkpt lat="43.44201" lon="3.47451">
        <ele>126</ele>
        <time>2014-09-03T17:12:36.000Z</time>
      </trkpt>
      <trkpt lat="43.44203" lon="3.4746">
        <ele>126</ele>
        <time>2014-09-03T17:12:38.000Z</time>
      </trkpt>
      <trkpt lat="43.44205" lon="3.47468">
        <ele>126</ele>
        <time>2014-09-03T17:12:40.000Z</time>
      </trkpt>
      <trkpt lat="43.44205" lon="3.47478">
        <ele>127</ele>
        <time>2014-09-03T17:12:42.000Z</time>
      </trkpt>
      <trkpt lat="43.44204" lon="3.47488">
        <ele>125</ele>
        <time>2014-09-03T17:12:44.000Z</time>
      </trkpt>
      <trkpt lat="43.44202" lon="3.47497">
        <ele>125</ele>
        <time>2014-09-03T17:12:46.000Z</time>
      </trkpt>
      <trkpt lat="43.44198" lon="3.47507">
        <ele>125</ele>
        <time>2014-09-03T17:12:48.000Z</time>
      </trkpt>
      <trkpt lat="43.4419" lon="3.47515">
        <ele>124</ele>
        <time>2014-09-03T17:12:50.000Z</time>
      </trkpt>
      <trkpt lat="43.44183" lon="3.47523">
        <ele>125</ele>
        <time>2014-09-03T17:12:52.000Z</time>
      </trkpt>
      <trkpt lat="43.44176" lon="3.47531">
        <ele>126</ele>
        <time>2014-09-03T17:12:54.000Z</time>
      </trkpt>
      <trkpt lat="43.44168" lon="3.47541">
        <ele>125</ele>
        <time>2014-09-03T17:12:56.000Z</time>
      </trkpt>
      <trkpt lat="43.44164" lon="3.47558">
        <ele>124</ele>
        <time>2014-09-03T17:12:58.000Z</time>
      </trkpt>
      <trkpt lat="43.44158" lon="3.47572">
        <ele>123</ele>
        <time>2014-09-03T17:13:00.000Z</time>
      </trkpt>
      <trkpt lat="43.44153" lon="3.4758">
        <ele>123</ele>
        <time>2014-09-03T17:13:02.000Z</time>
      </trkpt>
      <trkpt lat="43.44149" lon="3.47593">
        <ele>123</ele>
        <time>2014-09-03T17:13:04.000Z</time>
      </trkpt>
      <trkpt lat="43.44145" lon="3.47607">
        <ele>123</ele>
        <time>2014-09-03T17:13:06.000Z</time>
      </trkpt>
      <trkpt lat="43.4414" lon="3.4762">
        <ele>122</ele>
        <time>2014-09-03T17:13:08.000Z</time>
      </trkpt>
      <trkpt lat="43.44136" lon="3.47633">
        <ele>122</ele>
        <time>2014-09-03T17:13:10.000Z</time>
      </trkpt>
      <trkpt lat="43.44135" lon="3.4765">
        <ele>124</ele>
        <time>2014-09-03T17:13:12.000Z</time>
      </trkpt>
      <trkpt lat="43.44135" lon="3.47666">
        <ele>123</ele>
        <time>2014-09-03T17:13:14.000Z</time>
      </trkpt>
      <trkpt lat="43.44135" lon="3.47684">
        <ele>122</ele>
        <time>2014-09-03T17:13:16.000Z</time>
      </trkpt>
      <trkpt lat="43.44133" lon="3.47701">
        <ele>122</ele>
        <time>2014-09-03T17:13:18.000Z</time>
      </trkpt>
      <trkpt lat="43.44133" lon="3.47712">
        <ele>123</ele>
        <time>2014-09-03T17:13:20.000Z</time>
      </trkpt>
      <trkpt lat="43.44136" lon="3.47723">
        <ele>124</ele>
        <time>2014-09-03T17:13:22.000Z</time>
      </trkpt>
      <trkpt lat="43.44134" lon="3.47732">
        <ele>123</ele>
        <time>2014-09-03T17:13:24.000Z</time>
      </trkpt>
      <trkpt lat="43.44129" lon="3.47738">
        <ele>123</ele>
        <time>2014-09-03T17:13:26.000Z</time>
      </trkpt>
      <trkpt lat="43.44124" lon="3.47746">
        <ele>124</ele>
        <time>2014-09-03T17:13:28.000Z</time>
      </trkpt>
      <trkpt lat="43.44118" lon="3.47753">
        <ele>123</ele>
        <time>2014-09-03T17:13:30.000Z</time>
      </trkpt>
      <trkpt lat="43.44114" lon="3.47758">
        <ele>122</ele>
        <time>2014-09-03T17:13:32.000Z</time>
      </trkpt>
      <trkpt lat="43.44112" lon="3.47767">
        <ele>119</ele>
        <time>2014-09-03T17:13:34.000Z</time>
      </trkpt>
      <trkpt lat="43.4411" lon="3.47775">
        <ele>122</ele>
        <time>2014-09-03T17:13:36.000Z</time>
      </trkpt>
      <trkpt lat="43.4411" lon="3.47775">
        <ele>122</ele>
        <time>2014-09-03T17:13:38.000Z</time>
      </trkpt>
      <trkpt lat="43.44109" lon="3.47786">
        <ele>124</ele>
        <time>2014-09-03T17:13:40.000Z</time>
      </trkpt>
      <trkpt lat="43.44109" lon="3.47786">
        <ele>124</ele>
        <time>2014-09-03T17:13:42.000Z</time>
      </trkpt>
      <trkpt lat="43.44112" lon="3.47799">
        <ele>124</ele>
        <time>2014-09-03T17:13:44.000Z</time>
      </trkpt>
      <trkpt lat="43.44115" lon="3.47808">
        <ele>125</ele>
        <time>2014-09-03T17:13:46.000Z</time>
      </trkpt>
      <trkpt lat="43.44118" lon="3.47815">
        <ele>125</ele>
        <time>2014-09-03T17:13:48.000Z</time>
      </trkpt>
      <trkpt lat="43.44122" lon="3.47826">
        <ele>126</ele>
        <time>2014-09-03T17:13:52.000Z</time>
      </trkpt>
      <trkpt lat="43.44122" lon="3.47826">
        <ele>126</ele>
        <time>2014-09-03T17:13:54.000Z</time>
      </trkpt>
      <trkpt lat="43.44126" lon="3.47837">
        <ele>128</ele>
        <time>2014-09-03T17:13:56.000Z</time>
      </trkpt>
      <trkpt lat="43.44131" lon="3.47851">
        <ele>127</ele>
        <time>2014-09-03T17:14:00.000Z</time>
      </trkpt>
      <trkpt lat="43.44136" lon="3.47863">
        <ele>125</ele>
        <time>2014-09-03T17:14:04.000Z</time>
      </trkpt>
      <trkpt lat="43.44136" lon="3.47863">
        <ele>125</ele>
        <time>2014-09-03T17:14:06.000Z</time>
      </trkpt>
      <trkpt lat="43.44141" lon="3.47874">
        <ele>128</ele>
        <time>2014-09-03T17:14:08.000Z</time>
      </trkpt>
      <trkpt lat="43.44141" lon="3.47874">
        <ele>128</ele>
        <time>2014-09-03T17:14:10.000Z</time>
      </trkpt>
      <trkpt lat="43.4414" lon="3.47887">
        <ele>128</ele>
        <time>2014-09-03T17:14:12.000Z</time>
      </trkpt>
      <trkpt lat="43.44139" lon="3.479">
        <ele>130</ele>
        <time>2014-09-03T17:14:14.000Z</time>
      </trkpt>
      <trkpt lat="43.44139" lon="3.47913">
        <ele>128</ele>
        <time>2014-09-03T17:14:16.000Z</time>
      </trkpt>
      <trkpt lat="43.44139" lon="3.47925">
        <ele>125</ele>
        <time>2014-09-03T17:14:18.000Z</time>
      </trkpt>
      <trkpt lat="43.44137" lon="3.47935">
        <ele>127</ele>
        <time>2014-09-03T17:14:20.000Z</time>
      </trkpt>
      <trkpt lat="43.44132" lon="3.47942">
        <ele>128</ele>
        <time>2014-09-03T17:14:22.000Z</time>
      </trkpt>
      <trkpt lat="43.44125" lon="3.47947">
        <ele>128</ele>
        <time>2014-09-03T17:14:24.000Z</time>
      </trkpt>
      <trkpt lat="43.4412" lon="3.47959">
        <ele>129</ele>
        <time>2014-09-03T17:14:26.000Z</time>
      </trkpt>
      <trkpt lat="43.44115" lon="3.47968">
        <ele>130</ele>
        <time>2014-09-03T17:14:28.000Z</time>
      </trkpt>
      <trkpt lat="43.44109" lon="3.47975">
        <ele>130</ele>
        <time>2014-09-03T17:14:30.000Z</time>
      </trkpt>
      <trkpt lat="43.44109" lon="3.47975">
        <ele>130</ele>
        <time>2014-09-03T17:14:32.000Z</time>
      </trkpt>
      <trkpt lat="43.44109" lon="3.47975">
        <ele>130</ele>
        <time>2014-09-03T17:14:34.000Z</time>
      </trkpt>
      <trkpt lat="43.44109" lon="3.47975">
        <ele>130</ele>
        <time>2014-09-03T17:14:36.000Z</time>
      </trkpt>
      <trkpt lat="43.44104" lon="3.4798">
        <ele>132</ele>
        <time>2014-09-03T17:14:42.000Z</time>
      </trkpt>
      <trkpt lat="43.44104" lon="3.4798">
        <ele>132</ele>
        <time>2014-09-03T17:14:44.000Z</time>
      </trkpt>
      <trkpt lat="43.44104" lon="3.4798">
        <ele>132</ele>
        <time>2014-09-03T17:14:46.000Z</time>
      </trkpt>
      <trkpt lat="43.44104" lon="3.4798">
        <ele>132</ele>
        <time>2014-09-03T17:14:48.000Z</time>
      </trkpt>
      <trkpt lat="43.44104" lon="3.4798">
        <ele>132</ele>
        <time>2014-09-03T17:14:50.000Z</time>
      </trkpt>
      <trkpt lat="43.44099" lon="3.47988">
        <ele>141</ele>
        <time>2014-09-03T17:15:34.000Z</time>
      </trkpt>
      <trkpt lat="43.44097" lon="3.47996">
        <ele>141</ele>
        <time>2014-09-03T17:15:36.000Z</time>
      </trkpt>
      <trkpt lat="43.44095" lon="3.48004">
        <ele>141</ele>
        <time>2014-09-03T17:15:38.000Z</time>
      </trkpt>
      <trkpt lat="43.44094" lon="3.48012">
        <ele>140</ele>
        <time>2014-09-03T17:15:40.000Z</time>
      </trkpt>
      <trkpt lat="43.44094" lon="3.48021">
        <ele>142</ele>
        <time>2014-09-03T17:15:42.000Z</time>
      </trkpt>
      <trkpt lat="43.44093" lon="3.4804">
        <ele>142</ele>
        <time>2014-09-03T17:15:44.000Z</time>
      </trkpt>
      <trkpt lat="43.44096" lon="3.4805">
        <ele>142</ele>
        <time>2014-09-03T17:15:46.000Z</time>
      </trkpt>
      <trkpt lat="43.44104" lon="3.48059">
        <ele>142</ele>
        <time>2014-09-03T17:15:48.000Z</time>
      </trkpt>
      <trkpt lat="43.44111" lon="3.48067">
        <ele>141</ele>
        <time>2014-09-03T17:15:50.000Z</time>
      </trkpt>
      <trkpt lat="43.44114" lon="3.48078">
        <ele>140</ele>
        <time>2014-09-03T17:15:52.000Z</time>
      </trkpt>
      <trkpt lat="43.44115" lon="3.4809">
        <ele>141</ele>
        <time>2014-09-03T17:15:54.000Z</time>
      </trkpt>
      <trkpt lat="43.44118" lon="3.481">
        <ele>140</ele>
        <time>2014-09-03T17:15:56.000Z</time>
      </trkpt>
      <trkpt lat="43.4413" lon="3.48109">
        <ele>143</ele>
        <time>2014-09-03T17:15:58.000Z</time>
      </trkpt>
      <trkpt lat="43.44135" lon="3.48119">
        <ele>142</ele>
        <time>2014-09-03T17:16:01.000Z</time>
      </trkpt>
      <trkpt lat="43.44135" lon="3.48119">
        <ele>142</ele>
        <time>2014-09-03T17:16:03.000Z</time>
      </trkpt>
      <trkpt lat="43.44137" lon="3.48132">
        <ele>144</ele>
        <time>2014-09-03T17:16:05.000Z</time>
      </trkpt>
      <trkpt lat="43.44135" lon="3.48142">
        <ele>144</ele>
        <time>2014-09-03T17:16:07.000Z</time>
      </trkpt>
      <trkpt lat="43.44133" lon="3.4815">
        <ele>143</ele>
        <time>2014-09-03T17:16:09.000Z</time>
      </trkpt>
      <trkpt lat="43.44131" lon="3.48159">
        <ele>142</ele>
        <time>2014-09-03T17:16:11.000Z</time>
      </trkpt>
      <trkpt lat="43.44128" lon="3.48169">
        <ele>143</ele>
        <time>2014-09-03T17:16:13.000Z</time>
      </trkpt>
      <trkpt lat="43.44124" lon="3.48179">
        <ele>143</ele>
        <time>2014-09-03T17:16:15.000Z</time>
      </trkpt>
      <trkpt lat="43.44119" lon="3.48186">
        <ele>144</ele>
        <time>2014-09-03T17:16:17.000Z</time>
      </trkpt>
      <trkpt lat="43.44114" lon="3.48193">
        <ele>143</ele>
        <time>2014-09-03T17:16:19.000Z</time>
      </trkpt>
      <trkpt lat="43.44106" lon="3.48203">
        <ele>143</ele>
        <time>2014-09-03T17:16:21.000Z</time>
      </trkpt>
      <trkpt lat="43.44098" lon="3.48214">
        <ele>142</ele>
        <time>2014-09-03T17:16:23.000Z</time>
      </trkpt>
      <trkpt lat="43.44096" lon="3.48228">
        <ele>140</ele>
        <time>2014-09-03T17:16:25.000Z</time>
      </trkpt>
      <trkpt lat="43.44094" lon="3.48238">
        <ele>140</ele>
        <time>2014-09-03T17:16:27.000Z</time>
      </trkpt>
      <trkpt lat="43.44092" lon="3.48247">
        <ele>139</ele>
        <time>2014-09-03T17:16:29.000Z</time>
      </trkpt>
      <trkpt lat="43.44086" lon="3.48255">
        <ele>139</ele>
        <time>2014-09-03T17:16:31.000Z</time>
      </trkpt>
      <trkpt lat="43.44081" lon="3.4826">
        <ele>138</ele>
        <time>2014-09-03T17:16:33.000Z</time>
      </trkpt>
      <trkpt lat="43.44074" lon="3.48265">
        <ele>137</ele>
        <time>2014-09-03T17:16:35.000Z</time>
      </trkpt>
      <trkpt lat="43.44068" lon="3.48274">
        <ele>136</ele>
        <time>2014-09-03T17:16:37.000Z</time>
      </trkpt>
      <trkpt lat="43.4406" lon="3.48288">
        <ele>136</ele>
        <time>2014-09-03T17:16:39.000Z</time>
      </trkpt>
      <trkpt lat="43.44054" lon="3.48301">
        <ele>135</ele>
        <time>2014-09-03T17:16:41.000Z</time>
      </trkpt>
      <trkpt lat="43.44049" lon="3.48318">
        <ele>134</ele>
        <time>2014-09-03T17:16:43.000Z</time>
      </trkpt>
      <trkpt lat="43.44045" lon="3.48335">
        <ele>134</ele>
        <time>2014-09-03T17:16:45.000Z</time>
      </trkpt>
      <trkpt lat="43.44041" lon="3.4835">
        <ele>134</ele>
        <time>2014-09-03T17:16:47.000Z</time>
      </trkpt>
      <trkpt lat="43.44039" lon="3.48364">
        <ele>135</ele>
        <time>2014-09-03T17:16:49.000Z</time>
      </trkpt>
      <trkpt lat="43.44035" lon="3.48379">
        <ele>135</ele>
        <time>2014-09-03T17:16:51.000Z</time>
      </trkpt>
      <trkpt lat="43.44034" lon="3.48396">
        <ele>135</ele>
        <time>2014-09-03T17:16:53.000Z</time>
      </trkpt>
      <trkpt lat="43.44031" lon="3.48407">
        <ele>132</ele>
        <time>2014-09-03T17:16:55.000Z</time>
      </trkpt>
      <trkpt lat="43.44027" lon="3.48414">
        <ele>130</ele>
        <time>2014-09-03T17:16:57.000Z</time>
      </trkpt>
      <trkpt lat="43.44024" lon="3.4842">
        <ele>132</ele>
        <time>2014-09-03T17:16:59.000Z</time>
      </trkpt>
      <trkpt lat="43.44019" lon="3.48431">
        <ele>131</ele>
        <time>2014-09-03T17:17:01.000Z</time>
      </trkpt>
      <trkpt lat="43.44012" lon="3.48441">
        <ele>130</ele>
        <time>2014-09-03T17:17:03.000Z</time>
      </trkpt>
      <trkpt lat="43.44004" lon="3.48454">
        <ele>130</ele>
        <time>2014-09-03T17:17:05.000Z</time>
      </trkpt>
      <trkpt lat="43.43997" lon="3.48466">
        <ele>127</ele>
        <time>2014-09-03T17:17:07.000Z</time>
      </trkpt>
      <trkpt lat="43.43991" lon="3.48475">
        <ele>127</ele>
        <time>2014-09-03T17:17:09.000Z</time>
      </trkpt>
      <trkpt lat="43.43983" lon="3.48486">
        <ele>125</ele>
        <time>2014-09-03T17:17:11.000Z</time>
      </trkpt>
      <trkpt lat="43.43979" lon="3.48494">
        <ele>124</ele>
        <time>2014-09-03T17:17:13.000Z</time>
      </trkpt>
      <trkpt lat="43.43976" lon="3.48505">
        <ele>124</ele>
        <time>2014-09-03T17:17:15.000Z</time>
      </trkpt>
      <trkpt lat="43.43978" lon="3.48513">
        <ele>127</ele>
        <time>2014-09-03T17:17:17.000Z</time>
      </trkpt>
      <trkpt lat="43.43977" lon="3.48526">
        <ele>125</ele>
        <time>2014-09-03T17:17:19.000Z</time>
      </trkpt>
      <trkpt lat="43.43977" lon="3.48539">
        <ele>122</ele>
        <time>2014-09-03T17:17:21.000Z</time>
      </trkpt>
      <trkpt lat="43.43976" lon="3.48552">
        <ele>122</ele>
        <time>2014-09-03T17:17:23.000Z</time>
      </trkpt>
      <trkpt lat="43.43969" lon="3.48561">
        <ele>117</ele>
        <time>2014-09-03T17:17:25.000Z</time>
      </trkpt>
      <trkpt lat="43.43964" lon="3.48572">
        <ele>125</ele>
        <time>2014-09-03T17:17:27.000Z</time>
      </trkpt>
      <trkpt lat="43.43961" lon="3.48582">
        <ele>126</ele>
        <time>2014-09-03T17:17:29.000Z</time>
      </trkpt>
      <trkpt lat="43.43958" lon="3.4859">
        <ele>123</ele>
        <time>2014-09-03T17:17:31.000Z</time>
      </trkpt>
      <trkpt lat="43.43956" lon="3.486">
        <ele>122</ele>
        <time>2014-09-03T17:17:33.000Z</time>
      </trkpt>
      <trkpt lat="43.43954" lon="3.48611">
        <ele>121</ele>
        <time>2014-09-03T17:17:35.000Z</time>
      </trkpt>
      <trkpt lat="43.43951" lon="3.48621">
        <ele>121</ele>
        <time>2014-09-03T17:17:37.000Z</time>
      </trkpt>
      <trkpt lat="43.43946" lon="3.48631">
        <ele>121</ele>
        <time>2014-09-03T17:17:39.000Z</time>
      </trkpt>
      <trkpt lat="43.43941" lon="3.4864">
        <ele>121</ele>
        <time>2014-09-03T17:17:41.000Z</time>
      </trkpt>
      <trkpt lat="43.43937" lon="3.48645">
        <ele>120</ele>
        <time>2014-09-03T17:17:43.000Z</time>
      </trkpt>
      <trkpt lat="43.43937" lon="3.48645">
        <ele>120</ele>
        <time>2014-09-03T17:17:45.000Z</time>
      </trkpt>
      <trkpt lat="43.43927" lon="3.4865">
        <ele>121</ele>
        <time>2014-09-03T17:17:47.000Z</time>
      </trkpt>
      <trkpt lat="43.43921" lon="3.48651">
        <ele>122</ele>
        <time>2014-09-03T17:17:49.000Z</time>
      </trkpt>
      <trkpt lat="43.43921" lon="3.48651">
        <ele>122</ele>
        <time>2014-09-03T17:17:51.000Z</time>
      </trkpt>
      <trkpt lat="43.43916" lon="3.48659">
        <ele>122</ele>
        <time>2014-09-03T17:17:53.000Z</time>
      </trkpt>
      <trkpt lat="43.43916" lon="3.48659">
        <ele>122</ele>
        <time>2014-09-03T17:17:55.000Z</time>
      </trkpt>
      <trkpt lat="43.43912" lon="3.48668">
        <ele>122</ele>
        <time>2014-09-03T17:17:57.000Z</time>
      </trkpt>
      <trkpt lat="43.43912" lon="3.48668">
        <ele>122</ele>
        <time>2014-09-03T17:17:59.000Z</time>
      </trkpt>
      <trkpt lat="43.43904" lon="3.48678">
        <ele>121</ele>
        <time>2014-09-03T17:18:01.000Z</time>
      </trkpt>
      <trkpt lat="43.439" lon="3.48686">
        <ele>120</ele>
        <time>2014-09-03T17:18:03.000Z</time>
      </trkpt>
      <trkpt lat="43.43898" lon="3.48697">
        <ele>121</ele>
        <time>2014-09-03T17:18:05.000Z</time>
      </trkpt>
      <trkpt lat="43.43896" lon="3.48707">
        <ele>120</ele>
        <time>2014-09-03T17:18:07.000Z</time>
      </trkpt>
      <trkpt lat="43.43894" lon="3.48719">
        <ele>121</ele>
        <time>2014-09-03T17:18:09.000Z</time>
      </trkpt>
      <trkpt lat="43.43892" lon="3.48731">
        <ele>122</ele>
        <time>2014-09-03T17:18:11.000Z</time>
      </trkpt>
      <trkpt lat="43.43888" lon="3.4874">
        <ele>123</ele>
        <time>2014-09-03T17:18:13.000Z</time>
      </trkpt>
      <trkpt lat="43.43888" lon="3.48769">
        <ele>122</ele>
        <time>2014-09-03T17:18:16.000Z</time>
      </trkpt>
      <trkpt lat="43.43888" lon="3.48784">
        <ele>121</ele>
        <time>2014-09-03T17:18:18.000Z</time>
      </trkpt>
      <trkpt lat="43.43887" lon="3.48798">
        <ele>119</ele>
        <time>2014-09-03T17:18:20.000Z</time>
      </trkpt>
      <trkpt lat="43.43888" lon="3.48811">
        <ele>119</ele>
        <time>2014-09-03T17:18:22.000Z</time>
      </trkpt>
      <trkpt lat="43.43891" lon="3.48825">
        <ele>118</ele>
        <time>2014-09-03T17:18:24.000Z</time>
      </trkpt>
      <trkpt lat="43.43895" lon="3.48834">
        <ele>118</ele>
        <time>2014-09-03T17:18:26.000Z</time>
      </trkpt>
      <trkpt lat="43.439" lon="3.48842">
        <ele>117</ele>
        <time>2014-09-03T17:18:28.000Z</time>
      </trkpt>
      <trkpt lat="43.43905" lon="3.48855">
        <ele>118</ele>
        <time>2014-09-03T17:18:30.000Z</time>
      </trkpt>
      <trkpt lat="43.43913" lon="3.48869">
        <ele>119</ele>
        <time>2014-09-03T17:18:32.000Z</time>
      </trkpt>
      <trkpt lat="43.43918" lon="3.48885">
        <ele>119</ele>
        <time>2014-09-03T17:18:34.000Z</time>
      </trkpt>
      <trkpt lat="43.4392" lon="3.48898">
        <ele>119</ele>
        <time>2014-09-03T17:18:36.000Z</time>
      </trkpt>
      <trkpt lat="43.43921" lon="3.48912">
        <ele>119</ele>
        <time>2014-09-03T17:18:38.000Z</time>
      </trkpt>
      <trkpt lat="43.43918" lon="3.48926">
        <ele>119</ele>
        <time>2014-09-03T17:18:40.000Z</time>
      </trkpt>
      <trkpt lat="43.43916" lon="3.48941">
        <ele>118</ele>
        <time>2014-09-03T17:18:42.000Z</time>
      </trkpt>
      <trkpt lat="43.43911" lon="3.48954">
        <ele>117</ele>
        <time>2014-09-03T17:18:44.000Z</time>
      </trkpt>
      <trkpt lat="43.43906" lon="3.48966">
        <ele>118</ele>
        <time>2014-09-03T17:18:46.000Z</time>
      </trkpt>
      <trkpt lat="43.43903" lon="3.48977">
        <ele>117</ele>
        <time>2014-09-03T17:18:48.000Z</time>
      </trkpt>
      <trkpt lat="43.43898" lon="3.48988">
        <ele>115</ele>
        <time>2014-09-03T17:18:50.000Z</time>
      </trkpt>
      <trkpt lat="43.43894" lon="3.49">
        <ele>116</ele>
        <time>2014-09-03T17:18:52.000Z</time>
      </trkpt>
      <trkpt lat="43.43887" lon="3.49012">
        <ele>117</ele>
        <time>2014-09-03T17:18:54.000Z</time>
      </trkpt>
      <trkpt lat="43.43882" lon="3.49021">
        <ele>117</ele>
        <time>2014-09-03T17:18:56.000Z</time>
      </trkpt>
      <trkpt lat="43.43875" lon="3.49034">
        <ele>117</ele>
        <time>2014-09-03T17:18:58.000Z</time>
      </trkpt>
      <trkpt lat="43.43867" lon="3.49041">
        <ele>118</ele>
        <time>2014-09-03T17:19:00.000Z</time>
      </trkpt>
      <trkpt lat="43.43858" lon="3.49041">
        <ele>117</ele>
        <time>2014-09-03T17:19:02.000Z</time>
      </trkpt>
      <trkpt lat="43.4385" lon="3.49042">
        <ele>118</ele>
        <time>2014-09-03T17:19:04.000Z</time>
      </trkpt>
      <trkpt lat="43.43843" lon="3.49046">
        <ele>118</ele>
        <time>2014-09-03T17:19:06.000Z</time>
      </trkpt>
      <trkpt lat="43.4384" lon="3.49055">
        <ele>117</ele>
        <time>2014-09-03T17:19:08.000Z</time>
      </trkpt>
      <trkpt lat="43.43839" lon="3.49069">
        <ele>118</ele>
        <time>2014-09-03T17:19:10.000Z</time>
      </trkpt>
      <trkpt lat="43.43835" lon="3.49082">
        <ele>118</ele>
        <time>2014-09-03T17:19:12.000Z</time>
      </trkpt>
      <trkpt lat="43.43832" lon="3.49098">
        <ele>117</ele>
        <time>2014-09-03T17:19:14.000Z</time>
      </trkpt>
      <trkpt lat="43.4383" lon="3.49112">
        <ele>118</ele>
        <time>2014-09-03T17:19:16.000Z</time>
      </trkpt>
      <trkpt lat="43.43826" lon="3.49124">
        <ele>119</ele>
        <time>2014-09-03T17:19:18.000Z</time>
      </trkpt>
      <trkpt lat="43.4382" lon="3.49135">
        <ele>119</ele>
        <time>2014-09-03T17:19:20.000Z</time>
      </trkpt>
      <trkpt lat="43.43815" lon="3.49141">
        <ele>118</ele>
        <time>2014-09-03T17:19:22.000Z</time>
      </trkpt>
      <trkpt lat="43.43815" lon="3.49141">
        <ele>118</ele>
        <time>2014-09-03T17:19:24.000Z</time>
      </trkpt>
      <trkpt lat="43.43806" lon="3.49148">
        <ele>117</ele>
        <time>2014-09-03T17:19:26.000Z</time>
      </trkpt>
      <trkpt lat="43.43802" lon="3.49157">
        <ele>116</ele>
        <time>2014-09-03T17:19:28.000Z</time>
      </trkpt>
      <trkpt lat="43.43798" lon="3.49166">
        <ele>116</ele>
        <time>2014-09-03T17:19:30.000Z</time>
      </trkpt>
      <trkpt lat="43.43796" lon="3.49177">
        <ele>116</ele>
        <time>2014-09-03T17:19:32.000Z</time>
      </trkpt>
      <trkpt lat="43.43792" lon="3.49189">
        <ele>116</ele>
        <time>2014-09-03T17:19:34.000Z</time>
      </trkpt>
      <trkpt lat="43.43788" lon="3.49201">
        <ele>117</ele>
        <time>2014-09-03T17:19:36.000Z</time>
      </trkpt>
      <trkpt lat="43.43786" lon="3.4921">
        <ele>117</ele>
        <time>2014-09-03T17:19:38.000Z</time>
      </trkpt>
      <trkpt lat="43.43786" lon="3.4921">
        <ele>117</ele>
        <time>2014-09-03T17:19:40.000Z</time>
      </trkpt>
      <trkpt lat="43.43789" lon="3.49222">
        <ele>117</ele>
        <time>2014-09-03T17:19:42.000Z</time>
      </trkpt>
      <trkpt lat="43.43795" lon="3.49226">
        <ele>116</ele>
        <time>2014-09-03T17:19:44.000Z</time>
      </trkpt>
      <trkpt lat="43.438" lon="3.49232">
        <ele>117</ele>
        <time>2014-09-03T17:19:46.000Z</time>
      </trkpt>
      <trkpt lat="43.4381" lon="3.49242">
        <ele>116</ele>
        <time>2014-09-03T17:19:50.000Z</time>
      </trkpt>
      <trkpt lat="43.43817" lon="3.49248">
        <ele>117</ele>
        <time>2014-09-03T17:19:52.000Z</time>
      </trkpt>
      <trkpt lat="43.43825" lon="3.49257">
        <ele>119</ele>
        <time>2014-09-03T17:19:54.000Z</time>
      </trkpt>
      <trkpt lat="43.43832" lon="3.49266">
        <ele>119</ele>
        <time>2014-09-03T17:19:56.000Z</time>
      </trkpt>
      <trkpt lat="43.4384" lon="3.49274">
        <ele>120</ele>
        <time>2014-09-03T17:19:58.000Z</time>
      </trkpt>
      <trkpt lat="43.43845" lon="3.49286">
        <ele>121</ele>
        <time>2014-09-03T17:20:00.000Z</time>
      </trkpt>
      <trkpt lat="43.43851" lon="3.49296">
        <ele>118</ele>
        <time>2014-09-03T17:20:02.000Z</time>
      </trkpt>
      <trkpt lat="43.43851" lon="3.49309">
        <ele>120</ele>
        <time>2014-09-03T17:20:04.000Z</time>
      </trkpt>
      <trkpt lat="43.43848" lon="3.49319">
        <ele>119</ele>
        <time>2014-09-03T17:20:06.000Z</time>
      </trkpt>
      <trkpt lat="43.43851" lon="3.49333">
        <ele>117</ele>
        <time>2014-09-03T17:20:08.000Z</time>
      </trkpt>
      <trkpt lat="43.43849" lon="3.49345">
        <ele>114</ele>
        <time>2014-09-03T17:20:10.000Z</time>
      </trkpt>
      <trkpt lat="43.43845" lon="3.49357">
        <ele>113</ele>
        <time>2014-09-03T17:20:12.000Z</time>
      </trkpt>
      <trkpt lat="43.43842" lon="3.49372">
        <ele>113</ele>
        <time>2014-09-03T17:20:14.000Z</time>
      </trkpt>
      <trkpt lat="43.43839" lon="3.49387">
        <ele>114</ele>
        <time>2014-09-03T17:20:16.000Z</time>
      </trkpt>
      <trkpt lat="43.43838" lon="3.49405">
        <ele>113</ele>
        <time>2014-09-03T17:20:18.000Z</time>
      </trkpt>
      <trkpt lat="43.43834" lon="3.49421">
        <ele>113</ele>
        <time>2014-09-03T17:20:20.000Z</time>
      </trkpt>
      <trkpt lat="43.43834" lon="3.49437">
        <ele>111</ele>
        <time>2014-09-03T17:20:22.000Z</time>
      </trkpt>
      <trkpt lat="43.43835" lon="3.49454">
        <ele>110</ele>
        <time>2014-09-03T17:20:24.000Z</time>
      </trkpt>
      <trkpt lat="43.43838" lon="3.49473">
        <ele>111</ele>
        <time>2014-09-03T17:20:26.000Z</time>
      </trkpt>
      <trkpt lat="43.4384" lon="3.49491">
        <ele>109</ele>
        <time>2014-09-03T17:20:28.000Z</time>
      </trkpt>
      <trkpt lat="43.43844" lon="3.49511">
        <ele>110</ele>
        <time>2014-09-03T17:20:30.000Z</time>
      </trkpt>
      <trkpt lat="43.43846" lon="3.49533">
        <ele>110</ele>
        <time>2014-09-03T17:20:32.000Z</time>
      </trkpt>
      <trkpt lat="43.4385" lon="3.49551">
        <ele>108</ele>
        <time>2014-09-03T17:20:34.000Z</time>
      </trkpt>
      <trkpt lat="43.43854" lon="3.49567">
        <ele>108</ele>
        <time>2014-09-03T17:20:36.000Z</time>
      </trkpt>
      <trkpt lat="43.4386" lon="3.49585">
        <ele>108</ele>
        <time>2014-09-03T17:20:38.000Z</time>
      </trkpt>
      <trkpt lat="43.43865" lon="3.49599">
        <ele>107</ele>
        <time>2014-09-03T17:20:40.000Z</time>
      </trkpt>
      <trkpt lat="43.43866" lon="3.49613">
        <ele>107</ele>
        <time>2014-09-03T17:20:42.000Z</time>
      </trkpt>
      <trkpt lat="43.43864" lon="3.49628">
        <ele>107</ele>
        <time>2014-09-03T17:20:44.000Z</time>
      </trkpt>
      <trkpt lat="43.43862" lon="3.49644">
        <ele>107</ele>
        <time>2014-09-03T17:20:46.000Z</time>
      </trkpt>
      <trkpt lat="43.43859" lon="3.49659">
        <ele>107</ele>
        <time>2014-09-03T17:20:48.000Z</time>
      </trkpt>
      <trkpt lat="43.43856" lon="3.49672">
        <ele>106</ele>
        <time>2014-09-03T17:20:50.000Z</time>
      </trkpt>
      <trkpt lat="43.43852" lon="3.49688">
        <ele>106</ele>
        <time>2014-09-03T17:20:52.000Z</time>
      </trkpt>
      <trkpt lat="43.43847" lon="3.49704">
        <ele>104</ele>
        <time>2014-09-03T17:20:54.000Z</time>
      </trkpt>
      <trkpt lat="43.43839" lon="3.49718">
        <ele>104</ele>
        <time>2014-09-03T17:20:56.000Z</time>
      </trkpt>
      <trkpt lat="43.43836" lon="3.49731">
        <ele>104</ele>
        <time>2014-09-03T17:20:58.000Z</time>
      </trkpt>
      <trkpt lat="43.43832" lon="3.49745">
        <ele>103</ele>
        <time>2014-09-03T17:21:00.000Z</time>
      </trkpt>
      <trkpt lat="43.43831" lon="3.49762">
        <ele>105</ele>
        <time>2014-09-03T17:21:02.000Z</time>
      </trkpt>
      <trkpt lat="43.43829" lon="3.49777">
        <ele>105</ele>
        <time>2014-09-03T17:21:05.000Z</time>
      </trkpt>
      <trkpt lat="43.43829" lon="3.49788">
        <ele>105</ele>
        <time>2014-09-03T17:21:07.000Z</time>
      </trkpt>
      <trkpt lat="43.43829" lon="3.49788">
        <ele>105</ele>
        <time>2014-09-03T17:21:09.000Z</time>
      </trkpt>
      <trkpt lat="43.43826" lon="3.49803">
        <ele>106</ele>
        <time>2014-09-03T17:21:11.000Z</time>
      </trkpt>
      <trkpt lat="43.43826" lon="3.49811">
        <ele>105</ele>
        <time>2014-09-03T17:21:13.000Z</time>
      </trkpt>
      <trkpt lat="43.43826" lon="3.49821">
        <ele>106</ele>
        <time>2014-09-03T17:21:15.000Z</time>
      </trkpt>
      <trkpt lat="43.43826" lon="3.4983">
        <ele>104</ele>
        <time>2014-09-03T17:21:17.000Z</time>
      </trkpt>
      <trkpt lat="43.43828" lon="3.49839">
        <ele>105</ele>
        <time>2014-09-03T17:21:19.000Z</time>
      </trkpt>
      <trkpt lat="43.43829" lon="3.49848">
        <ele>105</ele>
        <time>2014-09-03T17:21:21.000Z</time>
      </trkpt>
      <trkpt lat="43.4383" lon="3.49857">
        <ele>105</ele>
        <time>2014-09-03T17:21:23.000Z</time>
      </trkpt>
      <trkpt lat="43.4383" lon="3.49865">
        <ele>105</ele>
        <time>2014-09-03T17:21:25.000Z</time>
      </trkpt>
      <trkpt lat="43.4383" lon="3.49865">
        <ele>105</ele>
        <time>2014-09-03T17:21:27.000Z</time>
      </trkpt>
      <trkpt lat="43.43827" lon="3.49878">
        <ele>105</ele>
        <time>2014-09-03T17:21:29.000Z</time>
      </trkpt>
      <trkpt lat="43.43824" lon="3.49886">
        <ele>107</ele>
        <time>2014-09-03T17:21:31.000Z</time>
      </trkpt>
      <trkpt lat="43.43821" lon="3.49894">
        <ele>105</ele>
        <time>2014-09-03T17:21:33.000Z</time>
      </trkpt>
      <trkpt lat="43.43816" lon="3.499">
        <ele>107</ele>
        <time>2014-09-03T17:21:35.000Z</time>
      </trkpt>
      <trkpt lat="43.4381" lon="3.49904">
        <ele>107</ele>
        <time>2014-09-03T17:21:37.000Z</time>
      </trkpt>
      <trkpt lat="43.43803" lon="3.49907">
        <ele>106</ele>
        <time>2014-09-03T17:21:39.000Z</time>
      </trkpt>
      <trkpt lat="43.43803" lon="3.49907">
        <ele>106</ele>
        <time>2014-09-03T17:21:41.000Z</time>
      </trkpt>
      <trkpt lat="43.43798" lon="3.49911">
        <ele>109</ele>
        <time>2014-09-03T17:21:43.000Z</time>
      </trkpt>
      <trkpt lat="43.43798" lon="3.49911">
        <ele>109</ele>
        <time>2014-09-03T17:21:45.000Z</time>
      </trkpt>
      <trkpt lat="43.43798" lon="3.49911">
        <ele>109</ele>
        <time>2014-09-03T17:21:47.000Z</time>
      </trkpt>
      <trkpt lat="43.438" lon="3.49925">
        <ele>110</ele>
        <time>2014-09-03T17:21:49.000Z</time>
      </trkpt>
      <trkpt lat="43.43799" lon="3.49933">
        <ele>109</ele>
        <time>2014-09-03T17:21:51.000Z</time>
      </trkpt>
      <trkpt lat="43.43799" lon="3.49933">
        <ele>109</ele>
        <time>2014-09-03T17:21:55.000Z</time>
      </trkpt>
      <trkpt lat="43.43799" lon="3.49933">
        <ele>109</ele>
        <time>2014-09-03T17:21:57.000Z</time>
      </trkpt>
      <trkpt lat="43.43799" lon="3.49933">
        <ele>109</ele>
        <time>2014-09-03T17:21:59.000Z</time>
      </trkpt>
      <trkpt lat="43.43799" lon="3.49933">
        <ele>109</ele>
        <time>2014-09-03T17:22:07.000Z</time>
      </trkpt>
      <trkpt lat="43.43793" lon="3.4997">
        <ele>117</ele>
        <time>2014-09-03T17:22:17.000Z</time>
      </trkpt>
      <trkpt lat="43.4379" lon="3.49979">
        <ele>115</ele>
        <time>2014-09-03T17:22:21.000Z</time>
      </trkpt>
      <trkpt lat="43.43785" lon="3.49988">
        <ele>115</ele>
        <time>2014-09-03T17:22:25.000Z</time>
      </trkpt>
      <trkpt lat="43.43779" lon="3.49994">
        <ele>116</ele>
        <time>2014-09-03T17:22:29.000Z</time>
      </trkpt>
      <trkpt lat="43.43773" lon="3.49999">
        <ele>118</ele>
        <time>2014-09-03T17:22:33.000Z</time>
      </trkpt>
      <trkpt lat="43.43773" lon="3.49999">
        <ele>118</ele>
        <time>2014-09-03T17:22:35.000Z</time>
      </trkpt>
      <trkpt lat="43.43771" lon="3.50002">
        <ele>118</ele>
        <time>2014-09-03T17:22:37.000Z</time>
      </trkpt>
      <trkpt lat="43.4377" lon="3.50006">
        <ele>118</ele>
        <time>2014-09-03T17:22:39.000Z</time>
      </trkpt>
      <trkpt lat="43.43768" lon="3.50009">
        <ele>118</ele>
        <time>2014-09-03T17:22:41.000Z</time>
      </trkpt>
      <trkpt lat="43.43766" lon="3.50012">
        <ele>119</ele>
        <time>2014-09-03T17:22:43.000Z</time>
      </trkpt>
      <trkpt lat="43.43763" lon="3.50015">
        <ele>120</ele>
        <time>2014-09-03T17:22:45.000Z</time>
      </trkpt>
      <trkpt lat="43.43757" lon="3.50019">
        <ele>121</ele>
        <time>2014-09-03T17:22:47.000Z</time>
      </trkpt>
      <trkpt lat="43.43752" lon="3.50023">
        <ele>120</ele>
        <time>2014-09-03T17:22:49.000Z</time>
      </trkpt>
      <trkpt lat="43.43746" lon="3.50031">
        <ele>121</ele>
        <time>2014-09-03T17:22:51.000Z</time>
      </trkpt>
      <trkpt lat="43.43739" lon="3.50039">
        <ele>121</ele>
        <time>2014-09-03T17:22:53.000Z</time>
      </trkpt>
      <trkpt lat="43.43732" lon="3.50046">
        <ele>119</ele>
        <time>2014-09-03T17:22:55.000Z</time>
      </trkpt>
      <trkpt lat="43.4372" lon="3.50057">
        <ele>118</ele>
        <time>2014-09-03T17:22:57.000Z</time>
      </trkpt>
      <trkpt lat="43.43711" lon="3.50068">
        <ele>116</ele>
        <time>2014-09-03T17:22:59.000Z</time>
      </trkpt>
      <trkpt lat="43.43703" lon="3.50077">
        <ele>117</ele>
        <time>2014-09-03T17:23:01.000Z</time>
      </trkpt>
      <trkpt lat="43.43693" lon="3.50085">
        <ele>116</ele>
        <time>2014-09-03T17:23:03.000Z</time>
      </trkpt>
      <trkpt lat="43.43683" lon="3.5009">
        <ele>116</ele>
        <time>2014-09-03T17:23:05.000Z</time>
      </trkpt>
      <trkpt lat="43.43674" lon="3.50094">
        <ele>116</ele>
        <time>2014-09-03T17:23:07.000Z</time>
      </trkpt>
      <trkpt lat="43.43666" lon="3.50097">
        <ele>117</ele>
        <time>2014-09-03T17:23:09.000Z</time>
      </trkpt>
      <trkpt lat="43.4366" lon="3.50107">
        <ele>117</ele>
        <time>2014-09-03T17:23:11.000Z</time>
      </trkpt>
      <trkpt lat="43.43655" lon="3.50114">
        <ele>116</ele>
        <time>2014-09-03T17:23:13.000Z</time>
      </trkpt>
      <trkpt lat="43.43649" lon="3.50117">
        <ele>115</ele>
        <time>2014-09-03T17:23:15.000Z</time>
      </trkpt>
      <trkpt lat="43.43641" lon="3.50123">
        <ele>115</ele>
        <time>2014-09-03T17:23:17.000Z</time>
      </trkpt>
      <trkpt lat="43.43634" lon="3.50129">
        <ele>116</ele>
        <time>2014-09-03T17:23:19.000Z</time>
      </trkpt>
      <trkpt lat="43.43627" lon="3.5013">
        <ele>116</ele>
        <time>2014-09-03T17:23:21.000Z</time>
      </trkpt>
      <trkpt lat="43.43616" lon="3.50127">
        <ele>116</ele>
        <time>2014-09-03T17:23:23.000Z</time>
      </trkpt>
      <trkpt lat="43.43607" lon="3.50128">
        <ele>116</ele>
        <time>2014-09-03T17:23:25.000Z</time>
      </trkpt>
      <trkpt lat="43.43598" lon="3.5013">
        <ele>116</ele>
        <time>2014-09-03T17:23:27.000Z</time>
      </trkpt>
      <trkpt lat="43.43589" lon="3.50139">
        <ele>116</ele>
        <time>2014-09-03T17:23:29.000Z</time>
      </trkpt>
      <trkpt lat="43.43584" lon="3.50152">
        <ele>115</ele>
        <time>2014-09-03T17:23:31.000Z</time>
      </trkpt>
      <trkpt lat="43.43582" lon="3.50161">
        <ele>116</ele>
        <time>2014-09-03T17:23:33.000Z</time>
      </trkpt>
      <trkpt lat="43.43576" lon="3.50171">
        <ele>118</ele>
        <time>2014-09-03T17:23:35.000Z</time>
      </trkpt>
      <trkpt lat="43.4357" lon="3.50175">
        <ele>116</ele>
        <time>2014-09-03T17:23:37.000Z</time>
      </trkpt>
      <trkpt lat="43.43563" lon="3.5017">
        <ele>118</ele>
        <time>2014-09-03T17:23:39.000Z</time>
      </trkpt>
      <trkpt lat="43.43556" lon="3.50171">
        <ele>117</ele>
        <time>2014-09-03T17:23:41.000Z</time>
      </trkpt>
      <trkpt lat="43.43552" lon="3.50176">
        <ele>117</ele>
        <time>2014-09-03T17:23:43.000Z</time>
      </trkpt>
      <trkpt lat="43.43552" lon="3.50176">
        <ele>117</ele>
        <time>2014-09-03T17:23:45.000Z</time>
      </trkpt>
      <trkpt lat="43.43552" lon="3.50176">
        <ele>117</ele>
        <time>2014-09-03T17:23:47.000Z</time>
      </trkpt>
      <trkpt lat="43.43552" lon="3.50176">
        <ele>117</ele>
        <time>2014-09-03T17:23:49.000Z</time>
      </trkpt>
      <trkpt lat="43.43552" lon="3.50176">
        <ele>117</ele>
        <time>2014-09-03T17:23:51.000Z</time>
      </trkpt>
      <trkpt lat="43.43552" lon="3.50176">
        <ele>117</ele>
        <time>2014-09-03T17:23:53.000Z</time>
      </trkpt>
      <trkpt lat="43.43541" lon="3.502">
        <ele>119</ele>
        <time>2014-09-03T17:24:11.000Z</time>
      </trkpt>
      <trkpt lat="43.43537" lon="3.50205">
        <ele>119</ele>
        <time>2014-09-03T17:24:13.000Z</time>
      </trkpt>
      <trkpt lat="43.4353" lon="3.50212">
        <ele>119</ele>
        <time>2014-09-03T17:24:15.000Z</time>
      </trkpt>
      <trkpt lat="43.43519" lon="3.50218">
        <ele>117</ele>
        <time>2014-09-03T17:24:17.000Z</time>
      </trkpt>
      <trkpt lat="43.43512" lon="3.50226">
        <ele>117</ele>
        <time>2014-09-03T17:24:19.000Z</time>
      </trkpt>
      <trkpt lat="43.43505" lon="3.5023">
        <ele>117</ele>
        <time>2014-09-03T17:24:21.000Z</time>
      </trkpt>
      <trkpt lat="43.435" lon="3.50235">
        <ele>117</ele>
        <time>2014-09-03T17:24:23.000Z</time>
      </trkpt>
      <trkpt lat="43.43493" lon="3.50246">
        <ele>115</ele>
        <time>2014-09-03T17:24:25.000Z</time>
      </trkpt>
      <trkpt lat="43.43484" lon="3.50256">
        <ele>113</ele>
        <time>2014-09-03T17:24:27.000Z</time>
      </trkpt>
      <trkpt lat="43.43475" lon="3.5026">
        <ele>113</ele>
        <time>2014-09-03T17:24:30.000Z</time>
      </trkpt>
      <trkpt lat="43.43468" lon="3.50259">
        <ele>112</ele>
        <time>2014-09-03T17:24:32.000Z</time>
      </trkpt>
      <trkpt lat="43.43461" lon="3.50257">
        <ele>112</ele>
        <time>2014-09-03T17:24:34.000Z</time>
      </trkpt>
      <trkpt lat="43.43461" lon="3.50257">
        <ele>112</ele>
        <time>2014-09-03T17:24:36.000Z</time>
      </trkpt>
      <trkpt lat="43.43453" lon="3.50247">
        <ele>109</ele>
        <time>2014-09-03T17:24:38.000Z</time>
      </trkpt>
      <trkpt lat="43.43449" lon="3.5024">
        <ele>109</ele>
        <time>2014-09-03T17:24:40.000Z</time>
      </trkpt>
      <trkpt lat="43.43444" lon="3.50232">
        <ele>107</ele>
        <time>2014-09-03T17:24:42.000Z</time>
      </trkpt>
      <trkpt lat="43.43433" lon="3.50212">
        <ele>107</ele>
        <time>2014-09-03T17:24:45.000Z</time>
      </trkpt>
      <trkpt lat="43.43426" lon="3.50201">
        <ele>106</ele>
        <time>2014-09-03T17:24:48.000Z</time>
      </trkpt>
      <trkpt lat="43.4342" lon="3.50194">
        <ele>105</ele>
        <time>2014-09-03T17:24:50.000Z</time>
      </trkpt>
      <trkpt lat="43.43415" lon="3.5019">
        <ele>105</ele>
        <time>2014-09-03T17:24:52.000Z</time>
      </trkpt>
      <trkpt lat="43.43409" lon="3.5019">
        <ele>104</ele>
        <time>2014-09-03T17:24:54.000Z</time>
      </trkpt>
      <trkpt lat="43.43409" lon="3.5019">
        <ele>104</ele>
        <time>2014-09-03T17:24:56.000Z</time>
      </trkpt>
      <trkpt lat="43.43401" lon="3.50189">
        <ele>104</ele>
        <time>2014-09-03T17:24:58.000Z</time>
      </trkpt>
      <trkpt lat="43.43401" lon="3.50189">
        <ele>104</ele>
        <time>2014-09-03T17:25:00.000Z</time>
      </trkpt>
      <trkpt lat="43.43392" lon="3.50191">
        <ele>105</ele>
        <time>2014-09-03T17:25:02.000Z</time>
      </trkpt>
      <trkpt lat="43.43392" lon="3.50191">
        <ele>105</ele>
        <time>2014-09-03T17:25:04.000Z</time>
      </trkpt>
      <trkpt lat="43.4339" lon="3.50178">
        <ele>107</ele>
        <time>2014-09-03T17:25:06.000Z</time>
      </trkpt>
      <trkpt lat="43.43388" lon="3.50169">
        <ele>106</ele>
        <time>2014-09-03T17:25:08.000Z</time>
      </trkpt>
      <trkpt lat="43.43382" lon="3.5016">
        <ele>105</ele>
        <time>2014-09-03T17:25:10.000Z</time>
      </trkpt>
      <trkpt lat="43.43375" lon="3.50152">
        <ele>105</ele>
        <time>2014-09-03T17:25:12.000Z</time>
      </trkpt>
      <trkpt lat="43.43355" lon="3.5014">
        <ele>100</ele>
        <time>2014-09-03T17:25:15.000Z</time>
      </trkpt>
      <trkpt lat="43.43345" lon="3.50135">
        <ele>98</ele>
        <time>2014-09-03T17:25:17.000Z</time>
      </trkpt>
      <trkpt lat="43.43337" lon="3.50127">
        <ele>97</ele>
        <time>2014-09-03T17:25:19.000Z</time>
      </trkpt>
      <trkpt lat="43.43328" lon="3.50123">
        <ele>97</ele>
        <time>2014-09-03T17:25:21.000Z</time>
      </trkpt>
      <trkpt lat="43.43319" lon="3.50123">
        <ele>96</ele>
        <time>2014-09-03T17:25:23.000Z</time>
      </trkpt>
      <trkpt lat="43.43319" lon="3.50123">
        <ele>96</ele>
        <time>2014-09-03T17:25:25.000Z</time>
      </trkpt>
      <trkpt lat="43.43314" lon="3.50133">
        <ele>95</ele>
        <time>2014-09-03T17:25:27.000Z</time>
      </trkpt>
      <trkpt lat="43.43314" lon="3.50133">
        <ele>95</ele>
        <time>2014-09-03T17:25:29.000Z</time>
      </trkpt>
      <trkpt lat="43.43318" lon="3.50142">
        <ele>96</ele>
        <time>2014-09-03T17:25:31.000Z</time>
      </trkpt>
      <trkpt lat="43.43321" lon="3.50156">
        <ele>99</ele>
        <time>2014-09-03T17:25:35.000Z</time>
      </trkpt>
      <trkpt lat="43.43323" lon="3.50166">
        <ele>99</ele>
        <time>2014-09-03T17:25:37.000Z</time>
      </trkpt>
      <trkpt lat="43.43324" lon="3.50177">
        <ele>101</ele>
        <time>2014-09-03T17:25:39.000Z</time>
      </trkpt>
      <trkpt lat="43.43324" lon="3.50186">
        <ele>101</ele>
        <time>2014-09-03T17:25:41.000Z</time>
      </trkpt>
      <trkpt lat="43.43325" lon="3.50196">
        <ele>102</ele>
        <time>2014-09-03T17:25:43.000Z</time>
      </trkpt>
      <trkpt lat="43.43326" lon="3.50205">
        <ele>102</ele>
        <time>2014-09-03T17:25:45.000Z</time>
      </trkpt>
      <trkpt lat="43.43328" lon="3.50213">
        <ele>103</ele>
        <time>2014-09-03T17:25:47.000Z</time>
      </trkpt>
      <trkpt lat="43.43328" lon="3.50213">
        <ele>103</ele>
        <time>2014-09-03T17:25:49.000Z</time>
      </trkpt>
      <trkpt lat="43.43329" lon="3.50227">
        <ele>101</ele>
        <time>2014-09-03T17:25:51.000Z</time>
      </trkpt>
      <trkpt lat="43.43329" lon="3.50236">
        <ele>101</ele>
        <time>2014-09-03T17:25:53.000Z</time>
      </trkpt>
      <trkpt lat="43.43328" lon="3.50245">
        <ele>102</ele>
        <time>2014-09-03T17:25:55.000Z</time>
      </trkpt>
      <trkpt lat="43.43327" lon="3.50255">
        <ele>103</ele>
        <time>2014-09-03T17:25:57.000Z</time>
      </trkpt>
      <trkpt lat="43.43325" lon="3.50265">
        <ele>104</ele>
        <time>2014-09-03T17:25:59.000Z</time>
      </trkpt>
      <trkpt lat="43.43324" lon="3.50276">
        <ele>103</ele>
        <time>2014-09-03T17:26:01.000Z</time>
      </trkpt>
      <trkpt lat="43.43325" lon="3.50286">
        <ele>105</ele>
        <time>2014-09-03T17:26:03.000Z</time>
      </trkpt>
      <trkpt lat="43.43325" lon="3.50296">
        <ele>106</ele>
        <time>2014-09-03T17:26:05.000Z</time>
      </trkpt>
      <trkpt lat="43.43326" lon="3.50307">
        <ele>105</ele>
        <time>2014-09-03T17:26:07.000Z</time>
      </trkpt>
      <trkpt lat="43.43324" lon="3.50317">
        <ele>105</ele>
        <time>2014-09-03T17:26:09.000Z</time>
      </trkpt>
      <trkpt lat="43.4332" lon="3.50328">
        <ele>106</ele>
        <time>2014-09-03T17:26:11.000Z</time>
      </trkpt>
      <trkpt lat="43.43317" lon="3.5034">
        <ele>107</ele>
        <time>2014-09-03T17:26:13.000Z</time>
      </trkpt>
      <trkpt lat="43.43313" lon="3.50355">
        <ele>106</ele>
        <time>2014-09-03T17:26:15.000Z</time>
      </trkpt>
      <trkpt lat="43.43311" lon="3.50367">
        <ele>106</ele>
        <time>2014-09-03T17:26:17.000Z</time>
      </trkpt>
      <trkpt lat="43.43311" lon="3.5038">
        <ele>106</ele>
        <time>2014-09-03T17:26:19.000Z</time>
      </trkpt>
      <trkpt lat="43.43312" lon="3.50393">
        <ele>107</ele>
        <time>2014-09-03T17:26:21.000Z</time>
      </trkpt>
      <trkpt lat="43.43312" lon="3.50404">
        <ele>107</ele>
        <time>2014-09-03T17:26:23.000Z</time>
      </trkpt>
      <trkpt lat="43.43312" lon="3.50415">
        <ele>108</ele>
        <time>2014-09-03T17:26:25.000Z</time>
      </trkpt>
      <trkpt lat="43.43312" lon="3.50429">
        <ele>108</ele>
        <time>2014-09-03T17:26:27.000Z</time>
      </trkpt>
      <trkpt lat="43.43311" lon="3.50443">
        <ele>108</ele>
        <time>2014-09-03T17:26:29.000Z</time>
      </trkpt>
      <trkpt lat="43.43309" lon="3.50457">
        <ele>106</ele>
        <time>2014-09-03T17:26:31.000Z</time>
      </trkpt>
      <trkpt lat="43.43305" lon="3.50471">
        <ele>106</ele>
        <time>2014-09-03T17:26:33.000Z</time>
      </trkpt>
      <trkpt lat="43.43302" lon="3.50486">
        <ele>106</ele>
        <time>2014-09-03T17:26:35.000Z</time>
      </trkpt>
      <trkpt lat="43.43299" lon="3.50501">
        <ele>106</ele>
        <time>2014-09-03T17:26:37.000Z</time>
      </trkpt>
      <trkpt lat="43.43298" lon="3.50514">
        <ele>106</ele>
        <time>2014-09-03T17:26:39.000Z</time>
      </trkpt>
      <trkpt lat="43.43297" lon="3.50528">
        <ele>106</ele>
        <time>2014-09-03T17:26:41.000Z</time>
      </trkpt>
      <trkpt lat="43.43296" lon="3.50544">
        <ele>105</ele>
        <time>2014-09-03T17:26:43.000Z</time>
      </trkpt>
      <trkpt lat="43.43295" lon="3.50561">
        <ele>105</ele>
        <time>2014-09-03T17:26:45.000Z</time>
      </trkpt>
      <trkpt lat="43.43292" lon="3.50576">
        <ele>103</ele>
        <time>2014-09-03T17:26:47.000Z</time>
      </trkpt>
      <trkpt lat="43.43291" lon="3.50589">
        <ele>101</ele>
        <time>2014-09-03T17:26:49.000Z</time>
      </trkpt>
      <trkpt lat="43.43291" lon="3.50608">
        <ele>104</ele>
        <time>2014-09-03T17:26:51.000Z</time>
      </trkpt>
      <trkpt lat="43.43291" lon="3.50624">
        <ele>101</ele>
        <time>2014-09-03T17:26:54.000Z</time>
      </trkpt>
      <trkpt lat="43.43291" lon="3.50639">
        <ele>101</ele>
        <time>2014-09-03T17:26:56.000Z</time>
      </trkpt>
      <trkpt lat="43.43289" lon="3.5065">
        <ele>102</ele>
        <time>2014-09-03T17:26:58.000Z</time>
      </trkpt>
      <trkpt lat="43.43288" lon="3.5066">
        <ele>102</ele>
        <time>2014-09-03T17:27:00.000Z</time>
      </trkpt>
      <trkpt lat="43.43287" lon="3.5067">
        <ele>101</ele>
        <time>2014-09-03T17:27:02.000Z</time>
      </trkpt>
      <trkpt lat="43.43284" lon="3.5068">
        <ele>102</ele>
        <time>2014-09-03T17:27:04.000Z</time>
      </trkpt>
      <trkpt lat="43.43282" lon="3.50692">
        <ele>101</ele>
        <time>2014-09-03T17:27:06.000Z</time>
      </trkpt>
      <trkpt lat="43.43279" lon="3.50703">
        <ele>102</ele>
        <time>2014-09-03T17:27:08.000Z</time>
      </trkpt>
      <trkpt lat="43.43277" lon="3.50714">
        <ele>100</ele>
        <time>2014-09-03T17:27:10.000Z</time>
      </trkpt>
      <trkpt lat="43.43275" lon="3.50724">
        <ele>101</ele>
        <time>2014-09-03T17:27:12.000Z</time>
      </trkpt>
      <trkpt lat="43.43273" lon="3.50735">
        <ele>100</ele>
        <time>2014-09-03T17:27:14.000Z</time>
      </trkpt>
      <trkpt lat="43.43271" lon="3.50746">
        <ele>101</ele>
        <time>2014-09-03T17:27:16.000Z</time>
      </trkpt>
      <trkpt lat="43.43269" lon="3.50756">
        <ele>101</ele>
        <time>2014-09-03T17:27:18.000Z</time>
      </trkpt>
      <trkpt lat="43.43267" lon="3.50766">
        <ele>103</ele>
        <time>2014-09-03T17:27:20.000Z</time>
      </trkpt>
      <trkpt lat="43.43266" lon="3.50775">
        <ele>103</ele>
        <time>2014-09-03T17:27:22.000Z</time>
      </trkpt>
      <trkpt lat="43.43266" lon="3.50775">
        <ele>103</ele>
        <time>2014-09-03T17:27:24.000Z</time>
      </trkpt>
      <trkpt lat="43.43264" lon="3.5079">
        <ele>103</ele>
        <time>2014-09-03T17:27:26.000Z</time>
      </trkpt>
      <trkpt lat="43.43264" lon="3.5079">
        <ele>103</ele>
        <time>2014-09-03T17:27:28.000Z</time>
      </trkpt>
      <trkpt lat="43.43274" lon="3.50795">
        <ele>105</ele>
        <time>2014-09-03T17:27:30.000Z</time>
      </trkpt>
      <trkpt lat="43.43281" lon="3.50792">
        <ele>105</ele>
        <time>2014-09-03T17:27:32.000Z</time>
      </trkpt>
      <trkpt lat="43.43288" lon="3.5079">
        <ele>106</ele>
        <time>2014-09-03T17:27:34.000Z</time>
      </trkpt>
      <trkpt lat="43.43297" lon="3.50787">
        <ele>108</ele>
        <time>2014-09-03T17:27:36.000Z</time>
      </trkpt>
      <trkpt lat="43.43304" lon="3.50785">
        <ele>109</ele>
        <time>2014-09-03T17:27:38.000Z</time>
      </trkpt>
      <trkpt lat="43.43312" lon="3.50784">
        <ele>110</ele>
        <time>2014-09-03T17:27:40.000Z</time>
      </trkpt>
      <trkpt lat="43.4332" lon="3.50783">
        <ele>110</ele>
        <time>2014-09-03T17:27:42.000Z</time>
      </trkpt>
      <trkpt lat="43.43327" lon="3.5078">
        <ele>112</ele>
        <time>2014-09-03T17:27:44.000Z</time>
      </trkpt>
      <trkpt lat="43.43334" lon="3.50777">
        <ele>112</ele>
        <time>2014-09-03T17:27:46.000Z</time>
      </trkpt>
      <trkpt lat="43.4334" lon="3.50769">
        <ele>113</ele>
        <time>2014-09-03T17:27:48.000Z</time>
      </trkpt>
      <trkpt lat="43.43342" lon="3.5076">
        <ele>113</ele>
        <time>2014-09-03T17:27:50.000Z</time>
      </trkpt>
      <trkpt lat="43.43343" lon="3.5075">
        <ele>112</ele>
        <time>2014-09-03T17:27:52.000Z</time>
      </trkpt>
      <trkpt lat="43.43347" lon="3.50741">
        <ele>111</ele>
        <time>2014-09-03T17:27:54.000Z</time>
      </trkpt>
      <trkpt lat="43.43352" lon="3.50732">
        <ele>111</ele>
        <time>2014-09-03T17:27:56.000Z</time>
      </trkpt>
      <trkpt lat="43.43359" lon="3.50723">
        <ele>110</ele>
        <time>2014-09-03T17:27:58.000Z</time>
      </trkpt>
      <trkpt lat="43.43366" lon="3.50715">
        <ele>111</ele>
        <time>2014-09-03T17:28:00.000Z</time>
      </trkpt>
      <trkpt lat="43.43374" lon="3.50708">
        <ele>113</ele>
        <time>2014-09-03T17:28:02.000Z</time>
      </trkpt>
      <trkpt lat="43.43386" lon="3.50704">
        <ele>113</ele>
        <time>2014-09-03T17:28:04.000Z</time>
      </trkpt>
      <trkpt lat="43.43396" lon="3.50704">
        <ele>116</ele>
        <time>2014-09-03T17:28:07.000Z</time>
      </trkpt>
      <trkpt lat="43.43403" lon="3.50703">
        <ele>116</ele>
        <time>2014-09-03T17:28:09.000Z</time>
      </trkpt>
      <trkpt lat="43.43412" lon="3.507">
        <ele>117</ele>
        <time>2014-09-03T17:28:11.000Z</time>
      </trkpt>
      <trkpt lat="43.43422" lon="3.50699">
        <ele>118</ele>
        <time>2014-09-03T17:28:13.000Z</time>
      </trkpt>
      <trkpt lat="43.43429" lon="3.50698">
        <ele>117</ele>
        <time>2014-09-03T17:28:15.000Z</time>
      </trkpt>
      <trkpt lat="43.43437" lon="3.50698">
        <ele>117</ele>
        <time>2014-09-03T17:28:17.000Z</time>
      </trkpt>
      <trkpt lat="43.43444" lon="3.50697">
        <ele>116</ele>
        <time>2014-09-03T17:28:19.000Z</time>
      </trkpt>
      <trkpt lat="43.43452" lon="3.50696">
        <ele>117</ele>
        <time>2014-09-03T17:28:21.000Z</time>
      </trkpt>
      <trkpt lat="43.4346" lon="3.50694">
        <ele>116</ele>
        <time>2014-09-03T17:28:23.000Z</time>
      </trkpt>
      <trkpt lat="43.43467" lon="3.50692">
        <ele>118</ele>
        <time>2014-09-03T17:28:25.000Z</time>
      </trkpt>
      <trkpt lat="43.43474" lon="3.50691">
        <ele>119</ele>
        <time>2014-09-03T17:28:27.000Z</time>
      </trkpt>
      <trkpt lat="43.4348" lon="3.50687">
        <ele>119</ele>
        <time>2014-09-03T17:28:29.000Z</time>
      </trkpt>
      <trkpt lat="43.43487" lon="3.50682">
        <ele>119</ele>
        <time>2014-09-03T17:28:31.000Z</time>
      </trkpt>
      <trkpt lat="43.43494" lon="3.50678">
        <ele>121</ele>
        <time>2014-09-03T17:28:33.000Z</time>
      </trkpt>
      <trkpt lat="43.435" lon="3.50672">
        <ele>121</ele>
        <time>2014-09-03T17:28:35.000Z</time>
      </trkpt>
      <trkpt lat="43.43506" lon="3.50665">
        <ele>119</ele>
        <time>2014-09-03T17:28:37.000Z</time>
      </trkpt>
      <trkpt lat="43.43512" lon="3.50659">
        <ele>114</ele>
        <time>2014-09-03T17:28:39.000Z</time>
      </trkpt>
      <trkpt lat="43.43518" lon="3.50654">
        <ele>116</ele>
        <time>2014-09-03T17:28:41.000Z</time>
      </trkpt>
      <trkpt lat="43.43524" lon="3.50649">
        <ele>118</ele>
        <time>2014-09-03T17:28:43.000Z</time>
      </trkpt>
      <trkpt lat="43.43531" lon="3.50646">
        <ele>113</ele>
        <time>2014-09-03T17:28:45.000Z</time>
      </trkpt>
      <trkpt lat="43.43537" lon="3.50643">
        <ele>117</ele>
        <time>2014-09-03T17:28:47.000Z</time>
      </trkpt>
      <trkpt lat="43.43544" lon="3.50642">
        <ele>118</ele>
        <time>2014-09-03T17:28:49.000Z</time>
      </trkpt>
      <trkpt lat="43.4355" lon="3.5064">
        <ele>120</ele>
        <time>2014-09-03T17:28:51.000Z</time>
      </trkpt>
      <trkpt lat="43.43557" lon="3.50641">
        <ele>118</ele>
        <time>2014-09-03T17:28:53.000Z</time>
      </trkpt>
      <trkpt lat="43.43565" lon="3.50641">
        <ele>117</ele>
        <time>2014-09-03T17:28:55.000Z</time>
      </trkpt>
      <trkpt lat="43.43575" lon="3.50637">
        <ele>114</ele>
        <time>2014-09-03T17:28:57.000Z</time>
      </trkpt>
      <trkpt lat="43.43584" lon="3.50631">
        <ele>116</ele>
        <time>2014-09-03T17:28:59.000Z</time>
      </trkpt>
      <trkpt lat="43.43593" lon="3.50625">
        <ele>118</ele>
        <time>2014-09-03T17:29:01.000Z</time>
      </trkpt>
      <trkpt lat="43.43602" lon="3.50619">
        <ele>119</ele>
        <time>2014-09-03T17:29:03.000Z</time>
      </trkpt>
      <trkpt lat="43.43619" lon="3.50606">
        <ele>122</ele>
        <time>2014-09-03T17:29:06.000Z</time>
      </trkpt>
      <trkpt lat="43.43628" lon="3.50608">
        <ele>122</ele>
        <time>2014-09-03T17:29:08.000Z</time>
      </trkpt>
      <trkpt lat="43.43636" lon="3.50606">
        <ele>123</ele>
        <time>2014-09-03T17:29:10.000Z</time>
      </trkpt>
      <trkpt lat="43.43646" lon="3.50606">
        <ele>123</ele>
        <time>2014-09-03T17:29:12.000Z</time>
      </trkpt>
      <trkpt lat="43.43656" lon="3.50606">
        <ele>123</ele>
        <time>2014-09-03T17:29:14.000Z</time>
      </trkpt>
      <trkpt lat="43.43665" lon="3.50604">
        <ele>123</ele>
        <time>2014-09-03T17:29:16.000Z</time>
      </trkpt>
      <trkpt lat="43.43673" lon="3.50604">
        <ele>125</ele>
        <time>2014-09-03T17:29:18.000Z</time>
      </trkpt>
      <trkpt lat="43.43682" lon="3.50601">
        <ele>125</ele>
        <time>2014-09-03T17:29:20.000Z</time>
      </trkpt>
      <trkpt lat="43.43691" lon="3.50602">
        <ele>126</ele>
        <time>2014-09-03T17:29:22.000Z</time>
      </trkpt>
      <trkpt lat="43.43699" lon="3.50601">
        <ele>127</ele>
        <time>2014-09-03T17:29:24.000Z</time>
      </trkpt>
      <trkpt lat="43.43707" lon="3.50601">
        <ele>128</ele>
        <time>2014-09-03T17:29:26.000Z</time>
      </trkpt>
      <trkpt lat="43.43715" lon="3.50601">
        <ele>127</ele>
        <time>2014-09-03T17:29:28.000Z</time>
      </trkpt>
      <trkpt lat="43.43723" lon="3.50601">
        <ele>127</ele>
        <time>2014-09-03T17:29:30.000Z</time>
      </trkpt>
      <trkpt lat="43.43736" lon="3.50602">
        <ele>126</ele>
        <time>2014-09-03T17:29:32.000Z</time>
      </trkpt>
      <trkpt lat="43.43745" lon="3.506">
        <ele>126</ele>
        <time>2014-09-03T17:29:34.000Z</time>
      </trkpt>
      <trkpt lat="43.43757" lon="3.50598">
        <ele>125</ele>
        <time>2014-09-03T17:29:36.000Z</time>
      </trkpt>
      <trkpt lat="43.43766" lon="3.50597">
        <ele>125</ele>
        <time>2014-09-03T17:29:38.000Z</time>
      </trkpt>
      <trkpt lat="43.43773" lon="3.50595">
        <ele>125</ele>
        <time>2014-09-03T17:29:40.000Z</time>
      </trkpt>
      <trkpt lat="43.43782" lon="3.50588">
        <ele>126</ele>
        <time>2014-09-03T17:29:42.000Z</time>
      </trkpt>
      <trkpt lat="43.43791" lon="3.50582">
        <ele>128</ele>
        <time>2014-09-03T17:29:44.000Z</time>
      </trkpt>
      <trkpt lat="43.438" lon="3.50576">
        <ele>127</ele>
        <time>2014-09-03T17:29:46.000Z</time>
      </trkpt>
      <trkpt lat="43.43808" lon="3.50568">
        <ele>128</ele>
        <time>2014-09-03T17:29:48.000Z</time>
      </trkpt>
      <trkpt lat="43.43817" lon="3.50559">
        <ele>128</ele>
        <time>2014-09-03T17:29:50.000Z</time>
      </trkpt>
      <trkpt lat="43.43826" lon="3.50554">
        <ele>128</ele>
        <time>2014-09-03T17:29:52.000Z</time>
      </trkpt>
      <trkpt lat="43.43833" lon="3.50546">
        <ele>131</ele>
        <time>2014-09-03T17:29:54.000Z</time>
      </trkpt>
      <trkpt lat="43.43845" lon="3.50543">
        <ele>130</ele>
        <time>2014-09-03T17:29:56.000Z</time>
      </trkpt>
      <trkpt lat="43.43857" lon="3.50541">
        <ele>127</ele>
        <time>2014-09-03T17:29:58.000Z</time>
      </trkpt>
      <trkpt lat="43.43866" lon="3.50537">
        <ele>132</ele>
        <time>2014-09-03T17:30:01.000Z</time>
      </trkpt>
      <trkpt lat="43.43871" lon="3.50533">
        <ele>133</ele>
        <time>2014-09-03T17:30:03.000Z</time>
      </trkpt>
      <trkpt lat="43.43877" lon="3.5053">
        <ele>133</ele>
        <time>2014-09-03T17:30:05.000Z</time>
      </trkpt>
      <trkpt lat="43.43884" lon="3.50525">
        <ele>133</ele>
        <time>2014-09-03T17:30:07.000Z</time>
      </trkpt>
      <trkpt lat="43.4389" lon="3.50519">
        <ele>134</ele>
        <time>2014-09-03T17:30:09.000Z</time>
      </trkpt>
      <trkpt lat="43.43895" lon="3.50513">
        <ele>135</ele>
        <time>2014-09-03T17:30:11.000Z</time>
      </trkpt>
      <trkpt lat="43.43901" lon="3.50507">
        <ele>136</ele>
        <time>2014-09-03T17:30:13.000Z</time>
      </trkpt>
      <trkpt lat="43.43911" lon="3.505">
        <ele>131</ele>
        <time>2014-09-03T17:30:15.000Z</time>
      </trkpt>
      <trkpt lat="43.43933" lon="3.50486">
        <ele>127</ele>
        <time>2014-09-03T17:30:18.000Z</time>
      </trkpt>
      <trkpt lat="43.43947" lon="3.50477">
        <ele>128</ele>
        <time>2014-09-03T17:30:22.000Z</time>
      </trkpt>
      <trkpt lat="43.43955" lon="3.50473">
        <ele>127</ele>
        <time>2014-09-03T17:30:24.000Z</time>
      </trkpt>
      <trkpt lat="43.43961" lon="3.50471">
        <ele>130</ele>
        <time>2014-09-03T17:30:26.000Z</time>
      </trkpt>
      <trkpt lat="43.43968" lon="3.50471">
        <ele>130</ele>
        <time>2014-09-03T17:30:28.000Z</time>
      </trkpt>
      <trkpt lat="43.43975" lon="3.50471">
        <ele>130</ele>
        <time>2014-09-03T17:30:30.000Z</time>
      </trkpt>
      <trkpt lat="43.43981" lon="3.50472">
        <ele>128</ele>
        <time>2014-09-03T17:30:32.000Z</time>
      </trkpt>
      <trkpt lat="43.43988" lon="3.50473">
        <ele>128</ele>
        <time>2014-09-03T17:30:34.000Z</time>
      </trkpt>
      <trkpt lat="43.43994" lon="3.50473">
        <ele>125</ele>
        <time>2014-09-03T17:30:36.000Z</time>
      </trkpt>
      <trkpt lat="43.44001" lon="3.50473">
        <ele>122</ele>
        <time>2014-09-03T17:30:38.000Z</time>
      </trkpt>
      <trkpt lat="43.44001" lon="3.50473">
        <ele>122</ele>
        <time>2014-09-03T17:30:40.000Z</time>
      </trkpt>
      <trkpt lat="43.44009" lon="3.5047">
        <ele>120</ele>
        <time>2014-09-03T17:30:42.000Z</time>
      </trkpt>
      <trkpt lat="43.44009" lon="3.5047">
        <ele>120</ele>
        <time>2014-09-03T17:30:44.000Z</time>
      </trkpt>
      <trkpt lat="43.44016" lon="3.50461">
        <ele>117</ele>
        <time>2014-09-03T17:30:46.000Z</time>
      </trkpt>
      <trkpt lat="43.44016" lon="3.50461">
        <ele>117</ele>
        <time>2014-09-03T17:30:48.000Z</time>
      </trkpt>
      <trkpt lat="43.44017" lon="3.5045">
        <ele>121</ele>
        <time>2014-09-03T17:30:50.000Z</time>
      </trkpt>
      <trkpt lat="43.44017" lon="3.5045">
        <ele>121</ele>
        <time>2014-09-03T17:30:52.000Z</time>
      </trkpt>
      <trkpt lat="43.44017" lon="3.5045">
        <ele>121</ele>
        <time>2014-09-03T17:30:54.000Z</time>
      </trkpt>
      <trkpt lat="43.44017" lon="3.5045">
        <ele>121</ele>
        <time>2014-09-03T17:30:56.000Z</time>
      </trkpt>
      <trkpt lat="43.4402" lon="3.50439">
        <ele>122</ele>
        <time>2014-09-03T17:31:14.000Z</time>
      </trkpt>
      <trkpt lat="43.44019" lon="3.50431">
        <ele>123</ele>
        <time>2014-09-03T17:31:16.000Z</time>
      </trkpt>
      <trkpt lat="43.44016" lon="3.50423">
        <ele>121</ele>
        <time>2014-09-03T17:31:18.000Z</time>
      </trkpt>
      <trkpt lat="43.44011" lon="3.50416">
        <ele>120</ele>
        <time>2014-09-03T17:31:20.000Z</time>
      </trkpt>
      <trkpt lat="43.44006" lon="3.50408">
        <ele>119</ele>
        <time>2014-09-03T17:31:22.000Z</time>
      </trkpt>
      <trkpt lat="43.43992" lon="3.50392">
        <ele>117</ele>
        <time>2014-09-03T17:31:24.000Z</time>
      </trkpt>
      <trkpt lat="43.43978" lon="3.50384">
        <ele>115</ele>
        <time>2014-09-03T17:31:26.000Z</time>
      </trkpt>
      <trkpt lat="43.4397" lon="3.50374">
        <ele>115</ele>
        <time>2014-09-03T17:31:28.000Z</time>
      </trkpt>
      <trkpt lat="43.43961" lon="3.50364">
        <ele>115</ele>
        <time>2014-09-03T17:31:30.000Z</time>
      </trkpt>
      <trkpt lat="43.43951" lon="3.50354">
        <ele>114</ele>
        <time>2014-09-03T17:31:32.000Z</time>
      </trkpt>
      <trkpt lat="43.43941" lon="3.50345">
        <ele>114</ele>
        <time>2014-09-03T17:31:34.000Z</time>
      </trkpt>
      <trkpt lat="43.43931" lon="3.50334">
        <ele>113</ele>
        <time>2014-09-03T17:31:36.000Z</time>
      </trkpt>
      <trkpt lat="43.43922" lon="3.50322">
        <ele>111</ele>
        <time>2014-09-03T17:31:38.000Z</time>
      </trkpt>
      <trkpt lat="43.43913" lon="3.50311">
        <ele>111</ele>
        <time>2014-09-03T17:31:40.000Z</time>
      </trkpt>
      <trkpt lat="43.43904" lon="3.503">
        <ele>109</ele>
        <time>2014-09-03T17:31:42.000Z</time>
      </trkpt>
      <trkpt lat="43.43896" lon="3.5029">
        <ele>107</ele>
        <time>2014-09-03T17:31:44.000Z</time>
      </trkpt>
      <trkpt lat="43.43889" lon="3.50281">
        <ele>107</ele>
        <time>2014-09-03T17:31:46.000Z</time>
      </trkpt>
      <trkpt lat="43.43882" lon="3.50272">
        <ele>107</ele>
        <time>2014-09-03T17:31:48.000Z</time>
      </trkpt>
      <trkpt lat="43.43876" lon="3.50266">
        <ele>107</ele>
        <time>2014-09-03T17:31:50.000Z</time>
      </trkpt>
      <trkpt lat="43.43868" lon="3.5026">
        <ele>105</ele>
        <time>2014-09-03T17:31:52.000Z</time>
      </trkpt>
      <trkpt lat="43.43862" lon="3.50253">
        <ele>105</ele>
        <time>2014-09-03T17:31:54.000Z</time>
      </trkpt>
      <trkpt lat="43.43855" lon="3.50247">
        <ele>104</ele>
        <time>2014-09-03T17:31:56.000Z</time>
      </trkpt>
      <trkpt lat="43.43852" lon="3.50239">
        <ele>106</ele>
        <time>2014-09-03T17:31:58.000Z</time>
      </trkpt>
      <trkpt lat="43.4385" lon="3.50231">
        <ele>105</ele>
        <time>2014-09-03T17:32:00.000Z</time>
      </trkpt>
      <trkpt lat="43.4385" lon="3.50231">
        <ele>105</ele>
        <time>2014-09-03T17:32:02.000Z</time>
      </trkpt>
      <trkpt lat="43.43854" lon="3.50219">
        <ele>109</ele>
        <time>2014-09-03T17:32:04.000Z</time>
      </trkpt>
      <trkpt lat="43.43854" lon="3.50219">
        <ele>109</ele>
        <time>2014-09-03T17:32:06.000Z</time>
      </trkpt>
      <trkpt lat="43.43861" lon="3.50209">
        <ele>109</ele>
        <time>2014-09-03T17:32:08.000Z</time>
      </trkpt>
      <trkpt lat="43.43861" lon="3.50209">
        <ele>109</ele>
        <time>2014-09-03T17:32:10.000Z</time>
      </trkpt>
      <trkpt lat="43.43868" lon="3.50199">
        <ele>113</ele>
        <time>2014-09-03T17:32:12.000Z</time>
      </trkpt>
      <trkpt lat="43.43868" lon="3.50199">
        <ele>113</ele>
        <time>2014-09-03T17:32:14.000Z</time>
      </trkpt>
      <trkpt lat="43.43873" lon="3.50187">
        <ele>117</ele>
        <time>2014-09-03T17:32:16.000Z</time>
      </trkpt>
      <trkpt lat="43.43877" lon="3.50176">
        <ele>115</ele>
        <time>2014-09-03T17:32:18.000Z</time>
      </trkpt>
      <trkpt lat="43.4388" lon="3.50166">
        <ele>115</ele>
        <time>2014-09-03T17:32:20.000Z</time>
      </trkpt>
      <trkpt lat="43.43884" lon="3.50157">
        <ele>116</ele>
        <time>2014-09-03T17:32:22.000Z</time>
      </trkpt>
      <trkpt lat="43.43888" lon="3.50147">
        <ele>116</ele>
        <time>2014-09-03T17:32:24.000Z</time>
      </trkpt>
      <trkpt lat="43.43892" lon="3.50138">
        <ele>117</ele>
        <time>2014-09-03T17:32:26.000Z</time>
      </trkpt>
      <trkpt lat="43.43895" lon="3.50129">
        <ele>117</ele>
        <time>2014-09-03T17:32:28.000Z</time>
      </trkpt>
      <trkpt lat="43.43898" lon="3.50121">
        <ele>117</ele>
        <time>2014-09-03T17:32:30.000Z</time>
      </trkpt>
      <trkpt lat="43.43901" lon="3.50113">
        <ele>117</ele>
        <time>2014-09-03T17:32:32.000Z</time>
      </trkpt>
      <trkpt lat="43.43904" lon="3.50106">
        <ele>118</ele>
        <time>2014-09-03T17:32:34.000Z</time>
      </trkpt>
      <trkpt lat="43.43907" lon="3.50098">
        <ele>117</ele>
        <time>2014-09-03T17:32:36.000Z</time>
      </trkpt>
      <trkpt lat="43.43909" lon="3.50091">
        <ele>117</ele>
        <time>2014-09-03T17:32:38.000Z</time>
      </trkpt>
      <trkpt lat="43.43911" lon="3.50084">
        <ele>116</ele>
        <time>2014-09-03T17:32:40.000Z</time>
      </trkpt>
      <trkpt lat="43.43914" lon="3.50077">
        <ele>116</ele>
        <time>2014-09-03T17:32:42.000Z</time>
      </trkpt>
      <trkpt lat="43.43914" lon="3.50077">
        <ele>116</ele>
        <time>2014-09-03T17:32:44.000Z</time>
      </trkpt>
      <trkpt lat="43.43918" lon="3.50064">
        <ele>117</ele>
        <time>2014-09-03T17:32:46.000Z</time>
      </trkpt>
      <trkpt lat="43.43921" lon="3.50057">
        <ele>119</ele>
        <time>2014-09-03T17:32:48.000Z</time>
      </trkpt>
      <trkpt lat="43.43924" lon="3.50048">
        <ele>115</ele>
        <time>2014-09-03T17:32:50.000Z</time>
      </trkpt>
      <trkpt lat="43.43929" lon="3.50036">
        <ele>113</ele>
        <time>2014-09-03T17:32:52.000Z</time>
      </trkpt>
      <trkpt lat="43.43933" lon="3.50024">
        <ele>112</ele>
        <time>2014-09-03T17:32:54.000Z</time>
      </trkpt>
      <trkpt lat="43.43937" lon="3.50012">
        <ele>112</ele>
        <time>2014-09-03T17:32:56.000Z</time>
      </trkpt>
      <trkpt lat="43.43941" lon="3.50001">
        <ele>111</ele>
        <time>2014-09-03T17:32:58.000Z</time>
      </trkpt>
      <trkpt lat="43.43946" lon="3.49987">
        <ele>113</ele>
        <time>2014-09-03T17:33:00.000Z</time>
      </trkpt>
      <trkpt lat="43.43951" lon="3.49976">
        <ele>113</ele>
        <time>2014-09-03T17:33:02.000Z</time>
      </trkpt>
      <trkpt lat="43.43953" lon="3.49964">
        <ele>112</ele>
        <time>2014-09-03T17:33:04.000Z</time>
      </trkpt>
      <trkpt lat="43.43952" lon="3.49952">
        <ele>113</ele>
        <time>2014-09-03T17:33:06.000Z</time>
      </trkpt>
      <trkpt lat="43.43951" lon="3.49941">
        <ele>114</ele>
        <time>2014-09-03T17:33:08.000Z</time>
      </trkpt>
      <trkpt lat="43.43949" lon="3.49931">
        <ele>114</ele>
        <time>2014-09-03T17:33:10.000Z</time>
      </trkpt>
      <trkpt lat="43.43945" lon="3.49923">
        <ele>113</ele>
        <time>2014-09-03T17:33:12.000Z</time>
      </trkpt>
      <trkpt lat="43.43945" lon="3.49923">
        <ele>113</ele>
        <time>2014-09-03T17:33:14.000Z</time>
      </trkpt>
      <trkpt lat="43.43945" lon="3.49923">
        <ele>113</ele>
        <time>2014-09-03T17:33:16.000Z</time>
      </trkpt>
      <trkpt lat="43.43945" lon="3.49923">
        <ele>113</ele>
        <time>2014-09-03T17:33:18.000Z</time>
      </trkpt>
      <trkpt lat="43.43945" lon="3.49923">
        <ele>113</ele>
        <time>2014-09-03T17:33:20.000Z</time>
      </trkpt>
      <trkpt lat="43.43949" lon="3.49933">
        <ele>118</ele>
        <time>2014-09-03T17:33:24.000Z</time>
      </trkpt>
      <trkpt lat="43.43956" lon="3.49934">
        <ele>120</ele>
        <time>2014-09-03T17:33:28.000Z</time>
      </trkpt>
      <trkpt lat="43.43962" lon="3.49931">
        <ele>120</ele>
        <time>2014-09-03T17:33:30.000Z</time>
      </trkpt>
      <trkpt lat="43.4397" lon="3.49927">
        <ele>124</ele>
        <time>2014-09-03T17:33:32.000Z</time>
      </trkpt>
      <trkpt lat="43.4398" lon="3.49924">
        <ele>121</ele>
        <time>2014-09-03T17:33:34.000Z</time>
      </trkpt>
      <trkpt lat="43.44" lon="3.49926">
        <ele>120</ele>
        <time>2014-09-03T17:33:37.000Z</time>
      </trkpt>
      <trkpt lat="43.4401" lon="3.49934">
        <ele>123</ele>
        <time>2014-09-03T17:33:40.000Z</time>
      </trkpt>
      <trkpt lat="43.44019" lon="3.49937">
        <ele>124</ele>
        <time>2014-09-03T17:33:42.000Z</time>
      </trkpt>
      <trkpt lat="43.44029" lon="3.49945">
        <ele>121</ele>
        <time>2014-09-03T17:33:44.000Z</time>
      </trkpt>
      <trkpt lat="43.44036" lon="3.4995">
        <ele>122</ele>
        <time>2014-09-03T17:33:46.000Z</time>
      </trkpt>
      <trkpt lat="43.44048" lon="3.49954">
        <ele>122</ele>
        <time>2014-09-03T17:33:48.000Z</time>
      </trkpt>
      <trkpt lat="43.44057" lon="3.49954">
        <ele>120</ele>
        <time>2014-09-03T17:33:50.000Z</time>
      </trkpt>
      <trkpt lat="43.4407" lon="3.49952">
        <ele>120</ele>
        <time>2014-09-03T17:33:52.000Z</time>
      </trkpt>
      <trkpt lat="43.44081" lon="3.49952">
        <ele>118</ele>
        <time>2014-09-03T17:33:54.000Z</time>
      </trkpt>
      <trkpt lat="43.4409" lon="3.49949">
        <ele>121</ele>
        <time>2014-09-03T17:33:56.000Z</time>
      </trkpt>
      <trkpt lat="43.44099" lon="3.49941">
        <ele>118</ele>
        <time>2014-09-03T17:33:58.000Z</time>
      </trkpt>
      <trkpt lat="43.44106" lon="3.49933">
        <ele>118</ele>
        <time>2014-09-03T17:34:00.000Z</time>
      </trkpt>
      <trkpt lat="43.44113" lon="3.49922">
        <ele>118</ele>
        <time>2014-09-03T17:34:02.000Z</time>
      </trkpt>
      <trkpt lat="43.44121" lon="3.49909">
        <ele>117</ele>
        <time>2014-09-03T17:34:04.000Z</time>
      </trkpt>
      <trkpt lat="43.44128" lon="3.49893">
        <ele>116</ele>
        <time>2014-09-03T17:34:06.000Z</time>
      </trkpt>
      <trkpt lat="43.44139" lon="3.49886">
        <ele>117</ele>
        <time>2014-09-03T17:34:08.000Z</time>
      </trkpt>
      <trkpt lat="43.44148" lon="3.49879">
        <ele>115</ele>
        <time>2014-09-03T17:34:10.000Z</time>
      </trkpt>
      <trkpt lat="43.44157" lon="3.49871">
        <ele>114</ele>
        <time>2014-09-03T17:34:12.000Z</time>
      </trkpt>
      <trkpt lat="43.44168" lon="3.49872">
        <ele>113</ele>
        <time>2014-09-03T17:34:14.000Z</time>
      </trkpt>
      <trkpt lat="43.4418" lon="3.49867">
        <ele>115</ele>
        <time>2014-09-03T17:34:16.000Z</time>
      </trkpt>
      <trkpt lat="43.4419" lon="3.49862">
        <ele>115</ele>
        <time>2014-09-03T17:34:18.000Z</time>
      </trkpt>
      <trkpt lat="43.44202" lon="3.49854">
        <ele>117</ele>
        <time>2014-09-03T17:34:20.000Z</time>
      </trkpt>
      <trkpt lat="43.44213" lon="3.49851">
        <ele>119</ele>
        <time>2014-09-03T17:34:22.000Z</time>
      </trkpt>
      <trkpt lat="43.44226" lon="3.49844">
        <ele>120</ele>
        <time>2014-09-03T17:34:24.000Z</time>
      </trkpt>
      <trkpt lat="43.44237" lon="3.49836">
        <ele>121</ele>
        <time>2014-09-03T17:34:26.000Z</time>
      </trkpt>
      <trkpt lat="43.44249" lon="3.49829">
        <ele>120</ele>
        <time>2014-09-03T17:34:28.000Z</time>
      </trkpt>
      <trkpt lat="43.44261" lon="3.49827">
        <ele>119</ele>
        <time>2014-09-03T17:34:30.000Z</time>
      </trkpt>
      <trkpt lat="43.44273" lon="3.49824">
        <ele>120</ele>
        <time>2014-09-03T17:34:32.000Z</time>
      </trkpt>
      <trkpt lat="43.44283" lon="3.49816">
        <ele>122</ele>
        <time>2014-09-03T17:34:34.000Z</time>
      </trkpt>
      <trkpt lat="43.44293" lon="3.49815">
        <ele>122</ele>
        <time>2014-09-03T17:34:36.000Z</time>
      </trkpt>
      <trkpt lat="43.44301" lon="3.49817">
        <ele>121</ele>
        <time>2014-09-03T17:34:38.000Z</time>
      </trkpt>
      <trkpt lat="43.44312" lon="3.49817">
        <ele>120</ele>
        <time>2014-09-03T17:34:40.000Z</time>
      </trkpt>
      <trkpt lat="43.44321" lon="3.49817">
        <ele>119</ele>
        <time>2014-09-03T17:34:42.000Z</time>
      </trkpt>
      <trkpt lat="43.4433" lon="3.4982">
        <ele>118</ele>
        <time>2014-09-03T17:34:44.000Z</time>
      </trkpt>
      <trkpt lat="43.44342" lon="3.4982">
        <ele>119</ele>
        <time>2014-09-03T17:34:46.000Z</time>
      </trkpt>
      <trkpt lat="43.44352" lon="3.49821">
        <ele>121</ele>
        <time>2014-09-03T17:34:48.000Z</time>
      </trkpt>
      <trkpt lat="43.44363" lon="3.4982">
        <ele>121</ele>
        <time>2014-09-03T17:34:50.000Z</time>
      </trkpt>
      <trkpt lat="43.44373" lon="3.49822">
        <ele>122</ele>
        <time>2014-09-03T17:34:52.000Z</time>
      </trkpt>
      <trkpt lat="43.44381" lon="3.49822">
        <ele>122</ele>
        <time>2014-09-03T17:34:54.000Z</time>
      </trkpt>
      <trkpt lat="43.44391" lon="3.49817">
        <ele>121</ele>
        <time>2014-09-03T17:34:56.000Z</time>
      </trkpt>
      <trkpt lat="43.44405" lon="3.49818">
        <ele>114</ele>
        <time>2014-09-03T17:34:58.000Z</time>
      </trkpt>
      <trkpt lat="43.44415" lon="3.49814">
        <ele>115</ele>
        <time>2014-09-03T17:35:00.000Z</time>
      </trkpt>
      <trkpt lat="43.44424" lon="3.4981">
        <ele>117</ele>
        <time>2014-09-03T17:35:02.000Z</time>
      </trkpt>
      <trkpt lat="43.4443" lon="3.49805">
        <ele>120</ele>
        <time>2014-09-03T17:35:04.000Z</time>
      </trkpt>
      <trkpt lat="43.4444" lon="3.49804">
        <ele>121</ele>
        <time>2014-09-03T17:35:06.000Z</time>
      </trkpt>
      <trkpt lat="43.4445" lon="3.49799">
        <ele>119</ele>
        <time>2014-09-03T17:35:08.000Z</time>
      </trkpt>
      <trkpt lat="43.44461" lon="3.49793">
        <ele>119</ele>
        <time>2014-09-03T17:35:10.000Z</time>
      </trkpt>
      <trkpt lat="43.44471" lon="3.49785">
        <ele>119</ele>
        <time>2014-09-03T17:35:12.000Z</time>
      </trkpt>
      <trkpt lat="43.44482" lon="3.49776">
        <ele>117</ele>
        <time>2014-09-03T17:35:14.000Z</time>
      </trkpt>
      <trkpt lat="43.44492" lon="3.49764">
        <ele>118</ele>
        <time>2014-09-03T17:35:16.000Z</time>
      </trkpt>
      <trkpt lat="43.44501" lon="3.49755">
        <ele>119</ele>
        <time>2014-09-03T17:35:18.000Z</time>
      </trkpt>
      <trkpt lat="43.4451" lon="3.49749">
        <ele>120</ele>
        <time>2014-09-03T17:35:20.000Z</time>
      </trkpt>
      <trkpt lat="43.44519" lon="3.49741">
        <ele>120</ele>
        <time>2014-09-03T17:35:22.000Z</time>
      </trkpt>
      <trkpt lat="43.44526" lon="3.49738">
        <ele>120</ele>
        <time>2014-09-03T17:35:24.000Z</time>
      </trkpt>
      <trkpt lat="43.44533" lon="3.49732">
        <ele>122</ele>
        <time>2014-09-03T17:35:26.000Z</time>
      </trkpt>
      <trkpt lat="43.4454" lon="3.49725">
        <ele>123</ele>
        <time>2014-09-03T17:35:28.000Z</time>
      </trkpt>
      <trkpt lat="43.44545" lon="3.49716">
        <ele>124</ele>
        <time>2014-09-03T17:35:30.000Z</time>
      </trkpt>
      <trkpt lat="43.44553" lon="3.49713">
        <ele>123</ele>
        <time>2014-09-03T17:35:32.000Z</time>
      </trkpt>
      <trkpt lat="43.44561" lon="3.49707">
        <ele>123</ele>
        <time>2014-09-03T17:35:34.000Z</time>
      </trkpt>
      <trkpt lat="43.44569" lon="3.49705">
        <ele>124</ele>
        <time>2014-09-03T17:35:36.000Z</time>
      </trkpt>
      <trkpt lat="43.44577" lon="3.49705">
        <ele>124</ele>
        <time>2014-09-03T17:35:38.000Z</time>
      </trkpt>
      <trkpt lat="43.44584" lon="3.49705">
        <ele>125</ele>
        <time>2014-09-03T17:35:40.000Z</time>
      </trkpt>
      <trkpt lat="43.44591" lon="3.49703">
        <ele>125</ele>
        <time>2014-09-03T17:35:42.000Z</time>
      </trkpt>
      <trkpt lat="43.44598" lon="3.49702">
        <ele>125</ele>
        <time>2014-09-03T17:35:44.000Z</time>
      </trkpt>
      <trkpt lat="43.44605" lon="3.497">
        <ele>125</ele>
        <time>2014-09-03T17:35:46.000Z</time>
      </trkpt>
      <trkpt lat="43.44613" lon="3.49695">
        <ele>125</ele>
        <time>2014-09-03T17:35:48.000Z</time>
      </trkpt>
      <trkpt lat="43.4462" lon="3.49691">
        <ele>127</ele>
        <time>2014-09-03T17:35:50.000Z</time>
      </trkpt>
      <trkpt lat="43.44626" lon="3.49691">
        <ele>131</ele>
        <time>2014-09-03T17:35:52.000Z</time>
      </trkpt>
      <trkpt lat="43.44631" lon="3.49696">
        <ele>132</ele>
        <time>2014-09-03T17:35:54.000Z</time>
      </trkpt>
      <trkpt lat="43.44636" lon="3.49701">
        <ele>134</ele>
        <time>2014-09-03T17:35:56.000Z</time>
      </trkpt>
      <trkpt lat="43.44641" lon="3.49707">
        <ele>136</ele>
        <time>2014-09-03T17:35:58.000Z</time>
      </trkpt>
      <trkpt lat="43.44646" lon="3.49714">
        <ele>137</ele>
        <time>2014-09-03T17:36:00.000Z</time>
      </trkpt>
      <trkpt lat="43.44653" lon="3.4972">
        <ele>137</ele>
        <time>2014-09-03T17:36:02.000Z</time>
      </trkpt>
      <trkpt lat="43.44661" lon="3.49728">
        <ele>136</ele>
        <time>2014-09-03T17:36:04.000Z</time>
      </trkpt>
      <trkpt lat="43.44676" lon="3.49746">
        <ele>134</ele>
        <time>2014-09-03T17:36:07.000Z</time>
      </trkpt>
      <trkpt lat="43.44684" lon="3.49752">
        <ele>133</ele>
        <time>2014-09-03T17:36:09.000Z</time>
      </trkpt>
      <trkpt lat="43.44695" lon="3.49756">
        <ele>133</ele>
        <time>2014-09-03T17:36:11.000Z</time>
      </trkpt>
      <trkpt lat="43.4471" lon="3.49758">
        <ele>130</ele>
        <time>2014-09-03T17:36:13.000Z</time>
      </trkpt>
      <trkpt lat="43.44722" lon="3.49748">
        <ele>132</ele>
        <time>2014-09-03T17:36:15.000Z</time>
      </trkpt>
      <trkpt lat="43.44733" lon="3.49748">
        <ele>130</ele>
        <time>2014-09-03T17:36:17.000Z</time>
      </trkpt>
      <trkpt lat="43.44741" lon="3.49744">
        <ele>130</ele>
        <time>2014-09-03T17:36:19.000Z</time>
      </trkpt>
      <trkpt lat="43.44748" lon="3.49745">
        <ele>132</ele>
        <time>2014-09-03T17:36:21.000Z</time>
      </trkpt>
      <trkpt lat="43.44756" lon="3.4975">
        <ele>132</ele>
        <time>2014-09-03T17:36:23.000Z</time>
      </trkpt>
      <trkpt lat="43.4476" lon="3.49756">
        <ele>135</ele>
        <time>2014-09-03T17:36:25.000Z</time>
      </trkpt>
      <trkpt lat="43.44768" lon="3.49756">
        <ele>136</ele>
        <time>2014-09-03T17:36:27.000Z</time>
      </trkpt>
      <trkpt lat="43.44777" lon="3.49752">
        <ele>135</ele>
        <time>2014-09-03T17:36:29.000Z</time>
      </trkpt>
      <trkpt lat="43.44784" lon="3.49747">
        <ele>134</ele>
        <time>2014-09-03T17:36:31.000Z</time>
      </trkpt>
      <trkpt lat="43.4479" lon="3.49743">
        <ele>135</ele>
        <time>2014-09-03T17:36:33.000Z</time>
      </trkpt>
      <trkpt lat="43.44794" lon="3.49739">
        <ele>137</ele>
        <time>2014-09-03T17:36:35.000Z</time>
      </trkpt>
      <trkpt lat="43.44794" lon="3.49739">
        <ele>137</ele>
        <time>2014-09-03T17:36:37.000Z</time>
      </trkpt>
      <trkpt lat="43.44801" lon="3.49725">
        <ele>133</ele>
        <time>2014-09-03T17:36:39.000Z</time>
      </trkpt>
      <trkpt lat="43.44802" lon="3.49713">
        <ele>132</ele>
        <time>2014-09-03T17:36:41.000Z</time>
      </trkpt>
      <trkpt lat="43.44803" lon="3.497">
        <ele>131</ele>
        <time>2014-09-03T17:36:43.000Z</time>
      </trkpt>
      <trkpt lat="43.44802" lon="3.49689">
        <ele>129</ele>
        <time>2014-09-03T17:36:45.000Z</time>
      </trkpt>
      <trkpt lat="43.44805" lon="3.49681">
        <ele>129</ele>
        <time>2014-09-03T17:36:47.000Z</time>
      </trkpt>
      <trkpt lat="43.44809" lon="3.49676">
        <ele>128</ele>
        <time>2014-09-03T17:36:49.000Z</time>
      </trkpt>
      <trkpt lat="43.44814" lon="3.49673">
        <ele>131</ele>
        <time>2014-09-03T17:36:51.000Z</time>
      </trkpt>
      <trkpt lat="43.4482" lon="3.49671">
        <ele>134</ele>
        <time>2014-09-03T17:36:53.000Z</time>
      </trkpt>
      <trkpt lat="43.44827" lon="3.49669">
        <ele>137</ele>
        <time>2014-09-03T17:36:55.000Z</time>
      </trkpt>
      <trkpt lat="43.44832" lon="3.49666">
        <ele>139</ele>
        <time>2014-09-03T17:36:57.000Z</time>
      </trkpt>
      <trkpt lat="43.44838" lon="3.49662">
        <ele>139</ele>
        <time>2014-09-03T17:36:59.000Z</time>
      </trkpt>
      <trkpt lat="43.44845" lon="3.49658">
        <ele>141</ele>
        <time>2014-09-03T17:37:01.000Z</time>
      </trkpt>
      <trkpt lat="43.44852" lon="3.49655">
        <ele>143</ele>
        <time>2014-09-03T17:37:03.000Z</time>
      </trkpt>
      <trkpt lat="43.44859" lon="3.49652">
        <ele>143</ele>
        <time>2014-09-03T17:37:05.000Z</time>
      </trkpt>
      <trkpt lat="43.44866" lon="3.49649">
        <ele>145</ele>
        <time>2014-09-03T17:37:07.000Z</time>
      </trkpt>
      <trkpt lat="43.44872" lon="3.49644">
        <ele>143</ele>
        <time>2014-09-03T17:37:09.000Z</time>
      </trkpt>
      <trkpt lat="43.44879" lon="3.49638">
        <ele>144</ele>
        <time>2014-09-03T17:37:11.000Z</time>
      </trkpt>
      <trkpt lat="43.44891" lon="3.49615">
        <ele>139</ele>
        <time>2014-09-03T17:37:14.000Z</time>
      </trkpt>
      <trkpt lat="43.44901" lon="3.49607">
        <ele>140</ele>
        <time>2014-09-03T17:37:17.000Z</time>
      </trkpt>
      <trkpt lat="43.44908" lon="3.49604">
        <ele>141</ele>
        <time>2014-09-03T17:37:19.000Z</time>
      </trkpt>
      <trkpt lat="43.44914" lon="3.49602">
        <ele>140</ele>
        <time>2014-09-03T17:37:21.000Z</time>
      </trkpt>
      <trkpt lat="43.44921" lon="3.49601">
        <ele>140</ele>
        <time>2014-09-03T17:37:23.000Z</time>
      </trkpt>
      <trkpt lat="43.44928" lon="3.49598">
        <ele>142</ele>
        <time>2014-09-03T17:37:25.000Z</time>
      </trkpt>
      <trkpt lat="43.44936" lon="3.49593">
        <ele>142</ele>
        <time>2014-09-03T17:37:27.000Z</time>
      </trkpt>
      <trkpt lat="43.44942" lon="3.4959">
        <ele>142</ele>
        <time>2014-09-03T17:37:29.000Z</time>
      </trkpt>
      <trkpt lat="43.44949" lon="3.49591">
        <ele>143</ele>
        <time>2014-09-03T17:37:31.000Z</time>
      </trkpt>
      <trkpt lat="43.44955" lon="3.49592">
        <ele>144</ele>
        <time>2014-09-03T17:37:33.000Z</time>
      </trkpt>
      <trkpt lat="43.44962" lon="3.49594">
        <ele>145</ele>
        <time>2014-09-03T17:37:35.000Z</time>
      </trkpt>
      <trkpt lat="43.4497" lon="3.49595">
        <ele>144</ele>
        <time>2014-09-03T17:37:37.000Z</time>
      </trkpt>
      <trkpt lat="43.44976" lon="3.49592">
        <ele>146</ele>
        <time>2014-09-03T17:37:39.000Z</time>
      </trkpt>
      <trkpt lat="43.44981" lon="3.49585">
        <ele>145</ele>
        <time>2014-09-03T17:37:41.000Z</time>
      </trkpt>
      <trkpt lat="43.44984" lon="3.49573">
        <ele>140</ele>
        <time>2014-09-03T17:37:43.000Z</time>
      </trkpt>
      <trkpt lat="43.44987" lon="3.49561">
        <ele>138</ele>
        <time>2014-09-03T17:37:45.000Z</time>
      </trkpt>
      <trkpt lat="43.44991" lon="3.4955">
        <ele>139</ele>
        <time>2014-09-03T17:37:47.000Z</time>
      </trkpt>
      <trkpt lat="43.44996" lon="3.49541">
        <ele>141</ele>
        <time>2014-09-03T17:37:49.000Z</time>
      </trkpt>
      <trkpt lat="43.45003" lon="3.49533">
        <ele>140</ele>
        <time>2014-09-03T17:37:51.000Z</time>
      </trkpt>
      <trkpt lat="43.4501" lon="3.49525">
        <ele>142</ele>
        <time>2014-09-03T17:37:53.000Z</time>
      </trkpt>
      <trkpt lat="43.45018" lon="3.49519">
        <ele>143</ele>
        <time>2014-09-03T17:37:55.000Z</time>
      </trkpt>
      <trkpt lat="43.45025" lon="3.49513">
        <ele>145</ele>
        <time>2014-09-03T17:37:57.000Z</time>
      </trkpt>
      <trkpt lat="43.45032" lon="3.49509">
        <ele>146</ele>
        <time>2014-09-03T17:37:59.000Z</time>
      </trkpt>
      <trkpt lat="43.45039" lon="3.49505">
        <ele>144</ele>
        <time>2014-09-03T17:38:01.000Z</time>
      </trkpt>
      <trkpt lat="43.45046" lon="3.495">
        <ele>144</ele>
        <time>2014-09-03T17:38:03.000Z</time>
      </trkpt>
      <trkpt lat="43.45052" lon="3.49493">
        <ele>146</ele>
        <time>2014-09-03T17:38:05.000Z</time>
      </trkpt>
      <trkpt lat="43.45058" lon="3.49484">
        <ele>145</ele>
        <time>2014-09-03T17:38:07.000Z</time>
      </trkpt>
      <trkpt lat="43.45065" lon="3.49476">
        <ele>145</ele>
        <time>2014-09-03T17:38:09.000Z</time>
      </trkpt>
      <trkpt lat="43.4507" lon="3.49471">
        <ele>147</ele>
        <time>2014-09-03T17:38:11.000Z</time>
      </trkpt>
      <trkpt lat="43.45075" lon="3.49466">
        <ele>146</ele>
        <time>2014-09-03T17:38:13.000Z</time>
      </trkpt>
      <trkpt lat="43.45081" lon="3.49458">
        <ele>147</ele>
        <time>2014-09-03T17:38:15.000Z</time>
      </trkpt>
      <trkpt lat="43.45088" lon="3.49451">
        <ele>147</ele>
        <time>2014-09-03T17:38:17.000Z</time>
      </trkpt>
      <trkpt lat="43.45095" lon="3.49446">
        <ele>147</ele>
        <time>2014-09-03T17:38:19.000Z</time>
      </trkpt>
      <trkpt lat="43.45103" lon="3.49441">
        <ele>147</ele>
        <time>2014-09-03T17:38:21.000Z</time>
      </trkpt>
      <trkpt lat="43.45111" lon="3.49436">
        <ele>147</ele>
        <time>2014-09-03T17:38:23.000Z</time>
      </trkpt>
      <trkpt lat="43.45118" lon="3.4943">
        <ele>147</ele>
        <time>2014-09-03T17:38:25.000Z</time>
      </trkpt>
      <trkpt lat="43.45125" lon="3.49425">
        <ele>148</ele>
        <time>2014-09-03T17:38:27.000Z</time>
      </trkpt>
      <trkpt lat="43.4513" lon="3.49422">
        <ele>149</ele>
        <time>2014-09-03T17:38:29.000Z</time>
      </trkpt>
      <trkpt lat="43.45135" lon="3.49419">
        <ele>148</ele>
        <time>2014-09-03T17:38:31.000Z</time>
      </trkpt>
      <trkpt lat="43.45142" lon="3.49416">
        <ele>149</ele>
        <time>2014-09-03T17:38:33.000Z</time>
      </trkpt>
      <trkpt lat="43.45148" lon="3.49411">
        <ele>148</ele>
        <time>2014-09-03T17:38:35.000Z</time>
      </trkpt>
      <trkpt lat="43.45155" lon="3.49407">
        <ele>149</ele>
        <time>2014-09-03T17:38:37.000Z</time>
      </trkpt>
      <trkpt lat="43.45155" lon="3.49407">
        <ele>149</ele>
        <time>2014-09-03T17:38:39.000Z</time>
      </trkpt>
      <trkpt lat="43.45163" lon="3.49401">
        <ele>149</ele>
        <time>2014-09-03T17:38:41.000Z</time>
      </trkpt>
      <trkpt lat="43.45163" lon="3.49401">
        <ele>149</ele>
        <time>2014-09-03T17:38:43.000Z</time>
      </trkpt>
      <trkpt lat="43.45173" lon="3.49396">
        <ele>150</ele>
        <time>2014-09-03T17:38:45.000Z</time>
      </trkpt>
      <trkpt lat="43.45179" lon="3.49393">
        <ele>152</ele>
        <time>2014-09-03T17:38:47.000Z</time>
      </trkpt>
      <trkpt lat="43.45185" lon="3.4939">
        <ele>151</ele>
        <time>2014-09-03T17:38:49.000Z</time>
      </trkpt>
      <trkpt lat="43.45192" lon="3.49387">
        <ele>152</ele>
        <time>2014-09-03T17:38:51.000Z</time>
      </trkpt>
      <trkpt lat="43.452" lon="3.49384">
        <ele>153</ele>
        <time>2014-09-03T17:38:55.000Z</time>
      </trkpt>
      <trkpt lat="43.452" lon="3.49384">
        <ele>153</ele>
        <time>2014-09-03T17:38:57.000Z</time>
      </trkpt>
      <trkpt lat="43.45206" lon="3.49381">
        <ele>156</ele>
        <time>2014-09-03T17:38:59.000Z</time>
      </trkpt>
      <trkpt lat="43.45206" lon="3.49381">
        <ele>156</ele>
        <time>2014-09-03T17:39:01.000Z</time>
      </trkpt>
      <trkpt lat="43.45206" lon="3.49381">
        <ele>156</ele>
        <time>2014-09-03T17:39:03.000Z</time>
      </trkpt>
      <trkpt lat="43.45206" lon="3.49381">
        <ele>156</ele>
        <time>2014-09-03T17:39:05.000Z</time>
      </trkpt>
      <trkpt lat="43.45215" lon="3.4938">
        <ele>156</ele>
        <time>2014-09-03T17:39:07.000Z</time>
      </trkpt>
      <trkpt lat="43.45223" lon="3.49378">
        <ele>157</ele>
        <time>2014-09-03T17:39:11.000Z</time>
      </trkpt>
      <trkpt lat="43.45232" lon="3.49372">
        <ele>157</ele>
        <time>2014-09-03T17:39:15.000Z</time>
      </trkpt>
      <trkpt lat="43.45237" lon="3.49368">
        <ele>159</ele>
        <time>2014-09-03T17:39:17.000Z</time>
      </trkpt>
      <trkpt lat="43.45243" lon="3.49365">
        <ele>157</ele>
        <time>2014-09-03T17:39:19.000Z</time>
      </trkpt>
      <trkpt lat="43.4525" lon="3.49364">
        <ele>158</ele>
        <time>2014-09-03T17:39:21.000Z</time>
      </trkpt>
      <trkpt lat="43.45258" lon="3.49364">
        <ele>159</ele>
        <time>2014-09-03T17:39:23.000Z</time>
      </trkpt>
      <trkpt lat="43.45266" lon="3.49363">
        <ele>155</ele>
        <time>2014-09-03T17:39:25.000Z</time>
      </trkpt>
      <trkpt lat="43.45274" lon="3.49362">
        <ele>152</ele>
        <time>2014-09-03T17:39:27.000Z</time>
      </trkpt>
      <trkpt lat="43.45281" lon="3.4936">
        <ele>153</ele>
        <time>2014-09-03T17:39:29.000Z</time>
      </trkpt>
      <trkpt lat="43.45281" lon="3.4936">
        <ele>153</ele>
        <time>2014-09-03T17:39:31.000Z</time>
      </trkpt>
      <trkpt lat="43.45286" lon="3.49356">
        <ele>154</ele>
        <time>2014-09-03T17:39:33.000Z</time>
      </trkpt>
      <trkpt lat="43.45286" lon="3.49356">
        <ele>154</ele>
        <time>2014-09-03T17:39:35.000Z</time>
      </trkpt>
      <trkpt lat="43.45286" lon="3.49356">
        <ele>154</ele>
        <time>2014-09-03T17:39:37.000Z</time>
      </trkpt>
      <trkpt lat="43.45286" lon="3.49356">
        <ele>154</ele>
        <time>2014-09-03T17:39:39.000Z</time>
      </trkpt>
      <trkpt lat="43.45286" lon="3.49356">
        <ele>154</ele>
        <time>2014-09-03T17:39:41.000Z</time>
      </trkpt>
      <trkpt lat="43.45286" lon="3.49356">
        <ele>154</ele>
        <time>2014-09-03T17:39:43.000Z</time>
      </trkpt>
      <trkpt lat="43.45286" lon="3.49356">
        <ele>154</ele>
        <time>2014-09-03T17:39:45.000Z</time>
      </trkpt>
      <trkpt lat="43.45279" lon="3.49346">
        <ele>144</ele>
        <time>2014-09-03T17:39:53.000Z</time>
      </trkpt>
      <trkpt lat="43.45274" lon="3.49338">
        <ele>144</ele>
        <time>2014-09-03T17:39:55.000Z</time>
      </trkpt>
      <trkpt lat="43.4527" lon="3.49332">
        <ele>143</ele>
        <time>2014-09-03T17:39:57.000Z</time>
      </trkpt>
      <trkpt lat="43.45266" lon="3.49325">
        <ele>141</ele>
        <time>2014-09-03T17:39:59.000Z</time>
      </trkpt>
      <trkpt lat="43.45263" lon="3.49319">
        <ele>141</ele>
        <time>2014-09-03T17:40:01.000Z</time>
      </trkpt>
      <trkpt lat="43.45257" lon="3.49308">
        <ele>140</ele>
        <time>2014-09-03T17:40:03.000Z</time>
      </trkpt>
      <trkpt lat="43.45253" lon="3.49302">
        <ele>141</ele>
        <time>2014-09-03T17:40:05.000Z</time>
      </trkpt>
      <trkpt lat="43.45248" lon="3.49296">
        <ele>139</ele>
        <time>2014-09-03T17:40:07.000Z</time>
      </trkpt>
      <trkpt lat="43.45242" lon="3.49291">
        <ele>138</ele>
        <time>2014-09-03T17:40:09.000Z</time>
      </trkpt>
      <trkpt lat="43.45242" lon="3.49291">
        <ele>138</ele>
        <time>2014-09-03T17:40:11.000Z</time>
      </trkpt>
      <trkpt lat="43.45233" lon="3.4929">
        <ele>139</ele>
        <time>2014-09-03T17:40:13.000Z</time>
      </trkpt>
      <trkpt lat="43.45227" lon="3.49291">
        <ele>138</ele>
        <time>2014-09-03T17:40:15.000Z</time>
      </trkpt>
      <trkpt lat="43.45219" lon="3.49293">
        <ele>138</ele>
        <time>2014-09-03T17:40:17.000Z</time>
      </trkpt>
      <trkpt lat="43.45211" lon="3.49296">
        <ele>138</ele>
        <time>2014-09-03T17:40:19.000Z</time>
      </trkpt>
      <trkpt lat="43.45202" lon="3.49299">
        <ele>137</ele>
        <time>2014-09-03T17:40:21.000Z</time>
      </trkpt>
      <trkpt lat="43.45193" lon="3.493">
        <ele>136</ele>
        <time>2014-09-03T17:40:23.000Z</time>
      </trkpt>
      <trkpt lat="43.45186" lon="3.49298">
        <ele>135</ele>
        <time>2014-09-03T17:40:25.000Z</time>
      </trkpt>
      <trkpt lat="43.4518" lon="3.49293">
        <ele>134</ele>
        <time>2014-09-03T17:40:27.000Z</time>
      </trkpt>
      <trkpt lat="43.45176" lon="3.49286">
        <ele>134</ele>
        <time>2014-09-03T17:40:29.000Z</time>
      </trkpt>
      <trkpt lat="43.45173" lon="3.49274">
        <ele>133</ele>
        <time>2014-09-03T17:40:31.000Z</time>
      </trkpt>
      <trkpt lat="43.45174" lon="3.49255">
        <ele>133</ele>
        <time>2014-09-03T17:40:33.000Z</time>
      </trkpt>
      <trkpt lat="43.45171" lon="3.49242">
        <ele>133</ele>
        <time>2014-09-03T17:40:35.000Z</time>
      </trkpt>
      <trkpt lat="43.45162" lon="3.49228">
        <ele>131</ele>
        <time>2014-09-03T17:40:37.000Z</time>
      </trkpt>
      <trkpt lat="43.45156" lon="3.49214">
        <ele>130</ele>
        <time>2014-09-03T17:40:39.000Z</time>
      </trkpt>
      <trkpt lat="43.45156" lon="3.49198">
        <ele>129</ele>
        <time>2014-09-03T17:40:41.000Z</time>
      </trkpt>
      <trkpt lat="43.45154" lon="3.49181">
        <ele>128</ele>
        <time>2014-09-03T17:40:43.000Z</time>
      </trkpt>
      <trkpt lat="43.45151" lon="3.49168">
        <ele>128</ele>
        <time>2014-09-03T17:40:45.000Z</time>
      </trkpt>
      <trkpt lat="43.45132" lon="3.49154">
        <ele>126</ele>
        <time>2014-09-03T17:40:48.000Z</time>
      </trkpt>
      <trkpt lat="43.45122" lon="3.49147">
        <ele>126</ele>
        <time>2014-09-03T17:40:50.000Z</time>
      </trkpt>
      <trkpt lat="43.45111" lon="3.49144">
        <ele>127</ele>
        <time>2014-09-03T17:40:52.000Z</time>
      </trkpt>
      <trkpt lat="43.45101" lon="3.49142">
        <ele>127</ele>
        <time>2014-09-03T17:40:54.000Z</time>
      </trkpt>
      <trkpt lat="43.45095" lon="3.49143">
        <ele>128</ele>
        <time>2014-09-03T17:40:56.000Z</time>
      </trkpt>
      <trkpt lat="43.45086" lon="3.49148">
        <ele>127</ele>
        <time>2014-09-03T17:40:58.000Z</time>
      </trkpt>
      <trkpt lat="43.45078" lon="3.49155">
        <ele>126</ele>
        <time>2014-09-03T17:41:00.000Z</time>
      </trkpt>
      <trkpt lat="43.45072" lon="3.49158">
        <ele>124</ele>
        <time>2014-09-03T17:41:02.000Z</time>
      </trkpt>
      <trkpt lat="43.45066" lon="3.49152">
        <ele>125</ele>
        <time>2014-09-03T17:41:04.000Z</time>
      </trkpt>
      <trkpt lat="43.45061" lon="3.49145">
        <ele>125</ele>
        <time>2014-09-03T17:41:06.000Z</time>
      </trkpt>
      <trkpt lat="43.45056" lon="3.49139">
        <ele>125</ele>
        <time>2014-09-03T17:41:08.000Z</time>
      </trkpt>
      <trkpt lat="43.45049" lon="3.49139">
        <ele>125</ele>
        <time>2014-09-03T17:41:10.000Z</time>
      </trkpt>
      <trkpt lat="43.45042" lon="3.49139">
        <ele>126</ele>
        <time>2014-09-03T17:41:12.000Z</time>
      </trkpt>
      <trkpt lat="43.45035" lon="3.49137">
        <ele>127</ele>
        <time>2014-09-03T17:41:14.000Z</time>
      </trkpt>
      <trkpt lat="43.4503" lon="3.49131">
        <ele>129</ele>
        <time>2014-09-03T17:41:16.000Z</time>
      </trkpt>
      <trkpt lat="43.45028" lon="3.49122">
        <ele>132</ele>
        <time>2014-09-03T17:41:18.000Z</time>
      </trkpt>
      <trkpt lat="43.45029" lon="3.4911">
        <ele>130</ele>
        <time>2014-09-03T17:41:20.000Z</time>
      </trkpt>
      <trkpt lat="43.45027" lon="3.49097">
        <ele>130</ele>
        <time>2014-09-03T17:41:22.000Z</time>
      </trkpt>
      <trkpt lat="43.45013" lon="3.49075">
        <ele>130</ele>
        <time>2014-09-03T17:41:25.000Z</time>
      </trkpt>
      <trkpt lat="43.45" lon="3.49065">
        <ele>130</ele>
        <time>2014-09-03T17:41:28.000Z</time>
      </trkpt>
      <trkpt lat="43.44994" lon="3.49059">
        <ele>129</ele>
        <time>2014-09-03T17:41:31.000Z</time>
      </trkpt>
      <trkpt lat="43.44994" lon="3.49059">
        <ele>129</ele>
        <time>2014-09-03T17:41:33.000Z</time>
      </trkpt>
      <trkpt lat="43.44989" lon="3.49051">
        <ele>126</ele>
        <time>2014-09-03T17:41:35.000Z</time>
      </trkpt>
      <trkpt lat="43.44989" lon="3.49051">
        <ele>126</ele>
        <time>2014-09-03T17:41:37.000Z</time>
      </trkpt>
      <trkpt lat="43.44988" lon="3.49041">
        <ele>127</ele>
        <time>2014-09-03T17:41:39.000Z</time>
      </trkpt>
      <trkpt lat="43.44988" lon="3.49041">
        <ele>127</ele>
        <time>2014-09-03T17:41:41.000Z</time>
      </trkpt>
      <trkpt lat="43.44988" lon="3.49041">
        <ele>127</ele>
        <time>2014-09-03T17:41:43.000Z</time>
      </trkpt>
      <trkpt lat="43.44988" lon="3.49041">
        <ele>127</ele>
        <time>2014-09-03T17:41:45.000Z</time>
      </trkpt>
      <trkpt lat="43.44987" lon="3.49065">
        <ele>131</ele>
        <time>2014-09-03T17:41:57.000Z</time>
      </trkpt>
      <trkpt lat="43.4498" lon="3.49072">
        <ele>130</ele>
        <time>2014-09-03T17:42:01.000Z</time>
      </trkpt>
      <trkpt lat="43.44972" lon="3.49075">
        <ele>129</ele>
        <time>2014-09-03T17:42:03.000Z</time>
      </trkpt>
      <trkpt lat="43.44964" lon="3.49076">
        <ele>128</ele>
        <time>2014-09-03T17:42:05.000Z</time>
      </trkpt>
      <trkpt lat="43.44955" lon="3.49077">
        <ele>127</ele>
        <time>2014-09-03T17:42:07.000Z</time>
      </trkpt>
      <trkpt lat="43.44947" lon="3.49078">
        <ele>127</ele>
        <time>2014-09-03T17:42:09.000Z</time>
      </trkpt>
      <trkpt lat="43.44941" lon="3.49083">
        <ele>126</ele>
        <time>2014-09-03T17:42:11.000Z</time>
      </trkpt>
      <trkpt lat="43.44937" lon="3.4909">
        <ele>127</ele>
        <time>2014-09-03T17:42:13.000Z</time>
      </trkpt>
      <trkpt lat="43.44932" lon="3.49098">
        <ele>127</ele>
        <time>2014-09-03T17:42:15.000Z</time>
      </trkpt>
      <trkpt lat="43.44927" lon="3.49109">
        <ele>126</ele>
        <time>2014-09-03T17:42:17.000Z</time>
      </trkpt>
      <trkpt lat="43.44922" lon="3.49123">
        <ele>125</ele>
        <time>2014-09-03T17:42:19.000Z</time>
      </trkpt>
      <trkpt lat="43.44917" lon="3.49132">
        <ele>125</ele>
        <time>2014-09-03T17:42:21.000Z</time>
      </trkpt>
      <trkpt lat="43.44911" lon="3.49135">
        <ele>123</ele>
        <time>2014-09-03T17:42:23.000Z</time>
      </trkpt>
      <trkpt lat="43.44911" lon="3.49135">
        <ele>123</ele>
        <time>2014-09-03T17:42:25.000Z</time>
      </trkpt>
      <trkpt lat="43.44907" lon="3.49125">
        <ele>121</ele>
        <time>2014-09-03T17:42:27.000Z</time>
      </trkpt>
      <trkpt lat="43.44902" lon="3.49117">
        <ele>123</ele>
        <time>2014-09-03T17:42:29.000Z</time>
      </trkpt>
      <trkpt lat="43.44896" lon="3.4911">
        <ele>124</ele>
        <time>2014-09-03T17:42:31.000Z</time>
      </trkpt>
      <trkpt lat="43.4489" lon="3.49104">
        <ele>124</ele>
        <time>2014-09-03T17:42:33.000Z</time>
      </trkpt>
      <trkpt lat="43.44883" lon="3.49101">
        <ele>126</ele>
        <time>2014-09-03T17:42:35.000Z</time>
      </trkpt>
      <trkpt lat="43.44877" lon="3.49099">
        <ele>125</ele>
        <time>2014-09-03T17:42:37.000Z</time>
      </trkpt>
      <trkpt lat="43.44872" lon="3.49093">
        <ele>124</ele>
        <time>2014-09-03T17:42:39.000Z</time>
      </trkpt>
      <trkpt lat="43.44868" lon="3.49086">
        <ele>125</ele>
        <time>2014-09-03T17:42:41.000Z</time>
      </trkpt>
      <trkpt lat="43.44865" lon="3.49078">
        <ele>126</ele>
        <time>2014-09-03T17:42:43.000Z</time>
      </trkpt>
      <trkpt lat="43.44864" lon="3.4907">
        <ele>124</ele>
        <time>2014-09-03T17:42:45.000Z</time>
      </trkpt>
      <trkpt lat="43.44863" lon="3.49061">
        <ele>123</ele>
        <time>2014-09-03T17:42:47.000Z</time>
      </trkpt>
      <trkpt lat="43.44864" lon="3.49051">
        <ele>121</ele>
        <time>2014-09-03T17:42:49.000Z</time>
      </trkpt>
      <trkpt lat="43.44861" lon="3.4904">
        <ele>118</ele>
        <time>2014-09-03T17:42:51.000Z</time>
      </trkpt>
      <trkpt lat="43.44858" lon="3.49032">
        <ele>119</ele>
        <time>2014-09-03T17:42:53.000Z</time>
      </trkpt>
      <trkpt lat="43.44858" lon="3.49032">
        <ele>119</ele>
        <time>2014-09-03T17:42:56.000Z</time>
      </trkpt>
      <trkpt lat="43.44858" lon="3.49032">
        <ele>119</ele>
        <time>2014-09-03T17:42:58.000Z</time>
      </trkpt>
      <trkpt lat="43.44858" lon="3.49032">
        <ele>119</ele>
        <time>2014-09-03T17:43:00.000Z</time>
      </trkpt>
      <trkpt lat="43.44858" lon="3.49032">
        <ele>119</ele>
        <time>2014-09-03T17:43:02.000Z</time>
      </trkpt>
      <trkpt lat="43.44858" lon="3.49032">
        <ele>119</ele>
        <time>2014-09-03T17:43:04.000Z</time>
      </trkpt>
      <trkpt lat="43.44858" lon="3.49032">
        <ele>119</ele>
        <time>2014-09-03T17:43:06.000Z</time>
      </trkpt>
      <trkpt lat="43.44849" lon="3.49034">
        <ele>122</ele>
        <time>2014-09-03T17:43:08.000Z</time>
      </trkpt>
      <trkpt lat="43.44844" lon="3.49025">
        <ele>124</ele>
        <time>2014-09-03T17:43:12.000Z</time>
      </trkpt>
      <trkpt lat="43.44838" lon="3.49017">
        <ele>123</ele>
        <time>2014-09-03T17:43:16.000Z</time>
      </trkpt>
      <trkpt lat="43.44832" lon="3.49004">
        <ele>122</ele>
        <time>2014-09-03T17:43:20.000Z</time>
      </trkpt>
      <trkpt lat="43.44828" lon="3.48998">
        <ele>121</ele>
        <time>2014-09-03T17:43:22.000Z</time>
      </trkpt>
      <trkpt lat="43.44823" lon="3.48992">
        <ele>122</ele>
        <time>2014-09-03T17:43:24.000Z</time>
      </trkpt>
      <trkpt lat="43.44816" lon="3.48984">
        <ele>125</ele>
        <time>2014-09-03T17:43:28.000Z</time>
      </trkpt>
      <trkpt lat="43.44816" lon="3.48984">
        <ele>125</ele>
        <time>2014-09-03T17:43:30.000Z</time>
      </trkpt>
      <trkpt lat="43.44817" lon="3.48973">
        <ele>126</ele>
        <time>2014-09-03T17:43:32.000Z</time>
      </trkpt>
      <trkpt lat="43.4482" lon="3.48965">
        <ele>128</ele>
        <time>2014-09-03T17:43:34.000Z</time>
      </trkpt>
      <trkpt lat="43.44823" lon="3.48953">
        <ele>126</ele>
        <time>2014-09-03T17:43:38.000Z</time>
      </trkpt>
      <trkpt lat="43.44823" lon="3.48953">
        <ele>126</ele>
        <time>2014-09-03T17:43:40.000Z</time>
      </trkpt>
      <trkpt lat="43.44828" lon="3.48947">
        <ele>129</ele>
        <time>2014-09-03T17:43:42.000Z</time>
      </trkpt>
      <trkpt lat="43.44828" lon="3.48947">
        <ele>129</ele>
        <time>2014-09-03T17:43:44.000Z</time>
      </trkpt>
      <trkpt lat="43.44837" lon="3.48951">
        <ele>132</ele>
        <time>2014-09-03T17:43:46.000Z</time>
      </trkpt>
      <trkpt lat="43.44843" lon="3.48953">
        <ele>132</ele>
        <time>2014-09-03T17:43:48.000Z</time>
      </trkpt>
      <trkpt lat="43.4485" lon="3.48952">
        <ele>138</ele>
        <time>2014-09-03T17:43:50.000Z</time>
      </trkpt>
      <trkpt lat="43.44858" lon="3.48949">
        <ele>137</ele>
        <time>2014-09-03T17:43:52.000Z</time>
      </trkpt>
      <trkpt lat="43.44865" lon="3.48946">
        <ele>138</ele>
        <time>2014-09-03T17:43:54.000Z</time>
      </trkpt>
      <trkpt lat="43.44872" lon="3.48941">
        <ele>138</ele>
        <time>2014-09-03T17:43:56.000Z</time>
      </trkpt>
      <trkpt lat="43.44878" lon="3.48934">
        <ele>137</ele>
        <time>2014-09-03T17:43:58.000Z</time>
      </trkpt>
      <trkpt lat="43.44883" lon="3.48925">
        <ele>137</ele>
        <time>2014-09-03T17:44:00.000Z</time>
      </trkpt>
      <trkpt lat="43.44885" lon="3.48914">
        <ele>134</ele>
        <time>2014-09-03T17:44:02.000Z</time>
      </trkpt>
      <trkpt lat="43.44889" lon="3.48905">
        <ele>133</ele>
        <time>2014-09-03T17:44:04.000Z</time>
      </trkpt>
      <trkpt lat="43.44893" lon="3.48896">
        <ele>132</ele>
        <time>2014-09-03T17:44:06.000Z</time>
      </trkpt>
      <trkpt lat="43.44896" lon="3.48887">
        <ele>133</ele>
        <time>2014-09-03T17:44:08.000Z</time>
      </trkpt>
      <trkpt lat="43.44897" lon="3.48877">
        <ele>134</ele>
        <time>2014-09-03T17:44:10.000Z</time>
      </trkpt>
      <trkpt lat="43.44896" lon="3.48867">
        <ele>134</ele>
        <time>2014-09-03T17:44:12.000Z</time>
      </trkpt>
      <trkpt lat="43.44894" lon="3.48857">
        <ele>136</ele>
        <time>2014-09-03T17:44:14.000Z</time>
      </trkpt>
      <trkpt lat="43.4489" lon="3.48847">
        <ele>134</ele>
        <time>2014-09-03T17:44:16.000Z</time>
      </trkpt>
      <trkpt lat="43.44883" lon="3.48823">
        <ele>132</ele>
        <time>2014-09-03T17:44:19.000Z</time>
      </trkpt>
      <trkpt lat="43.44881" lon="3.4881">
        <ele>131</ele>
        <time>2014-09-03T17:44:21.000Z</time>
      </trkpt>
      <trkpt lat="43.4488" lon="3.48794">
        <ele>131</ele>
        <time>2014-09-03T17:44:23.000Z</time>
      </trkpt>
      <trkpt lat="43.44879" lon="3.48781">
        <ele>131</ele>
        <time>2014-09-03T17:44:25.000Z</time>
      </trkpt>
      <trkpt lat="43.44876" lon="3.4877">
        <ele>130</ele>
        <time>2014-09-03T17:44:27.000Z</time>
      </trkpt>
      <trkpt lat="43.4487" lon="3.48765">
        <ele>126</ele>
        <time>2014-09-03T17:44:29.000Z</time>
      </trkpt>
      <trkpt lat="43.4487" lon="3.48765">
        <ele>126</ele>
        <time>2014-09-03T17:44:31.000Z</time>
      </trkpt>
      <trkpt lat="43.4487" lon="3.48765">
        <ele>126</ele>
        <time>2014-09-03T17:44:33.000Z</time>
      </trkpt>
      <trkpt lat="43.4487" lon="3.48756">
        <ele>127</ele>
        <time>2014-09-03T17:44:35.000Z</time>
      </trkpt>
      <trkpt lat="43.4487" lon="3.48756">
        <ele>127</ele>
        <time>2014-09-03T17:44:37.000Z</time>
      </trkpt>
      <trkpt lat="43.4487" lon="3.48756">
        <ele>127</ele>
        <time>2014-09-03T17:44:39.000Z</time>
      </trkpt>
      <trkpt lat="43.44871" lon="3.48752">
        <ele>128</ele>
        <time>2014-09-03T17:44:41.000Z</time>
      </trkpt>
      <trkpt lat="43.44872" lon="3.48747">
        <ele>129</ele>
        <time>2014-09-03T17:44:45.000Z</time>
      </trkpt>
      <trkpt lat="43.44873" lon="3.48743">
        <ele>127</ele>
        <time>2014-09-03T17:44:47.000Z</time>
      </trkpt>
      <trkpt lat="43.44873" lon="3.48737">
        <ele>128</ele>
        <time>2014-09-03T17:44:49.000Z</time>
      </trkpt>
      <trkpt lat="43.44872" lon="3.48732">
        <ele>126</ele>
        <time>2014-09-03T17:44:51.000Z</time>
      </trkpt>
      <trkpt lat="43.44872" lon="3.48727">
        <ele>127</ele>
        <time>2014-09-03T17:44:53.000Z</time>
      </trkpt>
      <trkpt lat="43.4487" lon="3.48717">
        <ele>128</ele>
        <time>2014-09-03T17:44:55.000Z</time>
      </trkpt>
      <trkpt lat="43.44863" lon="3.48714">
        <ele>125</ele>
        <time>2014-09-03T17:44:59.000Z</time>
      </trkpt>
      <trkpt lat="43.44857" lon="3.48709">
        <ele>125</ele>
        <time>2014-09-03T17:45:01.000Z</time>
      </trkpt>
      <trkpt lat="43.44857" lon="3.48709">
        <ele>125</ele>
        <time>2014-09-03T17:45:03.000Z</time>
      </trkpt>
      <trkpt lat="43.44857" lon="3.48709">
        <ele>125</ele>
        <time>2014-09-03T17:45:05.000Z</time>
      </trkpt>
      <trkpt lat="43.44857" lon="3.48709">
        <ele>125</ele>
        <time>2014-09-03T17:45:07.000Z</time>
      </trkpt>
      <trkpt lat="43.44852" lon="3.48703">
        <ele>124</ele>
        <time>2014-09-03T17:45:25.000Z</time>
      </trkpt>
      <trkpt lat="43.44852" lon="3.48703">
        <ele>124</ele>
        <time>2014-09-03T17:45:27.000Z</time>
      </trkpt>
      <trkpt lat="43.44852" lon="3.48703">
        <ele>124</ele>
        <time>2014-09-03T17:45:29.000Z</time>
      </trkpt>
      <trkpt lat="43.44848" lon="3.48696">
        <ele>122</ele>
        <time>2014-09-03T17:45:31.000Z</time>
      </trkpt>
      <trkpt lat="43.44843" lon="3.48687">
        <ele>121</ele>
        <time>2014-09-03T17:45:35.000Z</time>
      </trkpt>
      <trkpt lat="43.44841" lon="3.48678">
        <ele>121</ele>
        <time>2014-09-03T17:45:41.000Z</time>
      </trkpt>
      <trkpt lat="43.44841" lon="3.48678">
        <ele>121</ele>
        <time>2014-09-03T17:45:43.000Z</time>
      </trkpt>
      <trkpt lat="43.44841" lon="3.48678">
        <ele>121</ele>
        <time>2014-09-03T17:45:45.000Z</time>
      </trkpt>
      <trkpt lat="43.44847" lon="3.48677">
        <ele>123</ele>
        <time>2014-09-03T17:45:47.000Z</time>
      </trkpt>
      <trkpt lat="43.44847" lon="3.48677">
        <ele>123</ele>
        <time>2014-09-03T17:45:49.000Z</time>
      </trkpt>
      <trkpt lat="43.44847" lon="3.48677">
        <ele>123</ele>
        <time>2014-09-03T17:45:51.000Z</time>
      </trkpt>
      <trkpt lat="43.44843" lon="3.48668">
        <ele>122</ele>
        <time>2014-09-03T17:45:57.000Z</time>
      </trkpt>
      <trkpt lat="43.44845" lon="3.48654">
        <ele>123</ele>
        <time>2014-09-03T17:46:01.000Z</time>
      </trkpt>
      <trkpt lat="43.44848" lon="3.48645">
        <ele>123</ele>
        <time>2014-09-03T17:46:03.000Z</time>
      </trkpt>
      <trkpt lat="43.4485" lon="3.48635">
        <ele>123</ele>
        <time>2014-09-03T17:46:05.000Z</time>
      </trkpt>
      <trkpt lat="43.44849" lon="3.48625">
        <ele>122</ele>
        <time>2014-09-03T17:46:07.000Z</time>
      </trkpt>
      <trkpt lat="43.4485" lon="3.48616">
        <ele>121</ele>
        <time>2014-09-03T17:46:09.000Z</time>
      </trkpt>
      <trkpt lat="43.44852" lon="3.48609">
        <ele>122</ele>
        <time>2014-09-03T17:46:11.000Z</time>
      </trkpt>
      <trkpt lat="43.44856" lon="3.48602">
        <ele>122</ele>
        <time>2014-09-03T17:46:13.000Z</time>
      </trkpt>
      <trkpt lat="43.4486" lon="3.48594">
        <ele>123</ele>
        <time>2014-09-03T17:46:15.000Z</time>
      </trkpt>
      <trkpt lat="43.44864" lon="3.48586">
        <ele>124</ele>
        <time>2014-09-03T17:46:17.000Z</time>
      </trkpt>
      <trkpt lat="43.44865" lon="3.48576">
        <ele>125</ele>
        <time>2014-09-03T17:46:19.000Z</time>
      </trkpt>
      <trkpt lat="43.44865" lon="3.48566">
        <ele>125</ele>
        <time>2014-09-03T17:46:21.000Z</time>
      </trkpt>
      <trkpt lat="43.44863" lon="3.48556">
        <ele>126</ele>
        <time>2014-09-03T17:46:23.000Z</time>
      </trkpt>
      <trkpt lat="43.44863" lon="3.48556">
        <ele>126</ele>
        <time>2014-09-03T17:46:25.000Z</time>
      </trkpt>
      <trkpt lat="43.44859" lon="3.48544">
        <ele>125</ele>
        <time>2014-09-03T17:46:27.000Z</time>
      </trkpt>
      <trkpt lat="43.44859" lon="3.48544">
        <ele>125</ele>
        <time>2014-09-03T17:46:29.000Z</time>
      </trkpt>
      <trkpt lat="43.44852" lon="3.48532">
        <ele>124</ele>
        <time>2014-09-03T17:46:31.000Z</time>
      </trkpt>
      <trkpt lat="43.44848" lon="3.48524">
        <ele>123</ele>
        <time>2014-09-03T17:46:33.000Z</time>
      </trkpt>
      <trkpt lat="43.44845" lon="3.48515">
        <ele>123</ele>
        <time>2014-09-03T17:46:35.000Z</time>
      </trkpt>
      <trkpt lat="43.44845" lon="3.48505">
        <ele>123</ele>
        <time>2014-09-03T17:46:37.000Z</time>
      </trkpt>
      <trkpt lat="43.44845" lon="3.48496">
        <ele>123</ele>
        <time>2014-09-03T17:46:39.000Z</time>
      </trkpt>
      <trkpt lat="43.44845" lon="3.48487">
        <ele>121</ele>
        <time>2014-09-03T17:46:41.000Z</time>
      </trkpt>
      <trkpt lat="43.44845" lon="3.48478">
        <ele>120</ele>
        <time>2014-09-03T17:46:43.000Z</time>
      </trkpt>
      <trkpt lat="43.44845" lon="3.48478">
        <ele>120</ele>
        <time>2014-09-03T17:46:45.000Z</time>
      </trkpt>
      <trkpt lat="43.44841" lon="3.48469">
        <ele>121</ele>
        <time>2014-09-03T17:46:47.000Z</time>
      </trkpt>
      <trkpt lat="43.44841" lon="3.48469">
        <ele>121</ele>
        <time>2014-09-03T17:46:49.000Z</time>
      </trkpt>
      <trkpt lat="43.44831" lon="3.48474">
        <ele>122</ele>
        <time>2014-09-03T17:46:51.000Z</time>
      </trkpt>
      <trkpt lat="43.44825" lon="3.48475">
        <ele>121</ele>
        <time>2014-09-03T17:46:53.000Z</time>
      </trkpt>
      <trkpt lat="43.44818" lon="3.48474">
        <ele>122</ele>
        <time>2014-09-03T17:46:55.000Z</time>
      </trkpt>
      <trkpt lat="43.4481" lon="3.48476">
        <ele>122</ele>
        <time>2014-09-03T17:46:57.000Z</time>
      </trkpt>
      <trkpt lat="43.44802" lon="3.48478">
        <ele>121</ele>
        <time>2014-09-03T17:46:59.000Z</time>
      </trkpt>
      <trkpt lat="43.44794" lon="3.48479">
        <ele>120</ele>
        <time>2014-09-03T17:47:01.000Z</time>
      </trkpt>
      <trkpt lat="43.44785" lon="3.48481">
        <ele>119</ele>
        <time>2014-09-03T17:47:03.000Z</time>
      </trkpt>
      <trkpt lat="43.44778" lon="3.48482">
        <ele>118</ele>
        <time>2014-09-03T17:47:05.000Z</time>
      </trkpt>
      <trkpt lat="43.44771" lon="3.4848">
        <ele>117</ele>
        <time>2014-09-03T17:47:07.000Z</time>
      </trkpt>
      <trkpt lat="43.44765" lon="3.48475">
        <ele>118</ele>
        <time>2014-09-03T17:47:09.000Z</time>
      </trkpt>
      <trkpt lat="43.44761" lon="3.48467">
        <ele>119</ele>
        <time>2014-09-03T17:47:11.000Z</time>
      </trkpt>
      <trkpt lat="43.44759" lon="3.48457">
        <ele>117</ele>
        <time>2014-09-03T17:47:13.000Z</time>
      </trkpt>
      <trkpt lat="43.44759" lon="3.48444">
        <ele>118</ele>
        <time>2014-09-03T17:47:15.000Z</time>
      </trkpt>
      <trkpt lat="43.44759" lon="3.48431">
        <ele>116</ele>
        <time>2014-09-03T17:47:17.000Z</time>
      </trkpt>
      <trkpt lat="43.44759" lon="3.48419">
        <ele>120</ele>
        <time>2014-09-03T17:47:19.000Z</time>
      </trkpt>
      <trkpt lat="43.44758" lon="3.48409">
        <ele>120</ele>
        <time>2014-09-03T17:47:21.000Z</time>
      </trkpt>
      <trkpt lat="43.44757" lon="3.48398">
        <ele>121</ele>
        <time>2014-09-03T17:47:23.000Z</time>
      </trkpt>
      <trkpt lat="43.44756" lon="3.48388">
        <ele>121</ele>
        <time>2014-09-03T17:47:25.000Z</time>
      </trkpt>
      <trkpt lat="43.44755" lon="3.48378">
        <ele>119</ele>
        <time>2014-09-03T17:47:27.000Z</time>
      </trkpt>
      <trkpt lat="43.44755" lon="3.48367">
        <ele>120</ele>
        <time>2014-09-03T17:47:29.000Z</time>
      </trkpt>
      <trkpt lat="43.44754" lon="3.48355">
        <ele>122</ele>
        <time>2014-09-03T17:47:31.000Z</time>
      </trkpt>
      <trkpt lat="43.44753" lon="3.48343">
        <ele>122</ele>
        <time>2014-09-03T17:47:33.000Z</time>
      </trkpt>
      <trkpt lat="43.44753" lon="3.48332">
        <ele>121</ele>
        <time>2014-09-03T17:47:35.000Z</time>
      </trkpt>
      <trkpt lat="43.44753" lon="3.4832">
        <ele>121</ele>
        <time>2014-09-03T17:47:37.000Z</time>
      </trkpt>
      <trkpt lat="43.4475" lon="3.48301">
        <ele>123</ele>
        <time>2014-09-03T17:47:39.000Z</time>
      </trkpt>
      <trkpt lat="43.44748" lon="3.48287">
        <ele>124</ele>
        <time>2014-09-03T17:47:41.000Z</time>
      </trkpt>
      <trkpt lat="43.44741" lon="3.48279">
        <ele>127</ele>
        <time>2014-09-03T17:47:43.000Z</time>
      </trkpt>
      <trkpt lat="43.4474" lon="3.48266">
        <ele>129</ele>
        <time>2014-09-03T17:47:45.000Z</time>
      </trkpt>
      <trkpt lat="43.44741" lon="3.48251">
        <ele>129</ele>
        <time>2014-09-03T17:47:47.000Z</time>
      </trkpt>
      <trkpt lat="43.44741" lon="3.48238">
        <ele>127</ele>
        <time>2014-09-03T17:47:49.000Z</time>
      </trkpt>
      <trkpt lat="43.44744" lon="3.48225">
        <ele>124</ele>
        <time>2014-09-03T17:47:51.000Z</time>
      </trkpt>
      <trkpt lat="43.44748" lon="3.48213">
        <ele>123</ele>
        <time>2014-09-03T17:47:54.000Z</time>
      </trkpt>
      <trkpt lat="43.44748" lon="3.48213">
        <ele>123</ele>
        <time>2014-09-03T17:47:56.000Z</time>
      </trkpt>
      <trkpt lat="43.44755" lon="3.48209">
        <ele>125</ele>
        <time>2014-09-03T17:47:58.000Z</time>
      </trkpt>
      <trkpt lat="43.44759" lon="3.48204">
        <ele>128</ele>
        <time>2014-09-03T17:48:00.000Z</time>
      </trkpt>
      <trkpt lat="43.44765" lon="3.48201">
        <ele>128</ele>
        <time>2014-09-03T17:48:02.000Z</time>
      </trkpt>
      <trkpt lat="43.44765" lon="3.48201">
        <ele>128</ele>
        <time>2014-09-03T17:48:04.000Z</time>
      </trkpt>
      <trkpt lat="43.44768" lon="3.48198">
        <ele>130</ele>
        <time>2014-09-03T17:48:06.000Z</time>
      </trkpt>
      <trkpt lat="43.44771" lon="3.48194">
        <ele>131</ele>
        <time>2014-09-03T17:48:08.000Z</time>
      </trkpt>
      <trkpt lat="43.44774" lon="3.48188">
        <ele>129</ele>
        <time>2014-09-03T17:48:10.000Z</time>
      </trkpt>
      <trkpt lat="43.44777" lon="3.48182">
        <ele>129</ele>
        <time>2014-09-03T17:48:12.000Z</time>
      </trkpt>
      <trkpt lat="43.44781" lon="3.48175">
        <ele>131</ele>
        <time>2014-09-03T17:48:14.000Z</time>
      </trkpt>
      <trkpt lat="43.44788" lon="3.48162">
        <ele>133</ele>
        <time>2014-09-03T17:48:16.000Z</time>
      </trkpt>
      <trkpt lat="43.44794" lon="3.48152">
        <ele>133</ele>
        <time>2014-09-03T17:48:20.000Z</time>
      </trkpt>
      <trkpt lat="43.44794" lon="3.48152">
        <ele>133</ele>
        <time>2014-09-03T17:48:22.000Z</time>
      </trkpt>
      <trkpt lat="43.44791" lon="3.48135">
        <ele>134</ele>
        <time>2014-09-03T17:48:24.000Z</time>
      </trkpt>
      <trkpt lat="43.44786" lon="3.48122">
        <ele>133</ele>
        <time>2014-09-03T17:48:26.000Z</time>
      </trkpt>
      <trkpt lat="43.44785" lon="3.4811">
        <ele>135</ele>
        <time>2014-09-03T17:48:28.000Z</time>
      </trkpt>
      <trkpt lat="43.44785" lon="3.48099">
        <ele>134</ele>
        <time>2014-09-03T17:48:30.000Z</time>
      </trkpt>
      <trkpt lat="43.44785" lon="3.48099">
        <ele>134</ele>
        <time>2014-09-03T17:48:32.000Z</time>
      </trkpt>
      <trkpt lat="43.4478" lon="3.48091">
        <ele>127</ele>
        <time>2014-09-03T17:48:34.000Z</time>
      </trkpt>
      <trkpt lat="43.4478" lon="3.48091">
        <ele>127</ele>
        <time>2014-09-03T17:48:36.000Z</time>
      </trkpt>
      <trkpt lat="43.44774" lon="3.48085">
        <ele>128</ele>
        <time>2014-09-03T17:48:38.000Z</time>
      </trkpt>
      <trkpt lat="43.44769" lon="3.48078">
        <ele>127</ele>
        <time>2014-09-03T17:48:40.000Z</time>
      </trkpt>
      <trkpt lat="43.44764" lon="3.48071">
        <ele>128</ele>
        <time>2014-09-03T17:48:42.000Z</time>
      </trkpt>
      <trkpt lat="43.44764" lon="3.48054">
        <ele>132</ele>
        <time>2014-09-03T17:48:46.000Z</time>
      </trkpt>
      <trkpt lat="43.44763" lon="3.48045">
        <ele>134</ele>
        <time>2014-09-03T17:48:48.000Z</time>
      </trkpt>
      <trkpt lat="43.44761" lon="3.48036">
        <ele>135</ele>
        <time>2014-09-03T17:48:50.000Z</time>
      </trkpt>
      <trkpt lat="43.44758" lon="3.48026">
        <ele>136</ele>
        <time>2014-09-03T17:48:52.000Z</time>
      </trkpt>
      <trkpt lat="43.44754" lon="3.48018">
        <ele>136</ele>
        <time>2014-09-03T17:48:54.000Z</time>
      </trkpt>
      <trkpt lat="43.44751" lon="3.4801">
        <ele>135</ele>
        <time>2014-09-03T17:48:56.000Z</time>
      </trkpt>
      <trkpt lat="43.44746" lon="3.48003">
        <ele>135</ele>
        <time>2014-09-03T17:48:58.000Z</time>
      </trkpt>
      <trkpt lat="43.44741" lon="3.47996">
        <ele>134</ele>
        <time>2014-09-03T17:49:00.000Z</time>
      </trkpt>
      <trkpt lat="43.44737" lon="3.47988">
        <ele>131</ele>
        <time>2014-09-03T17:49:02.000Z</time>
      </trkpt>
      <trkpt lat="43.4473" lon="3.47986">
        <ele>130</ele>
        <time>2014-09-03T17:49:04.000Z</time>
      </trkpt>
      <trkpt lat="43.4472" lon="3.47989">
        <ele>130</ele>
        <time>2014-09-03T17:49:06.000Z</time>
      </trkpt>
      <trkpt lat="43.4471" lon="3.47989">
        <ele>131</ele>
        <time>2014-09-03T17:49:08.000Z</time>
      </trkpt>
      <trkpt lat="43.44703" lon="3.47986">
        <ele>131</ele>
        <time>2014-09-03T17:49:10.000Z</time>
      </trkpt>
      <trkpt lat="43.44699" lon="3.47978">
        <ele>132</ele>
        <time>2014-09-03T17:49:12.000Z</time>
      </trkpt>
      <trkpt lat="43.44699" lon="3.47968">
        <ele>133</ele>
        <time>2014-09-03T17:49:14.000Z</time>
      </trkpt>
      <trkpt lat="43.44699" lon="3.47958">
        <ele>131</ele>
        <time>2014-09-03T17:49:16.000Z</time>
      </trkpt>
      <trkpt lat="43.447" lon="3.47948">
        <ele>131</ele>
        <time>2014-09-03T17:49:18.000Z</time>
      </trkpt>
      <trkpt lat="43.44696" lon="3.4794">
        <ele>130</ele>
        <time>2014-09-03T17:49:20.000Z</time>
      </trkpt>
      <trkpt lat="43.4469" lon="3.47933">
        <ele>127</ele>
        <time>2014-09-03T17:49:22.000Z</time>
      </trkpt>
      <trkpt lat="43.44684" lon="3.47925">
        <ele>128</ele>
        <time>2014-09-03T17:49:24.000Z</time>
      </trkpt>
      <trkpt lat="43.44679" lon="3.47915">
        <ele>128</ele>
        <time>2014-09-03T17:49:26.000Z</time>
      </trkpt>
      <trkpt lat="43.44675" lon="3.47905">
        <ele>127</ele>
        <time>2014-09-03T17:49:28.000Z</time>
      </trkpt>
      <trkpt lat="43.44669" lon="3.47897">
        <ele>127</ele>
        <time>2014-09-03T17:49:30.000Z</time>
      </trkpt>
      <trkpt lat="43.44665" lon="3.47888">
        <ele>127</ele>
        <time>2014-09-03T17:49:32.000Z</time>
      </trkpt>
      <trkpt lat="43.44661" lon="3.4788">
        <ele>127</ele>
        <time>2014-09-03T17:49:34.000Z</time>
      </trkpt>
      <trkpt lat="43.44658" lon="3.47872">
        <ele>127</ele>
        <time>2014-09-03T17:49:36.000Z</time>
      </trkpt>
      <trkpt lat="43.44655" lon="3.47863">
        <ele>127</ele>
        <time>2014-09-03T17:49:38.000Z</time>
      </trkpt>
      <trkpt lat="43.44654" lon="3.47854">
        <ele>127</ele>
        <time>2014-09-03T17:49:40.000Z</time>
      </trkpt>
      <trkpt lat="43.44656" lon="3.47845">
        <ele>127</ele>
        <time>2014-09-03T17:49:42.000Z</time>
      </trkpt>
      <trkpt lat="43.44656" lon="3.47845">
        <ele>127</ele>
        <time>2014-09-03T17:49:44.000Z</time>
      </trkpt>
      <trkpt lat="43.44662" lon="3.47834">
        <ele>128</ele>
        <time>2014-09-03T17:49:46.000Z</time>
      </trkpt>
      <trkpt lat="43.44664" lon="3.47826">
        <ele>128</ele>
        <time>2014-09-03T17:49:48.000Z</time>
      </trkpt>
      <trkpt lat="43.44664" lon="3.47819">
        <ele>129</ele>
        <time>2014-09-03T17:49:50.000Z</time>
      </trkpt>
      <trkpt lat="43.44664" lon="3.47819">
        <ele>129</ele>
        <time>2014-09-03T17:49:52.000Z</time>
      </trkpt>
      <trkpt lat="43.44662" lon="3.47808">
        <ele>129</ele>
        <time>2014-09-03T17:49:54.000Z</time>
      </trkpt>
      <trkpt lat="43.44662" lon="3.47808">
        <ele>129</ele>
        <time>2014-09-03T17:49:56.000Z</time>
      </trkpt>
      <trkpt lat="43.4466" lon="3.47798">
        <ele>129</ele>
        <time>2014-09-03T17:49:58.000Z</time>
      </trkpt>
      <trkpt lat="43.44659" lon="3.47784">
        <ele>128</ele>
        <time>2014-09-03T17:50:02.000Z</time>
      </trkpt>
      <trkpt lat="43.44661" lon="3.4777">
        <ele>128</ele>
        <time>2014-09-03T17:50:06.000Z</time>
      </trkpt>
      <trkpt lat="43.44665" lon="3.47756">
        <ele>128</ele>
        <time>2014-09-03T17:50:10.000Z</time>
      </trkpt>
      <trkpt lat="43.44665" lon="3.47748">
        <ele>128</ele>
        <time>2014-09-03T17:50:12.000Z</time>
      </trkpt>
      <trkpt lat="43.44663" lon="3.47738">
        <ele>128</ele>
        <time>2014-09-03T17:50:14.000Z</time>
      </trkpt>
      <trkpt lat="43.44658" lon="3.47729">
        <ele>128</ele>
        <time>2014-09-03T17:50:16.000Z</time>
      </trkpt>
      <trkpt lat="43.44653" lon="3.4772">
        <ele>128</ele>
        <time>2014-09-03T17:50:18.000Z</time>
      </trkpt>
      <trkpt lat="43.44652" lon="3.4771">
        <ele>128</ele>
        <time>2014-09-03T17:50:20.000Z</time>
      </trkpt>
      <trkpt lat="43.44654" lon="3.47699">
        <ele>128</ele>
        <time>2014-09-03T17:50:22.000Z</time>
      </trkpt>
      <trkpt lat="43.44655" lon="3.47689">
        <ele>128</ele>
        <time>2014-09-03T17:50:24.000Z</time>
      </trkpt>
      <trkpt lat="43.4465" lon="3.47681">
        <ele>127</ele>
        <time>2014-09-03T17:50:26.000Z</time>
      </trkpt>
      <trkpt lat="43.44642" lon="3.47679">
        <ele>127</ele>
        <time>2014-09-03T17:50:28.000Z</time>
      </trkpt>
      <trkpt lat="43.4463" lon="3.47681">
        <ele>127</ele>
        <time>2014-09-03T17:50:30.000Z</time>
      </trkpt>
      <trkpt lat="43.4462" lon="3.47683">
        <ele>126</ele>
        <time>2014-09-03T17:50:32.000Z</time>
      </trkpt>
      <trkpt lat="43.4461" lon="3.47686">
        <ele>125</ele>
        <time>2014-09-03T17:50:34.000Z</time>
      </trkpt>
      <trkpt lat="43.44601" lon="3.47688">
        <ele>124</ele>
        <time>2014-09-03T17:50:36.000Z</time>
      </trkpt>
      <trkpt lat="43.44592" lon="3.47688">
        <ele>123</ele>
        <time>2014-09-03T17:50:38.000Z</time>
      </trkpt>
      <trkpt lat="43.44583" lon="3.47685">
        <ele>125</ele>
        <time>2014-09-03T17:50:40.000Z</time>
      </trkpt>
      <trkpt lat="43.44573" lon="3.47683">
        <ele>125</ele>
        <time>2014-09-03T17:50:42.000Z</time>
      </trkpt>
      <trkpt lat="43.44563" lon="3.47681">
        <ele>126</ele>
        <time>2014-09-03T17:50:44.000Z</time>
      </trkpt>
      <trkpt lat="43.44552" lon="3.4768">
        <ele>125</ele>
        <time>2014-09-03T17:50:46.000Z</time>
      </trkpt>
      <trkpt lat="43.44542" lon="3.47677">
        <ele>126</ele>
        <time>2014-09-03T17:50:48.000Z</time>
      </trkpt>
      <trkpt lat="43.44532" lon="3.47676">
        <ele>125</ele>
        <time>2014-09-03T17:50:50.000Z</time>
      </trkpt>
      <trkpt lat="43.44522" lon="3.47674">
        <ele>124</ele>
        <time>2014-09-03T17:50:52.000Z</time>
      </trkpt>
      <trkpt lat="43.44513" lon="3.47673">
        <ele>124</ele>
        <time>2014-09-03T17:50:54.000Z</time>
      </trkpt>
      <trkpt lat="43.44504" lon="3.47672">
        <ele>124</ele>
        <time>2014-09-03T17:50:56.000Z</time>
      </trkpt>
      <trkpt lat="43.44495" lon="3.47672">
        <ele>125</ele>
        <time>2014-09-03T17:50:58.000Z</time>
      </trkpt>
      <trkpt lat="43.44485" lon="3.47672">
        <ele>125</ele>
        <time>2014-09-03T17:51:00.000Z</time>
      </trkpt>
      <trkpt lat="43.44476" lon="3.47674">
        <ele>124</ele>
        <time>2014-09-03T17:51:02.000Z</time>
      </trkpt>
      <trkpt lat="43.44466" lon="3.47676">
        <ele>124</ele>
        <time>2014-09-03T17:51:04.000Z</time>
      </trkpt>
      <trkpt lat="43.44457" lon="3.47678">
        <ele>125</ele>
        <time>2014-09-03T17:51:06.000Z</time>
      </trkpt>
      <trkpt lat="43.44447" lon="3.47683">
        <ele>123</ele>
        <time>2014-09-03T17:51:08.000Z</time>
      </trkpt>
      <trkpt lat="43.44437" lon="3.47687">
        <ele>121</ele>
        <time>2014-09-03T17:51:10.000Z</time>
      </trkpt>
      <trkpt lat="43.44428" lon="3.47691">
        <ele>122</ele>
        <time>2014-09-03T17:51:12.000Z</time>
      </trkpt>
      <trkpt lat="43.44419" lon="3.47694">
        <ele>121</ele>
        <time>2014-09-03T17:51:14.000Z</time>
      </trkpt>
      <trkpt lat="43.44409" lon="3.47698">
        <ele>122</ele>
        <time>2014-09-03T17:51:16.000Z</time>
      </trkpt>
      <trkpt lat="43.44398" lon="3.47702">
        <ele>121</ele>
        <time>2014-09-03T17:51:18.000Z</time>
      </trkpt>
      <trkpt lat="43.44389" lon="3.47704">
        <ele>121</ele>
        <time>2014-09-03T17:51:20.000Z</time>
      </trkpt>
      <trkpt lat="43.44378" lon="3.47707">
        <ele>121</ele>
        <time>2014-09-03T17:51:22.000Z</time>
      </trkpt>
      <trkpt lat="43.44366" lon="3.4771">
        <ele>120</ele>
        <time>2014-09-03T17:51:24.000Z</time>
      </trkpt>
      <trkpt lat="43.44357" lon="3.47712">
        <ele>120</ele>
        <time>2014-09-03T17:51:26.000Z</time>
      </trkpt>
      <trkpt lat="43.44346" lon="3.47715">
        <ele>121</ele>
        <time>2014-09-03T17:51:28.000Z</time>
      </trkpt>
      <trkpt lat="43.44334" lon="3.47718">
        <ele>120</ele>
        <time>2014-09-03T17:51:30.000Z</time>
      </trkpt>
      <trkpt lat="43.44324" lon="3.47721">
        <ele>121</ele>
        <time>2014-09-03T17:51:32.000Z</time>
      </trkpt>
      <trkpt lat="43.44315" lon="3.47726">
        <ele>121</ele>
        <time>2014-09-03T17:51:34.000Z</time>
      </trkpt>
      <trkpt lat="43.44305" lon="3.47731">
        <ele>122</ele>
        <time>2014-09-03T17:51:37.000Z</time>
      </trkpt>
      <trkpt lat="43.44296" lon="3.47733">
        <ele>122</ele>
        <time>2014-09-03T17:51:38.000Z</time>
      </trkpt>
      <trkpt lat="43.44289" lon="3.47733">
        <ele>123</ele>
        <time>2014-09-03T17:51:40.000Z</time>
      </trkpt>
      <trkpt lat="43.44282" lon="3.47735">
        <ele>123</ele>
        <time>2014-09-03T17:51:42.000Z</time>
      </trkpt>
      <trkpt lat="43.44282" lon="3.47735">
        <ele>123</ele>
        <time>2014-09-03T17:51:44.000Z</time>
      </trkpt>
      <trkpt lat="43.44274" lon="3.47727">
        <ele>124</ele>
        <time>2014-09-03T17:51:46.000Z</time>
      </trkpt>
      <trkpt lat="43.44271" lon="3.4772">
        <ele>124</ele>
        <time>2014-09-03T17:51:48.000Z</time>
      </trkpt>
      <trkpt lat="43.44267" lon="3.47713">
        <ele>125</ele>
        <time>2014-09-03T17:51:50.000Z</time>
      </trkpt>
      <trkpt lat="43.44265" lon="3.47702">
        <ele>126</ele>
        <time>2014-09-03T17:51:54.000Z</time>
      </trkpt>
      <trkpt lat="43.44265" lon="3.47702">
        <ele>126</ele>
        <time>2014-09-03T17:51:56.000Z</time>
      </trkpt>
      <trkpt lat="43.44267" lon="3.47691">
        <ele>125</ele>
        <time>2014-09-03T17:51:58.000Z</time>
      </trkpt>
      <trkpt lat="43.44268" lon="3.47683">
        <ele>126</ele>
        <time>2014-09-03T17:52:00.000Z</time>
      </trkpt>
      <trkpt lat="43.44272" lon="3.47668">
        <ele>126</ele>
        <time>2014-09-03T17:52:04.000Z</time>
      </trkpt>
      <trkpt lat="43.44277" lon="3.47657">
        <ele>128</ele>
        <time>2014-09-03T17:52:06.000Z</time>
      </trkpt>
      <trkpt lat="43.44282" lon="3.47646">
        <ele>128</ele>
        <time>2014-09-03T17:52:08.000Z</time>
      </trkpt>
      <trkpt lat="43.44286" lon="3.47636">
        <ele>127</ele>
        <time>2014-09-03T17:52:10.000Z</time>
      </trkpt>
      <trkpt lat="43.44289" lon="3.47625">
        <ele>127</ele>
        <time>2014-09-03T17:52:12.000Z</time>
      </trkpt>
      <trkpt lat="43.44293" lon="3.47615">
        <ele>131</ele>
        <time>2014-09-03T17:52:14.000Z</time>
      </trkpt>
      <trkpt lat="43.44297" lon="3.47605">
        <ele>132</ele>
        <time>2014-09-03T17:52:16.000Z</time>
      </trkpt>
      <trkpt lat="43.443" lon="3.47596">
        <ele>131</ele>
        <time>2014-09-03T17:52:18.000Z</time>
      </trkpt>
      <trkpt lat="43.44303" lon="3.47587">
        <ele>130</ele>
        <time>2014-09-03T17:52:20.000Z</time>
      </trkpt>
      <trkpt lat="43.44306" lon="3.47577">
        <ele>128</ele>
        <time>2014-09-03T17:52:22.000Z</time>
      </trkpt>
      <trkpt lat="43.44308" lon="3.47566">
        <ele>127</ele>
        <time>2014-09-03T17:52:24.000Z</time>
      </trkpt>
      <trkpt lat="43.4431" lon="3.47555">
        <ele>129</ele>
        <time>2014-09-03T17:52:26.000Z</time>
      </trkpt>
      <trkpt lat="43.44313" lon="3.47544">
        <ele>130</ele>
        <time>2014-09-03T17:52:28.000Z</time>
      </trkpt>
      <trkpt lat="43.44316" lon="3.47533">
        <ele>131</ele>
        <time>2014-09-03T17:52:30.000Z</time>
      </trkpt>
      <trkpt lat="43.44322" lon="3.47524">
        <ele>131</ele>
        <time>2014-09-03T17:52:32.000Z</time>
      </trkpt>
      <trkpt lat="43.44329" lon="3.47516">
        <ele>132</ele>
        <time>2014-09-03T17:52:34.000Z</time>
      </trkpt>
      <trkpt lat="43.44336" lon="3.47512">
        <ele>134</ele>
        <time>2014-09-03T17:52:36.000Z</time>
      </trkpt>
      <trkpt lat="43.44344" lon="3.47501">
        <ele>134</ele>
        <time>2014-09-03T17:52:38.000Z</time>
      </trkpt>
      <trkpt lat="43.44353" lon="3.47491">
        <ele>135</ele>
        <time>2014-09-03T17:52:40.000Z</time>
      </trkpt>
      <trkpt lat="43.44363" lon="3.47484">
        <ele>135</ele>
        <time>2014-09-03T17:52:42.000Z</time>
      </trkpt>
      <trkpt lat="43.44374" lon="3.47477">
        <ele>136</ele>
        <time>2014-09-03T17:52:44.000Z</time>
      </trkpt>
      <trkpt lat="43.44387" lon="3.47464">
        <ele>134</ele>
        <time>2014-09-03T17:52:46.000Z</time>
      </trkpt>
      <trkpt lat="43.44402" lon="3.47462">
        <ele>133</ele>
        <time>2014-09-03T17:52:50.000Z</time>
      </trkpt>
      <trkpt lat="43.44413" lon="3.47437">
        <ele>134</ele>
        <time>2014-09-03T17:52:53.000Z</time>
      </trkpt>
      <trkpt lat="43.44414" lon="3.47422">
        <ele>133</ele>
        <time>2014-09-03T17:52:55.000Z</time>
      </trkpt>
      <trkpt lat="43.44413" lon="3.47407">
        <ele>133</ele>
        <time>2014-09-03T17:52:57.000Z</time>
      </trkpt>
      <trkpt lat="43.44414" lon="3.47392">
        <ele>132</ele>
        <time>2014-09-03T17:52:59.000Z</time>
      </trkpt>
      <trkpt lat="43.44417" lon="3.47378">
        <ele>132</ele>
        <time>2014-09-03T17:53:01.000Z</time>
      </trkpt>
      <trkpt lat="43.44421" lon="3.47366">
        <ele>131</ele>
        <time>2014-09-03T17:53:03.000Z</time>
      </trkpt>
      <trkpt lat="43.44428" lon="3.47357">
        <ele>130</ele>
        <time>2014-09-03T17:53:05.000Z</time>
      </trkpt>
      <trkpt lat="43.44437" lon="3.47357">
        <ele>132</ele>
        <time>2014-09-03T17:53:07.000Z</time>
      </trkpt>
      <trkpt lat="43.44446" lon="3.47359">
        <ele>132</ele>
        <time>2014-09-03T17:53:09.000Z</time>
      </trkpt>
      <trkpt lat="43.44454" lon="3.47366">
        <ele>133</ele>
        <time>2014-09-03T17:53:11.000Z</time>
      </trkpt>
      <trkpt lat="43.44462" lon="3.47373">
        <ele>134</ele>
        <time>2014-09-03T17:53:13.000Z</time>
      </trkpt>
      <trkpt lat="43.44469" lon="3.47373">
        <ele>133</ele>
        <time>2014-09-03T17:53:15.000Z</time>
      </trkpt>
      <trkpt lat="43.44475" lon="3.47373">
        <ele>132</ele>
        <time>2014-09-03T17:53:17.000Z</time>
      </trkpt>
      <trkpt lat="43.44482" lon="3.47372">
        <ele>133</ele>
        <time>2014-09-03T17:53:19.000Z</time>
      </trkpt>
      <trkpt lat="43.44491" lon="3.47366">
        <ele>134</ele>
        <time>2014-09-03T17:53:21.000Z</time>
      </trkpt>
      <trkpt lat="43.445" lon="3.47363">
        <ele>133</ele>
        <time>2014-09-03T17:53:23.000Z</time>
      </trkpt>
      <trkpt lat="43.44506" lon="3.47358">
        <ele>133</ele>
        <time>2014-09-03T17:53:25.000Z</time>
      </trkpt>
      <trkpt lat="43.44511" lon="3.47351">
        <ele>133</ele>
        <time>2014-09-03T17:53:27.000Z</time>
      </trkpt>
      <trkpt lat="43.44513" lon="3.47341">
        <ele>132</ele>
        <time>2014-09-03T17:53:29.000Z</time>
      </trkpt>
      <trkpt lat="43.44517" lon="3.47334">
        <ele>133</ele>
        <time>2014-09-03T17:53:31.000Z</time>
      </trkpt>
      <trkpt lat="43.44523" lon="3.47328">
        <ele>131</ele>
        <time>2014-09-03T17:53:33.000Z</time>
      </trkpt>
      <trkpt lat="43.44529" lon="3.47321">
        <ele>130</ele>
        <time>2014-09-03T17:53:35.000Z</time>
      </trkpt>
      <trkpt lat="43.44534" lon="3.47309">
        <ele>134</ele>
        <time>2014-09-03T17:53:37.000Z</time>
      </trkpt>
      <trkpt lat="43.44535" lon="3.47297">
        <ele>135</ele>
        <time>2014-09-03T17:53:39.000Z</time>
      </trkpt>
      <trkpt lat="43.44534" lon="3.47285">
        <ele>134</ele>
        <time>2014-09-03T17:53:41.000Z</time>
      </trkpt>
      <trkpt lat="43.44535" lon="3.47273">
        <ele>132</ele>
        <time>2014-09-03T17:53:43.000Z</time>
      </trkpt>
      <trkpt lat="43.44535" lon="3.4726">
        <ele>134</ele>
        <time>2014-09-03T17:53:45.000Z</time>
      </trkpt>
      <trkpt lat="43.44534" lon="3.47247">
        <ele>135</ele>
        <time>2014-09-03T17:53:47.000Z</time>
      </trkpt>
      <trkpt lat="43.44532" lon="3.47235">
        <ele>135</ele>
        <time>2014-09-03T17:53:49.000Z</time>
      </trkpt>
      <trkpt lat="43.44532" lon="3.47224">
        <ele>132</ele>
        <time>2014-09-03T17:53:51.000Z</time>
      </trkpt>
      <trkpt lat="43.44532" lon="3.47224">
        <ele>132</ele>
        <time>2014-09-03T17:53:53.000Z</time>
      </trkpt>
      <trkpt lat="43.44537" lon="3.47211">
        <ele>137</ele>
        <time>2014-09-03T17:53:55.000Z</time>
      </trkpt>
      <trkpt lat="43.44537" lon="3.47184">
        <ele>137</ele>
        <time>2014-09-03T17:53:58.000Z</time>
      </trkpt>
      <trkpt lat="43.44537" lon="3.47168">
        <ele>139</ele>
        <time>2014-09-03T17:54:00.000Z</time>
      </trkpt>
      <trkpt lat="43.44532" lon="3.47157">
        <ele>136</ele>
        <time>2014-09-03T17:54:02.000Z</time>
      </trkpt>
      <trkpt lat="43.4453" lon="3.47146">
        <ele>137</ele>
        <time>2014-09-03T17:54:04.000Z</time>
      </trkpt>
      <trkpt lat="43.4453" lon="3.47133">
        <ele>138</ele>
        <time>2014-09-03T17:54:06.000Z</time>
      </trkpt>
      <trkpt lat="43.44529" lon="3.47124">
        <ele>136</ele>
        <time>2014-09-03T17:54:08.000Z</time>
      </trkpt>
      <trkpt lat="43.44527" lon="3.47116">
        <ele>136</ele>
        <time>2014-09-03T17:54:10.000Z</time>
      </trkpt>
      <trkpt lat="43.44527" lon="3.47116">
        <ele>136</ele>
        <time>2014-09-03T17:54:12.000Z</time>
      </trkpt>
      <trkpt lat="43.44523" lon="3.47101">
        <ele>136</ele>
        <time>2014-09-03T17:54:14.000Z</time>
      </trkpt>
      <trkpt lat="43.44518" lon="3.47093">
        <ele>134</ele>
        <time>2014-09-03T17:54:16.000Z</time>
      </trkpt>
      <trkpt lat="43.44514" lon="3.47086">
        <ele>135</ele>
        <time>2014-09-03T17:54:18.000Z</time>
      </trkpt>
      <trkpt lat="43.44514" lon="3.47086">
        <ele>135</ele>
        <time>2014-09-03T17:54:20.000Z</time>
      </trkpt>
      <trkpt lat="43.44515" lon="3.47076">
        <ele>132</ele>
        <time>2014-09-03T17:54:22.000Z</time>
      </trkpt>
      <trkpt lat="43.44515" lon="3.47076">
        <ele>132</ele>
        <time>2014-09-03T17:54:24.000Z</time>
      </trkpt>
      <trkpt lat="43.44519" lon="3.47065">
        <ele>131</ele>
        <time>2014-09-03T17:54:26.000Z</time>
      </trkpt>
      <trkpt lat="43.44519" lon="3.47065">
        <ele>131</ele>
        <time>2014-09-03T17:54:28.000Z</time>
      </trkpt>
      <trkpt lat="43.44522" lon="3.47053">
        <ele>130</ele>
        <time>2014-09-03T17:54:30.000Z</time>
      </trkpt>
      <trkpt lat="43.44523" lon="3.47044">
        <ele>130</ele>
        <time>2014-09-03T17:54:32.000Z</time>
      </trkpt>
      <trkpt lat="43.44522" lon="3.47033">
        <ele>133</ele>
        <time>2014-09-03T17:54:34.000Z</time>
      </trkpt>
      <trkpt lat="43.44519" lon="3.47021">
        <ele>133</ele>
        <time>2014-09-03T17:54:36.000Z</time>
      </trkpt>
      <trkpt lat="43.44517" lon="3.47009">
        <ele>132</ele>
        <time>2014-09-03T17:54:38.000Z</time>
      </trkpt>
      <trkpt lat="43.44514" lon="3.46999">
        <ele>133</ele>
        <time>2014-09-03T17:54:40.000Z</time>
      </trkpt>
      <trkpt lat="43.44512" lon="3.46988">
        <ele>134</ele>
        <time>2014-09-03T17:54:42.000Z</time>
      </trkpt>
      <trkpt lat="43.4451" lon="3.46977">
        <ele>133</ele>
        <time>2014-09-03T17:54:44.000Z</time>
      </trkpt>
      <trkpt lat="43.44507" lon="3.46966">
        <ele>133</ele>
        <time>2014-09-03T17:54:46.000Z</time>
      </trkpt>
      <trkpt lat="43.44506" lon="3.46955">
        <ele>133</ele>
        <time>2014-09-03T17:54:48.000Z</time>
      </trkpt>
      <trkpt lat="43.44503" lon="3.46942">
        <ele>132</ele>
        <time>2014-09-03T17:54:50.000Z</time>
      </trkpt>
      <trkpt lat="43.44498" lon="3.46925">
        <ele>131</ele>
        <time>2014-09-03T17:54:52.000Z</time>
      </trkpt>
      <trkpt lat="43.44496" lon="3.4691">
        <ele>128</ele>
        <time>2014-09-03T17:54:54.000Z</time>
      </trkpt>
      <trkpt lat="43.44497" lon="3.469">
        <ele>130</ele>
        <time>2014-09-03T17:54:56.000Z</time>
      </trkpt>
      <trkpt lat="43.44496" lon="3.46891">
        <ele>129</ele>
        <time>2014-09-03T17:54:58.000Z</time>
      </trkpt>
      <trkpt lat="43.44496" lon="3.46891">
        <ele>129</ele>
        <time>2014-09-03T17:55:00.000Z</time>
      </trkpt>
      <trkpt lat="43.4449" lon="3.46878">
        <ele>130</ele>
        <time>2014-09-03T17:55:02.000Z</time>
      </trkpt>
      <trkpt lat="43.4449" lon="3.46878">
        <ele>130</ele>
        <time>2014-09-03T17:55:04.000Z</time>
      </trkpt>
      <trkpt lat="43.44485" lon="3.46866">
        <ele>133</ele>
        <time>2014-09-03T17:55:06.000Z</time>
      </trkpt>
      <trkpt lat="43.4448" lon="3.46861">
        <ele>136</ele>
        <time>2014-09-03T17:55:08.000Z</time>
      </trkpt>
      <trkpt lat="43.44472" lon="3.46854">
        <ele>136</ele>
        <time>2014-09-03T17:55:10.000Z</time>
      </trkpt>
      <trkpt lat="43.44466" lon="3.4684">
        <ele>135</ele>
        <time>2014-09-03T17:55:12.000Z</time>
      </trkpt>
      <trkpt lat="43.44457" lon="3.46827">
        <ele>130</ele>
        <time>2014-09-03T17:55:14.000Z</time>
      </trkpt>
      <trkpt lat="43.44448" lon="3.46815">
        <ele>130</ele>
        <time>2014-09-03T17:55:16.000Z</time>
      </trkpt>
      <trkpt lat="43.44447" lon="3.46799">
        <ele>129</ele>
        <time>2014-09-03T17:55:18.000Z</time>
      </trkpt>
      <trkpt lat="43.44444" lon="3.46785">
        <ele>129</ele>
        <time>2014-09-03T17:55:20.000Z</time>
      </trkpt>
      <trkpt lat="43.44437" lon="3.46771">
        <ele>126</ele>
        <time>2014-09-03T17:55:22.000Z</time>
      </trkpt>
      <trkpt lat="43.44434" lon="3.4676">
        <ele>126</ele>
        <time>2014-09-03T17:55:24.000Z</time>
      </trkpt>
      <trkpt lat="43.44434" lon="3.46747">
        <ele>126</ele>
        <time>2014-09-03T17:55:26.000Z</time>
      </trkpt>
      <trkpt lat="43.44432" lon="3.46739">
        <ele>128</ele>
        <time>2014-09-03T17:55:28.000Z</time>
      </trkpt>
      <trkpt lat="43.44433" lon="3.4673">
        <ele>128</ele>
        <time>2014-09-03T17:55:30.000Z</time>
      </trkpt>
      <trkpt lat="43.44434" lon="3.46718">
        <ele>129</ele>
        <time>2014-09-03T17:55:32.000Z</time>
      </trkpt>
      <trkpt lat="43.44435" lon="3.46703">
        <ele>129</ele>
        <time>2014-09-03T17:55:34.000Z</time>
      </trkpt>
      <trkpt lat="43.4444" lon="3.46687">
        <ele>130</ele>
        <time>2014-09-03T17:55:36.000Z</time>
      </trkpt>
      <trkpt lat="43.44441" lon="3.46669">
        <ele>128</ele>
        <time>2014-09-03T17:55:38.000Z</time>
      </trkpt>
      <trkpt lat="43.44444" lon="3.46653">
        <ele>130</ele>
        <time>2014-09-03T17:55:40.000Z</time>
      </trkpt>
      <trkpt lat="43.44449" lon="3.4664">
        <ele>131</ele>
        <time>2014-09-03T17:55:42.000Z</time>
      </trkpt>
      <trkpt lat="43.44453" lon="3.46629">
        <ele>130</ele>
        <time>2014-09-03T17:55:44.000Z</time>
      </trkpt>
      <trkpt lat="43.44457" lon="3.46624">
        <ele>130</ele>
        <time>2014-09-03T17:55:46.000Z</time>
      </trkpt>
      <trkpt lat="43.44457" lon="3.46624">
        <ele>130</ele>
        <time>2014-09-03T17:55:48.000Z</time>
      </trkpt>
      <trkpt lat="43.44466" lon="3.46608">
        <ele>129</ele>
        <time>2014-09-03T17:55:50.000Z</time>
      </trkpt>
      <trkpt lat="43.44466" lon="3.46608">
        <ele>129</ele>
        <time>2014-09-03T17:55:52.000Z</time>
      </trkpt>
      <trkpt lat="43.4447" lon="3.46595">
        <ele>129</ele>
        <time>2014-09-03T17:55:54.000Z</time>
      </trkpt>
      <trkpt lat="43.44471" lon="3.46588">
        <ele>130</ele>
        <time>2014-09-03T17:55:56.000Z</time>
      </trkpt>
      <trkpt lat="43.44471" lon="3.46588">
        <ele>130</ele>
        <time>2014-09-03T17:55:58.000Z</time>
      </trkpt>
      <trkpt lat="43.44479" lon="3.46578">
        <ele>132</ele>
        <time>2014-09-03T17:56:00.000Z</time>
      </trkpt>
      <trkpt lat="43.44479" lon="3.46578">
        <ele>132</ele>
        <time>2014-09-03T17:56:02.000Z</time>
      </trkpt>
      <trkpt lat="43.44488" lon="3.46569">
        <ele>132</ele>
        <time>2014-09-03T17:56:04.000Z</time>
      </trkpt>
      <trkpt lat="43.44488" lon="3.46569">
        <ele>132</ele>
        <time>2014-09-03T17:56:06.000Z</time>
      </trkpt>
      <trkpt lat="43.44492" lon="3.46552">
        <ele>128</ele>
        <time>2014-09-03T17:56:08.000Z</time>
      </trkpt>
      <trkpt lat="43.44492" lon="3.46541">
        <ele>128</ele>
        <time>2014-09-03T17:56:10.000Z</time>
      </trkpt>
      <trkpt lat="43.44489" lon="3.46529">
        <ele>129</ele>
        <time>2014-09-03T17:56:12.000Z</time>
      </trkpt>
      <trkpt lat="43.44485" lon="3.46518">
        <ele>128</ele>
        <time>2014-09-03T17:56:14.000Z</time>
      </trkpt>
      <trkpt lat="43.44482" lon="3.46506">
        <ele>129</ele>
        <time>2014-09-03T17:56:16.000Z</time>
      </trkpt>
      <trkpt lat="43.44478" lon="3.46495">
        <ele>130</ele>
        <time>2014-09-03T17:56:18.000Z</time>
      </trkpt>
      <trkpt lat="43.44472" lon="3.46486">
        <ele>131</ele>
        <time>2014-09-03T17:56:20.000Z</time>
      </trkpt>
      <trkpt lat="43.44463" lon="3.46481">
        <ele>127</ele>
        <time>2014-09-03T17:56:22.000Z</time>
      </trkpt>
      <trkpt lat="43.44454" lon="3.46477">
        <ele>128</ele>
        <time>2014-09-03T17:56:24.000Z</time>
      </trkpt>
      <trkpt lat="43.44437" lon="3.4646">
        <ele>127</ele>
        <time>2014-09-03T17:56:27.000Z</time>
      </trkpt>
      <trkpt lat="43.44432" lon="3.46443">
        <ele>127</ele>
        <time>2014-09-03T17:56:30.000Z</time>
      </trkpt>
      <trkpt lat="43.44427" lon="3.46429">
        <ele>124</ele>
        <time>2014-09-03T17:56:32.000Z</time>
      </trkpt>
      <trkpt lat="43.4443" lon="3.46415">
        <ele>125</ele>
        <time>2014-09-03T17:56:34.000Z</time>
      </trkpt>
      <trkpt lat="43.44431" lon="3.46404">
        <ele>125</ele>
        <time>2014-09-03T17:56:36.000Z</time>
      </trkpt>
      <trkpt lat="43.44431" lon="3.46393">
        <ele>123</ele>
        <time>2014-09-03T17:56:38.000Z</time>
      </trkpt>
      <trkpt lat="43.4443" lon="3.46384">
        <ele>123</ele>
        <time>2014-09-03T17:56:40.000Z</time>
      </trkpt>
      <trkpt lat="43.44432" lon="3.46373">
        <ele>124</ele>
        <time>2014-09-03T17:56:42.000Z</time>
      </trkpt>
      <trkpt lat="43.44431" lon="3.46365">
        <ele>127</ele>
        <time>2014-09-03T17:56:44.000Z</time>
      </trkpt>
      <trkpt lat="43.44432" lon="3.46354">
        <ele>127</ele>
        <time>2014-09-03T17:56:46.000Z</time>
      </trkpt>
      <trkpt lat="43.44431" lon="3.4634">
        <ele>128</ele>
        <time>2014-09-03T17:56:48.000Z</time>
      </trkpt>
      <trkpt lat="43.44428" lon="3.46328">
        <ele>128</ele>
        <time>2014-09-03T17:56:50.000Z</time>
      </trkpt>
      <trkpt lat="43.44412" lon="3.46306">
        <ele>129</ele>
        <time>2014-09-03T17:56:53.000Z</time>
      </trkpt>
      <trkpt lat="43.44407" lon="3.46293">
        <ele>128</ele>
        <time>2014-09-03T17:56:55.000Z</time>
      </trkpt>
      <trkpt lat="43.44397" lon="3.46281">
        <ele>128</ele>
        <time>2014-09-03T17:56:57.000Z</time>
      </trkpt>
      <trkpt lat="43.44391" lon="3.4627">
        <ele>129</ele>
        <time>2014-09-03T17:56:59.000Z</time>
      </trkpt>
      <trkpt lat="43.44381" lon="3.46263">
        <ele>127</ele>
        <time>2014-09-03T17:57:01.000Z</time>
      </trkpt>
      <trkpt lat="43.44379" lon="3.46254">
        <ele>127</ele>
        <time>2014-09-03T17:57:03.000Z</time>
      </trkpt>
      <trkpt lat="43.44376" lon="3.46247">
        <ele>128</ele>
        <time>2014-09-03T17:57:05.000Z</time>
      </trkpt>
      <trkpt lat="43.44376" lon="3.46233">
        <ele>127</ele>
        <time>2014-09-03T17:57:07.000Z</time>
      </trkpt>
      <trkpt lat="43.44376" lon="3.46223">
        <ele>130</ele>
        <time>2014-09-03T17:57:09.000Z</time>
      </trkpt>
      <trkpt lat="43.44376" lon="3.46223">
        <ele>130</ele>
        <time>2014-09-03T17:57:11.000Z</time>
      </trkpt>
      <trkpt lat="43.44376" lon="3.46212">
        <ele>130</ele>
        <time>2014-09-03T17:57:13.000Z</time>
      </trkpt>
      <trkpt lat="43.44376" lon="3.46212">
        <ele>130</ele>
        <time>2014-09-03T17:57:15.000Z</time>
      </trkpt>
      <trkpt lat="43.44378" lon="3.462">
        <ele>134</ele>
        <time>2014-09-03T17:57:17.000Z</time>
      </trkpt>
      <trkpt lat="43.44378" lon="3.462">
        <ele>134</ele>
        <time>2014-09-03T17:57:19.000Z</time>
      </trkpt>
      <trkpt lat="43.44377" lon="3.46193">
        <ele>133</ele>
        <time>2014-09-03T17:57:21.000Z</time>
      </trkpt>
      <trkpt lat="43.44375" lon="3.46185">
        <ele>129</ele>
        <time>2014-09-03T17:57:23.000Z</time>
      </trkpt>
      <trkpt lat="43.44373" lon="3.46175">
        <ele>128</ele>
        <time>2014-09-03T17:57:25.000Z</time>
      </trkpt>
      <trkpt lat="43.44371" lon="3.46165">
        <ele>128</ele>
        <time>2014-09-03T17:57:27.000Z</time>
      </trkpt>
      <trkpt lat="43.44368" lon="3.46154">
        <ele>128</ele>
        <time>2014-09-03T17:57:29.000Z</time>
      </trkpt>
      <trkpt lat="43.44365" lon="3.46137">
        <ele>127</ele>
        <time>2014-09-03T17:57:31.000Z</time>
      </trkpt>
      <trkpt lat="43.44365" lon="3.46137">
        <ele>127</ele>
        <time>2014-09-03T17:57:33.000Z</time>
      </trkpt>
      <trkpt lat="43.44363" lon="3.46127">
        <ele>126</ele>
        <time>2014-09-03T17:57:35.000Z</time>
      </trkpt>
      <trkpt lat="43.44363" lon="3.46127">
        <ele>126</ele>
        <time>2014-09-03T17:57:37.000Z</time>
      </trkpt>
      <trkpt lat="43.44363" lon="3.46119">
        <ele>126</ele>
        <time>2014-09-03T17:57:39.000Z</time>
      </trkpt>
      <trkpt lat="43.44363" lon="3.46119">
        <ele>126</ele>
        <time>2014-09-03T17:57:41.000Z</time>
      </trkpt>
      <trkpt lat="43.44367" lon="3.46114">
        <ele>130</ele>
        <time>2014-09-03T17:57:43.000Z</time>
      </trkpt>
      <trkpt lat="43.44367" lon="3.46114">
        <ele>130</ele>
        <time>2014-09-03T17:57:45.000Z</time>
      </trkpt>
      <trkpt lat="43.4437" lon="3.46103">
        <ele>130</ele>
        <time>2014-09-03T17:57:47.000Z</time>
      </trkpt>
      <trkpt lat="43.44379" lon="3.46095">
        <ele>128</ele>
        <time>2014-09-03T17:57:51.000Z</time>
      </trkpt>
      <trkpt lat="43.4439" lon="3.4609">
        <ele>131</ele>
        <time>2014-09-03T17:57:55.000Z</time>
      </trkpt>
      <trkpt lat="43.44397" lon="3.46087">
        <ele>134</ele>
        <time>2014-09-03T17:57:57.000Z</time>
      </trkpt>
      <trkpt lat="43.44403" lon="3.4608">
        <ele>133</ele>
        <time>2014-09-03T17:57:59.000Z</time>
      </trkpt>
      <trkpt lat="43.44408" lon="3.46075">
        <ele>129</ele>
        <time>2014-09-03T17:58:01.000Z</time>
      </trkpt>
      <trkpt lat="43.44411" lon="3.46068">
        <ele>127</ele>
        <time>2014-09-03T17:58:03.000Z</time>
      </trkpt>
      <trkpt lat="43.44411" lon="3.46068">
        <ele>127</ele>
        <time>2014-09-03T17:58:05.000Z</time>
      </trkpt>
      <trkpt lat="43.44412" lon="3.46053">
        <ele>125</ele>
        <time>2014-09-03T17:58:07.000Z</time>
      </trkpt>
      <trkpt lat="43.44412" lon="3.46053">
        <ele>125</ele>
        <time>2014-09-03T17:58:09.000Z</time>
      </trkpt>
      <trkpt lat="43.44413" lon="3.46039">
        <ele>126</ele>
        <time>2014-09-03T17:58:11.000Z</time>
      </trkpt>
      <trkpt lat="43.44413" lon="3.46039">
        <ele>126</ele>
        <time>2014-09-03T17:58:13.000Z</time>
      </trkpt>
      <trkpt lat="43.44418" lon="3.46028">
        <ele>124</ele>
        <time>2014-09-03T17:58:15.000Z</time>
      </trkpt>
      <trkpt lat="43.44418" lon="3.46028">
        <ele>124</ele>
        <time>2014-09-03T17:58:17.000Z</time>
      </trkpt>
      <trkpt lat="43.44423" lon="3.46019">
        <ele>127</ele>
        <time>2014-09-03T17:58:19.000Z</time>
      </trkpt>
      <trkpt lat="43.44423" lon="3.46019">
        <ele>127</ele>
        <time>2014-09-03T17:58:21.000Z</time>
      </trkpt>
      <trkpt lat="43.44429" lon="3.46007">
        <ele>124</ele>
        <time>2014-09-03T17:58:23.000Z</time>
      </trkpt>
      <trkpt lat="43.44433" lon="3.45997">
        <ele>125</ele>
        <time>2014-09-03T17:58:27.000Z</time>
      </trkpt>
      <trkpt lat="43.44433" lon="3.45997">
        <ele>125</ele>
        <time>2014-09-03T17:58:29.000Z</time>
      </trkpt>
      <trkpt lat="43.44434" lon="3.45983">
        <ele>125</ele>
        <time>2014-09-03T17:58:31.000Z</time>
      </trkpt>
      <trkpt lat="43.44434" lon="3.45971">
        <ele>126</ele>
        <time>2014-09-03T17:58:35.000Z</time>
      </trkpt>
      <trkpt lat="43.44432" lon="3.45958">
        <ele>125</ele>
        <time>2014-09-03T17:58:39.000Z</time>
      </trkpt>
      <trkpt lat="43.44432" lon="3.45949">
        <ele>126</ele>
        <time>2014-09-03T17:58:41.000Z</time>
      </trkpt>
      <trkpt lat="43.44429" lon="3.45938">
        <ele>121</ele>
        <time>2014-09-03T17:58:43.000Z</time>
      </trkpt>
      <trkpt lat="43.44425" lon="3.4593">
        <ele>123</ele>
        <time>2014-09-03T17:58:45.000Z</time>
      </trkpt>
      <trkpt lat="43.44422" lon="3.45923">
        <ele>122</ele>
        <time>2014-09-03T17:58:47.000Z</time>
      </trkpt>
      <trkpt lat="43.44422" lon="3.45923">
        <ele>122</ele>
        <time>2014-09-03T17:58:49.000Z</time>
      </trkpt>
      <trkpt lat="43.44419" lon="3.45909">
        <ele>125</ele>
        <time>2014-09-03T17:58:51.000Z</time>
      </trkpt>
      <trkpt lat="43.44418" lon="3.45899">
        <ele>125</ele>
        <time>2014-09-03T17:58:53.000Z</time>
      </trkpt>
      <trkpt lat="43.44412" lon="3.45892">
        <ele>121</ele>
        <time>2014-09-03T17:58:55.000Z</time>
      </trkpt>
      <trkpt lat="43.44408" lon="3.45885">
        <ele>121</ele>
        <time>2014-09-03T17:58:57.000Z</time>
      </trkpt>
      <trkpt lat="43.44406" lon="3.45876">
        <ele>129</ele>
        <time>2014-09-03T17:58:59.000Z</time>
      </trkpt>
      <trkpt lat="43.44405" lon="3.45867">
        <ele>129</ele>
        <time>2014-09-03T17:59:01.000Z</time>
      </trkpt>
      <trkpt lat="43.44404" lon="3.45858">
        <ele>130</ele>
        <time>2014-09-03T17:59:03.000Z</time>
      </trkpt>
      <trkpt lat="43.44402" lon="3.45849">
        <ele>130</ele>
        <time>2014-09-03T17:59:05.000Z</time>
      </trkpt>
      <trkpt lat="43.44398" lon="3.45841">
        <ele>127</ele>
        <time>2014-09-03T17:59:07.000Z</time>
      </trkpt>
      <trkpt lat="43.44395" lon="3.45832">
        <ele>128</ele>
        <time>2014-09-03T17:59:09.000Z</time>
      </trkpt>
      <trkpt lat="43.44393" lon="3.45823">
        <ele>128</ele>
        <time>2014-09-03T17:59:11.000Z</time>
      </trkpt>
      <trkpt lat="43.44393" lon="3.45823">
        <ele>128</ele>
        <time>2014-09-03T17:59:13.000Z</time>
      </trkpt>
      <trkpt lat="43.44393" lon="3.45823">
        <ele>128</ele>
        <time>2014-09-03T17:59:15.000Z</time>
      </trkpt>
      <trkpt lat="43.44392" lon="3.45813">
        <ele>125</ele>
        <time>2014-09-03T17:59:17.000Z</time>
      </trkpt>
      <trkpt lat="43.4439" lon="3.45796">
        <ele>123</ele>
        <time>2014-09-03T17:59:21.000Z</time>
      </trkpt>
      <trkpt lat="43.44387" lon="3.45788">
        <ele>122</ele>
        <time>2014-09-03T17:59:23.000Z</time>
      </trkpt>
      <trkpt lat="43.44385" lon="3.45781">
        <ele>122</ele>
        <time>2014-09-03T17:59:25.000Z</time>
      </trkpt>
      <trkpt lat="43.44385" lon="3.45781">
        <ele>122</ele>
        <time>2014-09-03T17:59:27.000Z</time>
      </trkpt>
      <trkpt lat="43.44382" lon="3.45772">
        <ele>122</ele>
        <time>2014-09-03T17:59:29.000Z</time>
      </trkpt>
      <trkpt lat="43.44382" lon="3.45772">
        <ele>122</ele>
        <time>2014-09-03T17:59:31.000Z</time>
      </trkpt>
      <trkpt lat="43.44378" lon="3.4576">
        <ele>116</ele>
        <time>2014-09-03T17:59:33.000Z</time>
      </trkpt>
      <trkpt lat="43.44374" lon="3.45746">
        <ele>117</ele>
        <time>2014-09-03T17:59:37.000Z</time>
      </trkpt>
      <trkpt lat="43.44371" lon="3.45739">
        <ele>111</ele>
        <time>2014-09-03T17:59:39.000Z</time>
      </trkpt>
      <trkpt lat="43.44367" lon="3.45731">
        <ele>112</ele>
        <time>2014-09-03T17:59:41.000Z</time>
      </trkpt>
      <trkpt lat="43.44362" lon="3.45721">
        <ele>114</ele>
        <time>2014-09-03T17:59:43.000Z</time>
      </trkpt>
      <trkpt lat="43.44359" lon="3.45711">
        <ele>114</ele>
        <time>2014-09-03T17:59:45.000Z</time>
      </trkpt>
      <trkpt lat="43.44353" lon="3.45703">
        <ele>112</ele>
        <time>2014-09-03T17:59:47.000Z</time>
      </trkpt>
      <trkpt lat="43.44353" lon="3.45703">
        <ele>112</ele>
        <time>2014-09-03T17:59:49.000Z</time>
      </trkpt>
      <trkpt lat="43.44346" lon="3.45693">
        <ele>115</ele>
        <time>2014-09-03T17:59:51.000Z</time>
      </trkpt>
      <trkpt lat="43.44346" lon="3.45693">
        <ele>115</ele>
        <time>2014-09-03T17:59:53.000Z</time>
      </trkpt>
      <trkpt lat="43.44338" lon="3.45688">
        <ele>118</ele>
        <time>2014-09-03T17:59:55.000Z</time>
      </trkpt>
      <trkpt lat="43.44338" lon="3.45688">
        <ele>118</ele>
        <time>2014-09-03T17:59:57.000Z</time>
      </trkpt>
      <trkpt lat="43.44338" lon="3.45688">
        <ele>118</ele>
        <time>2014-09-03T17:59:59.000Z</time>
      </trkpt>
      <trkpt lat="43.44338" lon="3.45688">
        <ele>118</ele>
        <time>2014-09-03T18:00:01.000Z</time>
      </trkpt>
      <trkpt lat="43.44328" lon="3.45682">
        <ele>112</ele>
        <time>2014-09-03T18:00:07.000Z</time>
      </trkpt>
      <trkpt lat="43.44324" lon="3.45678">
        <ele>112</ele>
        <time>2014-09-03T18:00:11.000Z</time>
      </trkpt>
      <trkpt lat="43.44321" lon="3.45673">
        <ele>110</ele>
        <time>2014-09-03T18:00:13.000Z</time>
      </trkpt>
      <trkpt lat="43.44316" lon="3.45667">
        <ele>110</ele>
        <time>2014-09-03T18:00:15.000Z</time>
      </trkpt>
      <trkpt lat="43.44313" lon="3.45662">
        <ele>114</ele>
        <time>2014-09-03T18:00:17.000Z</time>
      </trkpt>
      <trkpt lat="43.44311" lon="3.45657">
        <ele>114</ele>
        <time>2014-09-03T18:00:19.000Z</time>
      </trkpt>
      <trkpt lat="43.44305" lon="3.45646">
        <ele>116</ele>
        <time>2014-09-03T18:00:21.000Z</time>
      </trkpt>
      <trkpt lat="43.44305" lon="3.45646">
        <ele>116</ele>
        <time>2014-09-03T18:00:23.000Z</time>
      </trkpt>
      <trkpt lat="43.44297" lon="3.45635">
        <ele>106</ele>
        <time>2014-09-03T18:00:25.000Z</time>
      </trkpt>
      <trkpt lat="43.44297" lon="3.45635">
        <ele>106</ele>
        <time>2014-09-03T18:00:27.000Z</time>
      </trkpt>
      <trkpt lat="43.44291" lon="3.45624">
        <ele>109</ele>
        <time>2014-09-03T18:00:29.000Z</time>
      </trkpt>
      <trkpt lat="43.44285" lon="3.45615">
        <ele>109</ele>
        <time>2014-09-03T18:00:31.000Z</time>
      </trkpt>
      <trkpt lat="43.4428" lon="3.45609">
        <ele>108</ele>
        <time>2014-09-03T18:00:33.000Z</time>
      </trkpt>
      <trkpt lat="43.44274" lon="3.45599">
        <ele>112</ele>
        <time>2014-09-03T18:00:37.000Z</time>
      </trkpt>
      <trkpt lat="43.44274" lon="3.45599">
        <ele>112</ele>
        <time>2014-09-03T18:00:39.000Z</time>
      </trkpt>
      <trkpt lat="43.44267" lon="3.45591">
        <ele>111</ele>
        <time>2014-09-03T18:00:41.000Z</time>
      </trkpt>
      <trkpt lat="43.44267" lon="3.45591">
        <ele>111</ele>
        <time>2014-09-03T18:00:43.000Z</time>
      </trkpt>
      <trkpt lat="43.44258" lon="3.45585">
        <ele>109</ele>
        <time>2014-09-03T18:00:45.000Z</time>
      </trkpt>
      <trkpt lat="43.44258" lon="3.45585">
        <ele>109</ele>
        <time>2014-09-03T18:00:47.000Z</time>
      </trkpt>
      <trkpt lat="43.44249" lon="3.45578">
        <ele>112</ele>
        <time>2014-09-03T18:00:49.000Z</time>
      </trkpt>
      <trkpt lat="43.44244" lon="3.4557">
        <ele>112</ele>
        <time>2014-09-03T18:00:51.000Z</time>
      </trkpt>
      <trkpt lat="43.44237" lon="3.45562">
        <ele>109</ele>
        <time>2014-09-03T18:00:53.000Z</time>
      </trkpt>
      <trkpt lat="43.44228" lon="3.45556">
        <ele>108</ele>
        <time>2014-09-03T18:00:55.000Z</time>
      </trkpt>
      <trkpt lat="43.44218" lon="3.45553">
        <ele>106</ele>
        <time>2014-09-03T18:00:57.000Z</time>
      </trkpt>
      <trkpt lat="43.44208" lon="3.45551">
        <ele>103</ele>
        <time>2014-09-03T18:00:59.000Z</time>
      </trkpt>
      <trkpt lat="43.44201" lon="3.45549">
        <ele>108</ele>
        <time>2014-09-03T18:01:01.000Z</time>
      </trkpt>
      <trkpt lat="43.44201" lon="3.45549">
        <ele>108</ele>
        <time>2014-09-03T18:01:03.000Z</time>
      </trkpt>
      <trkpt lat="43.44194" lon="3.45548">
        <ele>108</ele>
        <time>2014-09-03T18:01:05.000Z</time>
      </trkpt>
      <trkpt lat="43.44194" lon="3.45548">
        <ele>108</ele>
        <time>2014-09-03T18:01:07.000Z</time>
      </trkpt>
      <trkpt lat="43.44186" lon="3.45545">
        <ele>107</ele>
        <time>2014-09-03T18:01:09.000Z</time>
      </trkpt>
      <trkpt lat="43.44186" lon="3.45545">
        <ele>107</ele>
        <time>2014-09-03T18:01:11.000Z</time>
      </trkpt>
      <trkpt lat="43.44186" lon="3.45545">
        <ele>107</ele>
        <time>2014-09-03T18:01:13.000Z</time>
      </trkpt>
      <trkpt lat="43.44186" lon="3.45545">
        <ele>107</ele>
        <time>2014-09-03T18:01:15.000Z</time>
      </trkpt>
      <trkpt lat="43.44186" lon="3.45545">
        <ele>107</ele>
        <time>2014-09-03T18:01:17.000Z</time>
      </trkpt>
      <trkpt lat="43.44165" lon="3.45547">
        <ele>105</ele>
        <time>2014-09-03T18:01:29.000Z</time>
      </trkpt>
      <trkpt lat="43.44157" lon="3.45547">
        <ele>104</ele>
        <time>2014-09-03T18:01:31.000Z</time>
      </trkpt>
      <trkpt lat="43.44151" lon="3.45546">
        <ele>107</ele>
        <time>2014-09-03T18:01:33.000Z</time>
      </trkpt>
      <trkpt lat="43.44151" lon="3.45546">
        <ele>107</ele>
        <time>2014-09-03T18:01:35.000Z</time>
      </trkpt>
      <trkpt lat="43.44139" lon="3.45544">
        <ele>106</ele>
        <time>2014-09-03T18:01:37.000Z</time>
      </trkpt>
      <trkpt lat="43.44133" lon="3.45545">
        <ele>105</ele>
        <time>2014-09-03T18:01:39.000Z</time>
      </trkpt>
      <trkpt lat="43.44133" lon="3.45545">
        <ele>105</ele>
        <time>2014-09-03T18:01:41.000Z</time>
      </trkpt>
      <trkpt lat="43.44133" lon="3.45545">
        <ele>105</ele>
        <time>2014-09-03T18:01:43.000Z</time>
      </trkpt>
      <trkpt lat="43.44133" lon="3.45545">
        <ele>105</ele>
        <time>2014-09-03T18:01:45.000Z</time>
      </trkpt>
      <trkpt lat="43.44133" lon="3.45545">
        <ele>105</ele>
        <time>2014-09-03T18:01:47.000Z</time>
      </trkpt>
      <trkpt lat="43.44133" lon="3.45545">
        <ele>105</ele>
        <time>2014-09-03T18:01:49.000Z</time>
      </trkpt>
      <trkpt lat="43.44133" lon="3.45545">
        <ele>105</ele>
        <time>2014-09-03T18:01:51.000Z</time>
      </trkpt>
      <trkpt lat="43.44138" lon="3.4554">
        <ele>102</ele>
        <time>2014-09-03T18:02:19.000Z</time>
      </trkpt>
      <trkpt lat="43.44143" lon="3.45533">
        <ele>104</ele>
        <time>2014-09-03T18:02:21.000Z</time>
      </trkpt>
      <trkpt lat="43.44148" lon="3.45526">
        <ele>103</ele>
        <time>2014-09-03T18:02:23.000Z</time>
      </trkpt>
      <trkpt lat="43.44153" lon="3.45518">
        <ele>102</ele>
        <time>2014-09-03T18:02:25.000Z</time>
      </trkpt>
      <trkpt lat="43.44157" lon="3.45508">
        <ele>102</ele>
        <time>2014-09-03T18:02:27.000Z</time>
      </trkpt>
      <trkpt lat="43.4416" lon="3.45488">
        <ele>101</ele>
        <time>2014-09-03T18:02:29.000Z</time>
      </trkpt>
      <trkpt lat="43.44159" lon="3.45478">
        <ele>99</ele>
        <time>2014-09-03T18:02:31.000Z</time>
      </trkpt>
      <trkpt lat="43.44159" lon="3.45478">
        <ele>99</ele>
        <time>2014-09-03T18:02:33.000Z</time>
      </trkpt>
      <trkpt lat="43.44168" lon="3.45475">
        <ele>99</ele>
        <time>2014-09-03T18:02:35.000Z</time>
      </trkpt>
      <trkpt lat="43.44168" lon="3.45475">
        <ele>99</ele>
        <time>2014-09-03T18:02:37.000Z</time>
      </trkpt>
      <trkpt lat="43.44175" lon="3.4547">
        <ele>99</ele>
        <time>2014-09-03T18:02:39.000Z</time>
      </trkpt>
      <trkpt lat="43.44176" lon="3.45462">
        <ele>98</ele>
        <time>2014-09-03T18:02:41.000Z</time>
      </trkpt>
      <trkpt lat="43.44178" lon="3.45449">
        <ele>94</ele>
        <time>2014-09-03T18:02:43.000Z</time>
      </trkpt>
      <trkpt lat="43.44178" lon="3.45438">
        <ele>94</ele>
        <time>2014-09-03T18:02:45.000Z</time>
      </trkpt>
      <trkpt lat="43.44178" lon="3.45428">
        <ele>94</ele>
        <time>2014-09-03T18:02:47.000Z</time>
      </trkpt>
      <trkpt lat="43.44181" lon="3.45419">
        <ele>94</ele>
        <time>2014-09-03T18:02:49.000Z</time>
      </trkpt>
      <trkpt lat="43.44182" lon="3.4541">
        <ele>93</ele>
        <time>2014-09-03T18:02:51.000Z</time>
      </trkpt>
      <trkpt lat="43.44183" lon="3.45402">
        <ele>95</ele>
        <time>2014-09-03T18:02:53.000Z</time>
      </trkpt>
      <trkpt lat="43.44183" lon="3.45402">
        <ele>95</ele>
        <time>2014-09-03T18:02:55.000Z</time>
      </trkpt>
      <trkpt lat="43.44188" lon="3.4539">
        <ele>94</ele>
        <time>2014-09-03T18:02:57.000Z</time>
      </trkpt>
      <trkpt lat="43.44188" lon="3.4539">
        <ele>94</ele>
        <time>2014-09-03T18:02:59.000Z</time>
      </trkpt>
      <trkpt lat="43.44195" lon="3.45375">
        <ele>91</ele>
        <time>2014-09-03T18:03:01.000Z</time>
      </trkpt>
      <trkpt lat="43.44199" lon="3.45366">
        <ele>93</ele>
        <time>2014-09-03T18:03:03.000Z</time>
      </trkpt>
      <trkpt lat="43.44203" lon="3.45359">
        <ele>94</ele>
        <time>2014-09-03T18:03:05.000Z</time>
      </trkpt>
      <trkpt lat="43.44207" lon="3.45352">
        <ele>95</ele>
        <time>2014-09-03T18:03:07.000Z</time>
      </trkpt>
      <trkpt lat="43.4421" lon="3.45346">
        <ele>96</ele>
        <time>2014-09-03T18:03:09.000Z</time>
      </trkpt>
      <trkpt lat="43.44214" lon="3.45339">
        <ele>98</ele>
        <time>2014-09-03T18:03:11.000Z</time>
      </trkpt>
      <trkpt lat="43.44218" lon="3.45333">
        <ele>96</ele>
        <time>2014-09-03T18:03:13.000Z</time>
      </trkpt>
      <trkpt lat="43.44222" lon="3.45323">
        <ele>93</ele>
        <time>2014-09-03T18:03:15.000Z</time>
      </trkpt>
      <trkpt lat="43.44225" lon="3.45313">
        <ele>91</ele>
        <time>2014-09-03T18:03:17.000Z</time>
      </trkpt>
      <trkpt lat="43.44229" lon="3.45306">
        <ele>96</ele>
        <time>2014-09-03T18:03:19.000Z</time>
      </trkpt>
      <trkpt lat="43.44233" lon="3.45299">
        <ele>95</ele>
        <time>2014-09-03T18:03:21.000Z</time>
      </trkpt>
      <trkpt lat="43.44238" lon="3.45292">
        <ele>95</ele>
        <time>2014-09-03T18:03:23.000Z</time>
      </trkpt>
      <trkpt lat="43.44242" lon="3.45284">
        <ele>96</ele>
        <time>2014-09-03T18:03:25.000Z</time>
      </trkpt>
      <trkpt lat="43.44246" lon="3.45277">
        <ele>97</ele>
        <time>2014-09-03T18:03:27.000Z</time>
      </trkpt>
      <trkpt lat="43.4425" lon="3.45271">
        <ele>99</ele>
        <time>2014-09-03T18:03:29.000Z</time>
      </trkpt>
      <trkpt lat="43.44253" lon="3.45265">
        <ele>100</ele>
        <time>2014-09-03T18:03:31.000Z</time>
      </trkpt>
      <trkpt lat="43.44257" lon="3.45258">
        <ele>99</ele>
        <time>2014-09-03T18:03:33.000Z</time>
      </trkpt>
      <trkpt lat="43.44261" lon="3.45252">
        <ele>101</ele>
        <time>2014-09-03T18:03:35.000Z</time>
      </trkpt>
      <trkpt lat="43.44265" lon="3.45246">
        <ele>103</ele>
        <time>2014-09-03T18:03:37.000Z</time>
      </trkpt>
      <trkpt lat="43.44268" lon="3.45239">
        <ele>103</ele>
        <time>2014-09-03T18:03:39.000Z</time>
      </trkpt>
      <trkpt lat="43.44273" lon="3.45233">
        <ele>104</ele>
        <time>2014-09-03T18:03:41.000Z</time>
      </trkpt>
      <trkpt lat="43.44276" lon="3.45226">
        <ele>107</ele>
        <time>2014-09-03T18:03:43.000Z</time>
      </trkpt>
      <trkpt lat="43.44279" lon="3.4522">
        <ele>108</ele>
        <time>2014-09-03T18:03:45.000Z</time>
      </trkpt>
      <trkpt lat="43.44283" lon="3.45213">
        <ele>108</ele>
        <time>2014-09-03T18:03:47.000Z</time>
      </trkpt>
      <trkpt lat="43.44286" lon="3.45205">
        <ele>107</ele>
        <time>2014-09-03T18:03:49.000Z</time>
      </trkpt>
      <trkpt lat="43.44289" lon="3.45195">
        <ele>107</ele>
        <time>2014-09-03T18:03:51.000Z</time>
      </trkpt>
      <trkpt lat="43.44292" lon="3.45187">
        <ele>107</ele>
        <time>2014-09-03T18:03:53.000Z</time>
      </trkpt>
      <trkpt lat="43.44298" lon="3.45183">
        <ele>108</ele>
        <time>2014-09-03T18:03:55.000Z</time>
      </trkpt>
      <trkpt lat="43.44305" lon="3.45184">
        <ele>108</ele>
        <time>2014-09-03T18:03:57.000Z</time>
      </trkpt>
      <trkpt lat="43.44312" lon="3.45188">
        <ele>107</ele>
        <time>2014-09-03T18:03:59.000Z</time>
      </trkpt>
      <trkpt lat="43.44318" lon="3.45191">
        <ele>106</ele>
        <time>2014-09-03T18:04:01.000Z</time>
      </trkpt>
      <trkpt lat="43.44324" lon="3.45192">
        <ele>106</ele>
        <time>2014-09-03T18:04:03.000Z</time>
      </trkpt>
      <trkpt lat="43.4433" lon="3.45192">
        <ele>107</ele>
        <time>2014-09-03T18:04:05.000Z</time>
      </trkpt>
      <trkpt lat="43.44336" lon="3.4519">
        <ele>106</ele>
        <time>2014-09-03T18:04:07.000Z</time>
      </trkpt>
      <trkpt lat="43.44342" lon="3.45189">
        <ele>109</ele>
        <time>2014-09-03T18:04:09.000Z</time>
      </trkpt>
      <trkpt lat="43.44349" lon="3.45188">
        <ele>109</ele>
        <time>2014-09-03T18:04:11.000Z</time>
      </trkpt>
      <trkpt lat="43.44356" lon="3.45186">
        <ele>109</ele>
        <time>2014-09-03T18:04:13.000Z</time>
      </trkpt>
      <trkpt lat="43.44363" lon="3.45186">
        <ele>111</ele>
        <time>2014-09-03T18:04:15.000Z</time>
      </trkpt>
      <trkpt lat="43.4437" lon="3.45182">
        <ele>113</ele>
        <time>2014-09-03T18:04:17.000Z</time>
      </trkpt>
      <trkpt lat="43.44377" lon="3.45178">
        <ele>112</ele>
        <time>2014-09-03T18:04:19.000Z</time>
      </trkpt>
      <trkpt lat="43.44384" lon="3.45172">
        <ele>113</ele>
        <time>2014-09-03T18:04:21.000Z</time>
      </trkpt>
      <trkpt lat="43.4439" lon="3.45167">
        <ele>113</ele>
        <time>2014-09-03T18:04:23.000Z</time>
      </trkpt>
      <trkpt lat="43.44396" lon="3.45162">
        <ele>115</ele>
        <time>2014-09-03T18:04:25.000Z</time>
      </trkpt>
      <trkpt lat="43.44402" lon="3.45156">
        <ele>115</ele>
        <time>2014-09-03T18:04:27.000Z</time>
      </trkpt>
      <trkpt lat="43.44407" lon="3.4515">
        <ele>118</ele>
        <time>2014-09-03T18:04:29.000Z</time>
      </trkpt>
      <trkpt lat="43.44412" lon="3.45143">
        <ele>119</ele>
        <time>2014-09-03T18:04:31.000Z</time>
      </trkpt>
      <trkpt lat="43.44416" lon="3.45136">
        <ele>120</ele>
        <time>2014-09-03T18:04:33.000Z</time>
      </trkpt>
      <trkpt lat="43.44421" lon="3.45128">
        <ele>117</ele>
        <time>2014-09-03T18:04:35.000Z</time>
      </trkpt>
      <trkpt lat="43.44426" lon="3.45121">
        <ele>117</ele>
        <time>2014-09-03T18:04:37.000Z</time>
      </trkpt>
      <trkpt lat="43.44432" lon="3.45116">
        <ele>118</ele>
        <time>2014-09-03T18:04:39.000Z</time>
      </trkpt>
      <trkpt lat="43.44439" lon="3.45114">
        <ele>118</ele>
        <time>2014-09-03T18:04:41.000Z</time>
      </trkpt>
      <trkpt lat="43.44447" lon="3.45114">
        <ele>120</ele>
        <time>2014-09-03T18:04:43.000Z</time>
      </trkpt>
      <trkpt lat="43.44454" lon="3.45112">
        <ele>119</ele>
        <time>2014-09-03T18:04:45.000Z</time>
      </trkpt>
      <trkpt lat="43.44464" lon="3.45107">
        <ele>117</ele>
        <time>2014-09-03T18:04:47.000Z</time>
      </trkpt>
      <trkpt lat="43.44475" lon="3.45101">
        <ele>117</ele>
        <time>2014-09-03T18:04:49.000Z</time>
      </trkpt>
      <trkpt lat="43.44485" lon="3.45094">
        <ele>117</ele>
        <time>2014-09-03T18:04:51.000Z</time>
      </trkpt>
      <trkpt lat="43.44495" lon="3.45088">
        <ele>116</ele>
        <time>2014-09-03T18:04:53.000Z</time>
      </trkpt>
      <trkpt lat="43.44504" lon="3.45076">
        <ele>116</ele>
        <time>2014-09-03T18:04:55.000Z</time>
      </trkpt>
      <trkpt lat="43.44516" lon="3.45073">
        <ele>115</ele>
        <time>2014-09-03T18:04:58.000Z</time>
      </trkpt>
      <trkpt lat="43.44522" lon="3.45067">
        <ele>115</ele>
        <time>2014-09-03T18:05:00.000Z</time>
      </trkpt>
      <trkpt lat="43.44529" lon="3.4506">
        <ele>114</ele>
        <time>2014-09-03T18:05:02.000Z</time>
      </trkpt>
      <trkpt lat="43.44534" lon="3.45059">
        <ele>114</ele>
        <time>2014-09-03T18:05:04.000Z</time>
      </trkpt>
      <trkpt lat="43.4454" lon="3.45062">
        <ele>114</ele>
        <time>2014-09-03T18:05:06.000Z</time>
      </trkpt>
      <trkpt lat="43.44548" lon="3.45063">
        <ele>115</ele>
        <time>2014-09-03T18:05:08.000Z</time>
      </trkpt>
      <trkpt lat="43.44555" lon="3.45063">
        <ele>117</ele>
        <time>2014-09-03T18:05:10.000Z</time>
      </trkpt>
      <trkpt lat="43.44562" lon="3.45059">
        <ele>116</ele>
        <time>2014-09-03T18:05:12.000Z</time>
      </trkpt>
      <trkpt lat="43.44572" lon="3.45048">
        <ele>115</ele>
        <time>2014-09-03T18:05:14.000Z</time>
      </trkpt>
      <trkpt lat="43.4458" lon="3.45038">
        <ele>114</ele>
        <time>2014-09-03T18:05:17.000Z</time>
      </trkpt>
      <trkpt lat="43.44585" lon="3.45034">
        <ele>112</ele>
        <time>2014-09-03T18:05:19.000Z</time>
      </trkpt>
      <trkpt lat="43.44591" lon="3.45033">
        <ele>112</ele>
        <time>2014-09-03T18:05:21.000Z</time>
      </trkpt>
      <trkpt lat="43.44599" lon="3.4503">
        <ele>111</ele>
        <time>2014-09-03T18:05:23.000Z</time>
      </trkpt>
      <trkpt lat="43.44608" lon="3.45028">
        <ele>111</ele>
        <time>2014-09-03T18:05:25.000Z</time>
      </trkpt>
      <trkpt lat="43.44619" lon="3.45029">
        <ele>112</ele>
        <time>2014-09-03T18:05:27.000Z</time>
      </trkpt>
      <trkpt lat="43.4463" lon="3.45022">
        <ele>110</ele>
        <time>2014-09-03T18:05:29.000Z</time>
      </trkpt>
      <trkpt lat="43.44642" lon="3.45022">
        <ele>107</ele>
        <time>2014-09-03T18:05:32.000Z</time>
      </trkpt>
      <trkpt lat="43.44646" lon="3.45015">
        <ele>108</ele>
        <time>2014-09-03T18:05:34.000Z</time>
      </trkpt>
      <trkpt lat="43.44648" lon="3.45006">
        <ele>105</ele>
        <time>2014-09-03T18:05:36.000Z</time>
      </trkpt>
      <trkpt lat="43.44652" lon="3.44998">
        <ele>104</ele>
        <time>2014-09-03T18:05:38.000Z</time>
      </trkpt>
      <trkpt lat="43.44656" lon="3.44989">
        <ele>103</ele>
        <time>2014-09-03T18:05:40.000Z</time>
      </trkpt>
      <trkpt lat="43.4466" lon="3.4498">
        <ele>103</ele>
        <time>2014-09-03T18:05:42.000Z</time>
      </trkpt>
      <trkpt lat="43.44665" lon="3.44971">
        <ele>103</ele>
        <time>2014-09-03T18:05:44.000Z</time>
      </trkpt>
      <trkpt lat="43.44669" lon="3.44961">
        <ele>103</ele>
        <time>2014-09-03T18:05:46.000Z</time>
      </trkpt>
      <trkpt lat="43.44675" lon="3.44949">
        <ele>101</ele>
        <time>2014-09-03T18:05:48.000Z</time>
      </trkpt>
      <trkpt lat="43.4468" lon="3.44933">
        <ele>98</ele>
        <time>2014-09-03T18:05:50.000Z</time>
      </trkpt>
      <trkpt lat="43.44682" lon="3.4492">
        <ele>99</ele>
        <time>2014-09-03T18:05:52.000Z</time>
      </trkpt>
      <trkpt lat="43.44679" lon="3.44904">
        <ele>100</ele>
        <time>2014-09-03T18:05:54.000Z</time>
      </trkpt>
      <trkpt lat="43.44676" lon="3.4489">
        <ele>100</ele>
        <time>2014-09-03T18:05:56.000Z</time>
      </trkpt>
      <trkpt lat="43.44674" lon="3.44872">
        <ele>100</ele>
        <time>2014-09-03T18:05:58.000Z</time>
      </trkpt>
      <trkpt lat="43.44682" lon="3.44861">
        <ele>101</ele>
        <time>2014-09-03T18:06:00.000Z</time>
      </trkpt>
      <trkpt lat="43.44687" lon="3.44847">
        <ele>102</ele>
        <time>2014-09-03T18:06:02.000Z</time>
      </trkpt>
      <trkpt lat="43.44694" lon="3.44831">
        <ele>104</ele>
        <time>2014-09-03T18:06:04.000Z</time>
      </trkpt>
      <trkpt lat="43.44701" lon="3.44817">
        <ele>104</ele>
        <time>2014-09-03T18:06:06.000Z</time>
      </trkpt>
      <trkpt lat="43.44708" lon="3.44801">
        <ele>104</ele>
        <time>2014-09-03T18:06:08.000Z</time>
      </trkpt>
      <trkpt lat="43.44712" lon="3.44786">
        <ele>103</ele>
        <time>2014-09-03T18:06:10.000Z</time>
      </trkpt>
      <trkpt lat="43.44714" lon="3.4477">
        <ele>106</ele>
        <time>2014-09-03T18:06:12.000Z</time>
      </trkpt>
      <trkpt lat="43.44718" lon="3.44751">
        <ele>105</ele>
        <time>2014-09-03T18:06:14.000Z</time>
      </trkpt>
      <trkpt lat="43.44726" lon="3.44737">
        <ele>108</ele>
        <time>2014-09-03T18:06:19.000Z</time>
      </trkpt>
      <trkpt lat="43.44731" lon="3.44731">
        <ele>108</ele>
        <time>2014-09-03T18:06:21.000Z</time>
      </trkpt>
      <trkpt lat="43.44731" lon="3.44731">
        <ele>108</ele>
        <time>2014-09-03T18:06:23.000Z</time>
      </trkpt>
      <trkpt lat="43.44739" lon="3.44721">
        <ele>112</ele>
        <time>2014-09-03T18:06:25.000Z</time>
      </trkpt>
      <trkpt lat="43.44743" lon="3.44714">
        <ele>109</ele>
        <time>2014-09-03T18:06:27.000Z</time>
      </trkpt>
      <trkpt lat="43.44746" lon="3.44707">
        <ele>110</ele>
        <time>2014-09-03T18:06:29.000Z</time>
      </trkpt>
      <trkpt lat="43.44747" lon="3.44696">
        <ele>109</ele>
        <time>2014-09-03T18:06:31.000Z</time>
      </trkpt>
      <trkpt lat="43.44747" lon="3.44685">
        <ele>108</ele>
        <time>2014-09-03T18:06:33.000Z</time>
      </trkpt>
      <trkpt lat="43.44748" lon="3.44676">
        <ele>107</ele>
        <time>2014-09-03T18:06:35.000Z</time>
      </trkpt>
      <trkpt lat="43.4475" lon="3.44666">
        <ele>109</ele>
        <time>2014-09-03T18:06:37.000Z</time>
      </trkpt>
      <trkpt lat="43.44752" lon="3.44659">
        <ele>111</ele>
        <time>2014-09-03T18:06:39.000Z</time>
      </trkpt>
      <trkpt lat="43.44752" lon="3.44659">
        <ele>111</ele>
        <time>2014-09-03T18:06:41.000Z</time>
      </trkpt>
      <trkpt lat="43.44756" lon="3.44644">
        <ele>114</ele>
        <time>2014-09-03T18:06:43.000Z</time>
      </trkpt>
      <trkpt lat="43.44756" lon="3.44644">
        <ele>114</ele>
        <time>2014-09-03T18:06:45.000Z</time>
      </trkpt>
      <trkpt lat="43.44758" lon="3.44635">
        <ele>116</ele>
        <time>2014-09-03T18:06:47.000Z</time>
      </trkpt>
      <trkpt lat="43.44758" lon="3.44635">
        <ele>116</ele>
        <time>2014-09-03T18:06:49.000Z</time>
      </trkpt>
      <trkpt lat="43.44758" lon="3.44635">
        <ele>116</ele>
        <time>2014-09-03T18:06:51.000Z</time>
      </trkpt>
      <trkpt lat="43.44759" lon="3.44625">
        <ele>119</ele>
        <time>2014-09-03T18:06:53.000Z</time>
      </trkpt>
      <trkpt lat="43.44759" lon="3.44625">
        <ele>119</ele>
        <time>2014-09-03T18:06:55.000Z</time>
      </trkpt>
      <trkpt lat="43.44763" lon="3.44617">
        <ele>120</ele>
        <time>2014-09-03T18:06:57.000Z</time>
      </trkpt>
      <trkpt lat="43.4477" lon="3.44611">
        <ele>120</ele>
        <time>2014-09-03T18:07:01.000Z</time>
      </trkpt>
      <trkpt lat="43.44776" lon="3.44601">
        <ele>119</ele>
        <time>2014-09-03T18:07:05.000Z</time>
      </trkpt>
      <trkpt lat="43.44776" lon="3.44587">
        <ele>119</ele>
        <time>2014-09-03T18:07:09.000Z</time>
      </trkpt>
      <trkpt lat="43.44774" lon="3.44579">
        <ele>120</ele>
        <time>2014-09-03T18:07:11.000Z</time>
      </trkpt>
      <trkpt lat="43.44767" lon="3.44569">
        <ele>118</ele>
        <time>2014-09-03T18:07:15.000Z</time>
      </trkpt>
      <trkpt lat="43.44767" lon="3.44569">
        <ele>118</ele>
        <time>2014-09-03T18:07:17.000Z</time>
      </trkpt>
      <trkpt lat="43.44759" lon="3.44564">
        <ele>119</ele>
        <time>2014-09-03T18:07:19.000Z</time>
      </trkpt>
      <trkpt lat="43.44759" lon="3.44564">
        <ele>119</ele>
        <time>2014-09-03T18:07:21.000Z</time>
      </trkpt>
      <trkpt lat="43.44749" lon="3.44558">
        <ele>117</ele>
        <time>2014-09-03T18:07:23.000Z</time>
      </trkpt>
      <trkpt lat="43.4474" lon="3.44554">
        <ele>118</ele>
        <time>2014-09-03T18:07:27.000Z</time>
      </trkpt>
      <trkpt lat="43.4474" lon="3.44554">
        <ele>118</ele>
        <time>2014-09-03T18:07:29.000Z</time>
      </trkpt>
      <trkpt lat="43.44731" lon="3.44555">
        <ele>116</ele>
        <time>2014-09-03T18:07:31.000Z</time>
      </trkpt>
      <trkpt lat="43.44731" lon="3.44555">
        <ele>116</ele>
        <time>2014-09-03T18:07:33.000Z</time>
      </trkpt>
      <trkpt lat="43.44723" lon="3.44553">
        <ele>114</ele>
        <time>2014-09-03T18:07:35.000Z</time>
      </trkpt>
      <trkpt lat="43.44723" lon="3.44553">
        <ele>114</ele>
        <time>2014-09-03T18:07:37.000Z</time>
      </trkpt>
      <trkpt lat="43.44714" lon="3.44545">
        <ele>113</ele>
        <time>2014-09-03T18:07:39.000Z</time>
      </trkpt>
      <trkpt lat="43.44708" lon="3.44538">
        <ele>112</ele>
        <time>2014-09-03T18:07:41.000Z</time>
      </trkpt>
      <trkpt lat="43.44702" lon="3.44533">
        <ele>112</ele>
        <time>2014-09-03T18:07:43.000Z</time>
      </trkpt>
      <trkpt lat="43.44696" lon="3.44527">
        <ele>111</ele>
        <time>2014-09-03T18:07:45.000Z</time>
      </trkpt>
      <trkpt lat="43.44691" lon="3.44521">
        <ele>110</ele>
        <time>2014-09-03T18:07:47.000Z</time>
      </trkpt>
      <trkpt lat="43.44686" lon="3.44517">
        <ele>108</ele>
        <time>2014-09-03T18:07:49.000Z</time>
      </trkpt>
      <trkpt lat="43.44678" lon="3.44513">
        <ele>107</ele>
        <time>2014-09-03T18:07:51.000Z</time>
      </trkpt>
      <trkpt lat="43.4467" lon="3.44508">
        <ele>103</ele>
        <time>2014-09-03T18:07:53.000Z</time>
      </trkpt>
      <trkpt lat="43.44662" lon="3.44504">
        <ele>102</ele>
        <time>2014-09-03T18:07:55.000Z</time>
      </trkpt>
      <trkpt lat="43.44651" lon="3.44497">
        <ele>101</ele>
        <time>2014-09-03T18:07:57.000Z</time>
      </trkpt>
      <trkpt lat="43.44641" lon="3.44487">
        <ele>100</ele>
        <time>2014-09-03T18:07:59.000Z</time>
      </trkpt>
      <trkpt lat="43.44632" lon="3.44475">
        <ele>99</ele>
        <time>2014-09-03T18:08:01.000Z</time>
      </trkpt>
      <trkpt lat="43.4462" lon="3.44464">
        <ele>97</ele>
        <time>2014-09-03T18:08:03.000Z</time>
      </trkpt>
      <trkpt lat="43.44609" lon="3.44454">
        <ele>96</ele>
        <time>2014-09-03T18:08:05.000Z</time>
      </trkpt>
      <trkpt lat="43.44597" lon="3.44441">
        <ele>94</ele>
        <time>2014-09-03T18:08:07.000Z</time>
      </trkpt>
      <trkpt lat="43.44584" lon="3.44431">
        <ele>93</ele>
        <time>2014-09-03T18:08:09.000Z</time>
      </trkpt>
      <trkpt lat="43.44572" lon="3.44418">
        <ele>92</ele>
        <time>2014-09-03T18:08:11.000Z</time>
      </trkpt>
      <trkpt lat="43.44562" lon="3.44408">
        <ele>91</ele>
        <time>2014-09-03T18:08:13.000Z</time>
      </trkpt>
      <trkpt lat="43.44551" lon="3.44398">
        <ele>91</ele>
        <time>2014-09-03T18:08:15.000Z</time>
      </trkpt>
      <trkpt lat="43.44542" lon="3.44387">
        <ele>91</ele>
        <time>2014-09-03T18:08:17.000Z</time>
      </trkpt>
      <trkpt lat="43.44534" lon="3.44377">
        <ele>90</ele>
        <time>2014-09-03T18:08:19.000Z</time>
      </trkpt>
      <trkpt lat="43.44525" lon="3.44371">
        <ele>90</ele>
        <time>2014-09-03T18:08:21.000Z</time>
      </trkpt>
      <trkpt lat="43.44517" lon="3.44363">
        <ele>86</ele>
        <time>2014-09-03T18:08:23.000Z</time>
      </trkpt>
      <trkpt lat="43.44517" lon="3.44363">
        <ele>86</ele>
        <time>2014-09-03T18:08:25.000Z</time>
      </trkpt>
      <trkpt lat="43.44512" lon="3.44349">
        <ele>83</ele>
        <time>2014-09-03T18:08:27.000Z</time>
      </trkpt>
      <trkpt lat="43.44508" lon="3.4434">
        <ele>83</ele>
        <time>2014-09-03T18:08:29.000Z</time>
      </trkpt>
      <trkpt lat="43.44502" lon="3.44332">
        <ele>79</ele>
        <time>2014-09-03T18:08:31.000Z</time>
      </trkpt>
      <trkpt lat="43.44498" lon="3.44323">
        <ele>80</ele>
        <time>2014-09-03T18:08:33.000Z</time>
      </trkpt>
      <trkpt lat="43.44494" lon="3.44313">
        <ele>80</ele>
        <time>2014-09-03T18:08:35.000Z</time>
      </trkpt>
      <trkpt lat="43.44493" lon="3.44301">
        <ele>77</ele>
        <time>2014-09-03T18:08:37.000Z</time>
      </trkpt>
      <trkpt lat="43.44492" lon="3.44289">
        <ele>77</ele>
        <time>2014-09-03T18:08:39.000Z</time>
      </trkpt>
      <trkpt lat="43.44492" lon="3.44278">
        <ele>77</ele>
        <time>2014-09-03T18:08:41.000Z</time>
      </trkpt>
      <trkpt lat="43.44495" lon="3.44253">
        <ele>75</ele>
        <time>2014-09-03T18:08:44.000Z</time>
      </trkpt>
      <trkpt lat="43.44497" lon="3.44238">
        <ele>74</ele>
        <time>2014-09-03T18:08:46.000Z</time>
      </trkpt>
      <trkpt lat="43.44497" lon="3.4422">
        <ele>75</ele>
        <time>2014-09-03T18:08:48.000Z</time>
      </trkpt>
      <trkpt lat="43.44498" lon="3.44201">
        <ele>75</ele>
        <time>2014-09-03T18:08:50.000Z</time>
      </trkpt>
      <trkpt lat="43.44496" lon="3.44186">
        <ele>75</ele>
        <time>2014-09-03T18:08:52.000Z</time>
      </trkpt>
      <trkpt lat="43.44498" lon="3.44169">
        <ele>76</ele>
        <time>2014-09-03T18:08:54.000Z</time>
      </trkpt>
      <trkpt lat="43.44506" lon="3.44157">
        <ele>76</ele>
        <time>2014-09-03T18:08:56.000Z</time>
      </trkpt>
      <trkpt lat="43.44519" lon="3.44146">
        <ele>75</ele>
        <time>2014-09-03T18:08:58.000Z</time>
      </trkpt>
      <trkpt lat="43.44532" lon="3.4413">
        <ele>73</ele>
        <time>2014-09-03T18:09:00.000Z</time>
      </trkpt>
      <trkpt lat="43.44548" lon="3.44118">
        <ele>70</ele>
        <time>2014-09-03T18:09:02.000Z</time>
      </trkpt>
      <trkpt lat="43.44559" lon="3.4411">
        <ele>71</ele>
        <time>2014-09-03T18:09:04.000Z</time>
      </trkpt>
      <trkpt lat="43.44573" lon="3.441">
        <ele>71</ele>
        <time>2014-09-03T18:09:06.000Z</time>
      </trkpt>
      <trkpt lat="43.44588" lon="3.44094">
        <ele>69</ele>
        <time>2014-09-03T18:09:08.000Z</time>
      </trkpt>
      <trkpt lat="43.44599" lon="3.44087">
        <ele>69</ele>
        <time>2014-09-03T18:09:10.000Z</time>
      </trkpt>
      <trkpt lat="43.44609" lon="3.4408">
        <ele>70</ele>
        <time>2014-09-03T18:09:12.000Z</time>
      </trkpt>
      <trkpt lat="43.44618" lon="3.44076">
        <ele>69</ele>
        <time>2014-09-03T18:09:14.000Z</time>
      </trkpt>
      <trkpt lat="43.44627" lon="3.44076">
        <ele>74</ele>
        <time>2014-09-03T18:09:17.000Z</time>
      </trkpt>
      <trkpt lat="43.44636" lon="3.44073">
        <ele>74</ele>
        <time>2014-09-03T18:09:19.000Z</time>
      </trkpt>
      <trkpt lat="43.4465" lon="3.44052">
        <ele>69</ele>
        <time>2014-09-03T18:09:22.000Z</time>
      </trkpt>
      <trkpt lat="43.44659" lon="3.4404">
        <ele>67</ele>
        <time>2014-09-03T18:09:24.000Z</time>
      </trkpt>
      <trkpt lat="43.44665" lon="3.44022">
        <ele>66</ele>
        <time>2014-09-03T18:09:26.000Z</time>
      </trkpt>
      <trkpt lat="43.44671" lon="3.4401">
        <ele>65</ele>
        <time>2014-09-03T18:09:28.000Z</time>
      </trkpt>
      <trkpt lat="43.44678" lon="3.43996">
        <ele>64</ele>
        <time>2014-09-03T18:09:30.000Z</time>
      </trkpt>
      <trkpt lat="43.44684" lon="3.43985">
        <ele>65</ele>
        <time>2014-09-03T18:09:32.000Z</time>
      </trkpt>
      <trkpt lat="43.44691" lon="3.43973">
        <ele>64</ele>
        <time>2014-09-03T18:09:34.000Z</time>
      </trkpt>
      <trkpt lat="43.44699" lon="3.4396">
        <ele>63</ele>
        <time>2014-09-03T18:09:36.000Z</time>
      </trkpt>
      <trkpt lat="43.44706" lon="3.43949">
        <ele>63</ele>
        <time>2014-09-03T18:09:38.000Z</time>
      </trkpt>
      <trkpt lat="43.44715" lon="3.43933">
        <ele>61</ele>
        <time>2014-09-03T18:09:40.000Z</time>
      </trkpt>
      <trkpt lat="43.44721" lon="3.4392">
        <ele>62</ele>
        <time>2014-09-03T18:09:42.000Z</time>
      </trkpt>
      <trkpt lat="43.44729" lon="3.43907">
        <ele>62</ele>
        <time>2014-09-03T18:09:44.000Z</time>
      </trkpt>
      <trkpt lat="43.44736" lon="3.43893">
        <ele>62</ele>
        <time>2014-09-03T18:09:46.000Z</time>
      </trkpt>
      <trkpt lat="43.44744" lon="3.4388">
        <ele>60</ele>
        <time>2014-09-03T18:09:48.000Z</time>
      </trkpt>
      <trkpt lat="43.44751" lon="3.43867">
        <ele>58</ele>
        <time>2014-09-03T18:09:50.000Z</time>
      </trkpt>
      <trkpt lat="43.4476" lon="3.43851">
        <ele>60</ele>
        <time>2014-09-03T18:09:52.000Z</time>
      </trkpt>
      <trkpt lat="43.44765" lon="3.43837">
        <ele>58</ele>
        <time>2014-09-03T18:09:54.000Z</time>
      </trkpt>
      <trkpt lat="43.44775" lon="3.43822">
        <ele>57</ele>
        <time>2014-09-03T18:09:56.000Z</time>
      </trkpt>
      <trkpt lat="43.44786" lon="3.43815">
        <ele>55</ele>
        <time>2014-09-03T18:09:58.000Z</time>
      </trkpt>
      <trkpt lat="43.44798" lon="3.43801">
        <ele>55</ele>
        <time>2014-09-03T18:10:00.000Z</time>
      </trkpt>
      <trkpt lat="43.44807" lon="3.43786">
        <ele>55</ele>
        <time>2014-09-03T18:10:02.000Z</time>
      </trkpt>
      <trkpt lat="43.44816" lon="3.43772">
        <ele>56</ele>
        <time>2014-09-03T18:10:04.000Z</time>
      </trkpt>
      <trkpt lat="43.44826" lon="3.4376">
        <ele>58</ele>
        <time>2014-09-03T18:10:06.000Z</time>
      </trkpt>
      <trkpt lat="43.44836" lon="3.43748">
        <ele>59</ele>
        <time>2014-09-03T18:10:08.000Z</time>
      </trkpt>
      <trkpt lat="43.44844" lon="3.43736">
        <ele>60</ele>
        <time>2014-09-03T18:10:10.000Z</time>
      </trkpt>
      <trkpt lat="43.44854" lon="3.43725">
        <ele>61</ele>
        <time>2014-09-03T18:10:12.000Z</time>
      </trkpt>
      <trkpt lat="43.44864" lon="3.43713">
        <ele>62</ele>
        <time>2014-09-03T18:10:14.000Z</time>
      </trkpt>
      <trkpt lat="43.44873" lon="3.43703">
        <ele>64</ele>
        <time>2014-09-03T18:10:16.000Z</time>
      </trkpt>
      <trkpt lat="43.44884" lon="3.43693">
        <ele>66</ele>
        <time>2014-09-03T18:10:18.000Z</time>
      </trkpt>
      <trkpt lat="43.44892" lon="3.43681">
        <ele>67</ele>
        <time>2014-09-03T18:10:20.000Z</time>
      </trkpt>
      <trkpt lat="43.44902" lon="3.4367">
        <ele>68</ele>
        <time>2014-09-03T18:10:22.000Z</time>
      </trkpt>
      <trkpt lat="43.44911" lon="3.43659">
        <ele>70</ele>
        <time>2014-09-03T18:10:24.000Z</time>
      </trkpt>
      <trkpt lat="43.44919" lon="3.43648">
        <ele>70</ele>
        <time>2014-09-03T18:10:26.000Z</time>
      </trkpt>
      <trkpt lat="43.44929" lon="3.43636">
        <ele>69</ele>
        <time>2014-09-03T18:10:28.000Z</time>
      </trkpt>
      <trkpt lat="43.44937" lon="3.43628">
        <ele>70</ele>
        <time>2014-09-03T18:10:30.000Z</time>
      </trkpt>
      <trkpt lat="43.44946" lon="3.43617">
        <ele>69</ele>
        <time>2014-09-03T18:10:32.000Z</time>
      </trkpt>
      <trkpt lat="43.44955" lon="3.43605">
        <ele>69</ele>
        <time>2014-09-03T18:10:34.000Z</time>
      </trkpt>
      <trkpt lat="43.44966" lon="3.43593">
        <ele>68</ele>
        <time>2014-09-03T18:10:36.000Z</time>
      </trkpt>
      <trkpt lat="43.44977" lon="3.43577">
        <ele>68</ele>
        <time>2014-09-03T18:10:38.000Z</time>
      </trkpt>
      <trkpt lat="43.44988" lon="3.43564">
        <ele>68</ele>
        <time>2014-09-03T18:10:40.000Z</time>
      </trkpt>
      <trkpt lat="43.45" lon="3.43549">
        <ele>68</ele>
        <time>2014-09-03T18:10:42.000Z</time>
      </trkpt>
      <trkpt lat="43.45013" lon="3.43535">
        <ele>67</ele>
        <time>2014-09-03T18:10:44.000Z</time>
      </trkpt>
      <trkpt lat="43.45026" lon="3.4352">
        <ele>66</ele>
        <time>2014-09-03T18:10:46.000Z</time>
      </trkpt>
      <trkpt lat="43.45041" lon="3.43503">
        <ele>67</ele>
        <time>2014-09-03T18:10:48.000Z</time>
      </trkpt>
      <trkpt lat="43.45055" lon="3.43486">
        <ele>66</ele>
        <time>2014-09-03T18:10:50.000Z</time>
      </trkpt>
      <trkpt lat="43.45068" lon="3.43468">
        <ele>66</ele>
        <time>2014-09-03T18:10:52.000Z</time>
      </trkpt>
      <trkpt lat="43.45081" lon="3.43452">
        <ele>66</ele>
        <time>2014-09-03T18:10:54.000Z</time>
      </trkpt>
      <trkpt lat="43.45095" lon="3.43433">
        <ele>65</ele>
        <time>2014-09-03T18:10:56.000Z</time>
      </trkpt>
      <trkpt lat="43.45108" lon="3.43419">
        <ele>65</ele>
        <time>2014-09-03T18:10:58.000Z</time>
      </trkpt>
      <trkpt lat="43.45119" lon="3.43406">
        <ele>64</ele>
        <time>2014-09-03T18:11:00.000Z</time>
      </trkpt>
      <trkpt lat="43.45131" lon="3.43392">
        <ele>64</ele>
        <time>2014-09-03T18:11:02.000Z</time>
      </trkpt>
      <trkpt lat="43.45141" lon="3.43379">
        <ele>64</ele>
        <time>2014-09-03T18:11:04.000Z</time>
      </trkpt>
      <trkpt lat="43.45152" lon="3.43365">
        <ele>63</ele>
        <time>2014-09-03T18:11:06.000Z</time>
      </trkpt>
      <trkpt lat="43.45163" lon="3.43353">
        <ele>63</ele>
        <time>2014-09-03T18:11:08.000Z</time>
      </trkpt>
      <trkpt lat="43.45175" lon="3.43341">
        <ele>64</ele>
        <time>2014-09-03T18:11:10.000Z</time>
      </trkpt>
      <trkpt lat="43.45187" lon="3.43327">
        <ele>64</ele>
        <time>2014-09-03T18:11:12.000Z</time>
      </trkpt>
      <trkpt lat="43.452" lon="3.4331">
        <ele>63</ele>
        <time>2014-09-03T18:11:14.000Z</time>
      </trkpt>
      <trkpt lat="43.45211" lon="3.43297">
        <ele>63</ele>
        <time>2014-09-03T18:11:16.000Z</time>
      </trkpt>
      <trkpt lat="43.45221" lon="3.43287">
        <ele>62</ele>
        <time>2014-09-03T18:11:18.000Z</time>
      </trkpt>
      <trkpt lat="43.45231" lon="3.43275">
        <ele>61</ele>
        <time>2014-09-03T18:11:20.000Z</time>
      </trkpt>
      <trkpt lat="43.4524" lon="3.43263">
        <ele>62</ele>
        <time>2014-09-03T18:11:22.000Z</time>
      </trkpt>
      <trkpt lat="43.45247" lon="3.43251">
        <ele>62</ele>
        <time>2014-09-03T18:11:24.000Z</time>
      </trkpt>
      <trkpt lat="43.45253" lon="3.43236">
        <ele>62</ele>
        <time>2014-09-03T18:11:26.000Z</time>
      </trkpt>
      <trkpt lat="43.45258" lon="3.43227">
        <ele>63</ele>
        <time>2014-09-03T18:11:28.000Z</time>
      </trkpt>
      <trkpt lat="43.45262" lon="3.43216">
        <ele>64</ele>
        <time>2014-09-03T18:11:30.000Z</time>
      </trkpt>
      <trkpt lat="43.4527" lon="3.43212">
        <ele>65</ele>
        <time>2014-09-03T18:11:32.000Z</time>
      </trkpt>
      <trkpt lat="43.45279" lon="3.43207">
        <ele>64</ele>
        <time>2014-09-03T18:11:34.000Z</time>
      </trkpt>
      <trkpt lat="43.45285" lon="3.43196">
        <ele>63</ele>
        <time>2014-09-03T18:11:36.000Z</time>
      </trkpt>
      <trkpt lat="43.45288" lon="3.43178">
        <ele>62</ele>
        <time>2014-09-03T18:11:38.000Z</time>
      </trkpt>
      <trkpt lat="43.45284" lon="3.43163">
        <ele>63</ele>
        <time>2014-09-03T18:11:40.000Z</time>
      </trkpt>
      <trkpt lat="43.45278" lon="3.4315">
        <ele>63</ele>
        <time>2014-09-03T18:11:42.000Z</time>
      </trkpt>
      <trkpt lat="43.45271" lon="3.43137">
        <ele>64</ele>
        <time>2014-09-03T18:11:44.000Z</time>
      </trkpt>
      <trkpt lat="43.45269" lon="3.43121">
        <ele>62</ele>
        <time>2014-09-03T18:11:46.000Z</time>
      </trkpt>
      <trkpt lat="43.45267" lon="3.43101">
        <ele>61</ele>
        <time>2014-09-03T18:11:48.000Z</time>
      </trkpt>
      <trkpt lat="43.45268" lon="3.43082">
        <ele>61</ele>
        <time>2014-09-03T18:11:50.000Z</time>
      </trkpt>
      <trkpt lat="43.45271" lon="3.43061">
        <ele>62</ele>
        <time>2014-09-03T18:11:52.000Z</time>
      </trkpt>
      <trkpt lat="43.45274" lon="3.43041">
        <ele>63</ele>
        <time>2014-09-03T18:11:54.000Z</time>
      </trkpt>
      <trkpt lat="43.45274" lon="3.43021">
        <ele>62</ele>
        <time>2014-09-03T18:11:56.000Z</time>
      </trkpt>
      <trkpt lat="43.45276" lon="3.43002">
        <ele>62</ele>
        <time>2014-09-03T18:11:58.000Z</time>
      </trkpt>
      <trkpt lat="43.45279" lon="3.42984">
        <ele>61</ele>
        <time>2014-09-03T18:12:00.000Z</time>
      </trkpt>
      <trkpt lat="43.45286" lon="3.42964">
        <ele>62</ele>
        <time>2014-09-03T18:12:02.000Z</time>
      </trkpt>
      <trkpt lat="43.45286" lon="3.42943">
        <ele>62</ele>
        <time>2014-09-03T18:12:04.000Z</time>
      </trkpt>
      <trkpt lat="43.4529" lon="3.42923">
        <ele>63</ele>
        <time>2014-09-03T18:12:06.000Z</time>
      </trkpt>
      <trkpt lat="43.45293" lon="3.42905">
        <ele>62</ele>
        <time>2014-09-03T18:12:08.000Z</time>
      </trkpt>
      <trkpt lat="43.45296" lon="3.42889">
        <ele>62</ele>
        <time>2014-09-03T18:12:10.000Z</time>
      </trkpt>
      <trkpt lat="43.45301" lon="3.42873">
        <ele>61</ele>
        <time>2014-09-03T18:12:12.000Z</time>
      </trkpt>
      <trkpt lat="43.45299" lon="3.42854">
        <ele>62</ele>
        <time>2014-09-03T18:12:14.000Z</time>
      </trkpt>
      <trkpt lat="43.453" lon="3.42836">
        <ele>61</ele>
        <time>2014-09-03T18:12:16.000Z</time>
      </trkpt>
      <trkpt lat="43.45303" lon="3.4282">
        <ele>63</ele>
        <time>2014-09-03T18:12:18.000Z</time>
      </trkpt>
      <trkpt lat="43.45309" lon="3.42804">
        <ele>62</ele>
        <time>2014-09-03T18:12:20.000Z</time>
      </trkpt>
      <trkpt lat="43.45314" lon="3.42788">
        <ele>63</ele>
        <time>2014-09-03T18:12:22.000Z</time>
      </trkpt>
      <trkpt lat="43.45319" lon="3.42773">
        <ele>62</ele>
        <time>2014-09-03T18:12:24.000Z</time>
      </trkpt>
      <trkpt lat="43.45325" lon="3.42758">
        <ele>62</ele>
        <time>2014-09-03T18:12:26.000Z</time>
      </trkpt>
      <trkpt lat="43.45332" lon="3.42746">
        <ele>62</ele>
        <time>2014-09-03T18:12:28.000Z</time>
      </trkpt>
      <trkpt lat="43.45343" lon="3.42738">
        <ele>62</ele>
        <time>2014-09-03T18:12:30.000Z</time>
      </trkpt>
      <trkpt lat="43.45353" lon="3.42735">
        <ele>67</ele>
        <time>2014-09-03T18:12:32.000Z</time>
      </trkpt>
      <trkpt lat="43.45359" lon="3.42726">
        <ele>71</ele>
        <time>2014-09-03T18:12:34.000Z</time>
      </trkpt>
      <trkpt lat="43.45366" lon="3.42714">
        <ele>71</ele>
        <time>2014-09-03T18:12:36.000Z</time>
      </trkpt>
      <trkpt lat="43.45374" lon="3.42704">
        <ele>71</ele>
        <time>2014-09-03T18:12:38.000Z</time>
      </trkpt>
      <trkpt lat="43.45382" lon="3.42699">
        <ele>73</ele>
        <time>2014-09-03T18:12:40.000Z</time>
      </trkpt>
      <trkpt lat="43.45391" lon="3.42694">
        <ele>74</ele>
        <time>2014-09-03T18:12:42.000Z</time>
      </trkpt>
      <trkpt lat="43.45402" lon="3.42687">
        <ele>71</ele>
        <time>2014-09-03T18:12:44.000Z</time>
      </trkpt>
      <trkpt lat="43.45413" lon="3.4268">
        <ele>72</ele>
        <time>2014-09-03T18:12:46.000Z</time>
      </trkpt>
      <trkpt lat="43.45424" lon="3.42673">
        <ele>72</ele>
        <time>2014-09-03T18:12:48.000Z</time>
      </trkpt>
      <trkpt lat="43.45435" lon="3.42668">
        <ele>73</ele>
        <time>2014-09-03T18:12:50.000Z</time>
      </trkpt>
      <trkpt lat="43.45445" lon="3.42663">
        <ele>75</ele>
        <time>2014-09-03T18:12:52.000Z</time>
      </trkpt>
      <trkpt lat="43.45456" lon="3.42655">
        <ele>77</ele>
        <time>2014-09-03T18:12:54.000Z</time>
      </trkpt>
      <trkpt lat="43.45466" lon="3.42649">
        <ele>77</ele>
        <time>2014-09-03T18:12:56.000Z</time>
      </trkpt>
      <trkpt lat="43.45478" lon="3.42646">
        <ele>74</ele>
        <time>2014-09-03T18:12:58.000Z</time>
      </trkpt>
      <trkpt lat="43.45486" lon="3.42644">
        <ele>75</ele>
        <time>2014-09-03T18:13:00.000Z</time>
      </trkpt>
      <trkpt lat="43.45497" lon="3.42637">
        <ele>75</ele>
        <time>2014-09-03T18:13:02.000Z</time>
      </trkpt>
      <trkpt lat="43.45507" lon="3.4263">
        <ele>73</ele>
        <time>2014-09-03T18:13:04.000Z</time>
      </trkpt>
      <trkpt lat="43.45516" lon="3.42623">
        <ele>73</ele>
        <time>2014-09-03T18:13:06.000Z</time>
      </trkpt>
      <trkpt lat="43.45525" lon="3.42618">
        <ele>73</ele>
        <time>2014-09-03T18:13:08.000Z</time>
      </trkpt>
      <trkpt lat="43.45532" lon="3.42614">
        <ele>73</ele>
        <time>2014-09-03T18:13:10.000Z</time>
      </trkpt>
      <trkpt lat="43.4554" lon="3.4261">
        <ele>73</ele>
        <time>2014-09-03T18:13:12.000Z</time>
      </trkpt>
      <trkpt lat="43.45549" lon="3.42604">
        <ele>74</ele>
        <time>2014-09-03T18:13:14.000Z</time>
      </trkpt>
      <trkpt lat="43.45559" lon="3.42601">
        <ele>73</ele>
        <time>2014-09-03T18:13:16.000Z</time>
      </trkpt>
      <trkpt lat="43.45568" lon="3.42603">
        <ele>73</ele>
        <time>2014-09-03T18:13:18.000Z</time>
      </trkpt>
      <trkpt lat="43.45577" lon="3.42602">
        <ele>72</ele>
        <time>2014-09-03T18:13:20.000Z</time>
      </trkpt>
      <trkpt lat="43.45585" lon="3.42589">
        <ele>72</ele>
        <time>2014-09-03T18:13:22.000Z</time>
      </trkpt>
      <trkpt lat="43.45594" lon="3.42586">
        <ele>72</ele>
        <time>2014-09-03T18:13:24.000Z</time>
      </trkpt>
      <trkpt lat="43.45602" lon="3.42578">
        <ele>72</ele>
        <time>2014-09-03T18:13:26.000Z</time>
      </trkpt>
      <trkpt lat="43.45612" lon="3.42569">
        <ele>71</ele>
        <time>2014-09-03T18:13:28.000Z</time>
      </trkpt>
      <trkpt lat="43.45623" lon="3.42559">
        <ele>72</ele>
        <time>2014-09-03T18:13:30.000Z</time>
      </trkpt>
      <trkpt lat="43.45631" lon="3.42552">
        <ele>72</ele>
        <time>2014-09-03T18:13:32.000Z</time>
      </trkpt>
      <trkpt lat="43.45639" lon="3.42545">
        <ele>71</ele>
        <time>2014-09-03T18:13:34.000Z</time>
      </trkpt>
      <trkpt lat="43.45646" lon="3.42538">
        <ele>71</ele>
        <time>2014-09-03T18:13:36.000Z</time>
      </trkpt>
      <trkpt lat="43.45652" lon="3.42529">
        <ele>71</ele>
        <time>2014-09-03T18:13:38.000Z</time>
      </trkpt>
      <trkpt lat="43.45652" lon="3.42529">
        <ele>71</ele>
        <time>2014-09-03T18:13:40.000Z</time>
      </trkpt>
      <trkpt lat="43.45657" lon="3.42517">
        <ele>77</ele>
        <time>2014-09-03T18:13:42.000Z</time>
      </trkpt>
      <trkpt lat="43.45657" lon="3.42517">
        <ele>77</ele>
        <time>2014-09-03T18:13:44.000Z</time>
      </trkpt>
      <trkpt lat="43.45658" lon="3.42504">
        <ele>77</ele>
        <time>2014-09-03T18:13:46.000Z</time>
      </trkpt>
      <trkpt lat="43.45658" lon="3.42504">
        <ele>77</ele>
        <time>2014-09-03T18:13:48.000Z</time>
      </trkpt>
      <trkpt lat="43.45658" lon="3.42504">
        <ele>77</ele>
        <time>2014-09-03T18:13:50.000Z</time>
      </trkpt>
      <trkpt lat="43.45658" lon="3.42504">
        <ele>77</ele>
        <time>2014-09-03T18:13:52.000Z</time>
      </trkpt>
      <trkpt lat="43.45658" lon="3.42504">
        <ele>77</ele>
        <time>2014-09-03T18:13:54.000Z</time>
      </trkpt>
      <trkpt lat="43.45644" lon="3.42495">
        <ele>76</ele>
        <time>2014-09-03T18:19:52.000Z</time>
      </trkpt>
      <trkpt lat="43.45633" lon="3.42487">
        <ele>73</ele>
        <time>2014-09-03T18:19:54.000Z</time>
      </trkpt>
      <trkpt lat="43.45624" lon="3.42481">
        <ele>73</ele>
        <time>2014-09-03T18:19:56.000Z</time>
      </trkpt>
      <trkpt lat="43.45615" lon="3.42476">
        <ele>72</ele>
        <time>2014-09-03T18:19:58.000Z</time>
      </trkpt>
      <trkpt lat="43.45607" lon="3.42472">
        <ele>73</ele>
        <time>2014-09-03T18:20:00.000Z</time>
      </trkpt>
      <trkpt lat="43.45591" lon="3.42466">
        <ele>73</ele>
        <time>2014-09-03T18:20:02.000Z</time>
      </trkpt>
      <trkpt lat="43.45584" lon="3.42463">
        <ele>73</ele>
        <time>2014-09-03T18:20:04.000Z</time>
      </trkpt>
      <trkpt lat="43.45576" lon="3.4246">
        <ele>73</ele>
        <time>2014-09-03T18:20:06.000Z</time>
      </trkpt>
      <trkpt lat="43.45567" lon="3.42456">
        <ele>74</ele>
        <time>2014-09-03T18:20:08.000Z</time>
      </trkpt>
      <trkpt lat="43.4556" lon="3.42454">
        <ele>72</ele>
        <time>2014-09-03T18:20:10.000Z</time>
      </trkpt>
      <trkpt lat="43.45553" lon="3.42451">
        <ele>73</ele>
        <time>2014-09-03T18:20:12.000Z</time>
      </trkpt>
      <trkpt lat="43.45546" lon="3.42449">
        <ele>72</ele>
        <time>2014-09-03T18:20:14.000Z</time>
      </trkpt>
      <trkpt lat="43.45538" lon="3.42446">
        <ele>73</ele>
        <time>2014-09-03T18:20:16.000Z</time>
      </trkpt>
      <trkpt lat="43.45532" lon="3.42441">
        <ele>72</ele>
        <time>2014-09-03T18:20:18.000Z</time>
      </trkpt>
      <trkpt lat="43.45527" lon="3.42435">
        <ele>73</ele>
        <time>2014-09-03T18:20:20.000Z</time>
      </trkpt>
      <trkpt lat="43.45521" lon="3.42429">
        <ele>71</ele>
        <time>2014-09-03T18:20:22.000Z</time>
      </trkpt>
      <trkpt lat="43.45515" lon="3.42423">
        <ele>70</ele>
        <time>2014-09-03T18:20:24.000Z</time>
      </trkpt>
      <trkpt lat="43.45509" lon="3.42414">
        <ele>69</ele>
        <time>2014-09-03T18:20:26.000Z</time>
      </trkpt>
      <trkpt lat="43.45504" lon="3.42406">
        <ele>71</ele>
        <time>2014-09-03T18:20:28.000Z</time>
      </trkpt>
      <trkpt lat="43.45498" lon="3.42398">
        <ele>70</ele>
        <time>2014-09-03T18:20:30.000Z</time>
      </trkpt>
      <trkpt lat="43.45493" lon="3.42391">
        <ele>71</ele>
        <time>2014-09-03T18:20:32.000Z</time>
      </trkpt>
      <trkpt lat="43.45486" lon="3.42386">
        <ele>72</ele>
        <time>2014-09-03T18:20:34.000Z</time>
      </trkpt>
      <trkpt lat="43.4548" lon="3.42378">
        <ele>69</ele>
        <time>2014-09-03T18:20:36.000Z</time>
      </trkpt>
      <trkpt lat="43.45474" lon="3.42369">
        <ele>69</ele>
        <time>2014-09-03T18:20:38.000Z</time>
      </trkpt>
      <trkpt lat="43.45469" lon="3.42359">
        <ele>70</ele>
        <time>2014-09-03T18:20:40.000Z</time>
      </trkpt>
      <trkpt lat="43.45463" lon="3.42349">
        <ele>67</ele>
        <time>2014-09-03T18:20:42.000Z</time>
      </trkpt>
      <trkpt lat="43.45456" lon="3.4234">
        <ele>68</ele>
        <time>2014-09-03T18:20:44.000Z</time>
      </trkpt>
      <trkpt lat="43.45449" lon="3.42332">
        <ele>67</ele>
        <time>2014-09-03T18:20:46.000Z</time>
      </trkpt>
      <trkpt lat="43.45443" lon="3.42323">
        <ele>69</ele>
        <time>2014-09-03T18:20:48.000Z</time>
      </trkpt>
      <trkpt lat="43.45435" lon="3.42313">
        <ele>68</ele>
        <time>2014-09-03T18:20:50.000Z</time>
      </trkpt>
      <trkpt lat="43.45431" lon="3.42301">
        <ele>69</ele>
        <time>2014-09-03T18:20:53.000Z</time>
      </trkpt>
      <trkpt lat="43.45431" lon="3.42301">
        <ele>69</ele>
        <time>2014-09-03T18:20:55.000Z</time>
      </trkpt>
      <trkpt lat="43.45436" lon="3.42293">
        <ele>70</ele>
        <time>2014-09-03T18:20:57.000Z</time>
      </trkpt>
      <trkpt lat="43.45441" lon="3.42288">
        <ele>69</ele>
        <time>2014-09-03T18:20:59.000Z</time>
      </trkpt>
      <trkpt lat="43.45446" lon="3.42283">
        <ele>68</ele>
        <time>2014-09-03T18:21:01.000Z</time>
      </trkpt>
      <trkpt lat="43.4545" lon="3.42277">
        <ele>68</ele>
        <time>2014-09-03T18:21:03.000Z</time>
      </trkpt>
      <trkpt lat="43.45457" lon="3.42268">
        <ele>70</ele>
        <time>2014-09-03T18:21:07.000Z</time>
      </trkpt>
      <trkpt lat="43.45457" lon="3.42268">
        <ele>70</ele>
        <time>2014-09-03T18:21:09.000Z</time>
      </trkpt>
      <trkpt lat="43.45461" lon="3.42252">
        <ele>67</ele>
        <time>2014-09-03T18:21:11.000Z</time>
      </trkpt>
      <trkpt lat="43.4546" lon="3.42241">
        <ele>66</ele>
        <time>2014-09-03T18:21:13.000Z</time>
      </trkpt>
      <trkpt lat="43.4546" lon="3.42232">
        <ele>66</ele>
        <time>2014-09-03T18:21:15.000Z</time>
      </trkpt>
      <trkpt lat="43.45461" lon="3.42223">
        <ele>67</ele>
        <time>2014-09-03T18:21:17.000Z</time>
      </trkpt>
      <trkpt lat="43.45462" lon="3.42213">
        <ele>67</ele>
        <time>2014-09-03T18:21:19.000Z</time>
      </trkpt>
      <trkpt lat="43.45463" lon="3.42204">
        <ele>67</ele>
        <time>2014-09-03T18:21:21.000Z</time>
      </trkpt>
      <trkpt lat="43.45462" lon="3.42195">
        <ele>68</ele>
        <time>2014-09-03T18:21:23.000Z</time>
      </trkpt>
      <trkpt lat="43.45462" lon="3.42195">
        <ele>68</ele>
        <time>2014-09-03T18:21:25.000Z</time>
      </trkpt>
      <trkpt lat="43.45455" lon="3.42181">
        <ele>68</ele>
        <time>2014-09-03T18:21:27.000Z</time>
      </trkpt>
      <trkpt lat="43.45451" lon="3.42174">
        <ele>67</ele>
        <time>2014-09-03T18:21:29.000Z</time>
      </trkpt>
      <trkpt lat="43.45446" lon="3.42166">
        <ele>68</ele>
        <time>2014-09-03T18:21:31.000Z</time>
      </trkpt>
      <trkpt lat="43.45442" lon="3.42157">
        <ele>68</ele>
        <time>2014-09-03T18:21:33.000Z</time>
      </trkpt>
      <trkpt lat="43.45438" lon="3.42149">
        <ele>70</ele>
        <time>2014-09-03T18:21:35.000Z</time>
      </trkpt>
      <trkpt lat="43.45433" lon="3.42141">
        <ele>70</ele>
        <time>2014-09-03T18:21:37.000Z</time>
      </trkpt>
      <trkpt lat="43.45427" lon="3.42133">
        <ele>70</ele>
        <time>2014-09-03T18:21:39.000Z</time>
      </trkpt>
      <trkpt lat="43.4542" lon="3.42126">
        <ele>70</ele>
        <time>2014-09-03T18:21:41.000Z</time>
      </trkpt>
      <trkpt lat="43.45415" lon="3.42119">
        <ele>72</ele>
        <time>2014-09-03T18:21:43.000Z</time>
      </trkpt>
      <trkpt lat="43.45409" lon="3.42112">
        <ele>73</ele>
        <time>2014-09-03T18:21:45.000Z</time>
      </trkpt>
      <trkpt lat="43.45404" lon="3.42105">
        <ele>72</ele>
        <time>2014-09-03T18:21:47.000Z</time>
      </trkpt>
      <trkpt lat="43.45399" lon="3.42098">
        <ele>73</ele>
        <time>2014-09-03T18:21:49.000Z</time>
      </trkpt>
      <trkpt lat="43.45395" lon="3.42092">
        <ele>73</ele>
        <time>2014-09-03T18:21:51.000Z</time>
      </trkpt>
      <trkpt lat="43.45391" lon="3.42085">
        <ele>75</ele>
        <time>2014-09-03T18:21:53.000Z</time>
      </trkpt>
      <trkpt lat="43.45387" lon="3.42079">
        <ele>75</ele>
        <time>2014-09-03T18:21:55.000Z</time>
      </trkpt>
      <trkpt lat="43.45382" lon="3.42071">
        <ele>74</ele>
        <time>2014-09-03T18:21:57.000Z</time>
      </trkpt>
      <trkpt lat="43.45376" lon="3.42061">
        <ele>73</ele>
        <time>2014-09-03T18:21:59.000Z</time>
      </trkpt>
      <trkpt lat="43.45364" lon="3.42054">
        <ele>71</ele>
        <time>2014-09-03T18:22:01.000Z</time>
      </trkpt>
      <trkpt lat="43.45355" lon="3.42047">
        <ele>72</ele>
        <time>2014-09-03T18:22:05.000Z</time>
      </trkpt>
      <trkpt lat="43.4535" lon="3.4204">
        <ele>70</ele>
        <time>2014-09-03T18:22:07.000Z</time>
      </trkpt>
      <trkpt lat="43.4535" lon="3.4204">
        <ele>70</ele>
        <time>2014-09-03T18:22:09.000Z</time>
      </trkpt>
      <trkpt lat="43.45345" lon="3.42026">
        <ele>74</ele>
        <time>2014-09-03T18:22:11.000Z</time>
      </trkpt>
      <trkpt lat="43.45338" lon="3.42022">
        <ele>74</ele>
        <time>2014-09-03T18:22:13.000Z</time>
      </trkpt>
      <trkpt lat="43.45331" lon="3.42024">
        <ele>72</ele>
        <time>2014-09-03T18:22:15.000Z</time>
      </trkpt>
      <trkpt lat="43.45325" lon="3.42031">
        <ele>70</ele>
        <time>2014-09-03T18:22:17.000Z</time>
      </trkpt>
      <trkpt lat="43.45321" lon="3.4204">
        <ele>69</ele>
        <time>2014-09-03T18:22:19.000Z</time>
      </trkpt>
      <trkpt lat="43.45318" lon="3.4205">
        <ele>72</ele>
        <time>2014-09-03T18:22:21.000Z</time>
      </trkpt>
      <trkpt lat="43.45315" lon="3.42059">
        <ele>71</ele>
        <time>2014-09-03T18:22:23.000Z</time>
      </trkpt>
      <trkpt lat="43.45314" lon="3.42067">
        <ele>71</ele>
        <time>2014-09-03T18:22:25.000Z</time>
      </trkpt>
      <trkpt lat="43.45314" lon="3.42067">
        <ele>71</ele>
        <time>2014-09-03T18:22:27.000Z</time>
      </trkpt>
      <trkpt lat="43.45314" lon="3.42067">
        <ele>71</ele>
        <time>2014-09-03T18:22:29.000Z</time>
      </trkpt>
      <trkpt lat="43.45314" lon="3.42067">
        <ele>71</ele>
        <time>2014-09-03T18:22:31.000Z</time>
      </trkpt>
      <trkpt lat="43.45314" lon="3.42067">
        <ele>71</ele>
        <time>2014-09-03T18:22:33.000Z</time>
      </trkpt>
      <trkpt lat="43.45314" lon="3.42067">
        <ele>71</ele>
        <time>2014-09-03T18:22:35.000Z</time>
      </trkpt>
      <trkpt lat="43.45314" lon="3.42067">
        <ele>71</ele>
        <time>2014-09-03T18:22:57.000Z</time>
      </trkpt>
    </trkseg>
  </trk>
</gpx>